<?xml version="1.0" encoding="UTF-8" standalone="no" ?>
<gpx xmlns="http://www.topografix.com/GPX/1/1" xmlns:xsi="http://www.w3.org/2001/XMLSchema-instance" xsi:schemaLocation="http://www.topografix.com/GPX/1/1 http://www.topografix.com/GPX/1/1/gpx.xsd" version="1.1" creator="VisuGPX - https://www.visugpx.com">
  <metadata>
    <name>SE-NE-La Filée Vertou Basse Goulaine Carquefou Nantes</name>
    <desc><![CDATA[SE-NE-La Filée Vertou Basse Goulaine Carquefou Nantes]]></desc>
  </metadata>
  <trk>
    <name><![CDATA[2022-02-27 11:32 GMT+1]]></name>
    <trkseg>
      <trkpt lat="47.16784" lon="-1.62655">
        <ele>89</ele>
        <time>2022-02-27T10:32:07Z</time>
      </trkpt>
      <trkpt lat="47.16779" lon="-1.62656">
        <ele>85</ele>
        <time>2022-02-27T10:34:08Z</time>
      </trkpt>
      <trkpt lat="47.16777" lon="-1.62654">
        <ele>74</ele>
        <time>2022-02-27T10:36:09Z</time>
      </trkpt>
      <trkpt lat="47.16785" lon="-1.62663">
        <ele>76</ele>
        <time>2022-02-27T10:37:38Z</time>
      </trkpt>
      <trkpt lat="47.16779" lon="-1.62678">
        <ele>74</ele>
        <time>2022-02-27T10:37:42Z</time>
      </trkpt>
      <trkpt lat="47.16765" lon="-1.62678">
        <ele>75</ele>
        <time>2022-02-27T10:37:45Z</time>
      </trkpt>
      <trkpt lat="47.16755" lon="-1.62673">
        <ele>76</ele>
        <time>2022-02-27T10:37:47Z</time>
      </trkpt>
      <trkpt lat="47.16746" lon="-1.62677">
        <ele>76</ele>
        <time>2022-02-27T10:37:49Z</time>
      </trkpt>
      <trkpt lat="47.16736" lon="-1.62684">
        <ele>75</ele>
        <time>2022-02-27T10:37:51Z</time>
      </trkpt>
      <trkpt lat="47.16728" lon="-1.62689">
        <ele>75</ele>
        <time>2022-02-27T10:37:53Z</time>
      </trkpt>
      <trkpt lat="47.16719" lon="-1.62694">
        <ele>75</ele>
        <time>2022-02-27T10:37:55Z</time>
      </trkpt>
      <trkpt lat="47.1671" lon="-1.62689">
        <ele>75</ele>
        <time>2022-02-27T10:37:57Z</time>
      </trkpt>
      <trkpt lat="47.16704" lon="-1.62677">
        <ele>75</ele>
        <time>2022-02-27T10:37:59Z</time>
      </trkpt>
      <trkpt lat="47.167" lon="-1.62663">
        <ele>75</ele>
        <time>2022-02-27T10:38:01Z</time>
      </trkpt>
      <trkpt lat="47.16698" lon="-1.62648">
        <ele>75</ele>
        <time>2022-02-27T10:38:03Z</time>
      </trkpt>
      <trkpt lat="47.16697" lon="-1.62633">
        <ele>75</ele>
        <time>2022-02-27T10:38:05Z</time>
      </trkpt>
      <trkpt lat="47.16696" lon="-1.62617">
        <ele>75</ele>
        <time>2022-02-27T10:38:07Z</time>
      </trkpt>
      <trkpt lat="47.16696" lon="-1.62601">
        <ele>75</ele>
        <time>2022-02-27T10:38:09Z</time>
      </trkpt>
      <trkpt lat="47.16697" lon="-1.62585">
        <ele>74</ele>
        <time>2022-02-27T10:38:11Z</time>
      </trkpt>
      <trkpt lat="47.16698" lon="-1.6257">
        <ele>74</ele>
        <time>2022-02-27T10:38:13Z</time>
      </trkpt>
      <trkpt lat="47.16699" lon="-1.62554">
        <ele>74</ele>
        <time>2022-02-27T10:38:15Z</time>
      </trkpt>
      <trkpt lat="47.16701" lon="-1.62538">
        <ele>73</ele>
        <time>2022-02-27T10:38:17Z</time>
      </trkpt>
      <trkpt lat="47.16703" lon="-1.62523">
        <ele>73</ele>
        <time>2022-02-27T10:38:19Z</time>
      </trkpt>
      <trkpt lat="47.16705" lon="-1.62508">
        <ele>72</ele>
        <time>2022-02-27T10:38:21Z</time>
      </trkpt>
      <trkpt lat="47.16708" lon="-1.62493">
        <ele>72</ele>
        <time>2022-02-27T10:38:23Z</time>
      </trkpt>
      <trkpt lat="47.16711" lon="-1.62478">
        <ele>72</ele>
        <time>2022-02-27T10:38:25Z</time>
      </trkpt>
      <trkpt lat="47.16714" lon="-1.62463">
        <ele>73</ele>
        <time>2022-02-27T10:38:27Z</time>
      </trkpt>
      <trkpt lat="47.16715" lon="-1.62445">
        <ele>73</ele>
        <time>2022-02-27T10:38:29Z</time>
      </trkpt>
      <trkpt lat="47.16719" lon="-1.62427">
        <ele>73</ele>
        <time>2022-02-27T10:38:31Z</time>
      </trkpt>
      <trkpt lat="47.16725" lon="-1.62412">
        <ele>73</ele>
        <time>2022-02-27T10:38:33Z</time>
      </trkpt>
      <trkpt lat="47.1673" lon="-1.62396">
        <ele>73</ele>
        <time>2022-02-27T10:38:35Z</time>
      </trkpt>
      <trkpt lat="47.16734" lon="-1.62381">
        <ele>74</ele>
        <time>2022-02-27T10:38:37Z</time>
      </trkpt>
      <trkpt lat="47.16741" lon="-1.62368">
        <ele>74</ele>
        <time>2022-02-27T10:38:39Z</time>
      </trkpt>
      <trkpt lat="47.1675" lon="-1.62358">
        <ele>74</ele>
        <time>2022-02-27T10:38:41Z</time>
      </trkpt>
      <trkpt lat="47.16759" lon="-1.6235">
        <ele>74</ele>
        <time>2022-02-27T10:38:43Z</time>
      </trkpt>
      <trkpt lat="47.16768" lon="-1.62343">
        <ele>74</ele>
        <time>2022-02-27T10:38:45Z</time>
      </trkpt>
      <trkpt lat="47.16777" lon="-1.62337">
        <ele>74</ele>
        <time>2022-02-27T10:38:47Z</time>
      </trkpt>
      <trkpt lat="47.16787" lon="-1.62332">
        <ele>74</ele>
        <time>2022-02-27T10:38:49Z</time>
      </trkpt>
      <trkpt lat="47.16797" lon="-1.62327">
        <ele>74</ele>
        <time>2022-02-27T10:38:51Z</time>
      </trkpt>
      <trkpt lat="47.16806" lon="-1.62321">
        <ele>73</ele>
        <time>2022-02-27T10:38:53Z</time>
      </trkpt>
      <trkpt lat="47.16816" lon="-1.62315">
        <ele>73</ele>
        <time>2022-02-27T10:38:55Z</time>
      </trkpt>
      <trkpt lat="47.16825" lon="-1.62308">
        <ele>73</ele>
        <time>2022-02-27T10:38:57Z</time>
      </trkpt>
      <trkpt lat="47.16833" lon="-1.62299">
        <ele>73</ele>
        <time>2022-02-27T10:38:59Z</time>
      </trkpt>
      <trkpt lat="47.16841" lon="-1.62289">
        <ele>73</ele>
        <time>2022-02-27T10:39:01Z</time>
      </trkpt>
      <trkpt lat="47.1685" lon="-1.62279">
        <ele>73</ele>
        <time>2022-02-27T10:39:03Z</time>
      </trkpt>
      <trkpt lat="47.16858" lon="-1.62269">
        <ele>73</ele>
        <time>2022-02-27T10:39:05Z</time>
      </trkpt>
      <trkpt lat="47.16867" lon="-1.62258">
        <ele>73</ele>
        <time>2022-02-27T10:39:07Z</time>
      </trkpt>
      <trkpt lat="47.16876" lon="-1.62248">
        <ele>72</ele>
        <time>2022-02-27T10:39:09Z</time>
      </trkpt>
      <trkpt lat="47.16884" lon="-1.62237">
        <ele>72</ele>
        <time>2022-02-27T10:39:11Z</time>
      </trkpt>
      <trkpt lat="47.16892" lon="-1.62226">
        <ele>72</ele>
        <time>2022-02-27T10:39:13Z</time>
      </trkpt>
      <trkpt lat="47.169" lon="-1.62213">
        <ele>72</ele>
        <time>2022-02-27T10:39:15Z</time>
      </trkpt>
      <trkpt lat="47.16908" lon="-1.62202">
        <ele>72</ele>
        <time>2022-02-27T10:39:17Z</time>
      </trkpt>
      <trkpt lat="47.16915" lon="-1.62191">
        <ele>72</ele>
        <time>2022-02-27T10:39:19Z</time>
      </trkpt>
      <trkpt lat="47.16922" lon="-1.62178">
        <ele>72</ele>
        <time>2022-02-27T10:39:21Z</time>
      </trkpt>
      <trkpt lat="47.16929" lon="-1.62165">
        <ele>72</ele>
        <time>2022-02-27T10:39:23Z</time>
      </trkpt>
      <trkpt lat="47.16936" lon="-1.62152">
        <ele>73</ele>
        <time>2022-02-27T10:39:25Z</time>
      </trkpt>
      <trkpt lat="47.16943" lon="-1.62138">
        <ele>73</ele>
        <time>2022-02-27T10:39:27Z</time>
      </trkpt>
      <trkpt lat="47.1695" lon="-1.62125">
        <ele>73</ele>
        <time>2022-02-27T10:39:29Z</time>
      </trkpt>
      <trkpt lat="47.16957" lon="-1.62113">
        <ele>73</ele>
        <time>2022-02-27T10:39:31Z</time>
      </trkpt>
      <trkpt lat="47.16964" lon="-1.621">
        <ele>73</ele>
        <time>2022-02-27T10:39:33Z</time>
      </trkpt>
      <trkpt lat="47.16971" lon="-1.62087">
        <ele>73</ele>
        <time>2022-02-27T10:39:35Z</time>
      </trkpt>
      <trkpt lat="47.16977" lon="-1.62074">
        <ele>73</ele>
        <time>2022-02-27T10:39:37Z</time>
      </trkpt>
      <trkpt lat="47.16984" lon="-1.62061">
        <ele>73</ele>
        <time>2022-02-27T10:39:39Z</time>
      </trkpt>
      <trkpt lat="47.16991" lon="-1.62048">
        <ele>73</ele>
        <time>2022-02-27T10:39:41Z</time>
      </trkpt>
      <trkpt lat="47.16999" lon="-1.62035">
        <ele>73</ele>
        <time>2022-02-27T10:39:43Z</time>
      </trkpt>
      <trkpt lat="47.17007" lon="-1.62023">
        <ele>73</ele>
        <time>2022-02-27T10:39:45Z</time>
      </trkpt>
      <trkpt lat="47.17014" lon="-1.62012">
        <ele>73</ele>
        <time>2022-02-27T10:39:47Z</time>
      </trkpt>
      <trkpt lat="47.17022" lon="-1.62">
        <ele>73</ele>
        <time>2022-02-27T10:39:49Z</time>
      </trkpt>
      <trkpt lat="47.1703" lon="-1.61989">
        <ele>73</ele>
        <time>2022-02-27T10:39:51Z</time>
      </trkpt>
      <trkpt lat="47.17038" lon="-1.61977">
        <ele>73</ele>
        <time>2022-02-27T10:39:53Z</time>
      </trkpt>
      <trkpt lat="47.17047" lon="-1.61965">
        <ele>73</ele>
        <time>2022-02-27T10:39:55Z</time>
      </trkpt>
      <trkpt lat="47.17056" lon="-1.61953">
        <ele>73</ele>
        <time>2022-02-27T10:39:57Z</time>
      </trkpt>
      <trkpt lat="47.17065" lon="-1.61941">
        <ele>73</ele>
        <time>2022-02-27T10:39:59Z</time>
      </trkpt>
      <trkpt lat="47.17074" lon="-1.6193">
        <ele>73</ele>
        <time>2022-02-27T10:40:01Z</time>
      </trkpt>
      <trkpt lat="47.17083" lon="-1.61919">
        <ele>72</ele>
        <time>2022-02-27T10:40:03Z</time>
      </trkpt>
      <trkpt lat="47.17094" lon="-1.61908">
        <ele>72</ele>
        <time>2022-02-27T10:40:05Z</time>
      </trkpt>
      <trkpt lat="47.17105" lon="-1.61898">
        <ele>72</ele>
        <time>2022-02-27T10:40:07Z</time>
      </trkpt>
      <trkpt lat="47.17115" lon="-1.61888">
        <ele>72</ele>
        <time>2022-02-27T10:40:09Z</time>
      </trkpt>
      <trkpt lat="47.17126" lon="-1.61878">
        <ele>71</ele>
        <time>2022-02-27T10:40:11Z</time>
      </trkpt>
      <trkpt lat="47.17137" lon="-1.61868">
        <ele>71</ele>
        <time>2022-02-27T10:40:13Z</time>
      </trkpt>
      <trkpt lat="47.17147" lon="-1.61857">
        <ele>71</ele>
        <time>2022-02-27T10:40:15Z</time>
      </trkpt>
      <trkpt lat="47.17158" lon="-1.61847">
        <ele>71</ele>
        <time>2022-02-27T10:40:17Z</time>
      </trkpt>
      <trkpt lat="47.17168" lon="-1.61837">
        <ele>71</ele>
        <time>2022-02-27T10:40:19Z</time>
      </trkpt>
      <trkpt lat="47.17178" lon="-1.61827">
        <ele>71</ele>
        <time>2022-02-27T10:40:21Z</time>
      </trkpt>
      <trkpt lat="47.17189" lon="-1.61818">
        <ele>71</ele>
        <time>2022-02-27T10:40:23Z</time>
      </trkpt>
      <trkpt lat="47.17199" lon="-1.61808">
        <ele>71</ele>
        <time>2022-02-27T10:40:25Z</time>
      </trkpt>
      <trkpt lat="47.17209" lon="-1.61796">
        <ele>71</ele>
        <time>2022-02-27T10:40:27Z</time>
      </trkpt>
      <trkpt lat="47.17218" lon="-1.61785">
        <ele>71</ele>
        <time>2022-02-27T10:40:29Z</time>
      </trkpt>
      <trkpt lat="47.17223" lon="-1.61768">
        <ele>71</ele>
        <time>2022-02-27T10:40:31Z</time>
      </trkpt>
      <trkpt lat="47.17216" lon="-1.61753">
        <ele>72</ele>
        <time>2022-02-27T10:40:33Z</time>
      </trkpt>
      <trkpt lat="47.17208" lon="-1.6174">
        <ele>72</ele>
        <time>2022-02-27T10:40:35Z</time>
      </trkpt>
      <trkpt lat="47.17199" lon="-1.61726">
        <ele>72</ele>
        <time>2022-02-27T10:40:37Z</time>
      </trkpt>
      <trkpt lat="47.17189" lon="-1.61713">
        <ele>72</ele>
        <time>2022-02-27T10:40:39Z</time>
      </trkpt>
      <trkpt lat="47.17178" lon="-1.61699">
        <ele>72</ele>
        <time>2022-02-27T10:40:41Z</time>
      </trkpt>
      <trkpt lat="47.17165" lon="-1.61686">
        <ele>71</ele>
        <time>2022-02-27T10:40:43Z</time>
      </trkpt>
      <trkpt lat="47.17151" lon="-1.61676">
        <ele>70</ele>
        <time>2022-02-27T10:40:45Z</time>
      </trkpt>
      <trkpt lat="47.17136" lon="-1.61666">
        <ele>69</ele>
        <time>2022-02-27T10:40:47Z</time>
      </trkpt>
      <trkpt lat="47.1712" lon="-1.61658">
        <ele>69</ele>
        <time>2022-02-27T10:40:49Z</time>
      </trkpt>
      <trkpt lat="47.17106" lon="-1.61652">
        <ele>70</ele>
        <time>2022-02-27T10:40:51Z</time>
      </trkpt>
      <trkpt lat="47.17094" lon="-1.61644">
        <ele>71</ele>
        <time>2022-02-27T10:40:53Z</time>
      </trkpt>
      <trkpt lat="47.17083" lon="-1.61634">
        <ele>71</ele>
        <time>2022-02-27T10:40:55Z</time>
      </trkpt>
      <trkpt lat="47.17058" lon="-1.61627">
        <ele>73</ele>
        <time>2022-02-27T10:40:58Z</time>
      </trkpt>
      <trkpt lat="47.17048" lon="-1.61621">
        <ele>74</ele>
        <time>2022-02-27T10:41:00Z</time>
      </trkpt>
      <trkpt lat="47.17036" lon="-1.61613">
        <ele>75</ele>
        <time>2022-02-27T10:41:02Z</time>
      </trkpt>
      <trkpt lat="47.17027" lon="-1.61601">
        <ele>77</ele>
        <time>2022-02-27T10:41:04Z</time>
      </trkpt>
      <trkpt lat="47.17021" lon="-1.61583">
        <ele>76</ele>
        <time>2022-02-27T10:41:06Z</time>
      </trkpt>
      <trkpt lat="47.17017" lon="-1.61564">
        <ele>74</ele>
        <time>2022-02-27T10:41:08Z</time>
      </trkpt>
      <trkpt lat="47.17012" lon="-1.61546">
        <ele>73</ele>
        <time>2022-02-27T10:41:10Z</time>
      </trkpt>
      <trkpt lat="47.17007" lon="-1.61528">
        <ele>73</ele>
        <time>2022-02-27T10:41:12Z</time>
      </trkpt>
      <trkpt lat="47.17001" lon="-1.61509">
        <ele>72</ele>
        <time>2022-02-27T10:41:14Z</time>
      </trkpt>
      <trkpt lat="47.16996" lon="-1.61491">
        <ele>72</ele>
        <time>2022-02-27T10:41:16Z</time>
      </trkpt>
      <trkpt lat="47.1699" lon="-1.61474">
        <ele>73</ele>
        <time>2022-02-27T10:41:18Z</time>
      </trkpt>
      <trkpt lat="47.16984" lon="-1.61457">
        <ele>73</ele>
        <time>2022-02-27T10:41:20Z</time>
      </trkpt>
      <trkpt lat="47.16978" lon="-1.61441">
        <ele>74</ele>
        <time>2022-02-27T10:41:22Z</time>
      </trkpt>
      <trkpt lat="47.16972" lon="-1.61427">
        <ele>76</ele>
        <time>2022-02-27T10:41:24Z</time>
      </trkpt>
      <trkpt lat="47.16966" lon="-1.61412">
        <ele>76</ele>
        <time>2022-02-27T10:41:26Z</time>
      </trkpt>
      <trkpt lat="47.1696" lon="-1.61399">
        <ele>78</ele>
        <time>2022-02-27T10:41:28Z</time>
      </trkpt>
      <trkpt lat="47.16954" lon="-1.61387">
        <ele>78</ele>
        <time>2022-02-27T10:41:30Z</time>
      </trkpt>
      <trkpt lat="47.16947" lon="-1.61373">
        <ele>78</ele>
        <time>2022-02-27T10:41:32Z</time>
      </trkpt>
      <trkpt lat="47.1694" lon="-1.61357">
        <ele>77</ele>
        <time>2022-02-27T10:41:34Z</time>
      </trkpt>
      <trkpt lat="47.16934" lon="-1.61341">
        <ele>76</ele>
        <time>2022-02-27T10:41:36Z</time>
      </trkpt>
      <trkpt lat="47.16927" lon="-1.61325">
        <ele>76</ele>
        <time>2022-02-27T10:41:38Z</time>
      </trkpt>
      <trkpt lat="47.16918" lon="-1.61309">
        <ele>76</ele>
        <time>2022-02-27T10:41:40Z</time>
      </trkpt>
      <trkpt lat="47.16909" lon="-1.61292">
        <ele>75</ele>
        <time>2022-02-27T10:41:42Z</time>
      </trkpt>
      <trkpt lat="47.16897" lon="-1.61279">
        <ele>74</ele>
        <time>2022-02-27T10:41:44Z</time>
      </trkpt>
      <trkpt lat="47.16883" lon="-1.61268">
        <ele>73</ele>
        <time>2022-02-27T10:41:46Z</time>
      </trkpt>
      <trkpt lat="47.16868" lon="-1.61264">
        <ele>73</ele>
        <time>2022-02-27T10:41:48Z</time>
      </trkpt>
      <trkpt lat="47.16851" lon="-1.61266">
        <ele>72</ele>
        <time>2022-02-27T10:41:50Z</time>
      </trkpt>
      <trkpt lat="47.16833" lon="-1.61263">
        <ele>71</ele>
        <time>2022-02-27T10:41:52Z</time>
      </trkpt>
      <trkpt lat="47.16816" lon="-1.61258">
        <ele>71</ele>
        <time>2022-02-27T10:41:54Z</time>
      </trkpt>
      <trkpt lat="47.16801" lon="-1.61249">
        <ele>71</ele>
        <time>2022-02-27T10:41:56Z</time>
      </trkpt>
      <trkpt lat="47.16785" lon="-1.6124">
        <ele>73</ele>
        <time>2022-02-27T10:41:58Z</time>
      </trkpt>
      <trkpt lat="47.16771" lon="-1.61232">
        <ele>74</ele>
        <time>2022-02-27T10:42:00Z</time>
      </trkpt>
      <trkpt lat="47.16759" lon="-1.61224">
        <ele>77</ele>
        <time>2022-02-27T10:42:02Z</time>
      </trkpt>
      <trkpt lat="47.16748" lon="-1.61217">
        <ele>78</ele>
        <time>2022-02-27T10:42:04Z</time>
      </trkpt>
      <trkpt lat="47.16738" lon="-1.61211">
        <ele>79</ele>
        <time>2022-02-27T10:42:06Z</time>
      </trkpt>
      <trkpt lat="47.16728" lon="-1.61206">
        <ele>80</ele>
        <time>2022-02-27T10:42:08Z</time>
      </trkpt>
      <trkpt lat="47.16719" lon="-1.61201">
        <ele>83</ele>
        <time>2022-02-27T10:42:10Z</time>
      </trkpt>
      <trkpt lat="47.16711" lon="-1.61194">
        <ele>83</ele>
        <time>2022-02-27T10:42:12Z</time>
      </trkpt>
      <trkpt lat="47.16699" lon="-1.61185">
        <ele>84</ele>
        <time>2022-02-27T10:42:15Z</time>
      </trkpt>
      <trkpt lat="47.1669" lon="-1.61179">
        <ele>84</ele>
        <time>2022-02-27T10:42:17Z</time>
      </trkpt>
      <trkpt lat="47.16678" lon="-1.6117">
        <ele>85</ele>
        <time>2022-02-27T10:42:20Z</time>
      </trkpt>
      <trkpt lat="47.1667" lon="-1.6116">
        <ele>86</ele>
        <time>2022-02-27T10:42:22Z</time>
      </trkpt>
      <trkpt lat="47.16663" lon="-1.6115">
        <ele>88</ele>
        <time>2022-02-27T10:42:24Z</time>
      </trkpt>
      <trkpt lat="47.16659" lon="-1.61138">
        <ele>89</ele>
        <time>2022-02-27T10:42:26Z</time>
      </trkpt>
      <trkpt lat="47.16655" lon="-1.61123">
        <ele>89</ele>
        <time>2022-02-27T10:42:28Z</time>
      </trkpt>
      <trkpt lat="47.16651" lon="-1.61108">
        <ele>89</ele>
        <time>2022-02-27T10:42:30Z</time>
      </trkpt>
      <trkpt lat="47.16649" lon="-1.61095">
        <ele>88</ele>
        <time>2022-02-27T10:42:32Z</time>
      </trkpt>
      <trkpt lat="47.16647" lon="-1.61079">
        <ele>86</ele>
        <time>2022-02-27T10:42:34Z</time>
      </trkpt>
      <trkpt lat="47.16645" lon="-1.61064">
        <ele>84</ele>
        <time>2022-02-27T10:42:36Z</time>
      </trkpt>
      <trkpt lat="47.16643" lon="-1.6105">
        <ele>84</ele>
        <time>2022-02-27T10:42:38Z</time>
      </trkpt>
      <trkpt lat="47.1664" lon="-1.61037">
        <ele>83</ele>
        <time>2022-02-27T10:42:40Z</time>
      </trkpt>
      <trkpt lat="47.16637" lon="-1.61024">
        <ele>82</ele>
        <time>2022-02-27T10:42:42Z</time>
      </trkpt>
      <trkpt lat="47.16632" lon="-1.61005">
        <ele>83</ele>
        <time>2022-02-27T10:42:45Z</time>
      </trkpt>
      <trkpt lat="47.16628" lon="-1.60994">
        <ele>83</ele>
        <time>2022-02-27T10:42:47Z</time>
      </trkpt>
      <trkpt lat="47.16623" lon="-1.60981">
        <ele>83</ele>
        <time>2022-02-27T10:42:49Z</time>
      </trkpt>
      <trkpt lat="47.16618" lon="-1.60968">
        <ele>82</ele>
        <time>2022-02-27T10:42:51Z</time>
      </trkpt>
      <trkpt lat="47.16612" lon="-1.60955">
        <ele>82</ele>
        <time>2022-02-27T10:42:53Z</time>
      </trkpt>
      <trkpt lat="47.16606" lon="-1.60942">
        <ele>82</ele>
        <time>2022-02-27T10:42:55Z</time>
      </trkpt>
      <trkpt lat="47.166" lon="-1.60929">
        <ele>81</ele>
        <time>2022-02-27T10:42:57Z</time>
      </trkpt>
      <trkpt lat="47.16594" lon="-1.60915">
        <ele>80</ele>
        <time>2022-02-27T10:42:59Z</time>
      </trkpt>
      <trkpt lat="47.16588" lon="-1.60902">
        <ele>81</ele>
        <time>2022-02-27T10:43:01Z</time>
      </trkpt>
      <trkpt lat="47.16582" lon="-1.60889">
        <ele>81</ele>
        <time>2022-02-27T10:43:03Z</time>
      </trkpt>
      <trkpt lat="47.16577" lon="-1.60876">
        <ele>80</ele>
        <time>2022-02-27T10:43:05Z</time>
      </trkpt>
      <trkpt lat="47.16571" lon="-1.60863">
        <ele>80</ele>
        <time>2022-02-27T10:43:07Z</time>
      </trkpt>
      <trkpt lat="47.16565" lon="-1.60849">
        <ele>80</ele>
        <time>2022-02-27T10:43:09Z</time>
      </trkpt>
      <trkpt lat="47.16558" lon="-1.60836">
        <ele>79</ele>
        <time>2022-02-27T10:43:11Z</time>
      </trkpt>
      <trkpt lat="47.16551" lon="-1.60823">
        <ele>79</ele>
        <time>2022-02-27T10:43:13Z</time>
      </trkpt>
      <trkpt lat="47.16543" lon="-1.60811">
        <ele>79</ele>
        <time>2022-02-27T10:43:15Z</time>
      </trkpt>
      <trkpt lat="47.16536" lon="-1.608">
        <ele>80</ele>
        <time>2022-02-27T10:43:17Z</time>
      </trkpt>
      <trkpt lat="47.16528" lon="-1.60789">
        <ele>80</ele>
        <time>2022-02-27T10:43:19Z</time>
      </trkpt>
      <trkpt lat="47.16523" lon="-1.60777">
        <ele>81</ele>
        <time>2022-02-27T10:43:21Z</time>
      </trkpt>
      <trkpt lat="47.1652" lon="-1.60761">
        <ele>81</ele>
        <time>2022-02-27T10:43:23Z</time>
      </trkpt>
      <trkpt lat="47.16522" lon="-1.60745">
        <ele>80</ele>
        <time>2022-02-27T10:43:25Z</time>
      </trkpt>
      <trkpt lat="47.16525" lon="-1.60729">
        <ele>80</ele>
        <time>2022-02-27T10:43:27Z</time>
      </trkpt>
      <trkpt lat="47.16528" lon="-1.60714">
        <ele>80</ele>
        <time>2022-02-27T10:43:29Z</time>
      </trkpt>
      <trkpt lat="47.16531" lon="-1.60699">
        <ele>80</ele>
        <time>2022-02-27T10:43:31Z</time>
      </trkpt>
      <trkpt lat="47.16534" lon="-1.60683">
        <ele>80</ele>
        <time>2022-02-27T10:43:33Z</time>
      </trkpt>
      <trkpt lat="47.16539" lon="-1.60669">
        <ele>80</ele>
        <time>2022-02-27T10:43:35Z</time>
      </trkpt>
      <trkpt lat="47.16542" lon="-1.60653">
        <ele>80</ele>
        <time>2022-02-27T10:43:37Z</time>
      </trkpt>
      <trkpt lat="47.16545" lon="-1.60638">
        <ele>80</ele>
        <time>2022-02-27T10:43:39Z</time>
      </trkpt>
      <trkpt lat="47.16548" lon="-1.60622">
        <ele>80</ele>
        <time>2022-02-27T10:43:41Z</time>
      </trkpt>
      <trkpt lat="47.16551" lon="-1.60607">
        <ele>80</ele>
        <time>2022-02-27T10:43:43Z</time>
      </trkpt>
      <trkpt lat="47.16553" lon="-1.60591">
        <ele>79</ele>
        <time>2022-02-27T10:43:45Z</time>
      </trkpt>
      <trkpt lat="47.16556" lon="-1.60577">
        <ele>79</ele>
        <time>2022-02-27T10:43:47Z</time>
      </trkpt>
      <trkpt lat="47.16558" lon="-1.60561">
        <ele>79</ele>
        <time>2022-02-27T10:43:50Z</time>
      </trkpt>
      <trkpt lat="47.16561" lon="-1.60548">
        <ele>79</ele>
        <time>2022-02-27T10:43:52Z</time>
      </trkpt>
      <trkpt lat="47.1657" lon="-1.60537">
        <ele>79</ele>
        <time>2022-02-27T10:43:54Z</time>
      </trkpt>
      <trkpt lat="47.16582" lon="-1.6053">
        <ele>79</ele>
        <time>2022-02-27T10:43:56Z</time>
      </trkpt>
      <trkpt lat="47.16595" lon="-1.60525">
        <ele>79</ele>
        <time>2022-02-27T10:43:58Z</time>
      </trkpt>
      <trkpt lat="47.16608" lon="-1.60521">
        <ele>78</ele>
        <time>2022-02-27T10:44:00Z</time>
      </trkpt>
      <trkpt lat="47.1662" lon="-1.60515">
        <ele>78</ele>
        <time>2022-02-27T10:44:02Z</time>
      </trkpt>
      <trkpt lat="47.16633" lon="-1.60508">
        <ele>79</ele>
        <time>2022-02-27T10:44:04Z</time>
      </trkpt>
      <trkpt lat="47.16646" lon="-1.60501">
        <ele>79</ele>
        <time>2022-02-27T10:44:06Z</time>
      </trkpt>
      <trkpt lat="47.16659" lon="-1.60493">
        <ele>78</ele>
        <time>2022-02-27T10:44:08Z</time>
      </trkpt>
      <trkpt lat="47.16672" lon="-1.60484">
        <ele>78</ele>
        <time>2022-02-27T10:44:10Z</time>
      </trkpt>
      <trkpt lat="47.16684" lon="-1.60476">
        <ele>78</ele>
        <time>2022-02-27T10:44:12Z</time>
      </trkpt>
      <trkpt lat="47.16696" lon="-1.60467">
        <ele>78</ele>
        <time>2022-02-27T10:44:14Z</time>
      </trkpt>
      <trkpt lat="47.16708" lon="-1.60456">
        <ele>78</ele>
        <time>2022-02-27T10:44:16Z</time>
      </trkpt>
      <trkpt lat="47.1672" lon="-1.60446">
        <ele>77</ele>
        <time>2022-02-27T10:44:18Z</time>
      </trkpt>
      <trkpt lat="47.16733" lon="-1.60438">
        <ele>76</ele>
        <time>2022-02-27T10:44:20Z</time>
      </trkpt>
      <trkpt lat="47.16746" lon="-1.60429">
        <ele>76</ele>
        <time>2022-02-27T10:44:22Z</time>
      </trkpt>
      <trkpt lat="47.16759" lon="-1.6042">
        <ele>76</ele>
        <time>2022-02-27T10:44:24Z</time>
      </trkpt>
      <trkpt lat="47.16771" lon="-1.60413">
        <ele>77</ele>
        <time>2022-02-27T10:44:26Z</time>
      </trkpt>
      <trkpt lat="47.16783" lon="-1.60405">
        <ele>77</ele>
        <time>2022-02-27T10:44:28Z</time>
      </trkpt>
      <trkpt lat="47.16796" lon="-1.60398">
        <ele>77</ele>
        <time>2022-02-27T10:44:30Z</time>
      </trkpt>
      <trkpt lat="47.16809" lon="-1.60393">
        <ele>76</ele>
        <time>2022-02-27T10:44:32Z</time>
      </trkpt>
      <trkpt lat="47.16822" lon="-1.60387">
        <ele>76</ele>
        <time>2022-02-27T10:44:34Z</time>
      </trkpt>
      <trkpt lat="47.16835" lon="-1.6038">
        <ele>77</ele>
        <time>2022-02-27T10:44:36Z</time>
      </trkpt>
      <trkpt lat="47.16848" lon="-1.60376">
        <ele>76</ele>
        <time>2022-02-27T10:44:38Z</time>
      </trkpt>
      <trkpt lat="47.16861" lon="-1.60371">
        <ele>76</ele>
        <time>2022-02-27T10:44:40Z</time>
      </trkpt>
      <trkpt lat="47.16874" lon="-1.60366">
        <ele>76</ele>
        <time>2022-02-27T10:44:42Z</time>
      </trkpt>
      <trkpt lat="47.16886" lon="-1.60361">
        <ele>76</ele>
        <time>2022-02-27T10:44:44Z</time>
      </trkpt>
      <trkpt lat="47.16898" lon="-1.60356">
        <ele>76</ele>
        <time>2022-02-27T10:44:46Z</time>
      </trkpt>
      <trkpt lat="47.1691" lon="-1.6035">
        <ele>76</ele>
        <time>2022-02-27T10:44:48Z</time>
      </trkpt>
      <trkpt lat="47.16922" lon="-1.60345">
        <ele>76</ele>
        <time>2022-02-27T10:44:50Z</time>
      </trkpt>
      <trkpt lat="47.16931" lon="-1.60334">
        <ele>76</ele>
        <time>2022-02-27T10:44:52Z</time>
      </trkpt>
      <trkpt lat="47.16937" lon="-1.60321">
        <ele>77</ele>
        <time>2022-02-27T10:44:54Z</time>
      </trkpt>
      <trkpt lat="47.16926" lon="-1.60308">
        <ele>79</ele>
        <time>2022-02-27T10:44:57Z</time>
      </trkpt>
      <trkpt lat="47.16913" lon="-1.60305">
        <ele>80</ele>
        <time>2022-02-27T10:44:59Z</time>
      </trkpt>
      <trkpt lat="47.16901" lon="-1.60302">
        <ele>81</ele>
        <time>2022-02-27T10:45:01Z</time>
      </trkpt>
      <trkpt lat="47.16887" lon="-1.60299">
        <ele>81</ele>
        <time>2022-02-27T10:45:03Z</time>
      </trkpt>
      <trkpt lat="47.16873" lon="-1.60297">
        <ele>81</ele>
        <time>2022-02-27T10:45:05Z</time>
      </trkpt>
      <trkpt lat="47.16859" lon="-1.60294">
        <ele>81</ele>
        <time>2022-02-27T10:45:07Z</time>
      </trkpt>
      <trkpt lat="47.16845" lon="-1.6029">
        <ele>81</ele>
        <time>2022-02-27T10:45:09Z</time>
      </trkpt>
      <trkpt lat="47.16831" lon="-1.60288">
        <ele>80</ele>
        <time>2022-02-27T10:45:11Z</time>
      </trkpt>
      <trkpt lat="47.16818" lon="-1.60282">
        <ele>80</ele>
        <time>2022-02-27T10:45:13Z</time>
      </trkpt>
      <trkpt lat="47.16806" lon="-1.60269">
        <ele>80</ele>
        <time>2022-02-27T10:45:15Z</time>
      </trkpt>
      <trkpt lat="47.16796" lon="-1.60253">
        <ele>79</ele>
        <time>2022-02-27T10:45:17Z</time>
      </trkpt>
      <trkpt lat="47.16786" lon="-1.60237">
        <ele>79</ele>
        <time>2022-02-27T10:45:19Z</time>
      </trkpt>
      <trkpt lat="47.16776" lon="-1.60221">
        <ele>79</ele>
        <time>2022-02-27T10:45:21Z</time>
      </trkpt>
      <trkpt lat="47.16767" lon="-1.60206">
        <ele>79</ele>
        <time>2022-02-27T10:45:23Z</time>
      </trkpt>
      <trkpt lat="47.16758" lon="-1.60191">
        <ele>79</ele>
        <time>2022-02-27T10:45:25Z</time>
      </trkpt>
      <trkpt lat="47.16749" lon="-1.60175">
        <ele>79</ele>
        <time>2022-02-27T10:45:27Z</time>
      </trkpt>
      <trkpt lat="47.1674" lon="-1.6016">
        <ele>79</ele>
        <time>2022-02-27T10:45:29Z</time>
      </trkpt>
      <trkpt lat="47.16731" lon="-1.60145">
        <ele>79</ele>
        <time>2022-02-27T10:45:31Z</time>
      </trkpt>
      <trkpt lat="47.16722" lon="-1.60131">
        <ele>80</ele>
        <time>2022-02-27T10:45:33Z</time>
      </trkpt>
      <trkpt lat="47.16713" lon="-1.60116">
        <ele>80</ele>
        <time>2022-02-27T10:45:35Z</time>
      </trkpt>
      <trkpt lat="47.16704" lon="-1.60102">
        <ele>80</ele>
        <time>2022-02-27T10:45:37Z</time>
      </trkpt>
      <trkpt lat="47.16696" lon="-1.60088">
        <ele>80</ele>
        <time>2022-02-27T10:45:39Z</time>
      </trkpt>
      <trkpt lat="47.16688" lon="-1.60076">
        <ele>81</ele>
        <time>2022-02-27T10:45:41Z</time>
      </trkpt>
      <trkpt lat="47.1668" lon="-1.60063">
        <ele>81</ele>
        <time>2022-02-27T10:45:43Z</time>
      </trkpt>
      <trkpt lat="47.16672" lon="-1.60049">
        <ele>81</ele>
        <time>2022-02-27T10:45:45Z</time>
      </trkpt>
      <trkpt lat="47.16664" lon="-1.60037">
        <ele>81</ele>
        <time>2022-02-27T10:45:47Z</time>
      </trkpt>
      <trkpt lat="47.16656" lon="-1.60024">
        <ele>81</ele>
        <time>2022-02-27T10:45:49Z</time>
      </trkpt>
      <trkpt lat="47.16648" lon="-1.60011">
        <ele>81</ele>
        <time>2022-02-27T10:45:51Z</time>
      </trkpt>
      <trkpt lat="47.1664" lon="-1.59998">
        <ele>81</ele>
        <time>2022-02-27T10:45:53Z</time>
      </trkpt>
      <trkpt lat="47.16632" lon="-1.59985">
        <ele>81</ele>
        <time>2022-02-27T10:45:55Z</time>
      </trkpt>
      <trkpt lat="47.16624" lon="-1.59971">
        <ele>81</ele>
        <time>2022-02-27T10:45:57Z</time>
      </trkpt>
      <trkpt lat="47.16616" lon="-1.59958">
        <ele>81</ele>
        <time>2022-02-27T10:45:59Z</time>
      </trkpt>
      <trkpt lat="47.16608" lon="-1.59945">
        <ele>80</ele>
        <time>2022-02-27T10:46:01Z</time>
      </trkpt>
      <trkpt lat="47.166" lon="-1.59932">
        <ele>80</ele>
        <time>2022-02-27T10:46:03Z</time>
      </trkpt>
      <trkpt lat="47.1659" lon="-1.5992">
        <ele>79</ele>
        <time>2022-02-27T10:46:05Z</time>
      </trkpt>
      <trkpt lat="47.1658" lon="-1.59908">
        <ele>79</ele>
        <time>2022-02-27T10:46:07Z</time>
      </trkpt>
      <trkpt lat="47.16569" lon="-1.59897">
        <ele>78</ele>
        <time>2022-02-27T10:46:09Z</time>
      </trkpt>
      <trkpt lat="47.16558" lon="-1.59886">
        <ele>78</ele>
        <time>2022-02-27T10:46:11Z</time>
      </trkpt>
      <trkpt lat="47.16546" lon="-1.59876">
        <ele>78</ele>
        <time>2022-02-27T10:46:13Z</time>
      </trkpt>
      <trkpt lat="47.16534" lon="-1.59866">
        <ele>78</ele>
        <time>2022-02-27T10:46:15Z</time>
      </trkpt>
      <trkpt lat="47.16523" lon="-1.59856">
        <ele>78</ele>
        <time>2022-02-27T10:46:17Z</time>
      </trkpt>
      <trkpt lat="47.16511" lon="-1.59846">
        <ele>78</ele>
        <time>2022-02-27T10:46:19Z</time>
      </trkpt>
      <trkpt lat="47.165" lon="-1.59837">
        <ele>78</ele>
        <time>2022-02-27T10:46:21Z</time>
      </trkpt>
      <trkpt lat="47.16489" lon="-1.59828">
        <ele>78</ele>
        <time>2022-02-27T10:46:23Z</time>
      </trkpt>
      <trkpt lat="47.16477" lon="-1.59819">
        <ele>78</ele>
        <time>2022-02-27T10:46:25Z</time>
      </trkpt>
      <trkpt lat="47.16466" lon="-1.59809">
        <ele>79</ele>
        <time>2022-02-27T10:46:27Z</time>
      </trkpt>
      <trkpt lat="47.16454" lon="-1.598">
        <ele>79</ele>
        <time>2022-02-27T10:46:29Z</time>
      </trkpt>
      <trkpt lat="47.16443" lon="-1.59791">
        <ele>79</ele>
        <time>2022-02-27T10:46:31Z</time>
      </trkpt>
      <trkpt lat="47.16433" lon="-1.59781">
        <ele>79</ele>
        <time>2022-02-27T10:46:33Z</time>
      </trkpt>
      <trkpt lat="47.16422" lon="-1.59772">
        <ele>79</ele>
        <time>2022-02-27T10:46:35Z</time>
      </trkpt>
      <trkpt lat="47.16411" lon="-1.59762">
        <ele>80</ele>
        <time>2022-02-27T10:46:37Z</time>
      </trkpt>
      <trkpt lat="47.16401" lon="-1.59753">
        <ele>80</ele>
        <time>2022-02-27T10:46:39Z</time>
      </trkpt>
      <trkpt lat="47.16391" lon="-1.59744">
        <ele>80</ele>
        <time>2022-02-27T10:46:41Z</time>
      </trkpt>
      <trkpt lat="47.1638" lon="-1.59733">
        <ele>81</ele>
        <time>2022-02-27T10:46:43Z</time>
      </trkpt>
      <trkpt lat="47.1637" lon="-1.59721">
        <ele>81</ele>
        <time>2022-02-27T10:46:45Z</time>
      </trkpt>
      <trkpt lat="47.1636" lon="-1.59709">
        <ele>81</ele>
        <time>2022-02-27T10:46:47Z</time>
      </trkpt>
      <trkpt lat="47.16351" lon="-1.59697">
        <ele>81</ele>
        <time>2022-02-27T10:46:49Z</time>
      </trkpt>
      <trkpt lat="47.16343" lon="-1.59684">
        <ele>81</ele>
        <time>2022-02-27T10:46:51Z</time>
      </trkpt>
      <trkpt lat="47.16335" lon="-1.59671">
        <ele>81</ele>
        <time>2022-02-27T10:46:53Z</time>
      </trkpt>
      <trkpt lat="47.16327" lon="-1.59658">
        <ele>80</ele>
        <time>2022-02-27T10:46:55Z</time>
      </trkpt>
      <trkpt lat="47.1632" lon="-1.59647">
        <ele>80</ele>
        <time>2022-02-27T10:46:57Z</time>
      </trkpt>
      <trkpt lat="47.16313" lon="-1.59637">
        <ele>80</ele>
        <time>2022-02-27T10:46:59Z</time>
      </trkpt>
      <trkpt lat="47.16303" lon="-1.59626">
        <ele>80</ele>
        <time>2022-02-27T10:47:02Z</time>
      </trkpt>
      <trkpt lat="47.1629" lon="-1.59627">
        <ele>79</ele>
        <time>2022-02-27T10:47:05Z</time>
      </trkpt>
      <trkpt lat="47.16282" lon="-1.59634">
        <ele>79</ele>
        <time>2022-02-27T10:47:07Z</time>
      </trkpt>
      <trkpt lat="47.1627" lon="-1.59639">
        <ele>79</ele>
        <time>2022-02-27T10:47:09Z</time>
      </trkpt>
      <trkpt lat="47.16257" lon="-1.59645">
        <ele>78</ele>
        <time>2022-02-27T10:47:11Z</time>
      </trkpt>
      <trkpt lat="47.16245" lon="-1.59651">
        <ele>78</ele>
        <time>2022-02-27T10:47:13Z</time>
      </trkpt>
      <trkpt lat="47.16234" lon="-1.59657">
        <ele>78</ele>
        <time>2022-02-27T10:47:15Z</time>
      </trkpt>
      <trkpt lat="47.16222" lon="-1.59663">
        <ele>78</ele>
        <time>2022-02-27T10:47:17Z</time>
      </trkpt>
      <trkpt lat="47.1621" lon="-1.59669">
        <ele>78</ele>
        <time>2022-02-27T10:47:19Z</time>
      </trkpt>
      <trkpt lat="47.16198" lon="-1.59676">
        <ele>78</ele>
        <time>2022-02-27T10:47:21Z</time>
      </trkpt>
      <trkpt lat="47.16187" lon="-1.59682">
        <ele>78</ele>
        <time>2022-02-27T10:47:23Z</time>
      </trkpt>
      <trkpt lat="47.16175" lon="-1.59689">
        <ele>78</ele>
        <time>2022-02-27T10:47:25Z</time>
      </trkpt>
      <trkpt lat="47.16164" lon="-1.59695">
        <ele>79</ele>
        <time>2022-02-27T10:47:27Z</time>
      </trkpt>
      <trkpt lat="47.16152" lon="-1.59701">
        <ele>79</ele>
        <time>2022-02-27T10:47:29Z</time>
      </trkpt>
      <trkpt lat="47.16141" lon="-1.59707">
        <ele>79</ele>
        <time>2022-02-27T10:47:31Z</time>
      </trkpt>
      <trkpt lat="47.1613" lon="-1.59713">
        <ele>79</ele>
        <time>2022-02-27T10:47:33Z</time>
      </trkpt>
      <trkpt lat="47.16119" lon="-1.5972">
        <ele>79</ele>
        <time>2022-02-27T10:47:35Z</time>
      </trkpt>
      <trkpt lat="47.16107" lon="-1.59727">
        <ele>79</ele>
        <time>2022-02-27T10:47:37Z</time>
      </trkpt>
      <trkpt lat="47.16096" lon="-1.59734">
        <ele>80</ele>
        <time>2022-02-27T10:47:39Z</time>
      </trkpt>
      <trkpt lat="47.16085" lon="-1.59741">
        <ele>80</ele>
        <time>2022-02-27T10:47:41Z</time>
      </trkpt>
      <trkpt lat="47.16074" lon="-1.59748">
        <ele>80</ele>
        <time>2022-02-27T10:47:43Z</time>
      </trkpt>
      <trkpt lat="47.16063" lon="-1.59756">
        <ele>80</ele>
        <time>2022-02-27T10:47:45Z</time>
      </trkpt>
      <trkpt lat="47.16051" lon="-1.59763">
        <ele>79</ele>
        <time>2022-02-27T10:47:47Z</time>
      </trkpt>
      <trkpt lat="47.16041" lon="-1.5977">
        <ele>79</ele>
        <time>2022-02-27T10:47:49Z</time>
      </trkpt>
      <trkpt lat="47.16031" lon="-1.59777">
        <ele>80</ele>
        <time>2022-02-27T10:47:51Z</time>
      </trkpt>
      <trkpt lat="47.1602" lon="-1.59783">
        <ele>80</ele>
        <time>2022-02-27T10:47:53Z</time>
      </trkpt>
      <trkpt lat="47.16009" lon="-1.59791">
        <ele>80</ele>
        <time>2022-02-27T10:47:55Z</time>
      </trkpt>
      <trkpt lat="47.15997" lon="-1.59798">
        <ele>80</ele>
        <time>2022-02-27T10:47:57Z</time>
      </trkpt>
      <trkpt lat="47.15985" lon="-1.59805">
        <ele>80</ele>
        <time>2022-02-27T10:47:59Z</time>
      </trkpt>
      <trkpt lat="47.15972" lon="-1.59812">
        <ele>80</ele>
        <time>2022-02-27T10:48:01Z</time>
      </trkpt>
      <trkpt lat="47.1596" lon="-1.59818">
        <ele>80</ele>
        <time>2022-02-27T10:48:03Z</time>
      </trkpt>
      <trkpt lat="47.15948" lon="-1.59824">
        <ele>80</ele>
        <time>2022-02-27T10:48:05Z</time>
      </trkpt>
      <trkpt lat="47.15936" lon="-1.5983">
        <ele>81</ele>
        <time>2022-02-27T10:48:07Z</time>
      </trkpt>
      <trkpt lat="47.15925" lon="-1.59837">
        <ele>81</ele>
        <time>2022-02-27T10:48:09Z</time>
      </trkpt>
      <trkpt lat="47.15918" lon="-1.59848">
        <ele>80</ele>
        <time>2022-02-27T10:48:11Z</time>
      </trkpt>
      <trkpt lat="47.15913" lon="-1.59862">
        <ele>80</ele>
        <time>2022-02-27T10:48:13Z</time>
      </trkpt>
      <trkpt lat="47.15904" lon="-1.59873">
        <ele>80</ele>
        <time>2022-02-27T10:48:15Z</time>
      </trkpt>
      <trkpt lat="47.15892" lon="-1.59872">
        <ele>80</ele>
        <time>2022-02-27T10:48:17Z</time>
      </trkpt>
      <trkpt lat="47.15884" lon="-1.59861">
        <ele>81</ele>
        <time>2022-02-27T10:48:19Z</time>
      </trkpt>
      <trkpt lat="47.1588" lon="-1.59841">
        <ele>81</ele>
        <time>2022-02-27T10:48:21Z</time>
      </trkpt>
      <trkpt lat="47.15876" lon="-1.59822">
        <ele>80</ele>
        <time>2022-02-27T10:48:23Z</time>
      </trkpt>
      <trkpt lat="47.15868" lon="-1.59805">
        <ele>80</ele>
        <time>2022-02-27T10:48:25Z</time>
      </trkpt>
      <trkpt lat="47.15858" lon="-1.59792">
        <ele>80</ele>
        <time>2022-02-27T10:48:27Z</time>
      </trkpt>
      <trkpt lat="47.15848" lon="-1.5978">
        <ele>80</ele>
        <time>2022-02-27T10:48:29Z</time>
      </trkpt>
      <trkpt lat="47.15838" lon="-1.5977">
        <ele>81</ele>
        <time>2022-02-27T10:48:31Z</time>
      </trkpt>
      <trkpt lat="47.15827" lon="-1.59761">
        <ele>81</ele>
        <time>2022-02-27T10:48:33Z</time>
      </trkpt>
      <trkpt lat="47.15816" lon="-1.59752">
        <ele>81</ele>
        <time>2022-02-27T10:48:35Z</time>
      </trkpt>
      <trkpt lat="47.15806" lon="-1.59744">
        <ele>82</ele>
        <time>2022-02-27T10:48:37Z</time>
      </trkpt>
      <trkpt lat="47.15796" lon="-1.59736">
        <ele>82</ele>
        <time>2022-02-27T10:48:39Z</time>
      </trkpt>
      <trkpt lat="47.15784" lon="-1.59737">
        <ele>82</ele>
        <time>2022-02-27T10:48:41Z</time>
      </trkpt>
      <trkpt lat="47.15773" lon="-1.59733">
        <ele>82</ele>
        <time>2022-02-27T10:48:43Z</time>
      </trkpt>
      <trkpt lat="47.15765" lon="-1.5972">
        <ele>83</ele>
        <time>2022-02-27T10:48:45Z</time>
      </trkpt>
      <trkpt lat="47.15763" lon="-1.59703">
        <ele>82</ele>
        <time>2022-02-27T10:48:47Z</time>
      </trkpt>
      <trkpt lat="47.15765" lon="-1.59685">
        <ele>81</ele>
        <time>2022-02-27T10:48:49Z</time>
      </trkpt>
      <trkpt lat="47.15766" lon="-1.59667">
        <ele>81</ele>
        <time>2022-02-27T10:48:51Z</time>
      </trkpt>
      <trkpt lat="47.15766" lon="-1.5965">
        <ele>82</ele>
        <time>2022-02-27T10:48:53Z</time>
      </trkpt>
      <trkpt lat="47.15765" lon="-1.59632">
        <ele>82</ele>
        <time>2022-02-27T10:48:55Z</time>
      </trkpt>
      <trkpt lat="47.15763" lon="-1.59615">
        <ele>82</ele>
        <time>2022-02-27T10:48:57Z</time>
      </trkpt>
      <trkpt lat="47.15762" lon="-1.59598">
        <ele>83</ele>
        <time>2022-02-27T10:48:59Z</time>
      </trkpt>
      <trkpt lat="47.1576" lon="-1.5958">
        <ele>83</ele>
        <time>2022-02-27T10:49:01Z</time>
      </trkpt>
      <trkpt lat="47.1576" lon="-1.59563">
        <ele>83</ele>
        <time>2022-02-27T10:49:03Z</time>
      </trkpt>
      <trkpt lat="47.15759" lon="-1.59546">
        <ele>83</ele>
        <time>2022-02-27T10:49:05Z</time>
      </trkpt>
      <trkpt lat="47.1576" lon="-1.59528">
        <ele>83</ele>
        <time>2022-02-27T10:49:07Z</time>
      </trkpt>
      <trkpt lat="47.1576" lon="-1.59511">
        <ele>83</ele>
        <time>2022-02-27T10:49:09Z</time>
      </trkpt>
      <trkpt lat="47.15761" lon="-1.59495">
        <ele>84</ele>
        <time>2022-02-27T10:49:11Z</time>
      </trkpt>
      <trkpt lat="47.15763" lon="-1.59477">
        <ele>84</ele>
        <time>2022-02-27T10:49:13Z</time>
      </trkpt>
      <trkpt lat="47.15765" lon="-1.59459">
        <ele>84</ele>
        <time>2022-02-27T10:49:15Z</time>
      </trkpt>
      <trkpt lat="47.15768" lon="-1.59442">
        <ele>84</ele>
        <time>2022-02-27T10:49:17Z</time>
      </trkpt>
      <trkpt lat="47.15771" lon="-1.59423">
        <ele>84</ele>
        <time>2022-02-27T10:49:19Z</time>
      </trkpt>
      <trkpt lat="47.15774" lon="-1.59405">
        <ele>83</ele>
        <time>2022-02-27T10:49:21Z</time>
      </trkpt>
      <trkpt lat="47.15777" lon="-1.59388">
        <ele>83</ele>
        <time>2022-02-27T10:49:23Z</time>
      </trkpt>
      <trkpt lat="47.1578" lon="-1.5937">
        <ele>83</ele>
        <time>2022-02-27T10:49:25Z</time>
      </trkpt>
      <trkpt lat="47.15783" lon="-1.59351">
        <ele>83</ele>
        <time>2022-02-27T10:49:27Z</time>
      </trkpt>
      <trkpt lat="47.15786" lon="-1.59334">
        <ele>83</ele>
        <time>2022-02-27T10:49:29Z</time>
      </trkpt>
      <trkpt lat="47.15789" lon="-1.59316">
        <ele>84</ele>
        <time>2022-02-27T10:49:31Z</time>
      </trkpt>
      <trkpt lat="47.15792" lon="-1.59299">
        <ele>84</ele>
        <time>2022-02-27T10:49:33Z</time>
      </trkpt>
      <trkpt lat="47.15795" lon="-1.59281">
        <ele>84</ele>
        <time>2022-02-27T10:49:35Z</time>
      </trkpt>
      <trkpt lat="47.15798" lon="-1.59263">
        <ele>84</ele>
        <time>2022-02-27T10:49:37Z</time>
      </trkpt>
      <trkpt lat="47.15801" lon="-1.59247">
        <ele>84</ele>
        <time>2022-02-27T10:49:39Z</time>
      </trkpt>
      <trkpt lat="47.15805" lon="-1.5923">
        <ele>85</ele>
        <time>2022-02-27T10:49:41Z</time>
      </trkpt>
      <trkpt lat="47.1581" lon="-1.59214">
        <ele>85</ele>
        <time>2022-02-27T10:49:43Z</time>
      </trkpt>
      <trkpt lat="47.15813" lon="-1.59197">
        <ele>85</ele>
        <time>2022-02-27T10:49:45Z</time>
      </trkpt>
      <trkpt lat="47.15814" lon="-1.5918">
        <ele>85</ele>
        <time>2022-02-27T10:49:47Z</time>
      </trkpt>
      <trkpt lat="47.15815" lon="-1.59162">
        <ele>85</ele>
        <time>2022-02-27T10:49:49Z</time>
      </trkpt>
      <trkpt lat="47.15822" lon="-1.59148">
        <ele>85</ele>
        <time>2022-02-27T10:49:51Z</time>
      </trkpt>
      <trkpt lat="47.15834" lon="-1.59142">
        <ele>85</ele>
        <time>2022-02-27T10:49:53Z</time>
      </trkpt>
      <trkpt lat="47.15846" lon="-1.59138">
        <ele>83</ele>
        <time>2022-02-27T10:49:55Z</time>
      </trkpt>
      <trkpt lat="47.15858" lon="-1.59128">
        <ele>82</ele>
        <time>2022-02-27T10:49:57Z</time>
      </trkpt>
      <trkpt lat="47.15867" lon="-1.59114">
        <ele>82</ele>
        <time>2022-02-27T10:49:59Z</time>
      </trkpt>
      <trkpt lat="47.15876" lon="-1.59101">
        <ele>82</ele>
        <time>2022-02-27T10:50:01Z</time>
      </trkpt>
      <trkpt lat="47.15885" lon="-1.59087">
        <ele>82</ele>
        <time>2022-02-27T10:50:03Z</time>
      </trkpt>
      <trkpt lat="47.15893" lon="-1.59073">
        <ele>82</ele>
        <time>2022-02-27T10:50:05Z</time>
      </trkpt>
      <trkpt lat="47.15902" lon="-1.59059">
        <ele>82</ele>
        <time>2022-02-27T10:50:07Z</time>
      </trkpt>
      <trkpt lat="47.15911" lon="-1.59045">
        <ele>83</ele>
        <time>2022-02-27T10:50:09Z</time>
      </trkpt>
      <trkpt lat="47.15919" lon="-1.59031">
        <ele>83</ele>
        <time>2022-02-27T10:50:11Z</time>
      </trkpt>
      <trkpt lat="47.15927" lon="-1.59017">
        <ele>83</ele>
        <time>2022-02-27T10:50:13Z</time>
      </trkpt>
      <trkpt lat="47.15935" lon="-1.59003">
        <ele>83</ele>
        <time>2022-02-27T10:50:15Z</time>
      </trkpt>
      <trkpt lat="47.15943" lon="-1.5899">
        <ele>83</ele>
        <time>2022-02-27T10:50:17Z</time>
      </trkpt>
      <trkpt lat="47.15951" lon="-1.58975">
        <ele>83</ele>
        <time>2022-02-27T10:50:19Z</time>
      </trkpt>
      <trkpt lat="47.15959" lon="-1.58961">
        <ele>83</ele>
        <time>2022-02-27T10:50:21Z</time>
      </trkpt>
      <trkpt lat="47.15966" lon="-1.58948">
        <ele>83</ele>
        <time>2022-02-27T10:50:23Z</time>
      </trkpt>
      <trkpt lat="47.15975" lon="-1.58934">
        <ele>83</ele>
        <time>2022-02-27T10:50:25Z</time>
      </trkpt>
      <trkpt lat="47.15983" lon="-1.5892">
        <ele>83</ele>
        <time>2022-02-27T10:50:27Z</time>
      </trkpt>
      <trkpt lat="47.15992" lon="-1.58907">
        <ele>83</ele>
        <time>2022-02-27T10:50:29Z</time>
      </trkpt>
      <trkpt lat="47.16" lon="-1.58893">
        <ele>83</ele>
        <time>2022-02-27T10:50:31Z</time>
      </trkpt>
      <trkpt lat="47.16009" lon="-1.5888">
        <ele>83</ele>
        <time>2022-02-27T10:50:33Z</time>
      </trkpt>
      <trkpt lat="47.16018" lon="-1.58868">
        <ele>82</ele>
        <time>2022-02-27T10:50:35Z</time>
      </trkpt>
      <trkpt lat="47.16028" lon="-1.58855">
        <ele>82</ele>
        <time>2022-02-27T10:50:37Z</time>
      </trkpt>
      <trkpt lat="47.16037" lon="-1.58843">
        <ele>82</ele>
        <time>2022-02-27T10:50:39Z</time>
      </trkpt>
      <trkpt lat="47.16046" lon="-1.5883">
        <ele>83</ele>
        <time>2022-02-27T10:50:41Z</time>
      </trkpt>
      <trkpt lat="47.16056" lon="-1.58818">
        <ele>83</ele>
        <time>2022-02-27T10:50:43Z</time>
      </trkpt>
      <trkpt lat="47.16066" lon="-1.58806">
        <ele>83</ele>
        <time>2022-02-27T10:50:45Z</time>
      </trkpt>
      <trkpt lat="47.16076" lon="-1.58793">
        <ele>82</ele>
        <time>2022-02-27T10:50:47Z</time>
      </trkpt>
      <trkpt lat="47.16086" lon="-1.58781">
        <ele>82</ele>
        <time>2022-02-27T10:50:49Z</time>
      </trkpt>
      <trkpt lat="47.16095" lon="-1.58768">
        <ele>82</ele>
        <time>2022-02-27T10:50:51Z</time>
      </trkpt>
      <trkpt lat="47.16104" lon="-1.58755">
        <ele>81</ele>
        <time>2022-02-27T10:50:53Z</time>
      </trkpt>
      <trkpt lat="47.16113" lon="-1.58743">
        <ele>81</ele>
        <time>2022-02-27T10:50:55Z</time>
      </trkpt>
      <trkpt lat="47.16123" lon="-1.5873">
        <ele>81</ele>
        <time>2022-02-27T10:50:57Z</time>
      </trkpt>
      <trkpt lat="47.16132" lon="-1.58717">
        <ele>81</ele>
        <time>2022-02-27T10:50:59Z</time>
      </trkpt>
      <trkpt lat="47.16142" lon="-1.58704">
        <ele>80</ele>
        <time>2022-02-27T10:51:01Z</time>
      </trkpt>
      <trkpt lat="47.16152" lon="-1.58691">
        <ele>80</ele>
        <time>2022-02-27T10:51:03Z</time>
      </trkpt>
      <trkpt lat="47.16162" lon="-1.58679">
        <ele>80</ele>
        <time>2022-02-27T10:51:05Z</time>
      </trkpt>
      <trkpt lat="47.16171" lon="-1.58667">
        <ele>80</ele>
        <time>2022-02-27T10:51:07Z</time>
      </trkpt>
      <trkpt lat="47.16181" lon="-1.58654">
        <ele>80</ele>
        <time>2022-02-27T10:51:09Z</time>
      </trkpt>
      <trkpt lat="47.16191" lon="-1.58641">
        <ele>80</ele>
        <time>2022-02-27T10:51:11Z</time>
      </trkpt>
      <trkpt lat="47.16201" lon="-1.58627">
        <ele>80</ele>
        <time>2022-02-27T10:51:13Z</time>
      </trkpt>
      <trkpt lat="47.16211" lon="-1.58615">
        <ele>80</ele>
        <time>2022-02-27T10:51:15Z</time>
      </trkpt>
      <trkpt lat="47.16226" lon="-1.58596">
        <ele>80</ele>
        <time>2022-02-27T10:51:18Z</time>
      </trkpt>
      <trkpt lat="47.16235" lon="-1.58583">
        <ele>80</ele>
        <time>2022-02-27T10:51:20Z</time>
      </trkpt>
      <trkpt lat="47.16245" lon="-1.58571">
        <ele>80</ele>
        <time>2022-02-27T10:51:22Z</time>
      </trkpt>
      <trkpt lat="47.16255" lon="-1.58558">
        <ele>81</ele>
        <time>2022-02-27T10:51:24Z</time>
      </trkpt>
      <trkpt lat="47.16266" lon="-1.58545">
        <ele>81</ele>
        <time>2022-02-27T10:51:26Z</time>
      </trkpt>
      <trkpt lat="47.16275" lon="-1.58532">
        <ele>80</ele>
        <time>2022-02-27T10:51:28Z</time>
      </trkpt>
      <trkpt lat="47.16288" lon="-1.58513">
        <ele>81</ele>
        <time>2022-02-27T10:51:31Z</time>
      </trkpt>
      <trkpt lat="47.16298" lon="-1.585">
        <ele>81</ele>
        <time>2022-02-27T10:51:33Z</time>
      </trkpt>
      <trkpt lat="47.16309" lon="-1.58488">
        <ele>80</ele>
        <time>2022-02-27T10:51:35Z</time>
      </trkpt>
      <trkpt lat="47.16318" lon="-1.58474">
        <ele>80</ele>
        <time>2022-02-27T10:51:37Z</time>
      </trkpt>
      <trkpt lat="47.16327" lon="-1.58461">
        <ele>80</ele>
        <time>2022-02-27T10:51:39Z</time>
      </trkpt>
      <trkpt lat="47.16337" lon="-1.58449">
        <ele>80</ele>
        <time>2022-02-27T10:51:41Z</time>
      </trkpt>
      <trkpt lat="47.16348" lon="-1.58436">
        <ele>80</ele>
        <time>2022-02-27T10:51:43Z</time>
      </trkpt>
      <trkpt lat="47.16357" lon="-1.58423">
        <ele>80</ele>
        <time>2022-02-27T10:51:45Z</time>
      </trkpt>
      <trkpt lat="47.16366" lon="-1.58409">
        <ele>80</ele>
        <time>2022-02-27T10:51:47Z</time>
      </trkpt>
      <trkpt lat="47.16376" lon="-1.58396">
        <ele>80</ele>
        <time>2022-02-27T10:51:49Z</time>
      </trkpt>
      <trkpt lat="47.16385" lon="-1.58384">
        <ele>80</ele>
        <time>2022-02-27T10:51:51Z</time>
      </trkpt>
      <trkpt lat="47.16394" lon="-1.58371">
        <ele>80</ele>
        <time>2022-02-27T10:51:53Z</time>
      </trkpt>
      <trkpt lat="47.16403" lon="-1.58359">
        <ele>80</ele>
        <time>2022-02-27T10:51:55Z</time>
      </trkpt>
      <trkpt lat="47.16412" lon="-1.58347">
        <ele>80</ele>
        <time>2022-02-27T10:51:57Z</time>
      </trkpt>
      <trkpt lat="47.16422" lon="-1.58335">
        <ele>79</ele>
        <time>2022-02-27T10:51:59Z</time>
      </trkpt>
      <trkpt lat="47.16432" lon="-1.58322">
        <ele>80</ele>
        <time>2022-02-27T10:52:01Z</time>
      </trkpt>
      <trkpt lat="47.16441" lon="-1.5831">
        <ele>80</ele>
        <time>2022-02-27T10:52:03Z</time>
      </trkpt>
      <trkpt lat="47.16451" lon="-1.58298">
        <ele>80</ele>
        <time>2022-02-27T10:52:05Z</time>
      </trkpt>
      <trkpt lat="47.16461" lon="-1.58286">
        <ele>81</ele>
        <time>2022-02-27T10:52:07Z</time>
      </trkpt>
      <trkpt lat="47.16469" lon="-1.58274">
        <ele>81</ele>
        <time>2022-02-27T10:52:09Z</time>
      </trkpt>
      <trkpt lat="47.16479" lon="-1.58262">
        <ele>82</ele>
        <time>2022-02-27T10:52:11Z</time>
      </trkpt>
      <trkpt lat="47.16488" lon="-1.5825">
        <ele>82</ele>
        <time>2022-02-27T10:52:13Z</time>
      </trkpt>
      <trkpt lat="47.16498" lon="-1.58238">
        <ele>82</ele>
        <time>2022-02-27T10:52:15Z</time>
      </trkpt>
      <trkpt lat="47.16507" lon="-1.58227">
        <ele>82</ele>
        <time>2022-02-27T10:52:17Z</time>
      </trkpt>
      <trkpt lat="47.16516" lon="-1.58215">
        <ele>82</ele>
        <time>2022-02-27T10:52:19Z</time>
      </trkpt>
      <trkpt lat="47.16525" lon="-1.58203">
        <ele>83</ele>
        <time>2022-02-27T10:52:21Z</time>
      </trkpt>
      <trkpt lat="47.16534" lon="-1.58191">
        <ele>82</ele>
        <time>2022-02-27T10:52:23Z</time>
      </trkpt>
      <trkpt lat="47.16543" lon="-1.58178">
        <ele>83</ele>
        <time>2022-02-27T10:52:25Z</time>
      </trkpt>
      <trkpt lat="47.16552" lon="-1.58166">
        <ele>83</ele>
        <time>2022-02-27T10:52:27Z</time>
      </trkpt>
      <trkpt lat="47.16561" lon="-1.58155">
        <ele>83</ele>
        <time>2022-02-27T10:52:29Z</time>
      </trkpt>
      <trkpt lat="47.16571" lon="-1.58143">
        <ele>83</ele>
        <time>2022-02-27T10:52:31Z</time>
      </trkpt>
      <trkpt lat="47.16581" lon="-1.5813">
        <ele>83</ele>
        <time>2022-02-27T10:52:33Z</time>
      </trkpt>
      <trkpt lat="47.1659" lon="-1.58117">
        <ele>83</ele>
        <time>2022-02-27T10:52:35Z</time>
      </trkpt>
      <trkpt lat="47.16599" lon="-1.58105">
        <ele>83</ele>
        <time>2022-02-27T10:52:37Z</time>
      </trkpt>
      <trkpt lat="47.16608" lon="-1.58093">
        <ele>83</ele>
        <time>2022-02-27T10:52:39Z</time>
      </trkpt>
      <trkpt lat="47.16618" lon="-1.58081">
        <ele>83</ele>
        <time>2022-02-27T10:52:41Z</time>
      </trkpt>
      <trkpt lat="47.16624" lon="-1.58067">
        <ele>83</ele>
        <time>2022-02-27T10:52:43Z</time>
      </trkpt>
      <trkpt lat="47.1662" lon="-1.58051">
        <ele>83</ele>
        <time>2022-02-27T10:52:45Z</time>
      </trkpt>
      <trkpt lat="47.16609" lon="-1.58039">
        <ele>84</ele>
        <time>2022-02-27T10:52:47Z</time>
      </trkpt>
      <trkpt lat="47.16597" lon="-1.58029">
        <ele>84</ele>
        <time>2022-02-27T10:52:49Z</time>
      </trkpt>
      <trkpt lat="47.16586" lon="-1.58022">
        <ele>85</ele>
        <time>2022-02-27T10:52:51Z</time>
      </trkpt>
      <trkpt lat="47.16575" lon="-1.58013">
        <ele>86</ele>
        <time>2022-02-27T10:52:53Z</time>
      </trkpt>
      <trkpt lat="47.16565" lon="-1.58004">
        <ele>86</ele>
        <time>2022-02-27T10:52:55Z</time>
      </trkpt>
      <trkpt lat="47.16555" lon="-1.57994">
        <ele>86</ele>
        <time>2022-02-27T10:52:57Z</time>
      </trkpt>
      <trkpt lat="47.16545" lon="-1.57984">
        <ele>87</ele>
        <time>2022-02-27T10:52:59Z</time>
      </trkpt>
      <trkpt lat="47.16536" lon="-1.57975">
        <ele>87</ele>
        <time>2022-02-27T10:53:01Z</time>
      </trkpt>
      <trkpt lat="47.16527" lon="-1.57965">
        <ele>88</ele>
        <time>2022-02-27T10:53:03Z</time>
      </trkpt>
      <trkpt lat="47.16517" lon="-1.57956">
        <ele>88</ele>
        <time>2022-02-27T10:53:05Z</time>
      </trkpt>
      <trkpt lat="47.16508" lon="-1.57947">
        <ele>88</ele>
        <time>2022-02-27T10:53:07Z</time>
      </trkpt>
      <trkpt lat="47.16499" lon="-1.57938">
        <ele>88</ele>
        <time>2022-02-27T10:53:09Z</time>
      </trkpt>
      <trkpt lat="47.1649" lon="-1.57928">
        <ele>89</ele>
        <time>2022-02-27T10:53:11Z</time>
      </trkpt>
      <trkpt lat="47.16481" lon="-1.57919">
        <ele>89</ele>
        <time>2022-02-27T10:53:13Z</time>
      </trkpt>
      <trkpt lat="47.16472" lon="-1.5791">
        <ele>90</ele>
        <time>2022-02-27T10:53:15Z</time>
      </trkpt>
      <trkpt lat="47.16462" lon="-1.57902">
        <ele>89</ele>
        <time>2022-02-27T10:53:17Z</time>
      </trkpt>
      <trkpt lat="47.16452" lon="-1.57894">
        <ele>89</ele>
        <time>2022-02-27T10:53:19Z</time>
      </trkpt>
      <trkpt lat="47.16441" lon="-1.57886">
        <ele>89</ele>
        <time>2022-02-27T10:53:21Z</time>
      </trkpt>
      <trkpt lat="47.16431" lon="-1.57878">
        <ele>89</ele>
        <time>2022-02-27T10:53:23Z</time>
      </trkpt>
      <trkpt lat="47.16421" lon="-1.5787">
        <ele>90</ele>
        <time>2022-02-27T10:53:25Z</time>
      </trkpt>
      <trkpt lat="47.1641" lon="-1.57862">
        <ele>90</ele>
        <time>2022-02-27T10:53:27Z</time>
      </trkpt>
      <trkpt lat="47.164" lon="-1.57856">
        <ele>91</ele>
        <time>2022-02-27T10:53:29Z</time>
      </trkpt>
      <trkpt lat="47.16389" lon="-1.57848">
        <ele>91</ele>
        <time>2022-02-27T10:53:31Z</time>
      </trkpt>
      <trkpt lat="47.16379" lon="-1.57839">
        <ele>91</ele>
        <time>2022-02-27T10:53:33Z</time>
      </trkpt>
      <trkpt lat="47.16369" lon="-1.57831">
        <ele>91</ele>
        <time>2022-02-27T10:53:35Z</time>
      </trkpt>
      <trkpt lat="47.16359" lon="-1.57823">
        <ele>91</ele>
        <time>2022-02-27T10:53:37Z</time>
      </trkpt>
      <trkpt lat="47.16351" lon="-1.57812">
        <ele>91</ele>
        <time>2022-02-27T10:53:39Z</time>
      </trkpt>
      <trkpt lat="47.16344" lon="-1.57799">
        <ele>90</ele>
        <time>2022-02-27T10:53:41Z</time>
      </trkpt>
      <trkpt lat="47.16336" lon="-1.57786">
        <ele>90</ele>
        <time>2022-02-27T10:53:43Z</time>
      </trkpt>
      <trkpt lat="47.16328" lon="-1.57775">
        <ele>91</ele>
        <time>2022-02-27T10:53:45Z</time>
      </trkpt>
      <trkpt lat="47.16321" lon="-1.57763">
        <ele>91</ele>
        <time>2022-02-27T10:53:47Z</time>
      </trkpt>
      <trkpt lat="47.16312" lon="-1.57751">
        <ele>91</ele>
        <time>2022-02-27T10:53:49Z</time>
      </trkpt>
      <trkpt lat="47.16304" lon="-1.57739">
        <ele>91</ele>
        <time>2022-02-27T10:53:51Z</time>
      </trkpt>
      <trkpt lat="47.16296" lon="-1.57726">
        <ele>91</ele>
        <time>2022-02-27T10:53:53Z</time>
      </trkpt>
      <trkpt lat="47.16288" lon="-1.57713">
        <ele>91</ele>
        <time>2022-02-27T10:53:55Z</time>
      </trkpt>
      <trkpt lat="47.1628" lon="-1.57701">
        <ele>91</ele>
        <time>2022-02-27T10:53:57Z</time>
      </trkpt>
      <trkpt lat="47.16271" lon="-1.57691">
        <ele>91</ele>
        <time>2022-02-27T10:53:59Z</time>
      </trkpt>
      <trkpt lat="47.16261" lon="-1.57682">
        <ele>91</ele>
        <time>2022-02-27T10:54:01Z</time>
      </trkpt>
      <trkpt lat="47.16252" lon="-1.57672">
        <ele>90</ele>
        <time>2022-02-27T10:54:03Z</time>
      </trkpt>
      <trkpt lat="47.16242" lon="-1.57663">
        <ele>90</ele>
        <time>2022-02-27T10:54:05Z</time>
      </trkpt>
      <trkpt lat="47.16232" lon="-1.57653">
        <ele>91</ele>
        <time>2022-02-27T10:54:07Z</time>
      </trkpt>
      <trkpt lat="47.16224" lon="-1.57642">
        <ele>91</ele>
        <time>2022-02-27T10:54:09Z</time>
      </trkpt>
      <trkpt lat="47.16216" lon="-1.5763">
        <ele>91</ele>
        <time>2022-02-27T10:54:11Z</time>
      </trkpt>
      <trkpt lat="47.16207" lon="-1.57618">
        <ele>91</ele>
        <time>2022-02-27T10:54:13Z</time>
      </trkpt>
      <trkpt lat="47.16199" lon="-1.57606">
        <ele>91</ele>
        <time>2022-02-27T10:54:15Z</time>
      </trkpt>
      <trkpt lat="47.16192" lon="-1.57592">
        <ele>90</ele>
        <time>2022-02-27T10:54:17Z</time>
      </trkpt>
      <trkpt lat="47.16185" lon="-1.57577">
        <ele>90</ele>
        <time>2022-02-27T10:54:19Z</time>
      </trkpt>
      <trkpt lat="47.16179" lon="-1.57562">
        <ele>90</ele>
        <time>2022-02-27T10:54:21Z</time>
      </trkpt>
      <trkpt lat="47.16174" lon="-1.57546">
        <ele>90</ele>
        <time>2022-02-27T10:54:23Z</time>
      </trkpt>
      <trkpt lat="47.16171" lon="-1.5753">
        <ele>89</ele>
        <time>2022-02-27T10:54:25Z</time>
      </trkpt>
      <trkpt lat="47.16169" lon="-1.57512">
        <ele>89</ele>
        <time>2022-02-27T10:54:27Z</time>
      </trkpt>
      <trkpt lat="47.1617" lon="-1.57493">
        <ele>89</ele>
        <time>2022-02-27T10:54:29Z</time>
      </trkpt>
      <trkpt lat="47.1617" lon="-1.57474">
        <ele>88</ele>
        <time>2022-02-27T10:54:31Z</time>
      </trkpt>
      <trkpt lat="47.1617" lon="-1.57455">
        <ele>87</ele>
        <time>2022-02-27T10:54:33Z</time>
      </trkpt>
      <trkpt lat="47.1617" lon="-1.57435">
        <ele>87</ele>
        <time>2022-02-27T10:54:35Z</time>
      </trkpt>
      <trkpt lat="47.16169" lon="-1.57415">
        <ele>86</ele>
        <time>2022-02-27T10:54:37Z</time>
      </trkpt>
      <trkpt lat="47.16168" lon="-1.57397">
        <ele>86</ele>
        <time>2022-02-27T10:54:39Z</time>
      </trkpt>
      <trkpt lat="47.16167" lon="-1.5738">
        <ele>86</ele>
        <time>2022-02-27T10:54:41Z</time>
      </trkpt>
      <trkpt lat="47.16166" lon="-1.57367">
        <ele>86</ele>
        <time>2022-02-27T10:54:43Z</time>
      </trkpt>
      <trkpt lat="47.16166" lon="-1.57354">
        <ele>88</ele>
        <time>2022-02-27T10:54:49Z</time>
      </trkpt>
      <trkpt lat="47.16165" lon="-1.57338">
        <ele>89</ele>
        <time>2022-02-27T10:54:51Z</time>
      </trkpt>
      <trkpt lat="47.16163" lon="-1.57318">
        <ele>89</ele>
        <time>2022-02-27T10:54:53Z</time>
      </trkpt>
      <trkpt lat="47.16162" lon="-1.57298">
        <ele>89</ele>
        <time>2022-02-27T10:54:55Z</time>
      </trkpt>
      <trkpt lat="47.16162" lon="-1.57277">
        <ele>89</ele>
        <time>2022-02-27T10:54:57Z</time>
      </trkpt>
      <trkpt lat="47.16163" lon="-1.57258">
        <ele>90</ele>
        <time>2022-02-27T10:54:59Z</time>
      </trkpt>
      <trkpt lat="47.16165" lon="-1.57239">
        <ele>90</ele>
        <time>2022-02-27T10:55:01Z</time>
      </trkpt>
      <trkpt lat="47.16166" lon="-1.5722">
        <ele>91</ele>
        <time>2022-02-27T10:55:03Z</time>
      </trkpt>
      <trkpt lat="47.16167" lon="-1.57199">
        <ele>90</ele>
        <time>2022-02-27T10:55:05Z</time>
      </trkpt>
      <trkpt lat="47.16169" lon="-1.57179">
        <ele>89</ele>
        <time>2022-02-27T10:55:07Z</time>
      </trkpt>
      <trkpt lat="47.1617" lon="-1.5716">
        <ele>88</ele>
        <time>2022-02-27T10:55:09Z</time>
      </trkpt>
      <trkpt lat="47.16172" lon="-1.5714">
        <ele>87</ele>
        <time>2022-02-27T10:55:11Z</time>
      </trkpt>
      <trkpt lat="47.16174" lon="-1.57121">
        <ele>87</ele>
        <time>2022-02-27T10:55:13Z</time>
      </trkpt>
      <trkpt lat="47.16177" lon="-1.57101">
        <ele>86</ele>
        <time>2022-02-27T10:55:15Z</time>
      </trkpt>
      <trkpt lat="47.16181" lon="-1.57082">
        <ele>85</ele>
        <time>2022-02-27T10:55:17Z</time>
      </trkpt>
      <trkpt lat="47.16184" lon="-1.57063">
        <ele>85</ele>
        <time>2022-02-27T10:55:19Z</time>
      </trkpt>
      <trkpt lat="47.16187" lon="-1.57044">
        <ele>84</ele>
        <time>2022-02-27T10:55:21Z</time>
      </trkpt>
      <trkpt lat="47.1619" lon="-1.57025">
        <ele>84</ele>
        <time>2022-02-27T10:55:23Z</time>
      </trkpt>
      <trkpt lat="47.16194" lon="-1.57005">
        <ele>84</ele>
        <time>2022-02-27T10:55:25Z</time>
      </trkpt>
      <trkpt lat="47.16197" lon="-1.56987">
        <ele>84</ele>
        <time>2022-02-27T10:55:27Z</time>
      </trkpt>
      <trkpt lat="47.16201" lon="-1.56968">
        <ele>85</ele>
        <time>2022-02-27T10:55:29Z</time>
      </trkpt>
      <trkpt lat="47.16204" lon="-1.56949">
        <ele>85</ele>
        <time>2022-02-27T10:55:31Z</time>
      </trkpt>
      <trkpt lat="47.16208" lon="-1.56929">
        <ele>84</ele>
        <time>2022-02-27T10:55:33Z</time>
      </trkpt>
      <trkpt lat="47.16212" lon="-1.5691">
        <ele>85</ele>
        <time>2022-02-27T10:55:35Z</time>
      </trkpt>
      <trkpt lat="47.16215" lon="-1.56891">
        <ele>85</ele>
        <time>2022-02-27T10:55:37Z</time>
      </trkpt>
      <trkpt lat="47.16218" lon="-1.56872">
        <ele>84</ele>
        <time>2022-02-27T10:55:39Z</time>
      </trkpt>
      <trkpt lat="47.16221" lon="-1.56853">
        <ele>84</ele>
        <time>2022-02-27T10:55:41Z</time>
      </trkpt>
      <trkpt lat="47.16224" lon="-1.56834">
        <ele>84</ele>
        <time>2022-02-27T10:55:43Z</time>
      </trkpt>
      <trkpt lat="47.16227" lon="-1.56815">
        <ele>83</ele>
        <time>2022-02-27T10:55:45Z</time>
      </trkpt>
      <trkpt lat="47.16231" lon="-1.56796">
        <ele>83</ele>
        <time>2022-02-27T10:55:47Z</time>
      </trkpt>
      <trkpt lat="47.16234" lon="-1.56778">
        <ele>83</ele>
        <time>2022-02-27T10:55:49Z</time>
      </trkpt>
      <trkpt lat="47.16238" lon="-1.56759">
        <ele>83</ele>
        <time>2022-02-27T10:55:51Z</time>
      </trkpt>
      <trkpt lat="47.16241" lon="-1.56742">
        <ele>83</ele>
        <time>2022-02-27T10:55:53Z</time>
      </trkpt>
      <trkpt lat="47.16236" lon="-1.56725">
        <ele>83</ele>
        <time>2022-02-27T10:55:55Z</time>
      </trkpt>
      <trkpt lat="47.16222" lon="-1.56721">
        <ele>83</ele>
        <time>2022-02-27T10:55:57Z</time>
      </trkpt>
      <trkpt lat="47.1621" lon="-1.56724">
        <ele>84</ele>
        <time>2022-02-27T10:55:59Z</time>
      </trkpt>
      <trkpt lat="47.16197" lon="-1.56723">
        <ele>84</ele>
        <time>2022-02-27T10:56:01Z</time>
      </trkpt>
      <trkpt lat="47.16184" lon="-1.56722">
        <ele>84</ele>
        <time>2022-02-27T10:56:03Z</time>
      </trkpt>
      <trkpt lat="47.16171" lon="-1.56721">
        <ele>84</ele>
        <time>2022-02-27T10:56:05Z</time>
      </trkpt>
      <trkpt lat="47.16158" lon="-1.56719">
        <ele>84</ele>
        <time>2022-02-27T10:56:07Z</time>
      </trkpt>
      <trkpt lat="47.16145" lon="-1.56718">
        <ele>85</ele>
        <time>2022-02-27T10:56:09Z</time>
      </trkpt>
      <trkpt lat="47.16133" lon="-1.56716">
        <ele>85</ele>
        <time>2022-02-27T10:56:11Z</time>
      </trkpt>
      <trkpt lat="47.16121" lon="-1.56714">
        <ele>85</ele>
        <time>2022-02-27T10:56:13Z</time>
      </trkpt>
      <trkpt lat="47.16108" lon="-1.56714">
        <ele>84</ele>
        <time>2022-02-27T10:56:15Z</time>
      </trkpt>
      <trkpt lat="47.16095" lon="-1.56714">
        <ele>84</ele>
        <time>2022-02-27T10:56:17Z</time>
      </trkpt>
      <trkpt lat="47.16083" lon="-1.56714">
        <ele>84</ele>
        <time>2022-02-27T10:56:19Z</time>
      </trkpt>
      <trkpt lat="47.16071" lon="-1.56715">
        <ele>84</ele>
        <time>2022-02-27T10:56:21Z</time>
      </trkpt>
      <trkpt lat="47.16057" lon="-1.56714">
        <ele>85</ele>
        <time>2022-02-27T10:56:23Z</time>
      </trkpt>
      <trkpt lat="47.16044" lon="-1.56711">
        <ele>85</ele>
        <time>2022-02-27T10:56:25Z</time>
      </trkpt>
      <trkpt lat="47.16031" lon="-1.56709">
        <ele>85</ele>
        <time>2022-02-27T10:56:27Z</time>
      </trkpt>
      <trkpt lat="47.16018" lon="-1.56706">
        <ele>85</ele>
        <time>2022-02-27T10:56:29Z</time>
      </trkpt>
      <trkpt lat="47.16006" lon="-1.56703">
        <ele>85</ele>
        <time>2022-02-27T10:56:31Z</time>
      </trkpt>
      <trkpt lat="47.15994" lon="-1.56697">
        <ele>86</ele>
        <time>2022-02-27T10:56:33Z</time>
      </trkpt>
      <trkpt lat="47.15985" lon="-1.56683">
        <ele>86</ele>
        <time>2022-02-27T10:56:35Z</time>
      </trkpt>
      <trkpt lat="47.15978" lon="-1.56667">
        <ele>86</ele>
        <time>2022-02-27T10:56:37Z</time>
      </trkpt>
      <trkpt lat="47.15977" lon="-1.56649">
        <ele>87</ele>
        <time>2022-02-27T10:56:39Z</time>
      </trkpt>
      <trkpt lat="47.15975" lon="-1.56631">
        <ele>87</ele>
        <time>2022-02-27T10:56:41Z</time>
      </trkpt>
      <trkpt lat="47.15973" lon="-1.56613">
        <ele>88</ele>
        <time>2022-02-27T10:56:43Z</time>
      </trkpt>
      <trkpt lat="47.15971" lon="-1.56596">
        <ele>88</ele>
        <time>2022-02-27T10:56:45Z</time>
      </trkpt>
      <trkpt lat="47.15969" lon="-1.56577">
        <ele>89</ele>
        <time>2022-02-27T10:56:47Z</time>
      </trkpt>
      <trkpt lat="47.15969" lon="-1.56559">
        <ele>89</ele>
        <time>2022-02-27T10:56:49Z</time>
      </trkpt>
      <trkpt lat="47.15969" lon="-1.5654">
        <ele>89</ele>
        <time>2022-02-27T10:56:51Z</time>
      </trkpt>
      <trkpt lat="47.15968" lon="-1.56522">
        <ele>88</ele>
        <time>2022-02-27T10:56:53Z</time>
      </trkpt>
      <trkpt lat="47.15969" lon="-1.56503">
        <ele>87</ele>
        <time>2022-02-27T10:56:55Z</time>
      </trkpt>
      <trkpt lat="47.15969" lon="-1.56484">
        <ele>86</ele>
        <time>2022-02-27T10:56:57Z</time>
      </trkpt>
      <trkpt lat="47.15969" lon="-1.56466">
        <ele>85</ele>
        <time>2022-02-27T10:56:59Z</time>
      </trkpt>
      <trkpt lat="47.15969" lon="-1.56447">
        <ele>84</ele>
        <time>2022-02-27T10:57:01Z</time>
      </trkpt>
      <trkpt lat="47.1597" lon="-1.56428">
        <ele>84</ele>
        <time>2022-02-27T10:57:03Z</time>
      </trkpt>
      <trkpt lat="47.15972" lon="-1.5641">
        <ele>84</ele>
        <time>2022-02-27T10:57:05Z</time>
      </trkpt>
      <trkpt lat="47.15976" lon="-1.56392">
        <ele>84</ele>
        <time>2022-02-27T10:57:07Z</time>
      </trkpt>
      <trkpt lat="47.15982" lon="-1.56374">
        <ele>84</ele>
        <time>2022-02-27T10:57:09Z</time>
      </trkpt>
      <trkpt lat="47.15987" lon="-1.56358">
        <ele>83</ele>
        <time>2022-02-27T10:57:11Z</time>
      </trkpt>
      <trkpt lat="47.15993" lon="-1.5634">
        <ele>83</ele>
        <time>2022-02-27T10:57:13Z</time>
      </trkpt>
      <trkpt lat="47.15998" lon="-1.56324">
        <ele>83</ele>
        <time>2022-02-27T10:57:15Z</time>
      </trkpt>
      <trkpt lat="47.16004" lon="-1.56308">
        <ele>84</ele>
        <time>2022-02-27T10:57:17Z</time>
      </trkpt>
      <trkpt lat="47.16009" lon="-1.56291">
        <ele>84</ele>
        <time>2022-02-27T10:57:19Z</time>
      </trkpt>
      <trkpt lat="47.16014" lon="-1.56275">
        <ele>84</ele>
        <time>2022-02-27T10:57:21Z</time>
      </trkpt>
      <trkpt lat="47.16018" lon="-1.5626">
        <ele>84</ele>
        <time>2022-02-27T10:57:23Z</time>
      </trkpt>
      <trkpt lat="47.16017" lon="-1.56244">
        <ele>84</ele>
        <time>2022-02-27T10:57:25Z</time>
      </trkpt>
      <trkpt lat="47.16008" lon="-1.56235">
        <ele>84</ele>
        <time>2022-02-27T10:57:27Z</time>
      </trkpt>
      <trkpt lat="47.15996" lon="-1.5623">
        <ele>84</ele>
        <time>2022-02-27T10:57:29Z</time>
      </trkpt>
      <trkpt lat="47.15985" lon="-1.56226">
        <ele>85</ele>
        <time>2022-02-27T10:57:31Z</time>
      </trkpt>
      <trkpt lat="47.15974" lon="-1.56221">
        <ele>85</ele>
        <time>2022-02-27T10:57:33Z</time>
      </trkpt>
      <trkpt lat="47.15963" lon="-1.56217">
        <ele>86</ele>
        <time>2022-02-27T10:57:35Z</time>
      </trkpt>
      <trkpt lat="47.15951" lon="-1.56212">
        <ele>87</ele>
        <time>2022-02-27T10:57:37Z</time>
      </trkpt>
      <trkpt lat="47.1594" lon="-1.56207">
        <ele>87</ele>
        <time>2022-02-27T10:57:39Z</time>
      </trkpt>
      <trkpt lat="47.15928" lon="-1.56202">
        <ele>88</ele>
        <time>2022-02-27T10:57:41Z</time>
      </trkpt>
      <trkpt lat="47.15917" lon="-1.56199">
        <ele>89</ele>
        <time>2022-02-27T10:57:43Z</time>
      </trkpt>
      <trkpt lat="47.15905" lon="-1.56194">
        <ele>91</ele>
        <time>2022-02-27T10:57:45Z</time>
      </trkpt>
      <trkpt lat="47.15894" lon="-1.56189">
        <ele>91</ele>
        <time>2022-02-27T10:57:47Z</time>
      </trkpt>
      <trkpt lat="47.15882" lon="-1.56184">
        <ele>92</ele>
        <time>2022-02-27T10:57:49Z</time>
      </trkpt>
      <trkpt lat="47.15871" lon="-1.5618">
        <ele>92</ele>
        <time>2022-02-27T10:57:51Z</time>
      </trkpt>
      <trkpt lat="47.15859" lon="-1.56175">
        <ele>92</ele>
        <time>2022-02-27T10:57:53Z</time>
      </trkpt>
      <trkpt lat="47.15848" lon="-1.5617">
        <ele>93</ele>
        <time>2022-02-27T10:57:55Z</time>
      </trkpt>
      <trkpt lat="47.15837" lon="-1.56165">
        <ele>94</ele>
        <time>2022-02-27T10:57:57Z</time>
      </trkpt>
      <trkpt lat="47.15826" lon="-1.5616">
        <ele>93</ele>
        <time>2022-02-27T10:57:59Z</time>
      </trkpt>
      <trkpt lat="47.15814" lon="-1.56154">
        <ele>93</ele>
        <time>2022-02-27T10:58:01Z</time>
      </trkpt>
      <trkpt lat="47.15802" lon="-1.56149">
        <ele>93</ele>
        <time>2022-02-27T10:58:03Z</time>
      </trkpt>
      <trkpt lat="47.1579" lon="-1.56143">
        <ele>92</ele>
        <time>2022-02-27T10:58:05Z</time>
      </trkpt>
      <trkpt lat="47.15778" lon="-1.56138">
        <ele>92</ele>
        <time>2022-02-27T10:58:07Z</time>
      </trkpt>
      <trkpt lat="47.15766" lon="-1.56133">
        <ele>92</ele>
        <time>2022-02-27T10:58:09Z</time>
      </trkpt>
      <trkpt lat="47.15755" lon="-1.56128">
        <ele>92</ele>
        <time>2022-02-27T10:58:11Z</time>
      </trkpt>
      <trkpt lat="47.15744" lon="-1.56124">
        <ele>93</ele>
        <time>2022-02-27T10:58:13Z</time>
      </trkpt>
      <trkpt lat="47.15733" lon="-1.56119">
        <ele>93</ele>
        <time>2022-02-27T10:58:15Z</time>
      </trkpt>
      <trkpt lat="47.15721" lon="-1.56114">
        <ele>93</ele>
        <time>2022-02-27T10:58:17Z</time>
      </trkpt>
      <trkpt lat="47.1571" lon="-1.5611">
        <ele>93</ele>
        <time>2022-02-27T10:58:19Z</time>
      </trkpt>
      <trkpt lat="47.15699" lon="-1.56105">
        <ele>94</ele>
        <time>2022-02-27T10:58:21Z</time>
      </trkpt>
      <trkpt lat="47.15688" lon="-1.561">
        <ele>94</ele>
        <time>2022-02-27T10:58:23Z</time>
      </trkpt>
      <trkpt lat="47.15677" lon="-1.56095">
        <ele>94</ele>
        <time>2022-02-27T10:58:25Z</time>
      </trkpt>
      <trkpt lat="47.15665" lon="-1.56091">
        <ele>94</ele>
        <time>2022-02-27T10:58:27Z</time>
      </trkpt>
      <trkpt lat="47.15654" lon="-1.56085">
        <ele>94</ele>
        <time>2022-02-27T10:58:29Z</time>
      </trkpt>
      <trkpt lat="47.15643" lon="-1.56079">
        <ele>94</ele>
        <time>2022-02-27T10:58:31Z</time>
      </trkpt>
      <trkpt lat="47.15631" lon="-1.56074">
        <ele>94</ele>
        <time>2022-02-27T10:58:33Z</time>
      </trkpt>
      <trkpt lat="47.15621" lon="-1.56068">
        <ele>95</ele>
        <time>2022-02-27T10:58:35Z</time>
      </trkpt>
      <trkpt lat="47.15611" lon="-1.56062">
        <ele>95</ele>
        <time>2022-02-27T10:58:37Z</time>
      </trkpt>
      <trkpt lat="47.156" lon="-1.56055">
        <ele>96</ele>
        <time>2022-02-27T10:58:39Z</time>
      </trkpt>
      <trkpt lat="47.15589" lon="-1.56047">
        <ele>96</ele>
        <time>2022-02-27T10:58:41Z</time>
      </trkpt>
      <trkpt lat="47.15576" lon="-1.56038">
        <ele>96</ele>
        <time>2022-02-27T10:58:43Z</time>
      </trkpt>
      <trkpt lat="47.15565" lon="-1.56028">
        <ele>94</ele>
        <time>2022-02-27T10:58:45Z</time>
      </trkpt>
      <trkpt lat="47.15553" lon="-1.56018">
        <ele>93</ele>
        <time>2022-02-27T10:58:47Z</time>
      </trkpt>
      <trkpt lat="47.15543" lon="-1.56008">
        <ele>92</ele>
        <time>2022-02-27T10:58:49Z</time>
      </trkpt>
      <trkpt lat="47.15532" lon="-1.55999">
        <ele>92</ele>
        <time>2022-02-27T10:58:51Z</time>
      </trkpt>
      <trkpt lat="47.15522" lon="-1.5599">
        <ele>92</ele>
        <time>2022-02-27T10:58:53Z</time>
      </trkpt>
      <trkpt lat="47.15511" lon="-1.55982">
        <ele>92</ele>
        <time>2022-02-27T10:58:55Z</time>
      </trkpt>
      <trkpt lat="47.155" lon="-1.55974">
        <ele>92</ele>
        <time>2022-02-27T10:58:57Z</time>
      </trkpt>
      <trkpt lat="47.15489" lon="-1.55966">
        <ele>93</ele>
        <time>2022-02-27T10:58:59Z</time>
      </trkpt>
      <trkpt lat="47.15479" lon="-1.55957">
        <ele>93</ele>
        <time>2022-02-27T10:59:01Z</time>
      </trkpt>
      <trkpt lat="47.15468" lon="-1.55949">
        <ele>94</ele>
        <time>2022-02-27T10:59:03Z</time>
      </trkpt>
      <trkpt lat="47.15458" lon="-1.55941">
        <ele>94</ele>
        <time>2022-02-27T10:59:05Z</time>
      </trkpt>
      <trkpt lat="47.15447" lon="-1.55933">
        <ele>94</ele>
        <time>2022-02-27T10:59:07Z</time>
      </trkpt>
      <trkpt lat="47.15436" lon="-1.55924">
        <ele>93</ele>
        <time>2022-02-27T10:59:09Z</time>
      </trkpt>
      <trkpt lat="47.15425" lon="-1.55918">
        <ele>93</ele>
        <time>2022-02-27T10:59:11Z</time>
      </trkpt>
      <trkpt lat="47.15414" lon="-1.55911">
        <ele>92</ele>
        <time>2022-02-27T10:59:13Z</time>
      </trkpt>
      <trkpt lat="47.15405" lon="-1.55905">
        <ele>91</ele>
        <time>2022-02-27T10:59:15Z</time>
      </trkpt>
      <trkpt lat="47.15396" lon="-1.55897">
        <ele>90</ele>
        <time>2022-02-27T10:59:23Z</time>
      </trkpt>
      <trkpt lat="47.15386" lon="-1.55887">
        <ele>88</ele>
        <time>2022-02-27T10:59:26Z</time>
      </trkpt>
      <trkpt lat="47.15382" lon="-1.55871">
        <ele>87</ele>
        <time>2022-02-27T10:59:28Z</time>
      </trkpt>
      <trkpt lat="47.15378" lon="-1.55854">
        <ele>86</ele>
        <time>2022-02-27T10:59:30Z</time>
      </trkpt>
      <trkpt lat="47.15371" lon="-1.55838">
        <ele>86</ele>
        <time>2022-02-27T10:59:32Z</time>
      </trkpt>
      <trkpt lat="47.15363" lon="-1.55823">
        <ele>85</ele>
        <time>2022-02-27T10:59:34Z</time>
      </trkpt>
      <trkpt lat="47.15356" lon="-1.55808">
        <ele>84</ele>
        <time>2022-02-27T10:59:36Z</time>
      </trkpt>
      <trkpt lat="47.15348" lon="-1.55794">
        <ele>84</ele>
        <time>2022-02-27T10:59:38Z</time>
      </trkpt>
      <trkpt lat="47.15341" lon="-1.5578">
        <ele>84</ele>
        <time>2022-02-27T10:59:40Z</time>
      </trkpt>
      <trkpt lat="47.15334" lon="-1.55764">
        <ele>83</ele>
        <time>2022-02-27T10:59:42Z</time>
      </trkpt>
      <trkpt lat="47.15326" lon="-1.55749">
        <ele>83</ele>
        <time>2022-02-27T10:59:44Z</time>
      </trkpt>
      <trkpt lat="47.15319" lon="-1.55735">
        <ele>83</ele>
        <time>2022-02-27T10:59:46Z</time>
      </trkpt>
      <trkpt lat="47.15311" lon="-1.55719">
        <ele>83</ele>
        <time>2022-02-27T10:59:48Z</time>
      </trkpt>
      <trkpt lat="47.15304" lon="-1.55705">
        <ele>83</ele>
        <time>2022-02-27T10:59:50Z</time>
      </trkpt>
      <trkpt lat="47.15296" lon="-1.55689">
        <ele>82</ele>
        <time>2022-02-27T10:59:52Z</time>
      </trkpt>
      <trkpt lat="47.15288" lon="-1.55674">
        <ele>82</ele>
        <time>2022-02-27T10:59:54Z</time>
      </trkpt>
      <trkpt lat="47.1528" lon="-1.55659">
        <ele>82</ele>
        <time>2022-02-27T10:59:56Z</time>
      </trkpt>
      <trkpt lat="47.15274" lon="-1.55643">
        <ele>82</ele>
        <time>2022-02-27T10:59:58Z</time>
      </trkpt>
      <trkpt lat="47.15267" lon="-1.55627">
        <ele>81</ele>
        <time>2022-02-27T11:00:00Z</time>
      </trkpt>
      <trkpt lat="47.15261" lon="-1.55612">
        <ele>81</ele>
        <time>2022-02-27T11:00:02Z</time>
      </trkpt>
      <trkpt lat="47.15255" lon="-1.55596">
        <ele>81</ele>
        <time>2022-02-27T11:00:04Z</time>
      </trkpt>
      <trkpt lat="47.15249" lon="-1.55579">
        <ele>81</ele>
        <time>2022-02-27T11:00:06Z</time>
      </trkpt>
      <trkpt lat="47.15243" lon="-1.55562">
        <ele>81</ele>
        <time>2022-02-27T11:00:08Z</time>
      </trkpt>
      <trkpt lat="47.15237" lon="-1.55546">
        <ele>82</ele>
        <time>2022-02-27T11:00:10Z</time>
      </trkpt>
      <trkpt lat="47.15231" lon="-1.5553">
        <ele>82</ele>
        <time>2022-02-27T11:00:12Z</time>
      </trkpt>
      <trkpt lat="47.15225" lon="-1.55513">
        <ele>82</ele>
        <time>2022-02-27T11:00:14Z</time>
      </trkpt>
      <trkpt lat="47.15219" lon="-1.55498">
        <ele>82</ele>
        <time>2022-02-27T11:00:16Z</time>
      </trkpt>
      <trkpt lat="47.15211" lon="-1.55485">
        <ele>82</ele>
        <time>2022-02-27T11:00:18Z</time>
      </trkpt>
      <trkpt lat="47.15201" lon="-1.55475">
        <ele>82</ele>
        <time>2022-02-27T11:00:20Z</time>
      </trkpt>
      <trkpt lat="47.15188" lon="-1.55469">
        <ele>82</ele>
        <time>2022-02-27T11:00:22Z</time>
      </trkpt>
      <trkpt lat="47.15175" lon="-1.55468">
        <ele>81</ele>
        <time>2022-02-27T11:00:24Z</time>
      </trkpt>
      <trkpt lat="47.15163" lon="-1.55469">
        <ele>81</ele>
        <time>2022-02-27T11:00:26Z</time>
      </trkpt>
      <trkpt lat="47.1515" lon="-1.55471">
        <ele>80</ele>
        <time>2022-02-27T11:00:28Z</time>
      </trkpt>
      <trkpt lat="47.15138" lon="-1.55474">
        <ele>79</ele>
        <time>2022-02-27T11:00:30Z</time>
      </trkpt>
      <trkpt lat="47.15126" lon="-1.55477">
        <ele>79</ele>
        <time>2022-02-27T11:00:32Z</time>
      </trkpt>
      <trkpt lat="47.15114" lon="-1.5548">
        <ele>79</ele>
        <time>2022-02-27T11:00:34Z</time>
      </trkpt>
      <trkpt lat="47.15102" lon="-1.55484">
        <ele>78</ele>
        <time>2022-02-27T11:00:36Z</time>
      </trkpt>
      <trkpt lat="47.1509" lon="-1.55488">
        <ele>78</ele>
        <time>2022-02-27T11:00:38Z</time>
      </trkpt>
      <trkpt lat="47.15077" lon="-1.55491">
        <ele>78</ele>
        <time>2022-02-27T11:00:40Z</time>
      </trkpt>
      <trkpt lat="47.15065" lon="-1.55495">
        <ele>78</ele>
        <time>2022-02-27T11:00:42Z</time>
      </trkpt>
      <trkpt lat="47.15052" lon="-1.55498">
        <ele>77</ele>
        <time>2022-02-27T11:00:44Z</time>
      </trkpt>
      <trkpt lat="47.1504" lon="-1.55501">
        <ele>77</ele>
        <time>2022-02-27T11:00:46Z</time>
      </trkpt>
      <trkpt lat="47.15028" lon="-1.55504">
        <ele>76</ele>
        <time>2022-02-27T11:00:48Z</time>
      </trkpt>
      <trkpt lat="47.15015" lon="-1.55507">
        <ele>76</ele>
        <time>2022-02-27T11:00:50Z</time>
      </trkpt>
      <trkpt lat="47.15003" lon="-1.5551">
        <ele>75</ele>
        <time>2022-02-27T11:00:52Z</time>
      </trkpt>
      <trkpt lat="47.1499" lon="-1.55514">
        <ele>75</ele>
        <time>2022-02-27T11:00:54Z</time>
      </trkpt>
      <trkpt lat="47.14977" lon="-1.55517">
        <ele>75</ele>
        <time>2022-02-27T11:00:56Z</time>
      </trkpt>
      <trkpt lat="47.14965" lon="-1.5552">
        <ele>75</ele>
        <time>2022-02-27T11:00:58Z</time>
      </trkpt>
      <trkpt lat="47.14952" lon="-1.55524">
        <ele>75</ele>
        <time>2022-02-27T11:01:00Z</time>
      </trkpt>
      <trkpt lat="47.14939" lon="-1.55527">
        <ele>75</ele>
        <time>2022-02-27T11:01:02Z</time>
      </trkpt>
      <trkpt lat="47.14927" lon="-1.55531">
        <ele>75</ele>
        <time>2022-02-27T11:01:04Z</time>
      </trkpt>
      <trkpt lat="47.14914" lon="-1.55534">
        <ele>75</ele>
        <time>2022-02-27T11:01:06Z</time>
      </trkpt>
      <trkpt lat="47.14901" lon="-1.55538">
        <ele>75</ele>
        <time>2022-02-27T11:01:08Z</time>
      </trkpt>
      <trkpt lat="47.14882" lon="-1.55538">
        <ele>75</ele>
        <time>2022-02-27T11:01:11Z</time>
      </trkpt>
      <trkpt lat="47.14868" lon="-1.55534">
        <ele>75</ele>
        <time>2022-02-27T11:01:13Z</time>
      </trkpt>
      <trkpt lat="47.14856" lon="-1.55527">
        <ele>75</ele>
        <time>2022-02-27T11:01:15Z</time>
      </trkpt>
      <trkpt lat="47.14845" lon="-1.55515">
        <ele>74</ele>
        <time>2022-02-27T11:01:17Z</time>
      </trkpt>
      <trkpt lat="47.14834" lon="-1.55503">
        <ele>74</ele>
        <time>2022-02-27T11:01:19Z</time>
      </trkpt>
      <trkpt lat="47.14824" lon="-1.5549">
        <ele>74</ele>
        <time>2022-02-27T11:01:21Z</time>
      </trkpt>
      <trkpt lat="47.14813" lon="-1.55477">
        <ele>74</ele>
        <time>2022-02-27T11:01:23Z</time>
      </trkpt>
      <trkpt lat="47.14802" lon="-1.55465">
        <ele>74</ele>
        <time>2022-02-27T11:01:25Z</time>
      </trkpt>
      <trkpt lat="47.14792" lon="-1.55454">
        <ele>74</ele>
        <time>2022-02-27T11:01:27Z</time>
      </trkpt>
      <trkpt lat="47.14781" lon="-1.55443">
        <ele>74</ele>
        <time>2022-02-27T11:01:29Z</time>
      </trkpt>
      <trkpt lat="47.1477" lon="-1.55433">
        <ele>75</ele>
        <time>2022-02-27T11:01:31Z</time>
      </trkpt>
      <trkpt lat="47.14758" lon="-1.55422">
        <ele>74</ele>
        <time>2022-02-27T11:01:33Z</time>
      </trkpt>
      <trkpt lat="47.14746" lon="-1.55413">
        <ele>74</ele>
        <time>2022-02-27T11:01:35Z</time>
      </trkpt>
      <trkpt lat="47.14735" lon="-1.55402">
        <ele>75</ele>
        <time>2022-02-27T11:01:37Z</time>
      </trkpt>
      <trkpt lat="47.14724" lon="-1.55393">
        <ele>75</ele>
        <time>2022-02-27T11:01:39Z</time>
      </trkpt>
      <trkpt lat="47.14713" lon="-1.55382">
        <ele>74</ele>
        <time>2022-02-27T11:01:41Z</time>
      </trkpt>
      <trkpt lat="47.14702" lon="-1.5537">
        <ele>74</ele>
        <time>2022-02-27T11:01:43Z</time>
      </trkpt>
      <trkpt lat="47.14692" lon="-1.55359">
        <ele>74</ele>
        <time>2022-02-27T11:01:45Z</time>
      </trkpt>
      <trkpt lat="47.14682" lon="-1.55346">
        <ele>73</ele>
        <time>2022-02-27T11:01:47Z</time>
      </trkpt>
      <trkpt lat="47.14673" lon="-1.55334">
        <ele>73</ele>
        <time>2022-02-27T11:01:49Z</time>
      </trkpt>
      <trkpt lat="47.14664" lon="-1.55322">
        <ele>73</ele>
        <time>2022-02-27T11:01:51Z</time>
      </trkpt>
      <trkpt lat="47.14654" lon="-1.55309">
        <ele>73</ele>
        <time>2022-02-27T11:01:53Z</time>
      </trkpt>
      <trkpt lat="47.14645" lon="-1.55296">
        <ele>73</ele>
        <time>2022-02-27T11:01:55Z</time>
      </trkpt>
      <trkpt lat="47.14636" lon="-1.55282">
        <ele>73</ele>
        <time>2022-02-27T11:01:57Z</time>
      </trkpt>
      <trkpt lat="47.14627" lon="-1.55268">
        <ele>73</ele>
        <time>2022-02-27T11:01:59Z</time>
      </trkpt>
      <trkpt lat="47.14618" lon="-1.55255">
        <ele>72</ele>
        <time>2022-02-27T11:02:01Z</time>
      </trkpt>
      <trkpt lat="47.14609" lon="-1.5524">
        <ele>72</ele>
        <time>2022-02-27T11:02:03Z</time>
      </trkpt>
      <trkpt lat="47.14601" lon="-1.55226">
        <ele>72</ele>
        <time>2022-02-27T11:02:05Z</time>
      </trkpt>
      <trkpt lat="47.14593" lon="-1.55211">
        <ele>72</ele>
        <time>2022-02-27T11:02:07Z</time>
      </trkpt>
      <trkpt lat="47.14584" lon="-1.55196">
        <ele>72</ele>
        <time>2022-02-27T11:02:09Z</time>
      </trkpt>
      <trkpt lat="47.14576" lon="-1.55181">
        <ele>72</ele>
        <time>2022-02-27T11:02:11Z</time>
      </trkpt>
      <trkpt lat="47.14568" lon="-1.55165">
        <ele>72</ele>
        <time>2022-02-27T11:02:13Z</time>
      </trkpt>
      <trkpt lat="47.1456" lon="-1.55149">
        <ele>72</ele>
        <time>2022-02-27T11:02:15Z</time>
      </trkpt>
      <trkpt lat="47.14551" lon="-1.55133">
        <ele>71</ele>
        <time>2022-02-27T11:02:17Z</time>
      </trkpt>
      <trkpt lat="47.14541" lon="-1.55117">
        <ele>71</ele>
        <time>2022-02-27T11:02:19Z</time>
      </trkpt>
      <trkpt lat="47.14532" lon="-1.55099">
        <ele>71</ele>
        <time>2022-02-27T11:02:21Z</time>
      </trkpt>
      <trkpt lat="47.14524" lon="-1.55082">
        <ele>70</ele>
        <time>2022-02-27T11:02:23Z</time>
      </trkpt>
      <trkpt lat="47.14515" lon="-1.55063">
        <ele>70</ele>
        <time>2022-02-27T11:02:25Z</time>
      </trkpt>
      <trkpt lat="47.14507" lon="-1.55045">
        <ele>71</ele>
        <time>2022-02-27T11:02:27Z</time>
      </trkpt>
      <trkpt lat="47.145" lon="-1.55027">
        <ele>72</ele>
        <time>2022-02-27T11:02:29Z</time>
      </trkpt>
      <trkpt lat="47.14491" lon="-1.55011">
        <ele>72</ele>
        <time>2022-02-27T11:02:31Z</time>
      </trkpt>
      <trkpt lat="47.14482" lon="-1.54997">
        <ele>73</ele>
        <time>2022-02-27T11:02:33Z</time>
      </trkpt>
      <trkpt lat="47.14472" lon="-1.54985">
        <ele>73</ele>
        <time>2022-02-27T11:02:35Z</time>
      </trkpt>
      <trkpt lat="47.14462" lon="-1.54973">
        <ele>74</ele>
        <time>2022-02-27T11:02:37Z</time>
      </trkpt>
      <trkpt lat="47.14451" lon="-1.54962">
        <ele>74</ele>
        <time>2022-02-27T11:02:39Z</time>
      </trkpt>
      <trkpt lat="47.1444" lon="-1.54951">
        <ele>74</ele>
        <time>2022-02-27T11:02:41Z</time>
      </trkpt>
      <trkpt lat="47.14428" lon="-1.54941">
        <ele>74</ele>
        <time>2022-02-27T11:02:43Z</time>
      </trkpt>
      <trkpt lat="47.14417" lon="-1.54929">
        <ele>74</ele>
        <time>2022-02-27T11:02:45Z</time>
      </trkpt>
      <trkpt lat="47.14407" lon="-1.54918">
        <ele>73</ele>
        <time>2022-02-27T11:02:47Z</time>
      </trkpt>
      <trkpt lat="47.14396" lon="-1.54907">
        <ele>72</ele>
        <time>2022-02-27T11:02:49Z</time>
      </trkpt>
      <trkpt lat="47.14385" lon="-1.54896">
        <ele>72</ele>
        <time>2022-02-27T11:02:51Z</time>
      </trkpt>
      <trkpt lat="47.14375" lon="-1.54885">
        <ele>72</ele>
        <time>2022-02-27T11:02:53Z</time>
      </trkpt>
      <trkpt lat="47.14365" lon="-1.54875">
        <ele>73</ele>
        <time>2022-02-27T11:02:55Z</time>
      </trkpt>
      <trkpt lat="47.14355" lon="-1.54865">
        <ele>73</ele>
        <time>2022-02-27T11:02:57Z</time>
      </trkpt>
      <trkpt lat="47.14345" lon="-1.54855">
        <ele>74</ele>
        <time>2022-02-27T11:02:59Z</time>
      </trkpt>
      <trkpt lat="47.14335" lon="-1.54845">
        <ele>74</ele>
        <time>2022-02-27T11:03:01Z</time>
      </trkpt>
      <trkpt lat="47.14324" lon="-1.54836">
        <ele>74</ele>
        <time>2022-02-27T11:03:03Z</time>
      </trkpt>
      <trkpt lat="47.14313" lon="-1.54827">
        <ele>74</ele>
        <time>2022-02-27T11:03:05Z</time>
      </trkpt>
      <trkpt lat="47.14302" lon="-1.54819">
        <ele>74</ele>
        <time>2022-02-27T11:03:07Z</time>
      </trkpt>
      <trkpt lat="47.1429" lon="-1.54811">
        <ele>75</ele>
        <time>2022-02-27T11:03:09Z</time>
      </trkpt>
      <trkpt lat="47.14278" lon="-1.54802">
        <ele>74</ele>
        <time>2022-02-27T11:03:11Z</time>
      </trkpt>
      <trkpt lat="47.14267" lon="-1.54793">
        <ele>74</ele>
        <time>2022-02-27T11:03:13Z</time>
      </trkpt>
      <trkpt lat="47.14256" lon="-1.54785">
        <ele>74</ele>
        <time>2022-02-27T11:03:15Z</time>
      </trkpt>
      <trkpt lat="47.14245" lon="-1.54777">
        <ele>74</ele>
        <time>2022-02-27T11:03:17Z</time>
      </trkpt>
      <trkpt lat="47.14235" lon="-1.54768">
        <ele>74</ele>
        <time>2022-02-27T11:03:19Z</time>
      </trkpt>
      <trkpt lat="47.14225" lon="-1.54761">
        <ele>74</ele>
        <time>2022-02-27T11:03:21Z</time>
      </trkpt>
      <trkpt lat="47.14216" lon="-1.54755">
        <ele>75</ele>
        <time>2022-02-27T11:03:23Z</time>
      </trkpt>
      <trkpt lat="47.14207" lon="-1.54748">
        <ele>75</ele>
        <time>2022-02-27T11:03:25Z</time>
      </trkpt>
      <trkpt lat="47.14199" lon="-1.54742">
        <ele>75</ele>
        <time>2022-02-27T11:03:27Z</time>
      </trkpt>
      <trkpt lat="47.1419" lon="-1.54736">
        <ele>75</ele>
        <time>2022-02-27T11:03:30Z</time>
      </trkpt>
      <trkpt lat="47.14188" lon="-1.54721">
        <ele>76</ele>
        <time>2022-02-27T11:03:33Z</time>
      </trkpt>
      <trkpt lat="47.14191" lon="-1.54705">
        <ele>76</ele>
        <time>2022-02-27T11:03:35Z</time>
      </trkpt>
      <trkpt lat="47.14195" lon="-1.54689">
        <ele>75</ele>
        <time>2022-02-27T11:03:37Z</time>
      </trkpt>
      <trkpt lat="47.14196" lon="-1.54672">
        <ele>74</ele>
        <time>2022-02-27T11:03:39Z</time>
      </trkpt>
      <trkpt lat="47.1419" lon="-1.54657">
        <ele>73</ele>
        <time>2022-02-27T11:03:41Z</time>
      </trkpt>
      <trkpt lat="47.1418" lon="-1.54645">
        <ele>74</ele>
        <time>2022-02-27T11:03:43Z</time>
      </trkpt>
      <trkpt lat="47.1417" lon="-1.54634">
        <ele>74</ele>
        <time>2022-02-27T11:03:45Z</time>
      </trkpt>
      <trkpt lat="47.1416" lon="-1.54622">
        <ele>74</ele>
        <time>2022-02-27T11:03:47Z</time>
      </trkpt>
      <trkpt lat="47.1415" lon="-1.5461">
        <ele>74</ele>
        <time>2022-02-27T11:03:49Z</time>
      </trkpt>
      <trkpt lat="47.14141" lon="-1.54598">
        <ele>73</ele>
        <time>2022-02-27T11:03:51Z</time>
      </trkpt>
      <trkpt lat="47.14131" lon="-1.54587">
        <ele>74</ele>
        <time>2022-02-27T11:03:53Z</time>
      </trkpt>
      <trkpt lat="47.14121" lon="-1.54576">
        <ele>74</ele>
        <time>2022-02-27T11:03:55Z</time>
      </trkpt>
      <trkpt lat="47.14112" lon="-1.54564">
        <ele>74</ele>
        <time>2022-02-27T11:03:57Z</time>
      </trkpt>
      <trkpt lat="47.14103" lon="-1.54553">
        <ele>75</ele>
        <time>2022-02-27T11:03:59Z</time>
      </trkpt>
      <trkpt lat="47.14093" lon="-1.54541">
        <ele>76</ele>
        <time>2022-02-27T11:04:01Z</time>
      </trkpt>
      <trkpt lat="47.14084" lon="-1.5453">
        <ele>76</ele>
        <time>2022-02-27T11:04:03Z</time>
      </trkpt>
      <trkpt lat="47.14075" lon="-1.54519">
        <ele>77</ele>
        <time>2022-02-27T11:04:05Z</time>
      </trkpt>
      <trkpt lat="47.14065" lon="-1.5451">
        <ele>78</ele>
        <time>2022-02-27T11:04:07Z</time>
      </trkpt>
      <trkpt lat="47.14056" lon="-1.54501">
        <ele>78</ele>
        <time>2022-02-27T11:04:09Z</time>
      </trkpt>
      <trkpt lat="47.14046" lon="-1.54492">
        <ele>78</ele>
        <time>2022-02-27T11:04:11Z</time>
      </trkpt>
      <trkpt lat="47.14037" lon="-1.54483">
        <ele>78</ele>
        <time>2022-02-27T11:04:13Z</time>
      </trkpt>
      <trkpt lat="47.14027" lon="-1.54475">
        <ele>79</ele>
        <time>2022-02-27T11:04:15Z</time>
      </trkpt>
      <trkpt lat="47.14017" lon="-1.54467">
        <ele>79</ele>
        <time>2022-02-27T11:04:17Z</time>
      </trkpt>
      <trkpt lat="47.14008" lon="-1.5446">
        <ele>80</ele>
        <time>2022-02-27T11:04:19Z</time>
      </trkpt>
      <trkpt lat="47.13998" lon="-1.54452">
        <ele>80</ele>
        <time>2022-02-27T11:04:21Z</time>
      </trkpt>
      <trkpt lat="47.13989" lon="-1.54444">
        <ele>80</ele>
        <time>2022-02-27T11:04:23Z</time>
      </trkpt>
      <trkpt lat="47.13979" lon="-1.54436">
        <ele>81</ele>
        <time>2022-02-27T11:04:25Z</time>
      </trkpt>
      <trkpt lat="47.13969" lon="-1.54427">
        <ele>80</ele>
        <time>2022-02-27T11:04:27Z</time>
      </trkpt>
      <trkpt lat="47.13958" lon="-1.54418">
        <ele>78</ele>
        <time>2022-02-27T11:04:29Z</time>
      </trkpt>
      <trkpt lat="47.13948" lon="-1.5441">
        <ele>78</ele>
        <time>2022-02-27T11:04:31Z</time>
      </trkpt>
      <trkpt lat="47.13939" lon="-1.54403">
        <ele>78</ele>
        <time>2022-02-27T11:04:33Z</time>
      </trkpt>
      <trkpt lat="47.13929" lon="-1.54395">
        <ele>77</ele>
        <time>2022-02-27T11:04:35Z</time>
      </trkpt>
      <trkpt lat="47.1392" lon="-1.54387">
        <ele>78</ele>
        <time>2022-02-27T11:04:37Z</time>
      </trkpt>
      <trkpt lat="47.1391" lon="-1.54379">
        <ele>78</ele>
        <time>2022-02-27T11:04:39Z</time>
      </trkpt>
      <trkpt lat="47.13901" lon="-1.54371">
        <ele>78</ele>
        <time>2022-02-27T11:04:41Z</time>
      </trkpt>
      <trkpt lat="47.13891" lon="-1.54362">
        <ele>78</ele>
        <time>2022-02-27T11:04:43Z</time>
      </trkpt>
      <trkpt lat="47.13881" lon="-1.54354">
        <ele>78</ele>
        <time>2022-02-27T11:04:45Z</time>
      </trkpt>
      <trkpt lat="47.13871" lon="-1.54346">
        <ele>78</ele>
        <time>2022-02-27T11:04:47Z</time>
      </trkpt>
      <trkpt lat="47.13861" lon="-1.54338">
        <ele>77</ele>
        <time>2022-02-27T11:04:49Z</time>
      </trkpt>
      <trkpt lat="47.13851" lon="-1.5433">
        <ele>77</ele>
        <time>2022-02-27T11:04:51Z</time>
      </trkpt>
      <trkpt lat="47.1384" lon="-1.54323">
        <ele>77</ele>
        <time>2022-02-27T11:04:53Z</time>
      </trkpt>
      <trkpt lat="47.1383" lon="-1.54317">
        <ele>78</ele>
        <time>2022-02-27T11:04:55Z</time>
      </trkpt>
      <trkpt lat="47.13819" lon="-1.54311">
        <ele>78</ele>
        <time>2022-02-27T11:04:57Z</time>
      </trkpt>
      <trkpt lat="47.13809" lon="-1.54306">
        <ele>79</ele>
        <time>2022-02-27T11:04:59Z</time>
      </trkpt>
      <trkpt lat="47.13798" lon="-1.54302">
        <ele>79</ele>
        <time>2022-02-27T11:05:01Z</time>
      </trkpt>
      <trkpt lat="47.13787" lon="-1.54296">
        <ele>80</ele>
        <time>2022-02-27T11:05:03Z</time>
      </trkpt>
      <trkpt lat="47.13776" lon="-1.54291">
        <ele>81</ele>
        <time>2022-02-27T11:05:05Z</time>
      </trkpt>
      <trkpt lat="47.13766" lon="-1.54288">
        <ele>82</ele>
        <time>2022-02-27T11:05:07Z</time>
      </trkpt>
      <trkpt lat="47.13756" lon="-1.54285">
        <ele>83</ele>
        <time>2022-02-27T11:05:09Z</time>
      </trkpt>
      <trkpt lat="47.13746" lon="-1.5428">
        <ele>84</ele>
        <time>2022-02-27T11:05:11Z</time>
      </trkpt>
      <trkpt lat="47.13736" lon="-1.54276">
        <ele>85</ele>
        <time>2022-02-27T11:05:13Z</time>
      </trkpt>
      <trkpt lat="47.13725" lon="-1.54271">
        <ele>85</ele>
        <time>2022-02-27T11:05:15Z</time>
      </trkpt>
      <trkpt lat="47.13714" lon="-1.54265">
        <ele>85</ele>
        <time>2022-02-27T11:05:17Z</time>
      </trkpt>
      <trkpt lat="47.13701" lon="-1.54259">
        <ele>84</ele>
        <time>2022-02-27T11:05:19Z</time>
      </trkpt>
      <trkpt lat="47.13688" lon="-1.54252">
        <ele>82</ele>
        <time>2022-02-27T11:05:21Z</time>
      </trkpt>
      <trkpt lat="47.13676" lon="-1.54245">
        <ele>81</ele>
        <time>2022-02-27T11:05:23Z</time>
      </trkpt>
      <trkpt lat="47.13665" lon="-1.54239">
        <ele>81</ele>
        <time>2022-02-27T11:05:25Z</time>
      </trkpt>
      <trkpt lat="47.13653" lon="-1.54233">
        <ele>81</ele>
        <time>2022-02-27T11:05:27Z</time>
      </trkpt>
      <trkpt lat="47.13641" lon="-1.54227">
        <ele>81</ele>
        <time>2022-02-27T11:05:29Z</time>
      </trkpt>
      <trkpt lat="47.13629" lon="-1.54221">
        <ele>80</ele>
        <time>2022-02-27T11:05:31Z</time>
      </trkpt>
      <trkpt lat="47.13617" lon="-1.54213">
        <ele>80</ele>
        <time>2022-02-27T11:05:33Z</time>
      </trkpt>
      <trkpt lat="47.13606" lon="-1.54205">
        <ele>80</ele>
        <time>2022-02-27T11:05:35Z</time>
      </trkpt>
      <trkpt lat="47.13594" lon="-1.54195">
        <ele>81</ele>
        <time>2022-02-27T11:05:37Z</time>
      </trkpt>
      <trkpt lat="47.13583" lon="-1.54186">
        <ele>82</ele>
        <time>2022-02-27T11:05:39Z</time>
      </trkpt>
      <trkpt lat="47.13572" lon="-1.54174">
        <ele>81</ele>
        <time>2022-02-27T11:05:41Z</time>
      </trkpt>
      <trkpt lat="47.13563" lon="-1.5416">
        <ele>81</ele>
        <time>2022-02-27T11:05:43Z</time>
      </trkpt>
      <trkpt lat="47.13554" lon="-1.54147">
        <ele>80</ele>
        <time>2022-02-27T11:05:45Z</time>
      </trkpt>
      <trkpt lat="47.13545" lon="-1.54133">
        <ele>79</ele>
        <time>2022-02-27T11:05:47Z</time>
      </trkpt>
      <trkpt lat="47.13536" lon="-1.54119">
        <ele>78</ele>
        <time>2022-02-27T11:05:49Z</time>
      </trkpt>
      <trkpt lat="47.13527" lon="-1.54105">
        <ele>78</ele>
        <time>2022-02-27T11:05:51Z</time>
      </trkpt>
      <trkpt lat="47.13518" lon="-1.54092">
        <ele>78</ele>
        <time>2022-02-27T11:05:53Z</time>
      </trkpt>
      <trkpt lat="47.13509" lon="-1.54078">
        <ele>78</ele>
        <time>2022-02-27T11:05:55Z</time>
      </trkpt>
      <trkpt lat="47.135" lon="-1.54065">
        <ele>77</ele>
        <time>2022-02-27T11:05:57Z</time>
      </trkpt>
      <trkpt lat="47.13491" lon="-1.54052">
        <ele>78</ele>
        <time>2022-02-27T11:05:59Z</time>
      </trkpt>
      <trkpt lat="47.13483" lon="-1.54038">
        <ele>77</ele>
        <time>2022-02-27T11:06:01Z</time>
      </trkpt>
      <trkpt lat="47.13474" lon="-1.54024">
        <ele>77</ele>
        <time>2022-02-27T11:06:03Z</time>
      </trkpt>
      <trkpt lat="47.13466" lon="-1.54009">
        <ele>77</ele>
        <time>2022-02-27T11:06:05Z</time>
      </trkpt>
      <trkpt lat="47.13457" lon="-1.53994">
        <ele>77</ele>
        <time>2022-02-27T11:06:07Z</time>
      </trkpt>
      <trkpt lat="47.13449" lon="-1.53978">
        <ele>77</ele>
        <time>2022-02-27T11:06:09Z</time>
      </trkpt>
      <trkpt lat="47.13441" lon="-1.53963">
        <ele>77</ele>
        <time>2022-02-27T11:06:11Z</time>
      </trkpt>
      <trkpt lat="47.13433" lon="-1.53948">
        <ele>76</ele>
        <time>2022-02-27T11:06:13Z</time>
      </trkpt>
      <trkpt lat="47.13425" lon="-1.53933">
        <ele>76</ele>
        <time>2022-02-27T11:06:15Z</time>
      </trkpt>
      <trkpt lat="47.13417" lon="-1.53918">
        <ele>76</ele>
        <time>2022-02-27T11:06:17Z</time>
      </trkpt>
      <trkpt lat="47.13409" lon="-1.53903">
        <ele>76</ele>
        <time>2022-02-27T11:06:19Z</time>
      </trkpt>
      <trkpt lat="47.13401" lon="-1.53888">
        <ele>76</ele>
        <time>2022-02-27T11:06:21Z</time>
      </trkpt>
      <trkpt lat="47.13393" lon="-1.53873">
        <ele>77</ele>
        <time>2022-02-27T11:06:23Z</time>
      </trkpt>
      <trkpt lat="47.13386" lon="-1.53859">
        <ele>77</ele>
        <time>2022-02-27T11:06:25Z</time>
      </trkpt>
      <trkpt lat="47.13378" lon="-1.53844">
        <ele>77</ele>
        <time>2022-02-27T11:06:27Z</time>
      </trkpt>
      <trkpt lat="47.13371" lon="-1.5383">
        <ele>78</ele>
        <time>2022-02-27T11:06:29Z</time>
      </trkpt>
      <trkpt lat="47.13363" lon="-1.53816">
        <ele>79</ele>
        <time>2022-02-27T11:06:31Z</time>
      </trkpt>
      <trkpt lat="47.13356" lon="-1.53803">
        <ele>79</ele>
        <time>2022-02-27T11:06:33Z</time>
      </trkpt>
      <trkpt lat="47.13349" lon="-1.53789">
        <ele>80</ele>
        <time>2022-02-27T11:06:35Z</time>
      </trkpt>
      <trkpt lat="47.13342" lon="-1.53776">
        <ele>81</ele>
        <time>2022-02-27T11:06:37Z</time>
      </trkpt>
      <trkpt lat="47.13335" lon="-1.53761">
        <ele>81</ele>
        <time>2022-02-27T11:06:39Z</time>
      </trkpt>
      <trkpt lat="47.13327" lon="-1.53747">
        <ele>81</ele>
        <time>2022-02-27T11:06:41Z</time>
      </trkpt>
      <trkpt lat="47.1332" lon="-1.53732">
        <ele>81</ele>
        <time>2022-02-27T11:06:43Z</time>
      </trkpt>
      <trkpt lat="47.13313" lon="-1.53716">
        <ele>80</ele>
        <time>2022-02-27T11:06:45Z</time>
      </trkpt>
      <trkpt lat="47.13307" lon="-1.53701">
        <ele>80</ele>
        <time>2022-02-27T11:06:47Z</time>
      </trkpt>
      <trkpt lat="47.13301" lon="-1.53686">
        <ele>80</ele>
        <time>2022-02-27T11:06:49Z</time>
      </trkpt>
      <trkpt lat="47.13296" lon="-1.53671">
        <ele>80</ele>
        <time>2022-02-27T11:06:51Z</time>
      </trkpt>
      <trkpt lat="47.1329" lon="-1.53655">
        <ele>80</ele>
        <time>2022-02-27T11:06:53Z</time>
      </trkpt>
      <trkpt lat="47.13285" lon="-1.53639">
        <ele>80</ele>
        <time>2022-02-27T11:06:55Z</time>
      </trkpt>
      <trkpt lat="47.1328" lon="-1.53623">
        <ele>80</ele>
        <time>2022-02-27T11:06:57Z</time>
      </trkpt>
      <trkpt lat="47.13275" lon="-1.53608">
        <ele>80</ele>
        <time>2022-02-27T11:06:59Z</time>
      </trkpt>
      <trkpt lat="47.1327" lon="-1.53591">
        <ele>81</ele>
        <time>2022-02-27T11:07:01Z</time>
      </trkpt>
      <trkpt lat="47.13265" lon="-1.53575">
        <ele>80</ele>
        <time>2022-02-27T11:07:03Z</time>
      </trkpt>
      <trkpt lat="47.13259" lon="-1.53559">
        <ele>80</ele>
        <time>2022-02-27T11:07:05Z</time>
      </trkpt>
      <trkpt lat="47.13254" lon="-1.53543">
        <ele>80</ele>
        <time>2022-02-27T11:07:07Z</time>
      </trkpt>
      <trkpt lat="47.13249" lon="-1.53526">
        <ele>80</ele>
        <time>2022-02-27T11:07:09Z</time>
      </trkpt>
      <trkpt lat="47.13243" lon="-1.5351">
        <ele>79</ele>
        <time>2022-02-27T11:07:11Z</time>
      </trkpt>
      <trkpt lat="47.13238" lon="-1.53493">
        <ele>79</ele>
        <time>2022-02-27T11:07:13Z</time>
      </trkpt>
      <trkpt lat="47.13233" lon="-1.53477">
        <ele>78</ele>
        <time>2022-02-27T11:07:15Z</time>
      </trkpt>
      <trkpt lat="47.13228" lon="-1.53462">
        <ele>78</ele>
        <time>2022-02-27T11:07:17Z</time>
      </trkpt>
      <trkpt lat="47.13223" lon="-1.53445">
        <ele>78</ele>
        <time>2022-02-27T11:07:19Z</time>
      </trkpt>
      <trkpt lat="47.13218" lon="-1.53429">
        <ele>78</ele>
        <time>2022-02-27T11:07:21Z</time>
      </trkpt>
      <trkpt lat="47.13212" lon="-1.53413">
        <ele>78</ele>
        <time>2022-02-27T11:07:23Z</time>
      </trkpt>
      <trkpt lat="47.13208" lon="-1.53397">
        <ele>77</ele>
        <time>2022-02-27T11:07:25Z</time>
      </trkpt>
      <trkpt lat="47.13202" lon="-1.5338">
        <ele>77</ele>
        <time>2022-02-27T11:07:27Z</time>
      </trkpt>
      <trkpt lat="47.13197" lon="-1.53364">
        <ele>77</ele>
        <time>2022-02-27T11:07:29Z</time>
      </trkpt>
      <trkpt lat="47.13191" lon="-1.53348">
        <ele>76</ele>
        <time>2022-02-27T11:07:31Z</time>
      </trkpt>
      <trkpt lat="47.13186" lon="-1.53332">
        <ele>76</ele>
        <time>2022-02-27T11:07:33Z</time>
      </trkpt>
      <trkpt lat="47.13181" lon="-1.53316">
        <ele>77</ele>
        <time>2022-02-27T11:07:35Z</time>
      </trkpt>
      <trkpt lat="47.13176" lon="-1.533">
        <ele>77</ele>
        <time>2022-02-27T11:07:37Z</time>
      </trkpt>
      <trkpt lat="47.13171" lon="-1.53284">
        <ele>77</ele>
        <time>2022-02-27T11:07:39Z</time>
      </trkpt>
      <trkpt lat="47.13166" lon="-1.53269">
        <ele>77</ele>
        <time>2022-02-27T11:07:41Z</time>
      </trkpt>
      <trkpt lat="47.13162" lon="-1.53254">
        <ele>77</ele>
        <time>2022-02-27T11:07:43Z</time>
      </trkpt>
      <trkpt lat="47.13157" lon="-1.5324">
        <ele>77</ele>
        <time>2022-02-27T11:07:45Z</time>
      </trkpt>
      <trkpt lat="47.13156" lon="-1.53224">
        <ele>77</ele>
        <time>2022-02-27T11:07:48Z</time>
      </trkpt>
      <trkpt lat="47.13163" lon="-1.53214">
        <ele>77</ele>
        <time>2022-02-27T11:07:50Z</time>
      </trkpt>
      <trkpt lat="47.13175" lon="-1.5321">
        <ele>77</ele>
        <time>2022-02-27T11:07:52Z</time>
      </trkpt>
      <trkpt lat="47.13187" lon="-1.53205">
        <ele>77</ele>
        <time>2022-02-27T11:07:54Z</time>
      </trkpt>
      <trkpt lat="47.13199" lon="-1.53199">
        <ele>77</ele>
        <time>2022-02-27T11:07:56Z</time>
      </trkpt>
      <trkpt lat="47.13212" lon="-1.53194">
        <ele>76</ele>
        <time>2022-02-27T11:07:58Z</time>
      </trkpt>
      <trkpt lat="47.13224" lon="-1.5319">
        <ele>76</ele>
        <time>2022-02-27T11:08:00Z</time>
      </trkpt>
      <trkpt lat="47.13237" lon="-1.53185">
        <ele>76</ele>
        <time>2022-02-27T11:08:02Z</time>
      </trkpt>
      <trkpt lat="47.13249" lon="-1.5318">
        <ele>76</ele>
        <time>2022-02-27T11:08:04Z</time>
      </trkpt>
      <trkpt lat="47.1326" lon="-1.53176">
        <ele>76</ele>
        <time>2022-02-27T11:08:06Z</time>
      </trkpt>
      <trkpt lat="47.13272" lon="-1.53171">
        <ele>75</ele>
        <time>2022-02-27T11:08:08Z</time>
      </trkpt>
      <trkpt lat="47.13283" lon="-1.53166">
        <ele>76</ele>
        <time>2022-02-27T11:08:10Z</time>
      </trkpt>
      <trkpt lat="47.13294" lon="-1.5316">
        <ele>76</ele>
        <time>2022-02-27T11:08:12Z</time>
      </trkpt>
      <trkpt lat="47.13306" lon="-1.53156">
        <ele>76</ele>
        <time>2022-02-27T11:08:14Z</time>
      </trkpt>
      <trkpt lat="47.13317" lon="-1.53152">
        <ele>76</ele>
        <time>2022-02-27T11:08:16Z</time>
      </trkpt>
      <trkpt lat="47.13329" lon="-1.53149">
        <ele>76</ele>
        <time>2022-02-27T11:08:18Z</time>
      </trkpt>
      <trkpt lat="47.13341" lon="-1.53145">
        <ele>76</ele>
        <time>2022-02-27T11:08:20Z</time>
      </trkpt>
      <trkpt lat="47.13352" lon="-1.53142">
        <ele>77</ele>
        <time>2022-02-27T11:08:22Z</time>
      </trkpt>
      <trkpt lat="47.13364" lon="-1.5314">
        <ele>77</ele>
        <time>2022-02-27T11:08:24Z</time>
      </trkpt>
      <trkpt lat="47.13376" lon="-1.53138">
        <ele>76</ele>
        <time>2022-02-27T11:08:26Z</time>
      </trkpt>
      <trkpt lat="47.13387" lon="-1.53138">
        <ele>77</ele>
        <time>2022-02-27T11:08:28Z</time>
      </trkpt>
      <trkpt lat="47.13398" lon="-1.53139">
        <ele>77</ele>
        <time>2022-02-27T11:08:30Z</time>
      </trkpt>
      <trkpt lat="47.13409" lon="-1.53139">
        <ele>77</ele>
        <time>2022-02-27T11:08:32Z</time>
      </trkpt>
      <trkpt lat="47.13421" lon="-1.53139">
        <ele>76</ele>
        <time>2022-02-27T11:08:34Z</time>
      </trkpt>
      <trkpt lat="47.13432" lon="-1.53135">
        <ele>76</ele>
        <time>2022-02-27T11:08:36Z</time>
      </trkpt>
      <trkpt lat="47.13437" lon="-1.5312">
        <ele>77</ele>
        <time>2022-02-27T11:08:38Z</time>
      </trkpt>
      <trkpt lat="47.13444" lon="-1.53105">
        <ele>78</ele>
        <time>2022-02-27T11:08:40Z</time>
      </trkpt>
      <trkpt lat="47.1345" lon="-1.5309">
        <ele>78</ele>
        <time>2022-02-27T11:08:42Z</time>
      </trkpt>
      <trkpt lat="47.13457" lon="-1.53076">
        <ele>79</ele>
        <time>2022-02-27T11:08:44Z</time>
      </trkpt>
      <trkpt lat="47.13462" lon="-1.53061">
        <ele>79</ele>
        <time>2022-02-27T11:08:46Z</time>
      </trkpt>
      <trkpt lat="47.13469" lon="-1.53046">
        <ele>80</ele>
        <time>2022-02-27T11:08:48Z</time>
      </trkpt>
      <trkpt lat="47.13475" lon="-1.53032">
        <ele>80</ele>
        <time>2022-02-27T11:08:50Z</time>
      </trkpt>
      <trkpt lat="47.13481" lon="-1.53018">
        <ele>80</ele>
        <time>2022-02-27T11:08:52Z</time>
      </trkpt>
      <trkpt lat="47.13488" lon="-1.53003">
        <ele>80</ele>
        <time>2022-02-27T11:08:54Z</time>
      </trkpt>
      <trkpt lat="47.13495" lon="-1.52989">
        <ele>80</ele>
        <time>2022-02-27T11:08:56Z</time>
      </trkpt>
      <trkpt lat="47.13501" lon="-1.52975">
        <ele>81</ele>
        <time>2022-02-27T11:08:58Z</time>
      </trkpt>
      <trkpt lat="47.13508" lon="-1.52961">
        <ele>81</ele>
        <time>2022-02-27T11:09:00Z</time>
      </trkpt>
      <trkpt lat="47.13514" lon="-1.52947">
        <ele>81</ele>
        <time>2022-02-27T11:09:02Z</time>
      </trkpt>
      <trkpt lat="47.13521" lon="-1.52932">
        <ele>80</ele>
        <time>2022-02-27T11:09:04Z</time>
      </trkpt>
      <trkpt lat="47.13527" lon="-1.52918">
        <ele>81</ele>
        <time>2022-02-27T11:09:06Z</time>
      </trkpt>
      <trkpt lat="47.13533" lon="-1.52903">
        <ele>81</ele>
        <time>2022-02-27T11:09:08Z</time>
      </trkpt>
      <trkpt lat="47.1354" lon="-1.52889">
        <ele>81</ele>
        <time>2022-02-27T11:09:10Z</time>
      </trkpt>
      <trkpt lat="47.13547" lon="-1.52874">
        <ele>81</ele>
        <time>2022-02-27T11:09:12Z</time>
      </trkpt>
      <trkpt lat="47.13553" lon="-1.5286">
        <ele>81</ele>
        <time>2022-02-27T11:09:14Z</time>
      </trkpt>
      <trkpt lat="47.1356" lon="-1.52846">
        <ele>82</ele>
        <time>2022-02-27T11:09:16Z</time>
      </trkpt>
      <trkpt lat="47.13566" lon="-1.52831">
        <ele>82</ele>
        <time>2022-02-27T11:09:18Z</time>
      </trkpt>
      <trkpt lat="47.13572" lon="-1.52816">
        <ele>82</ele>
        <time>2022-02-27T11:09:20Z</time>
      </trkpt>
      <trkpt lat="47.13579" lon="-1.52802">
        <ele>82</ele>
        <time>2022-02-27T11:09:22Z</time>
      </trkpt>
      <trkpt lat="47.13586" lon="-1.52788">
        <ele>82</ele>
        <time>2022-02-27T11:09:24Z</time>
      </trkpt>
      <trkpt lat="47.13592" lon="-1.52774">
        <ele>83</ele>
        <time>2022-02-27T11:09:26Z</time>
      </trkpt>
      <trkpt lat="47.136" lon="-1.5276">
        <ele>83</ele>
        <time>2022-02-27T11:09:28Z</time>
      </trkpt>
      <trkpt lat="47.13607" lon="-1.52747">
        <ele>83</ele>
        <time>2022-02-27T11:09:30Z</time>
      </trkpt>
      <trkpt lat="47.13615" lon="-1.52733">
        <ele>83</ele>
        <time>2022-02-27T11:09:32Z</time>
      </trkpt>
      <trkpt lat="47.13623" lon="-1.5272">
        <ele>83</ele>
        <time>2022-02-27T11:09:34Z</time>
      </trkpt>
      <trkpt lat="47.13631" lon="-1.52707">
        <ele>83</ele>
        <time>2022-02-27T11:09:36Z</time>
      </trkpt>
      <trkpt lat="47.13639" lon="-1.52695">
        <ele>83</ele>
        <time>2022-02-27T11:09:38Z</time>
      </trkpt>
      <trkpt lat="47.13647" lon="-1.52682">
        <ele>83</ele>
        <time>2022-02-27T11:09:40Z</time>
      </trkpt>
      <trkpt lat="47.13655" lon="-1.5267">
        <ele>83</ele>
        <time>2022-02-27T11:09:42Z</time>
      </trkpt>
      <trkpt lat="47.13662" lon="-1.52657">
        <ele>83</ele>
        <time>2022-02-27T11:09:44Z</time>
      </trkpt>
      <trkpt lat="47.13671" lon="-1.52643">
        <ele>83</ele>
        <time>2022-02-27T11:09:46Z</time>
      </trkpt>
      <trkpt lat="47.13679" lon="-1.52631">
        <ele>83</ele>
        <time>2022-02-27T11:09:48Z</time>
      </trkpt>
      <trkpt lat="47.13687" lon="-1.52618">
        <ele>84</ele>
        <time>2022-02-27T11:09:50Z</time>
      </trkpt>
      <trkpt lat="47.13695" lon="-1.52605">
        <ele>84</ele>
        <time>2022-02-27T11:09:52Z</time>
      </trkpt>
      <trkpt lat="47.13702" lon="-1.52593">
        <ele>85</ele>
        <time>2022-02-27T11:09:54Z</time>
      </trkpt>
      <trkpt lat="47.13711" lon="-1.52581">
        <ele>85</ele>
        <time>2022-02-27T11:09:56Z</time>
      </trkpt>
      <trkpt lat="47.13719" lon="-1.52567">
        <ele>85</ele>
        <time>2022-02-27T11:09:58Z</time>
      </trkpt>
      <trkpt lat="47.13727" lon="-1.52554">
        <ele>85</ele>
        <time>2022-02-27T11:10:00Z</time>
      </trkpt>
      <trkpt lat="47.13735" lon="-1.52541">
        <ele>85</ele>
        <time>2022-02-27T11:10:02Z</time>
      </trkpt>
      <trkpt lat="47.13743" lon="-1.52529">
        <ele>86</ele>
        <time>2022-02-27T11:10:04Z</time>
      </trkpt>
      <trkpt lat="47.13751" lon="-1.52516">
        <ele>86</ele>
        <time>2022-02-27T11:10:06Z</time>
      </trkpt>
      <trkpt lat="47.1376" lon="-1.52502">
        <ele>86</ele>
        <time>2022-02-27T11:10:08Z</time>
      </trkpt>
      <trkpt lat="47.13768" lon="-1.52489">
        <ele>86</ele>
        <time>2022-02-27T11:10:10Z</time>
      </trkpt>
      <trkpt lat="47.13777" lon="-1.52476">
        <ele>86</ele>
        <time>2022-02-27T11:10:12Z</time>
      </trkpt>
      <trkpt lat="47.13786" lon="-1.52462">
        <ele>86</ele>
        <time>2022-02-27T11:10:14Z</time>
      </trkpt>
      <trkpt lat="47.13794" lon="-1.52449">
        <ele>85</ele>
        <time>2022-02-27T11:10:16Z</time>
      </trkpt>
      <trkpt lat="47.13802" lon="-1.52435">
        <ele>85</ele>
        <time>2022-02-27T11:10:18Z</time>
      </trkpt>
      <trkpt lat="47.13811" lon="-1.52422">
        <ele>86</ele>
        <time>2022-02-27T11:10:20Z</time>
      </trkpt>
      <trkpt lat="47.1382" lon="-1.52408">
        <ele>85</ele>
        <time>2022-02-27T11:10:22Z</time>
      </trkpt>
      <trkpt lat="47.13828" lon="-1.52395">
        <ele>85</ele>
        <time>2022-02-27T11:10:24Z</time>
      </trkpt>
      <trkpt lat="47.13837" lon="-1.52382">
        <ele>85</ele>
        <time>2022-02-27T11:10:26Z</time>
      </trkpt>
      <trkpt lat="47.13845" lon="-1.52369">
        <ele>85</ele>
        <time>2022-02-27T11:10:28Z</time>
      </trkpt>
      <trkpt lat="47.13854" lon="-1.52355">
        <ele>86</ele>
        <time>2022-02-27T11:10:30Z</time>
      </trkpt>
      <trkpt lat="47.1386" lon="-1.5234">
        <ele>85</ele>
        <time>2022-02-27T11:10:32Z</time>
      </trkpt>
      <trkpt lat="47.13866" lon="-1.52324">
        <ele>85</ele>
        <time>2022-02-27T11:10:34Z</time>
      </trkpt>
      <trkpt lat="47.13875" lon="-1.52313">
        <ele>85</ele>
        <time>2022-02-27T11:10:36Z</time>
      </trkpt>
      <trkpt lat="47.13887" lon="-1.52303">
        <ele>85</ele>
        <time>2022-02-27T11:10:38Z</time>
      </trkpt>
      <trkpt lat="47.13897" lon="-1.52293">
        <ele>85</ele>
        <time>2022-02-27T11:10:40Z</time>
      </trkpt>
      <trkpt lat="47.13907" lon="-1.5228">
        <ele>84</ele>
        <time>2022-02-27T11:10:42Z</time>
      </trkpt>
      <trkpt lat="47.13916" lon="-1.52267">
        <ele>85</ele>
        <time>2022-02-27T11:10:44Z</time>
      </trkpt>
      <trkpt lat="47.13925" lon="-1.52253">
        <ele>85</ele>
        <time>2022-02-27T11:10:46Z</time>
      </trkpt>
      <trkpt lat="47.13933" lon="-1.5224">
        <ele>85</ele>
        <time>2022-02-27T11:10:48Z</time>
      </trkpt>
      <trkpt lat="47.13942" lon="-1.52227">
        <ele>86</ele>
        <time>2022-02-27T11:10:50Z</time>
      </trkpt>
      <trkpt lat="47.1395" lon="-1.52215">
        <ele>86</ele>
        <time>2022-02-27T11:10:52Z</time>
      </trkpt>
      <trkpt lat="47.13959" lon="-1.52204">
        <ele>87</ele>
        <time>2022-02-27T11:10:54Z</time>
      </trkpt>
      <trkpt lat="47.13968" lon="-1.52192">
        <ele>87</ele>
        <time>2022-02-27T11:10:56Z</time>
      </trkpt>
      <trkpt lat="47.13977" lon="-1.52179">
        <ele>87</ele>
        <time>2022-02-27T11:10:58Z</time>
      </trkpt>
      <trkpt lat="47.13987" lon="-1.52167">
        <ele>86</ele>
        <time>2022-02-27T11:11:00Z</time>
      </trkpt>
      <trkpt lat="47.13996" lon="-1.52156">
        <ele>86</ele>
        <time>2022-02-27T11:11:02Z</time>
      </trkpt>
      <trkpt lat="47.14007" lon="-1.52148">
        <ele>86</ele>
        <time>2022-02-27T11:11:04Z</time>
      </trkpt>
      <trkpt lat="47.14019" lon="-1.52133">
        <ele>86</ele>
        <time>2022-02-27T11:11:07Z</time>
      </trkpt>
      <trkpt lat="47.14025" lon="-1.52122">
        <ele>86</ele>
        <time>2022-02-27T11:11:09Z</time>
      </trkpt>
      <trkpt lat="47.1403" lon="-1.5211">
        <ele>85</ele>
        <time>2022-02-27T11:11:13Z</time>
      </trkpt>
      <trkpt lat="47.14041" lon="-1.52099">
        <ele>85</ele>
        <time>2022-02-27T11:11:20Z</time>
      </trkpt>
      <trkpt lat="47.14052" lon="-1.52093">
        <ele>85</ele>
        <time>2022-02-27T11:11:22Z</time>
      </trkpt>
      <trkpt lat="47.14064" lon="-1.52084">
        <ele>85</ele>
        <time>2022-02-27T11:11:24Z</time>
      </trkpt>
      <trkpt lat="47.14074" lon="-1.52072">
        <ele>86</ele>
        <time>2022-02-27T11:11:26Z</time>
      </trkpt>
      <trkpt lat="47.14084" lon="-1.52059">
        <ele>86</ele>
        <time>2022-02-27T11:11:28Z</time>
      </trkpt>
      <trkpt lat="47.14095" lon="-1.52048">
        <ele>86</ele>
        <time>2022-02-27T11:11:30Z</time>
      </trkpt>
      <trkpt lat="47.14106" lon="-1.52037">
        <ele>86</ele>
        <time>2022-02-27T11:11:32Z</time>
      </trkpt>
      <trkpt lat="47.14117" lon="-1.52026">
        <ele>86</ele>
        <time>2022-02-27T11:11:34Z</time>
      </trkpt>
      <trkpt lat="47.14128" lon="-1.52015">
        <ele>86</ele>
        <time>2022-02-27T11:11:36Z</time>
      </trkpt>
      <trkpt lat="47.14139" lon="-1.52005">
        <ele>87</ele>
        <time>2022-02-27T11:11:38Z</time>
      </trkpt>
      <trkpt lat="47.14149" lon="-1.51996">
        <ele>87</ele>
        <time>2022-02-27T11:11:40Z</time>
      </trkpt>
      <trkpt lat="47.1416" lon="-1.51986">
        <ele>87</ele>
        <time>2022-02-27T11:11:42Z</time>
      </trkpt>
      <trkpt lat="47.14171" lon="-1.51975">
        <ele>86</ele>
        <time>2022-02-27T11:11:44Z</time>
      </trkpt>
      <trkpt lat="47.14182" lon="-1.51965">
        <ele>86</ele>
        <time>2022-02-27T11:11:46Z</time>
      </trkpt>
      <trkpt lat="47.14193" lon="-1.51954">
        <ele>86</ele>
        <time>2022-02-27T11:11:48Z</time>
      </trkpt>
      <trkpt lat="47.14204" lon="-1.51944">
        <ele>87</ele>
        <time>2022-02-27T11:11:50Z</time>
      </trkpt>
      <trkpt lat="47.14214" lon="-1.51934">
        <ele>87</ele>
        <time>2022-02-27T11:11:52Z</time>
      </trkpt>
      <trkpt lat="47.14225" lon="-1.51924">
        <ele>87</ele>
        <time>2022-02-27T11:11:54Z</time>
      </trkpt>
      <trkpt lat="47.14235" lon="-1.51914">
        <ele>86</ele>
        <time>2022-02-27T11:11:56Z</time>
      </trkpt>
      <trkpt lat="47.14245" lon="-1.51904">
        <ele>87</ele>
        <time>2022-02-27T11:11:58Z</time>
      </trkpt>
      <trkpt lat="47.14255" lon="-1.51893">
        <ele>87</ele>
        <time>2022-02-27T11:12:00Z</time>
      </trkpt>
      <trkpt lat="47.14266" lon="-1.51882">
        <ele>87</ele>
        <time>2022-02-27T11:12:02Z</time>
      </trkpt>
      <trkpt lat="47.14277" lon="-1.51872">
        <ele>86</ele>
        <time>2022-02-27T11:12:04Z</time>
      </trkpt>
      <trkpt lat="47.14287" lon="-1.51861">
        <ele>86</ele>
        <time>2022-02-27T11:12:06Z</time>
      </trkpt>
      <trkpt lat="47.14298" lon="-1.51849">
        <ele>86</ele>
        <time>2022-02-27T11:12:08Z</time>
      </trkpt>
      <trkpt lat="47.14309" lon="-1.51839">
        <ele>86</ele>
        <time>2022-02-27T11:12:10Z</time>
      </trkpt>
      <trkpt lat="47.14319" lon="-1.51828">
        <ele>86</ele>
        <time>2022-02-27T11:12:12Z</time>
      </trkpt>
      <trkpt lat="47.1433" lon="-1.51817">
        <ele>86</ele>
        <time>2022-02-27T11:12:14Z</time>
      </trkpt>
      <trkpt lat="47.1434" lon="-1.51807">
        <ele>86</ele>
        <time>2022-02-27T11:12:16Z</time>
      </trkpt>
      <trkpt lat="47.1435" lon="-1.51795">
        <ele>86</ele>
        <time>2022-02-27T11:12:18Z</time>
      </trkpt>
      <trkpt lat="47.14361" lon="-1.51785">
        <ele>86</ele>
        <time>2022-02-27T11:12:20Z</time>
      </trkpt>
      <trkpt lat="47.14371" lon="-1.51774">
        <ele>86</ele>
        <time>2022-02-27T11:12:22Z</time>
      </trkpt>
      <trkpt lat="47.14382" lon="-1.51763">
        <ele>85</ele>
        <time>2022-02-27T11:12:24Z</time>
      </trkpt>
      <trkpt lat="47.14393" lon="-1.51752">
        <ele>86</ele>
        <time>2022-02-27T11:12:26Z</time>
      </trkpt>
      <trkpt lat="47.14403" lon="-1.51741">
        <ele>86</ele>
        <time>2022-02-27T11:12:28Z</time>
      </trkpt>
      <trkpt lat="47.14414" lon="-1.51731">
        <ele>86</ele>
        <time>2022-02-27T11:12:30Z</time>
      </trkpt>
      <trkpt lat="47.14425" lon="-1.5172">
        <ele>86</ele>
        <time>2022-02-27T11:12:32Z</time>
      </trkpt>
      <trkpt lat="47.14435" lon="-1.51709">
        <ele>85</ele>
        <time>2022-02-27T11:12:34Z</time>
      </trkpt>
      <trkpt lat="47.14447" lon="-1.51698">
        <ele>85</ele>
        <time>2022-02-27T11:12:36Z</time>
      </trkpt>
      <trkpt lat="47.14458" lon="-1.51687">
        <ele>85</ele>
        <time>2022-02-27T11:12:38Z</time>
      </trkpt>
      <trkpt lat="47.14469" lon="-1.51677">
        <ele>85</ele>
        <time>2022-02-27T11:12:40Z</time>
      </trkpt>
      <trkpt lat="47.14479" lon="-1.51665">
        <ele>85</ele>
        <time>2022-02-27T11:12:42Z</time>
      </trkpt>
      <trkpt lat="47.14489" lon="-1.51654">
        <ele>86</ele>
        <time>2022-02-27T11:12:44Z</time>
      </trkpt>
      <trkpt lat="47.145" lon="-1.51642">
        <ele>85</ele>
        <time>2022-02-27T11:12:46Z</time>
      </trkpt>
      <trkpt lat="47.14511" lon="-1.5163">
        <ele>84</ele>
        <time>2022-02-27T11:12:48Z</time>
      </trkpt>
      <trkpt lat="47.14522" lon="-1.51618">
        <ele>84</ele>
        <time>2022-02-27T11:12:50Z</time>
      </trkpt>
      <trkpt lat="47.14532" lon="-1.51605">
        <ele>84</ele>
        <time>2022-02-27T11:12:52Z</time>
      </trkpt>
      <trkpt lat="47.14541" lon="-1.51592">
        <ele>84</ele>
        <time>2022-02-27T11:12:54Z</time>
      </trkpt>
      <trkpt lat="47.14552" lon="-1.51579">
        <ele>84</ele>
        <time>2022-02-27T11:12:56Z</time>
      </trkpt>
      <trkpt lat="47.14561" lon="-1.51567">
        <ele>83</ele>
        <time>2022-02-27T11:12:58Z</time>
      </trkpt>
      <trkpt lat="47.1457" lon="-1.51553">
        <ele>83</ele>
        <time>2022-02-27T11:13:00Z</time>
      </trkpt>
      <trkpt lat="47.14578" lon="-1.51539">
        <ele>84</ele>
        <time>2022-02-27T11:13:02Z</time>
      </trkpt>
      <trkpt lat="47.14586" lon="-1.51525">
        <ele>84</ele>
        <time>2022-02-27T11:13:04Z</time>
      </trkpt>
      <trkpt lat="47.14593" lon="-1.5151">
        <ele>84</ele>
        <time>2022-02-27T11:13:06Z</time>
      </trkpt>
      <trkpt lat="47.146" lon="-1.51497">
        <ele>84</ele>
        <time>2022-02-27T11:13:08Z</time>
      </trkpt>
      <trkpt lat="47.14606" lon="-1.51483">
        <ele>84</ele>
        <time>2022-02-27T11:13:10Z</time>
      </trkpt>
      <trkpt lat="47.14613" lon="-1.51468">
        <ele>85</ele>
        <time>2022-02-27T11:13:12Z</time>
      </trkpt>
      <trkpt lat="47.14621" lon="-1.51453">
        <ele>85</ele>
        <time>2022-02-27T11:13:14Z</time>
      </trkpt>
      <trkpt lat="47.14629" lon="-1.51438">
        <ele>85</ele>
        <time>2022-02-27T11:13:16Z</time>
      </trkpt>
      <trkpt lat="47.14636" lon="-1.51423">
        <ele>84</ele>
        <time>2022-02-27T11:13:18Z</time>
      </trkpt>
      <trkpt lat="47.14643" lon="-1.51408">
        <ele>84</ele>
        <time>2022-02-27T11:13:20Z</time>
      </trkpt>
      <trkpt lat="47.14651" lon="-1.51391">
        <ele>83</ele>
        <time>2022-02-27T11:13:22Z</time>
      </trkpt>
      <trkpt lat="47.1466" lon="-1.51374">
        <ele>83</ele>
        <time>2022-02-27T11:13:24Z</time>
      </trkpt>
      <trkpt lat="47.1467" lon="-1.51356">
        <ele>82</ele>
        <time>2022-02-27T11:13:26Z</time>
      </trkpt>
      <trkpt lat="47.14679" lon="-1.51338">
        <ele>82</ele>
        <time>2022-02-27T11:13:28Z</time>
      </trkpt>
      <trkpt lat="47.14688" lon="-1.5132">
        <ele>81</ele>
        <time>2022-02-27T11:13:30Z</time>
      </trkpt>
      <trkpt lat="47.14698" lon="-1.51301">
        <ele>81</ele>
        <time>2022-02-27T11:13:32Z</time>
      </trkpt>
      <trkpt lat="47.14707" lon="-1.51283">
        <ele>81</ele>
        <time>2022-02-27T11:13:34Z</time>
      </trkpt>
      <trkpt lat="47.14716" lon="-1.51265">
        <ele>80</ele>
        <time>2022-02-27T11:13:36Z</time>
      </trkpt>
      <trkpt lat="47.14725" lon="-1.51247">
        <ele>80</ele>
        <time>2022-02-27T11:13:38Z</time>
      </trkpt>
      <trkpt lat="47.14734" lon="-1.51229">
        <ele>79</ele>
        <time>2022-02-27T11:13:40Z</time>
      </trkpt>
      <trkpt lat="47.14743" lon="-1.51211">
        <ele>79</ele>
        <time>2022-02-27T11:13:42Z</time>
      </trkpt>
      <trkpt lat="47.14753" lon="-1.51193">
        <ele>79</ele>
        <time>2022-02-27T11:13:44Z</time>
      </trkpt>
      <trkpt lat="47.14762" lon="-1.51175">
        <ele>79</ele>
        <time>2022-02-27T11:13:46Z</time>
      </trkpt>
      <trkpt lat="47.14771" lon="-1.51157">
        <ele>79</ele>
        <time>2022-02-27T11:13:48Z</time>
      </trkpt>
      <trkpt lat="47.14781" lon="-1.5114">
        <ele>79</ele>
        <time>2022-02-27T11:13:50Z</time>
      </trkpt>
      <trkpt lat="47.1479" lon="-1.51122">
        <ele>79</ele>
        <time>2022-02-27T11:13:52Z</time>
      </trkpt>
      <trkpt lat="47.148" lon="-1.51104">
        <ele>79</ele>
        <time>2022-02-27T11:13:54Z</time>
      </trkpt>
      <trkpt lat="47.1481" lon="-1.51087">
        <ele>79</ele>
        <time>2022-02-27T11:13:56Z</time>
      </trkpt>
      <trkpt lat="47.1482" lon="-1.5107">
        <ele>79</ele>
        <time>2022-02-27T11:13:58Z</time>
      </trkpt>
      <trkpt lat="47.1483" lon="-1.51053">
        <ele>78</ele>
        <time>2022-02-27T11:14:00Z</time>
      </trkpt>
      <trkpt lat="47.1484" lon="-1.51036">
        <ele>78</ele>
        <time>2022-02-27T11:14:02Z</time>
      </trkpt>
      <trkpt lat="47.1485" lon="-1.5102">
        <ele>78</ele>
        <time>2022-02-27T11:14:04Z</time>
      </trkpt>
      <trkpt lat="47.1486" lon="-1.51003">
        <ele>78</ele>
        <time>2022-02-27T11:14:06Z</time>
      </trkpt>
      <trkpt lat="47.1487" lon="-1.50987">
        <ele>78</ele>
        <time>2022-02-27T11:14:08Z</time>
      </trkpt>
      <trkpt lat="47.1488" lon="-1.50971">
        <ele>79</ele>
        <time>2022-02-27T11:14:10Z</time>
      </trkpt>
      <trkpt lat="47.1489" lon="-1.50955">
        <ele>79</ele>
        <time>2022-02-27T11:14:12Z</time>
      </trkpt>
      <trkpt lat="47.149" lon="-1.50939">
        <ele>79</ele>
        <time>2022-02-27T11:14:14Z</time>
      </trkpt>
      <trkpt lat="47.14911" lon="-1.50924">
        <ele>78</ele>
        <time>2022-02-27T11:14:16Z</time>
      </trkpt>
      <trkpt lat="47.14922" lon="-1.50909">
        <ele>78</ele>
        <time>2022-02-27T11:14:18Z</time>
      </trkpt>
      <trkpt lat="47.14933" lon="-1.50894">
        <ele>78</ele>
        <time>2022-02-27T11:14:20Z</time>
      </trkpt>
      <trkpt lat="47.14943" lon="-1.50878">
        <ele>77</ele>
        <time>2022-02-27T11:14:22Z</time>
      </trkpt>
      <trkpt lat="47.14954" lon="-1.50863">
        <ele>77</ele>
        <time>2022-02-27T11:14:24Z</time>
      </trkpt>
      <trkpt lat="47.14965" lon="-1.50847">
        <ele>76</ele>
        <time>2022-02-27T11:14:26Z</time>
      </trkpt>
      <trkpt lat="47.14976" lon="-1.50832">
        <ele>76</ele>
        <time>2022-02-27T11:14:28Z</time>
      </trkpt>
      <trkpt lat="47.14986" lon="-1.50817">
        <ele>76</ele>
        <time>2022-02-27T11:14:30Z</time>
      </trkpt>
      <trkpt lat="47.14997" lon="-1.50802">
        <ele>76</ele>
        <time>2022-02-27T11:14:32Z</time>
      </trkpt>
      <trkpt lat="47.15008" lon="-1.50788">
        <ele>75</ele>
        <time>2022-02-27T11:14:34Z</time>
      </trkpt>
      <trkpt lat="47.1502" lon="-1.50774">
        <ele>75</ele>
        <time>2022-02-27T11:14:36Z</time>
      </trkpt>
      <trkpt lat="47.1503" lon="-1.50759">
        <ele>75</ele>
        <time>2022-02-27T11:14:38Z</time>
      </trkpt>
      <trkpt lat="47.15042" lon="-1.50746">
        <ele>75</ele>
        <time>2022-02-27T11:14:40Z</time>
      </trkpt>
      <trkpt lat="47.15053" lon="-1.50732">
        <ele>74</ele>
        <time>2022-02-27T11:14:42Z</time>
      </trkpt>
      <trkpt lat="47.15065" lon="-1.50718">
        <ele>74</ele>
        <time>2022-02-27T11:14:44Z</time>
      </trkpt>
      <trkpt lat="47.15076" lon="-1.50704">
        <ele>74</ele>
        <time>2022-02-27T11:14:46Z</time>
      </trkpt>
      <trkpt lat="47.15088" lon="-1.5069">
        <ele>74</ele>
        <time>2022-02-27T11:14:48Z</time>
      </trkpt>
      <trkpt lat="47.151" lon="-1.50676">
        <ele>74</ele>
        <time>2022-02-27T11:14:50Z</time>
      </trkpt>
      <trkpt lat="47.15112" lon="-1.50662">
        <ele>74</ele>
        <time>2022-02-27T11:14:52Z</time>
      </trkpt>
      <trkpt lat="47.15124" lon="-1.50648">
        <ele>74</ele>
        <time>2022-02-27T11:14:54Z</time>
      </trkpt>
      <trkpt lat="47.15135" lon="-1.50635">
        <ele>74</ele>
        <time>2022-02-27T11:14:56Z</time>
      </trkpt>
      <trkpt lat="47.15147" lon="-1.50622">
        <ele>74</ele>
        <time>2022-02-27T11:14:58Z</time>
      </trkpt>
      <trkpt lat="47.15158" lon="-1.50609">
        <ele>74</ele>
        <time>2022-02-27T11:15:00Z</time>
      </trkpt>
      <trkpt lat="47.15169" lon="-1.50597">
        <ele>75</ele>
        <time>2022-02-27T11:15:02Z</time>
      </trkpt>
      <trkpt lat="47.1518" lon="-1.50584">
        <ele>75</ele>
        <time>2022-02-27T11:15:04Z</time>
      </trkpt>
      <trkpt lat="47.15191" lon="-1.50571">
        <ele>76</ele>
        <time>2022-02-27T11:15:06Z</time>
      </trkpt>
      <trkpt lat="47.15202" lon="-1.50558">
        <ele>76</ele>
        <time>2022-02-27T11:15:08Z</time>
      </trkpt>
      <trkpt lat="47.15213" lon="-1.50545">
        <ele>76</ele>
        <time>2022-02-27T11:15:10Z</time>
      </trkpt>
      <trkpt lat="47.15223" lon="-1.50533">
        <ele>76</ele>
        <time>2022-02-27T11:15:12Z</time>
      </trkpt>
      <trkpt lat="47.15234" lon="-1.50521">
        <ele>77</ele>
        <time>2022-02-27T11:15:14Z</time>
      </trkpt>
      <trkpt lat="47.15245" lon="-1.50509">
        <ele>77</ele>
        <time>2022-02-27T11:15:16Z</time>
      </trkpt>
      <trkpt lat="47.15256" lon="-1.50497">
        <ele>77</ele>
        <time>2022-02-27T11:15:18Z</time>
      </trkpt>
      <trkpt lat="47.15266" lon="-1.50485">
        <ele>77</ele>
        <time>2022-02-27T11:15:20Z</time>
      </trkpt>
      <trkpt lat="47.15277" lon="-1.50472">
        <ele>77</ele>
        <time>2022-02-27T11:15:22Z</time>
      </trkpt>
      <trkpt lat="47.15287" lon="-1.5046">
        <ele>77</ele>
        <time>2022-02-27T11:15:24Z</time>
      </trkpt>
      <trkpt lat="47.15297" lon="-1.50448">
        <ele>77</ele>
        <time>2022-02-27T11:15:26Z</time>
      </trkpt>
      <trkpt lat="47.15308" lon="-1.50437">
        <ele>77</ele>
        <time>2022-02-27T11:15:28Z</time>
      </trkpt>
      <trkpt lat="47.15318" lon="-1.50425">
        <ele>77</ele>
        <time>2022-02-27T11:15:30Z</time>
      </trkpt>
      <trkpt lat="47.15328" lon="-1.50413">
        <ele>77</ele>
        <time>2022-02-27T11:15:32Z</time>
      </trkpt>
      <trkpt lat="47.15338" lon="-1.504">
        <ele>77</ele>
        <time>2022-02-27T11:15:34Z</time>
      </trkpt>
      <trkpt lat="47.15349" lon="-1.50389">
        <ele>77</ele>
        <time>2022-02-27T11:15:36Z</time>
      </trkpt>
      <trkpt lat="47.15359" lon="-1.50376">
        <ele>77</ele>
        <time>2022-02-27T11:15:38Z</time>
      </trkpt>
      <trkpt lat="47.15369" lon="-1.50365">
        <ele>77</ele>
        <time>2022-02-27T11:15:40Z</time>
      </trkpt>
      <trkpt lat="47.1538" lon="-1.50354">
        <ele>78</ele>
        <time>2022-02-27T11:15:42Z</time>
      </trkpt>
      <trkpt lat="47.15391" lon="-1.50342">
        <ele>78</ele>
        <time>2022-02-27T11:15:44Z</time>
      </trkpt>
      <trkpt lat="47.15402" lon="-1.50331">
        <ele>78</ele>
        <time>2022-02-27T11:15:46Z</time>
      </trkpt>
      <trkpt lat="47.15413" lon="-1.50321">
        <ele>79</ele>
        <time>2022-02-27T11:15:48Z</time>
      </trkpt>
      <trkpt lat="47.15425" lon="-1.50311">
        <ele>79</ele>
        <time>2022-02-27T11:15:50Z</time>
      </trkpt>
      <trkpt lat="47.15437" lon="-1.50303">
        <ele>79</ele>
        <time>2022-02-27T11:15:52Z</time>
      </trkpt>
      <trkpt lat="47.15449" lon="-1.50295">
        <ele>78</ele>
        <time>2022-02-27T11:15:54Z</time>
      </trkpt>
      <trkpt lat="47.15462" lon="-1.50289">
        <ele>79</ele>
        <time>2022-02-27T11:15:56Z</time>
      </trkpt>
      <trkpt lat="47.15475" lon="-1.50283">
        <ele>78</ele>
        <time>2022-02-27T11:15:58Z</time>
      </trkpt>
      <trkpt lat="47.15488" lon="-1.50276">
        <ele>78</ele>
        <time>2022-02-27T11:16:00Z</time>
      </trkpt>
      <trkpt lat="47.155" lon="-1.50271">
        <ele>78</ele>
        <time>2022-02-27T11:16:02Z</time>
      </trkpt>
      <trkpt lat="47.15513" lon="-1.50265">
        <ele>79</ele>
        <time>2022-02-27T11:16:04Z</time>
      </trkpt>
      <trkpt lat="47.15526" lon="-1.50259">
        <ele>79</ele>
        <time>2022-02-27T11:16:06Z</time>
      </trkpt>
      <trkpt lat="47.1554" lon="-1.50252">
        <ele>78</ele>
        <time>2022-02-27T11:16:08Z</time>
      </trkpt>
      <trkpt lat="47.15553" lon="-1.50242">
        <ele>77</ele>
        <time>2022-02-27T11:16:10Z</time>
      </trkpt>
      <trkpt lat="47.15564" lon="-1.50232">
        <ele>77</ele>
        <time>2022-02-27T11:16:12Z</time>
      </trkpt>
      <trkpt lat="47.15577" lon="-1.50221">
        <ele>77</ele>
        <time>2022-02-27T11:16:14Z</time>
      </trkpt>
      <trkpt lat="47.15588" lon="-1.50209">
        <ele>77</ele>
        <time>2022-02-27T11:16:16Z</time>
      </trkpt>
      <trkpt lat="47.156" lon="-1.50198">
        <ele>77</ele>
        <time>2022-02-27T11:16:18Z</time>
      </trkpt>
      <trkpt lat="47.15611" lon="-1.50187">
        <ele>77</ele>
        <time>2022-02-27T11:16:20Z</time>
      </trkpt>
      <trkpt lat="47.15623" lon="-1.50175">
        <ele>76</ele>
        <time>2022-02-27T11:16:22Z</time>
      </trkpt>
      <trkpt lat="47.15635" lon="-1.50163">
        <ele>76</ele>
        <time>2022-02-27T11:16:24Z</time>
      </trkpt>
      <trkpt lat="47.15647" lon="-1.50152">
        <ele>76</ele>
        <time>2022-02-27T11:16:26Z</time>
      </trkpt>
      <trkpt lat="47.15658" lon="-1.50141">
        <ele>75</ele>
        <time>2022-02-27T11:16:28Z</time>
      </trkpt>
      <trkpt lat="47.15669" lon="-1.50129">
        <ele>75</ele>
        <time>2022-02-27T11:16:30Z</time>
      </trkpt>
      <trkpt lat="47.1568" lon="-1.50117">
        <ele>75</ele>
        <time>2022-02-27T11:16:32Z</time>
      </trkpt>
      <trkpt lat="47.15691" lon="-1.50104">
        <ele>75</ele>
        <time>2022-02-27T11:16:34Z</time>
      </trkpt>
      <trkpt lat="47.157" lon="-1.5009">
        <ele>76</ele>
        <time>2022-02-27T11:16:36Z</time>
      </trkpt>
      <trkpt lat="47.15708" lon="-1.50074">
        <ele>76</ele>
        <time>2022-02-27T11:16:38Z</time>
      </trkpt>
      <trkpt lat="47.15716" lon="-1.50059">
        <ele>75</ele>
        <time>2022-02-27T11:16:40Z</time>
      </trkpt>
      <trkpt lat="47.15724" lon="-1.50043">
        <ele>75</ele>
        <time>2022-02-27T11:16:42Z</time>
      </trkpt>
      <trkpt lat="47.15731" lon="-1.50027">
        <ele>76</ele>
        <time>2022-02-27T11:16:44Z</time>
      </trkpt>
      <trkpt lat="47.15739" lon="-1.50011">
        <ele>76</ele>
        <time>2022-02-27T11:16:46Z</time>
      </trkpt>
      <trkpt lat="47.15747" lon="-1.49995">
        <ele>76</ele>
        <time>2022-02-27T11:16:48Z</time>
      </trkpt>
      <trkpt lat="47.15755" lon="-1.4998">
        <ele>76</ele>
        <time>2022-02-27T11:16:50Z</time>
      </trkpt>
      <trkpt lat="47.15763" lon="-1.49965">
        <ele>76</ele>
        <time>2022-02-27T11:16:52Z</time>
      </trkpt>
      <trkpt lat="47.15771" lon="-1.49949">
        <ele>77</ele>
        <time>2022-02-27T11:16:54Z</time>
      </trkpt>
      <trkpt lat="47.15779" lon="-1.49933">
        <ele>77</ele>
        <time>2022-02-27T11:16:56Z</time>
      </trkpt>
      <trkpt lat="47.15786" lon="-1.49917">
        <ele>76</ele>
        <time>2022-02-27T11:16:58Z</time>
      </trkpt>
      <trkpt lat="47.15794" lon="-1.49902">
        <ele>77</ele>
        <time>2022-02-27T11:17:00Z</time>
      </trkpt>
      <trkpt lat="47.15802" lon="-1.49886">
        <ele>77</ele>
        <time>2022-02-27T11:17:02Z</time>
      </trkpt>
      <trkpt lat="47.1581" lon="-1.4987">
        <ele>77</ele>
        <time>2022-02-27T11:17:04Z</time>
      </trkpt>
      <trkpt lat="47.15818" lon="-1.49854">
        <ele>77</ele>
        <time>2022-02-27T11:17:06Z</time>
      </trkpt>
      <trkpt lat="47.15826" lon="-1.49838">
        <ele>77</ele>
        <time>2022-02-27T11:17:08Z</time>
      </trkpt>
      <trkpt lat="47.15834" lon="-1.49822">
        <ele>77</ele>
        <time>2022-02-27T11:17:10Z</time>
      </trkpt>
      <trkpt lat="47.15843" lon="-1.49806">
        <ele>77</ele>
        <time>2022-02-27T11:17:12Z</time>
      </trkpt>
      <trkpt lat="47.15851" lon="-1.49789">
        <ele>77</ele>
        <time>2022-02-27T11:17:14Z</time>
      </trkpt>
      <trkpt lat="47.1586" lon="-1.49772">
        <ele>76</ele>
        <time>2022-02-27T11:17:16Z</time>
      </trkpt>
      <trkpt lat="47.15869" lon="-1.49755">
        <ele>76</ele>
        <time>2022-02-27T11:17:18Z</time>
      </trkpt>
      <trkpt lat="47.15878" lon="-1.49738">
        <ele>76</ele>
        <time>2022-02-27T11:17:20Z</time>
      </trkpt>
      <trkpt lat="47.15887" lon="-1.49722">
        <ele>76</ele>
        <time>2022-02-27T11:17:22Z</time>
      </trkpt>
      <trkpt lat="47.15896" lon="-1.49705">
        <ele>76</ele>
        <time>2022-02-27T11:17:24Z</time>
      </trkpt>
      <trkpt lat="47.15905" lon="-1.49687">
        <ele>75</ele>
        <time>2022-02-27T11:17:26Z</time>
      </trkpt>
      <trkpt lat="47.15913" lon="-1.49668">
        <ele>75</ele>
        <time>2022-02-27T11:17:28Z</time>
      </trkpt>
      <trkpt lat="47.15923" lon="-1.4965">
        <ele>74</ele>
        <time>2022-02-27T11:17:30Z</time>
      </trkpt>
      <trkpt lat="47.15932" lon="-1.49632">
        <ele>74</ele>
        <time>2022-02-27T11:17:32Z</time>
      </trkpt>
      <trkpt lat="47.15942" lon="-1.49615">
        <ele>74</ele>
        <time>2022-02-27T11:17:34Z</time>
      </trkpt>
      <trkpt lat="47.15951" lon="-1.49597">
        <ele>73</ele>
        <time>2022-02-27T11:17:36Z</time>
      </trkpt>
      <trkpt lat="47.15961" lon="-1.49579">
        <ele>72</ele>
        <time>2022-02-27T11:17:38Z</time>
      </trkpt>
      <trkpt lat="47.1597" lon="-1.49562">
        <ele>71</ele>
        <time>2022-02-27T11:17:40Z</time>
      </trkpt>
      <trkpt lat="47.1598" lon="-1.49544">
        <ele>71</ele>
        <time>2022-02-27T11:17:42Z</time>
      </trkpt>
      <trkpt lat="47.15988" lon="-1.49526">
        <ele>70</ele>
        <time>2022-02-27T11:17:44Z</time>
      </trkpt>
      <trkpt lat="47.15996" lon="-1.4951">
        <ele>70</ele>
        <time>2022-02-27T11:17:46Z</time>
      </trkpt>
      <trkpt lat="47.16005" lon="-1.49493">
        <ele>70</ele>
        <time>2022-02-27T11:17:48Z</time>
      </trkpt>
      <trkpt lat="47.16014" lon="-1.49476">
        <ele>70</ele>
        <time>2022-02-27T11:17:50Z</time>
      </trkpt>
      <trkpt lat="47.16023" lon="-1.49459">
        <ele>70</ele>
        <time>2022-02-27T11:17:52Z</time>
      </trkpt>
      <trkpt lat="47.16031" lon="-1.49443">
        <ele>70</ele>
        <time>2022-02-27T11:17:54Z</time>
      </trkpt>
      <trkpt lat="47.1604" lon="-1.49426">
        <ele>70</ele>
        <time>2022-02-27T11:17:56Z</time>
      </trkpt>
      <trkpt lat="47.16048" lon="-1.4941">
        <ele>70</ele>
        <time>2022-02-27T11:17:58Z</time>
      </trkpt>
      <trkpt lat="47.16056" lon="-1.49394">
        <ele>70</ele>
        <time>2022-02-27T11:18:00Z</time>
      </trkpt>
      <trkpt lat="47.16064" lon="-1.4938">
        <ele>71</ele>
        <time>2022-02-27T11:18:02Z</time>
      </trkpt>
      <trkpt lat="47.16075" lon="-1.49368">
        <ele>72</ele>
        <time>2022-02-27T11:18:04Z</time>
      </trkpt>
      <trkpt lat="47.16085" lon="-1.49355">
        <ele>72</ele>
        <time>2022-02-27T11:18:06Z</time>
      </trkpt>
      <trkpt lat="47.16096" lon="-1.49344">
        <ele>72</ele>
        <time>2022-02-27T11:18:08Z</time>
      </trkpt>
      <trkpt lat="47.16106" lon="-1.49331">
        <ele>72</ele>
        <time>2022-02-27T11:18:10Z</time>
      </trkpt>
      <trkpt lat="47.16117" lon="-1.4932">
        <ele>73</ele>
        <time>2022-02-27T11:18:12Z</time>
      </trkpt>
      <trkpt lat="47.16127" lon="-1.49307">
        <ele>73</ele>
        <time>2022-02-27T11:18:14Z</time>
      </trkpt>
      <trkpt lat="47.16136" lon="-1.49293">
        <ele>73</ele>
        <time>2022-02-27T11:18:16Z</time>
      </trkpt>
      <trkpt lat="47.16145" lon="-1.49278">
        <ele>73</ele>
        <time>2022-02-27T11:18:18Z</time>
      </trkpt>
      <trkpt lat="47.16154" lon="-1.49263">
        <ele>73</ele>
        <time>2022-02-27T11:18:20Z</time>
      </trkpt>
      <trkpt lat="47.16161" lon="-1.49247">
        <ele>73</ele>
        <time>2022-02-27T11:18:22Z</time>
      </trkpt>
      <trkpt lat="47.16169" lon="-1.49231">
        <ele>73</ele>
        <time>2022-02-27T11:18:24Z</time>
      </trkpt>
      <trkpt lat="47.16178" lon="-1.49216">
        <ele>73</ele>
        <time>2022-02-27T11:18:26Z</time>
      </trkpt>
      <trkpt lat="47.16188" lon="-1.49204">
        <ele>73</ele>
        <time>2022-02-27T11:18:28Z</time>
      </trkpt>
      <trkpt lat="47.16198" lon="-1.49193">
        <ele>73</ele>
        <time>2022-02-27T11:18:30Z</time>
      </trkpt>
      <trkpt lat="47.16209" lon="-1.49182">
        <ele>72</ele>
        <time>2022-02-27T11:18:32Z</time>
      </trkpt>
      <trkpt lat="47.1622" lon="-1.49171">
        <ele>73</ele>
        <time>2022-02-27T11:18:34Z</time>
      </trkpt>
      <trkpt lat="47.16231" lon="-1.4916">
        <ele>73</ele>
        <time>2022-02-27T11:18:36Z</time>
      </trkpt>
      <trkpt lat="47.16242" lon="-1.49148">
        <ele>73</ele>
        <time>2022-02-27T11:18:38Z</time>
      </trkpt>
      <trkpt lat="47.16254" lon="-1.49136">
        <ele>72</ele>
        <time>2022-02-27T11:18:40Z</time>
      </trkpt>
      <trkpt lat="47.16265" lon="-1.49125">
        <ele>72</ele>
        <time>2022-02-27T11:18:42Z</time>
      </trkpt>
      <trkpt lat="47.16278" lon="-1.49113">
        <ele>70</ele>
        <time>2022-02-27T11:18:44Z</time>
      </trkpt>
      <trkpt lat="47.16291" lon="-1.49101">
        <ele>69</ele>
        <time>2022-02-27T11:18:46Z</time>
      </trkpt>
      <trkpt lat="47.16303" lon="-1.49088">
        <ele>69</ele>
        <time>2022-02-27T11:18:48Z</time>
      </trkpt>
      <trkpt lat="47.16315" lon="-1.49075">
        <ele>68</ele>
        <time>2022-02-27T11:18:50Z</time>
      </trkpt>
      <trkpt lat="47.16327" lon="-1.49062">
        <ele>67</ele>
        <time>2022-02-27T11:18:52Z</time>
      </trkpt>
      <trkpt lat="47.1634" lon="-1.4905">
        <ele>67</ele>
        <time>2022-02-27T11:18:54Z</time>
      </trkpt>
      <trkpt lat="47.16352" lon="-1.49037">
        <ele>66</ele>
        <time>2022-02-27T11:18:56Z</time>
      </trkpt>
      <trkpt lat="47.16364" lon="-1.49024">
        <ele>66</ele>
        <time>2022-02-27T11:18:58Z</time>
      </trkpt>
      <trkpt lat="47.16374" lon="-1.49009">
        <ele>66</ele>
        <time>2022-02-27T11:19:00Z</time>
      </trkpt>
      <trkpt lat="47.16383" lon="-1.48993">
        <ele>66</ele>
        <time>2022-02-27T11:19:02Z</time>
      </trkpt>
      <trkpt lat="47.16392" lon="-1.48978">
        <ele>66</ele>
        <time>2022-02-27T11:19:04Z</time>
      </trkpt>
      <trkpt lat="47.164" lon="-1.48963">
        <ele>67</ele>
        <time>2022-02-27T11:19:06Z</time>
      </trkpt>
      <trkpt lat="47.16409" lon="-1.4895">
        <ele>67</ele>
        <time>2022-02-27T11:19:08Z</time>
      </trkpt>
      <trkpt lat="47.16419" lon="-1.48938">
        <ele>68</ele>
        <time>2022-02-27T11:19:10Z</time>
      </trkpt>
      <trkpt lat="47.1643" lon="-1.48925">
        <ele>68</ele>
        <time>2022-02-27T11:19:12Z</time>
      </trkpt>
      <trkpt lat="47.1644" lon="-1.48913">
        <ele>68</ele>
        <time>2022-02-27T11:19:14Z</time>
      </trkpt>
      <trkpt lat="47.16451" lon="-1.48899">
        <ele>68</ele>
        <time>2022-02-27T11:19:16Z</time>
      </trkpt>
      <trkpt lat="47.16462" lon="-1.48884">
        <ele>67</ele>
        <time>2022-02-27T11:19:18Z</time>
      </trkpt>
      <trkpt lat="47.16471" lon="-1.48867">
        <ele>67</ele>
        <time>2022-02-27T11:19:20Z</time>
      </trkpt>
      <trkpt lat="47.1648" lon="-1.48849">
        <ele>67</ele>
        <time>2022-02-27T11:19:22Z</time>
      </trkpt>
      <trkpt lat="47.16488" lon="-1.48829">
        <ele>66</ele>
        <time>2022-02-27T11:19:24Z</time>
      </trkpt>
      <trkpt lat="47.16496" lon="-1.48811">
        <ele>65</ele>
        <time>2022-02-27T11:19:26Z</time>
      </trkpt>
      <trkpt lat="47.16504" lon="-1.48794">
        <ele>65</ele>
        <time>2022-02-27T11:19:28Z</time>
      </trkpt>
      <trkpt lat="47.16509" lon="-1.48777">
        <ele>65</ele>
        <time>2022-02-27T11:19:30Z</time>
      </trkpt>
      <trkpt lat="47.16515" lon="-1.48758">
        <ele>65</ele>
        <time>2022-02-27T11:19:32Z</time>
      </trkpt>
      <trkpt lat="47.1652" lon="-1.48738">
        <ele>65</ele>
        <time>2022-02-27T11:19:34Z</time>
      </trkpt>
      <trkpt lat="47.16523" lon="-1.48719">
        <ele>66</ele>
        <time>2022-02-27T11:19:36Z</time>
      </trkpt>
      <trkpt lat="47.16526" lon="-1.48698">
        <ele>65</ele>
        <time>2022-02-27T11:19:38Z</time>
      </trkpt>
      <trkpt lat="47.16529" lon="-1.48679">
        <ele>65</ele>
        <time>2022-02-27T11:19:40Z</time>
      </trkpt>
      <trkpt lat="47.16532" lon="-1.48661">
        <ele>65</ele>
        <time>2022-02-27T11:19:42Z</time>
      </trkpt>
      <trkpt lat="47.16534" lon="-1.48645">
        <ele>65</ele>
        <time>2022-02-27T11:19:44Z</time>
      </trkpt>
      <trkpt lat="47.16536" lon="-1.48632">
        <ele>65</ele>
        <time>2022-02-27T11:19:46Z</time>
      </trkpt>
      <trkpt lat="47.16539" lon="-1.48616">
        <ele>65</ele>
        <time>2022-02-27T11:19:48Z</time>
      </trkpt>
      <trkpt lat="47.16541" lon="-1.48599">
        <ele>65</ele>
        <time>2022-02-27T11:19:50Z</time>
      </trkpt>
      <trkpt lat="47.16542" lon="-1.4858">
        <ele>66</ele>
        <time>2022-02-27T11:19:52Z</time>
      </trkpt>
      <trkpt lat="47.16542" lon="-1.4856">
        <ele>65</ele>
        <time>2022-02-27T11:19:54Z</time>
      </trkpt>
      <trkpt lat="47.16541" lon="-1.48541">
        <ele>65</ele>
        <time>2022-02-27T11:19:56Z</time>
      </trkpt>
      <trkpt lat="47.16538" lon="-1.48524">
        <ele>65</ele>
        <time>2022-02-27T11:19:58Z</time>
      </trkpt>
      <trkpt lat="47.16535" lon="-1.48506">
        <ele>65</ele>
        <time>2022-02-27T11:20:00Z</time>
      </trkpt>
      <trkpt lat="47.16532" lon="-1.48487">
        <ele>65</ele>
        <time>2022-02-27T11:20:02Z</time>
      </trkpt>
      <trkpt lat="47.1653" lon="-1.48471">
        <ele>65</ele>
        <time>2022-02-27T11:20:04Z</time>
      </trkpt>
      <trkpt lat="47.16527" lon="-1.48458">
        <ele>64</ele>
        <time>2022-02-27T11:20:06Z</time>
      </trkpt>
      <trkpt lat="47.16524" lon="-1.48443">
        <ele>64</ele>
        <time>2022-02-27T11:20:09Z</time>
      </trkpt>
      <trkpt lat="47.16523" lon="-1.48428">
        <ele>64</ele>
        <time>2022-02-27T11:20:11Z</time>
      </trkpt>
      <trkpt lat="47.1652" lon="-1.48413">
        <ele>64</ele>
        <time>2022-02-27T11:20:13Z</time>
      </trkpt>
      <trkpt lat="47.16516" lon="-1.484">
        <ele>64</ele>
        <time>2022-02-27T11:20:15Z</time>
      </trkpt>
      <trkpt lat="47.16511" lon="-1.48387">
        <ele>64</ele>
        <time>2022-02-27T11:20:17Z</time>
      </trkpt>
      <trkpt lat="47.16508" lon="-1.48371">
        <ele>64</ele>
        <time>2022-02-27T11:20:19Z</time>
      </trkpt>
      <trkpt lat="47.16508" lon="-1.4835">
        <ele>63</ele>
        <time>2022-02-27T11:20:21Z</time>
      </trkpt>
      <trkpt lat="47.1651" lon="-1.48329">
        <ele>62</ele>
        <time>2022-02-27T11:20:23Z</time>
      </trkpt>
      <trkpt lat="47.16513" lon="-1.48307">
        <ele>62</ele>
        <time>2022-02-27T11:20:25Z</time>
      </trkpt>
      <trkpt lat="47.16516" lon="-1.48287">
        <ele>62</ele>
        <time>2022-02-27T11:20:27Z</time>
      </trkpt>
      <trkpt lat="47.16519" lon="-1.48266">
        <ele>63</ele>
        <time>2022-02-27T11:20:29Z</time>
      </trkpt>
      <trkpt lat="47.1652" lon="-1.48245">
        <ele>63</ele>
        <time>2022-02-27T11:20:31Z</time>
      </trkpt>
      <trkpt lat="47.16515" lon="-1.48226">
        <ele>63</ele>
        <time>2022-02-27T11:20:33Z</time>
      </trkpt>
      <trkpt lat="47.1651" lon="-1.48207">
        <ele>63</ele>
        <time>2022-02-27T11:20:35Z</time>
      </trkpt>
      <trkpt lat="47.16504" lon="-1.48188">
        <ele>63</ele>
        <time>2022-02-27T11:20:37Z</time>
      </trkpt>
      <trkpt lat="47.165" lon="-1.48169">
        <ele>63</ele>
        <time>2022-02-27T11:20:39Z</time>
      </trkpt>
      <trkpt lat="47.16495" lon="-1.48148">
        <ele>62</ele>
        <time>2022-02-27T11:20:41Z</time>
      </trkpt>
      <trkpt lat="47.1649" lon="-1.48129">
        <ele>62</ele>
        <time>2022-02-27T11:20:43Z</time>
      </trkpt>
      <trkpt lat="47.16484" lon="-1.48109">
        <ele>62</ele>
        <time>2022-02-27T11:20:45Z</time>
      </trkpt>
      <trkpt lat="47.16479" lon="-1.48089">
        <ele>62</ele>
        <time>2022-02-27T11:20:47Z</time>
      </trkpt>
      <trkpt lat="47.16474" lon="-1.48069">
        <ele>63</ele>
        <time>2022-02-27T11:20:49Z</time>
      </trkpt>
      <trkpt lat="47.16468" lon="-1.48048">
        <ele>63</ele>
        <time>2022-02-27T11:20:51Z</time>
      </trkpt>
      <trkpt lat="47.16463" lon="-1.48027">
        <ele>62</ele>
        <time>2022-02-27T11:20:53Z</time>
      </trkpt>
      <trkpt lat="47.16458" lon="-1.48007">
        <ele>62</ele>
        <time>2022-02-27T11:20:55Z</time>
      </trkpt>
      <trkpt lat="47.16453" lon="-1.47987">
        <ele>62</ele>
        <time>2022-02-27T11:20:57Z</time>
      </trkpt>
      <trkpt lat="47.16448" lon="-1.47966">
        <ele>62</ele>
        <time>2022-02-27T11:20:59Z</time>
      </trkpt>
      <trkpt lat="47.16443" lon="-1.47946">
        <ele>61</ele>
        <time>2022-02-27T11:21:01Z</time>
      </trkpt>
      <trkpt lat="47.1644" lon="-1.47927">
        <ele>60</ele>
        <time>2022-02-27T11:21:03Z</time>
      </trkpt>
      <trkpt lat="47.16435" lon="-1.47908">
        <ele>60</ele>
        <time>2022-02-27T11:21:05Z</time>
      </trkpt>
      <trkpt lat="47.16431" lon="-1.47889">
        <ele>60</ele>
        <time>2022-02-27T11:21:07Z</time>
      </trkpt>
      <trkpt lat="47.16428" lon="-1.47871">
        <ele>60</ele>
        <time>2022-02-27T11:21:09Z</time>
      </trkpt>
      <trkpt lat="47.16424" lon="-1.47852">
        <ele>60</ele>
        <time>2022-02-27T11:21:11Z</time>
      </trkpt>
      <trkpt lat="47.1642" lon="-1.47834">
        <ele>59</ele>
        <time>2022-02-27T11:21:13Z</time>
      </trkpt>
      <trkpt lat="47.16416" lon="-1.47815">
        <ele>60</ele>
        <time>2022-02-27T11:21:15Z</time>
      </trkpt>
      <trkpt lat="47.16413" lon="-1.47796">
        <ele>60</ele>
        <time>2022-02-27T11:21:17Z</time>
      </trkpt>
      <trkpt lat="47.16409" lon="-1.47777">
        <ele>60</ele>
        <time>2022-02-27T11:21:19Z</time>
      </trkpt>
      <trkpt lat="47.16405" lon="-1.47759">
        <ele>60</ele>
        <time>2022-02-27T11:21:21Z</time>
      </trkpt>
      <trkpt lat="47.16402" lon="-1.47741">
        <ele>60</ele>
        <time>2022-02-27T11:21:23Z</time>
      </trkpt>
      <trkpt lat="47.16398" lon="-1.47722">
        <ele>60</ele>
        <time>2022-02-27T11:21:25Z</time>
      </trkpt>
      <trkpt lat="47.16394" lon="-1.47704">
        <ele>60</ele>
        <time>2022-02-27T11:21:27Z</time>
      </trkpt>
      <trkpt lat="47.16389" lon="-1.47686">
        <ele>60</ele>
        <time>2022-02-27T11:21:29Z</time>
      </trkpt>
      <trkpt lat="47.16385" lon="-1.47668">
        <ele>60</ele>
        <time>2022-02-27T11:21:31Z</time>
      </trkpt>
      <trkpt lat="47.16381" lon="-1.4765">
        <ele>60</ele>
        <time>2022-02-27T11:21:33Z</time>
      </trkpt>
      <trkpt lat="47.16377" lon="-1.47633">
        <ele>60</ele>
        <time>2022-02-27T11:21:35Z</time>
      </trkpt>
      <trkpt lat="47.16374" lon="-1.47616">
        <ele>60</ele>
        <time>2022-02-27T11:21:37Z</time>
      </trkpt>
      <trkpt lat="47.16371" lon="-1.476">
        <ele>60</ele>
        <time>2022-02-27T11:21:39Z</time>
      </trkpt>
      <trkpt lat="47.16367" lon="-1.47582">
        <ele>60</ele>
        <time>2022-02-27T11:21:41Z</time>
      </trkpt>
      <trkpt lat="47.16364" lon="-1.47565">
        <ele>61</ele>
        <time>2022-02-27T11:21:43Z</time>
      </trkpt>
      <trkpt lat="47.16361" lon="-1.47547">
        <ele>61</ele>
        <time>2022-02-27T11:21:45Z</time>
      </trkpt>
      <trkpt lat="47.16358" lon="-1.4753">
        <ele>61</ele>
        <time>2022-02-27T11:21:47Z</time>
      </trkpt>
      <trkpt lat="47.16354" lon="-1.47514">
        <ele>61</ele>
        <time>2022-02-27T11:21:49Z</time>
      </trkpt>
      <trkpt lat="47.1635" lon="-1.47497">
        <ele>61</ele>
        <time>2022-02-27T11:21:51Z</time>
      </trkpt>
      <trkpt lat="47.16346" lon="-1.4748">
        <ele>61</ele>
        <time>2022-02-27T11:21:53Z</time>
      </trkpt>
      <trkpt lat="47.16341" lon="-1.47464">
        <ele>61</ele>
        <time>2022-02-27T11:21:55Z</time>
      </trkpt>
      <trkpt lat="47.16337" lon="-1.47447">
        <ele>61</ele>
        <time>2022-02-27T11:21:57Z</time>
      </trkpt>
      <trkpt lat="47.16333" lon="-1.47431">
        <ele>62</ele>
        <time>2022-02-27T11:21:59Z</time>
      </trkpt>
      <trkpt lat="47.16329" lon="-1.47414">
        <ele>62</ele>
        <time>2022-02-27T11:22:01Z</time>
      </trkpt>
      <trkpt lat="47.16326" lon="-1.47398">
        <ele>62</ele>
        <time>2022-02-27T11:22:03Z</time>
      </trkpt>
      <trkpt lat="47.16323" lon="-1.47381">
        <ele>62</ele>
        <time>2022-02-27T11:22:05Z</time>
      </trkpt>
      <trkpt lat="47.16321" lon="-1.47364">
        <ele>62</ele>
        <time>2022-02-27T11:22:07Z</time>
      </trkpt>
      <trkpt lat="47.16319" lon="-1.47348">
        <ele>62</ele>
        <time>2022-02-27T11:22:09Z</time>
      </trkpt>
      <trkpt lat="47.16318" lon="-1.47332">
        <ele>63</ele>
        <time>2022-02-27T11:22:11Z</time>
      </trkpt>
      <trkpt lat="47.1632" lon="-1.47315">
        <ele>62</ele>
        <time>2022-02-27T11:22:13Z</time>
      </trkpt>
      <trkpt lat="47.16318" lon="-1.473">
        <ele>62</ele>
        <time>2022-02-27T11:22:15Z</time>
      </trkpt>
      <trkpt lat="47.16313" lon="-1.47285">
        <ele>62</ele>
        <time>2022-02-27T11:22:17Z</time>
      </trkpt>
      <trkpt lat="47.16308" lon="-1.47271">
        <ele>63</ele>
        <time>2022-02-27T11:22:19Z</time>
      </trkpt>
      <trkpt lat="47.16303" lon="-1.47257">
        <ele>63</ele>
        <time>2022-02-27T11:22:21Z</time>
      </trkpt>
      <trkpt lat="47.16299" lon="-1.47243">
        <ele>64</ele>
        <time>2022-02-27T11:22:23Z</time>
      </trkpt>
      <trkpt lat="47.16295" lon="-1.47229">
        <ele>65</ele>
        <time>2022-02-27T11:22:25Z</time>
      </trkpt>
      <trkpt lat="47.1629" lon="-1.47216">
        <ele>65</ele>
        <time>2022-02-27T11:22:27Z</time>
      </trkpt>
      <trkpt lat="47.16286" lon="-1.47203">
        <ele>65</ele>
        <time>2022-02-27T11:22:29Z</time>
      </trkpt>
      <trkpt lat="47.16283" lon="-1.4719">
        <ele>66</ele>
        <time>2022-02-27T11:22:31Z</time>
      </trkpt>
      <trkpt lat="47.16279" lon="-1.47177">
        <ele>67</ele>
        <time>2022-02-27T11:22:33Z</time>
      </trkpt>
      <trkpt lat="47.16276" lon="-1.47164">
        <ele>67</ele>
        <time>2022-02-27T11:22:35Z</time>
      </trkpt>
      <trkpt lat="47.16273" lon="-1.47152">
        <ele>68</ele>
        <time>2022-02-27T11:22:37Z</time>
      </trkpt>
      <trkpt lat="47.1627" lon="-1.47139">
        <ele>68</ele>
        <time>2022-02-27T11:22:39Z</time>
      </trkpt>
      <trkpt lat="47.16267" lon="-1.47126">
        <ele>69</ele>
        <time>2022-02-27T11:22:41Z</time>
      </trkpt>
      <trkpt lat="47.16264" lon="-1.47107">
        <ele>70</ele>
        <time>2022-02-27T11:22:44Z</time>
      </trkpt>
      <trkpt lat="47.16262" lon="-1.47094">
        <ele>70</ele>
        <time>2022-02-27T11:22:46Z</time>
      </trkpt>
      <trkpt lat="47.1626" lon="-1.4708">
        <ele>71</ele>
        <time>2022-02-27T11:22:48Z</time>
      </trkpt>
      <trkpt lat="47.16258" lon="-1.47066">
        <ele>71</ele>
        <time>2022-02-27T11:22:50Z</time>
      </trkpt>
      <trkpt lat="47.16258" lon="-1.47053">
        <ele>71</ele>
        <time>2022-02-27T11:22:52Z</time>
      </trkpt>
      <trkpt lat="47.16257" lon="-1.47039">
        <ele>72</ele>
        <time>2022-02-27T11:22:54Z</time>
      </trkpt>
      <trkpt lat="47.16256" lon="-1.47025">
        <ele>72</ele>
        <time>2022-02-27T11:22:56Z</time>
      </trkpt>
      <trkpt lat="47.16255" lon="-1.47011">
        <ele>73</ele>
        <time>2022-02-27T11:22:58Z</time>
      </trkpt>
      <trkpt lat="47.16255" lon="-1.46997">
        <ele>73</ele>
        <time>2022-02-27T11:23:00Z</time>
      </trkpt>
      <trkpt lat="47.16255" lon="-1.46982">
        <ele>73</ele>
        <time>2022-02-27T11:23:02Z</time>
      </trkpt>
      <trkpt lat="47.16255" lon="-1.46968">
        <ele>73</ele>
        <time>2022-02-27T11:23:04Z</time>
      </trkpt>
      <trkpt lat="47.16256" lon="-1.46953">
        <ele>74</ele>
        <time>2022-02-27T11:23:06Z</time>
      </trkpt>
      <trkpt lat="47.16256" lon="-1.46939">
        <ele>74</ele>
        <time>2022-02-27T11:23:08Z</time>
      </trkpt>
      <trkpt lat="47.16257" lon="-1.46925">
        <ele>74</ele>
        <time>2022-02-27T11:23:10Z</time>
      </trkpt>
      <trkpt lat="47.16257" lon="-1.46911">
        <ele>74</ele>
        <time>2022-02-27T11:23:12Z</time>
      </trkpt>
      <trkpt lat="47.16258" lon="-1.46897">
        <ele>74</ele>
        <time>2022-02-27T11:23:14Z</time>
      </trkpt>
      <trkpt lat="47.16259" lon="-1.46882">
        <ele>75</ele>
        <time>2022-02-27T11:23:16Z</time>
      </trkpt>
      <trkpt lat="47.16259" lon="-1.46867">
        <ele>75</ele>
        <time>2022-02-27T11:23:18Z</time>
      </trkpt>
      <trkpt lat="47.16259" lon="-1.46853">
        <ele>75</ele>
        <time>2022-02-27T11:23:20Z</time>
      </trkpt>
      <trkpt lat="47.16259" lon="-1.46839">
        <ele>76</ele>
        <time>2022-02-27T11:23:22Z</time>
      </trkpt>
      <trkpt lat="47.16255" lon="-1.46825">
        <ele>76</ele>
        <time>2022-02-27T11:23:24Z</time>
      </trkpt>
      <trkpt lat="47.16255" lon="-1.4681">
        <ele>77</ele>
        <time>2022-02-27T11:23:26Z</time>
      </trkpt>
      <trkpt lat="47.16259" lon="-1.46796">
        <ele>77</ele>
        <time>2022-02-27T11:23:28Z</time>
      </trkpt>
      <trkpt lat="47.16264" lon="-1.46782">
        <ele>77</ele>
        <time>2022-02-27T11:23:30Z</time>
      </trkpt>
      <trkpt lat="47.16266" lon="-1.46768">
        <ele>77</ele>
        <time>2022-02-27T11:23:32Z</time>
      </trkpt>
      <trkpt lat="47.16268" lon="-1.46753">
        <ele>77</ele>
        <time>2022-02-27T11:23:34Z</time>
      </trkpt>
      <trkpt lat="47.1627" lon="-1.46738">
        <ele>77</ele>
        <time>2022-02-27T11:23:36Z</time>
      </trkpt>
      <trkpt lat="47.16272" lon="-1.46724">
        <ele>78</ele>
        <time>2022-02-27T11:23:38Z</time>
      </trkpt>
      <trkpt lat="47.16274" lon="-1.46708">
        <ele>78</ele>
        <time>2022-02-27T11:23:40Z</time>
      </trkpt>
      <trkpt lat="47.16276" lon="-1.46693">
        <ele>78</ele>
        <time>2022-02-27T11:23:42Z</time>
      </trkpt>
      <trkpt lat="47.16278" lon="-1.46678">
        <ele>79</ele>
        <time>2022-02-27T11:23:44Z</time>
      </trkpt>
      <trkpt lat="47.16279" lon="-1.46663">
        <ele>79</ele>
        <time>2022-02-27T11:23:46Z</time>
      </trkpt>
      <trkpt lat="47.16281" lon="-1.46648">
        <ele>80</ele>
        <time>2022-02-27T11:23:48Z</time>
      </trkpt>
      <trkpt lat="47.16282" lon="-1.46633">
        <ele>81</ele>
        <time>2022-02-27T11:23:50Z</time>
      </trkpt>
      <trkpt lat="47.16284" lon="-1.46618">
        <ele>81</ele>
        <time>2022-02-27T11:23:52Z</time>
      </trkpt>
      <trkpt lat="47.16285" lon="-1.46602">
        <ele>82</ele>
        <time>2022-02-27T11:23:54Z</time>
      </trkpt>
      <trkpt lat="47.16286" lon="-1.46587">
        <ele>82</ele>
        <time>2022-02-27T11:23:56Z</time>
      </trkpt>
      <trkpt lat="47.16288" lon="-1.46572">
        <ele>83</ele>
        <time>2022-02-27T11:23:58Z</time>
      </trkpt>
      <trkpt lat="47.16289" lon="-1.46557">
        <ele>83</ele>
        <time>2022-02-27T11:24:00Z</time>
      </trkpt>
      <trkpt lat="47.16291" lon="-1.46542">
        <ele>83</ele>
        <time>2022-02-27T11:24:02Z</time>
      </trkpt>
      <trkpt lat="47.16292" lon="-1.46527">
        <ele>84</ele>
        <time>2022-02-27T11:24:04Z</time>
      </trkpt>
      <trkpt lat="47.16294" lon="-1.46513">
        <ele>84</ele>
        <time>2022-02-27T11:24:06Z</time>
      </trkpt>
      <trkpt lat="47.16295" lon="-1.46499">
        <ele>85</ele>
        <time>2022-02-27T11:24:08Z</time>
      </trkpt>
      <trkpt lat="47.16297" lon="-1.46484">
        <ele>85</ele>
        <time>2022-02-27T11:24:10Z</time>
      </trkpt>
      <trkpt lat="47.16299" lon="-1.46469">
        <ele>85</ele>
        <time>2022-02-27T11:24:12Z</time>
      </trkpt>
      <trkpt lat="47.16301" lon="-1.46454">
        <ele>86</ele>
        <time>2022-02-27T11:24:14Z</time>
      </trkpt>
      <trkpt lat="47.16304" lon="-1.4644">
        <ele>86</ele>
        <time>2022-02-27T11:24:16Z</time>
      </trkpt>
      <trkpt lat="47.16307" lon="-1.46424">
        <ele>86</ele>
        <time>2022-02-27T11:24:18Z</time>
      </trkpt>
      <trkpt lat="47.1631" lon="-1.46409">
        <ele>86</ele>
        <time>2022-02-27T11:24:20Z</time>
      </trkpt>
      <trkpt lat="47.16314" lon="-1.46394">
        <ele>87</ele>
        <time>2022-02-27T11:24:22Z</time>
      </trkpt>
      <trkpt lat="47.16318" lon="-1.4638">
        <ele>87</ele>
        <time>2022-02-27T11:24:24Z</time>
      </trkpt>
      <trkpt lat="47.16322" lon="-1.46365">
        <ele>87</ele>
        <time>2022-02-27T11:24:26Z</time>
      </trkpt>
      <trkpt lat="47.16327" lon="-1.46351">
        <ele>88</ele>
        <time>2022-02-27T11:24:28Z</time>
      </trkpt>
      <trkpt lat="47.16332" lon="-1.46336">
        <ele>87</ele>
        <time>2022-02-27T11:24:30Z</time>
      </trkpt>
      <trkpt lat="47.16337" lon="-1.46321">
        <ele>87</ele>
        <time>2022-02-27T11:24:32Z</time>
      </trkpt>
      <trkpt lat="47.16343" lon="-1.46307">
        <ele>87</ele>
        <time>2022-02-27T11:24:34Z</time>
      </trkpt>
      <trkpt lat="47.16349" lon="-1.46293">
        <ele>87</ele>
        <time>2022-02-27T11:24:36Z</time>
      </trkpt>
      <trkpt lat="47.16356" lon="-1.46279">
        <ele>87</ele>
        <time>2022-02-27T11:24:38Z</time>
      </trkpt>
      <trkpt lat="47.16363" lon="-1.46265">
        <ele>87</ele>
        <time>2022-02-27T11:24:40Z</time>
      </trkpt>
      <trkpt lat="47.16371" lon="-1.46252">
        <ele>87</ele>
        <time>2022-02-27T11:24:42Z</time>
      </trkpt>
      <trkpt lat="47.1638" lon="-1.46238">
        <ele>86</ele>
        <time>2022-02-27T11:24:44Z</time>
      </trkpt>
      <trkpt lat="47.16388" lon="-1.46226">
        <ele>86</ele>
        <time>2022-02-27T11:24:46Z</time>
      </trkpt>
      <trkpt lat="47.16397" lon="-1.46213">
        <ele>86</ele>
        <time>2022-02-27T11:24:48Z</time>
      </trkpt>
      <trkpt lat="47.16407" lon="-1.46201">
        <ele>86</ele>
        <time>2022-02-27T11:24:50Z</time>
      </trkpt>
      <trkpt lat="47.16416" lon="-1.46189">
        <ele>86</ele>
        <time>2022-02-27T11:24:52Z</time>
      </trkpt>
      <trkpt lat="47.16426" lon="-1.46178">
        <ele>86</ele>
        <time>2022-02-27T11:24:54Z</time>
      </trkpt>
      <trkpt lat="47.16436" lon="-1.46167">
        <ele>86</ele>
        <time>2022-02-27T11:24:56Z</time>
      </trkpt>
      <trkpt lat="47.16446" lon="-1.46155">
        <ele>85</ele>
        <time>2022-02-27T11:24:58Z</time>
      </trkpt>
      <trkpt lat="47.16456" lon="-1.46144">
        <ele>85</ele>
        <time>2022-02-27T11:25:00Z</time>
      </trkpt>
      <trkpt lat="47.16467" lon="-1.46132">
        <ele>85</ele>
        <time>2022-02-27T11:25:02Z</time>
      </trkpt>
      <trkpt lat="47.16477" lon="-1.4612">
        <ele>85</ele>
        <time>2022-02-27T11:25:04Z</time>
      </trkpt>
      <trkpt lat="47.16487" lon="-1.46107">
        <ele>85</ele>
        <time>2022-02-27T11:25:06Z</time>
      </trkpt>
      <trkpt lat="47.16496" lon="-1.46095">
        <ele>85</ele>
        <time>2022-02-27T11:25:08Z</time>
      </trkpt>
      <trkpt lat="47.16502" lon="-1.46085">
        <ele>86</ele>
        <time>2022-02-27T11:25:10Z</time>
      </trkpt>
      <trkpt lat="47.16506" lon="-1.46073">
        <ele>86</ele>
        <time>2022-02-27T11:25:13Z</time>
      </trkpt>
      <trkpt lat="47.16513" lon="-1.46054">
        <ele>88</ele>
        <time>2022-02-27T11:25:16Z</time>
      </trkpt>
      <trkpt lat="47.16523" lon="-1.46042">
        <ele>88</ele>
        <time>2022-02-27T11:25:18Z</time>
      </trkpt>
      <trkpt lat="47.16538" lon="-1.4604">
        <ele>87</ele>
        <time>2022-02-27T11:25:20Z</time>
      </trkpt>
      <trkpt lat="47.1655" lon="-1.46052">
        <ele>86</ele>
        <time>2022-02-27T11:25:22Z</time>
      </trkpt>
      <trkpt lat="47.16558" lon="-1.46071">
        <ele>85</ele>
        <time>2022-02-27T11:25:24Z</time>
      </trkpt>
      <trkpt lat="47.16564" lon="-1.46089">
        <ele>85</ele>
        <time>2022-02-27T11:25:26Z</time>
      </trkpt>
      <trkpt lat="47.16567" lon="-1.46108">
        <ele>86</ele>
        <time>2022-02-27T11:25:28Z</time>
      </trkpt>
      <trkpt lat="47.16573" lon="-1.46126">
        <ele>86</ele>
        <time>2022-02-27T11:25:30Z</time>
      </trkpt>
      <trkpt lat="47.1658" lon="-1.46143">
        <ele>85</ele>
        <time>2022-02-27T11:25:32Z</time>
      </trkpt>
      <trkpt lat="47.16587" lon="-1.4616">
        <ele>85</ele>
        <time>2022-02-27T11:25:34Z</time>
      </trkpt>
      <trkpt lat="47.16595" lon="-1.46176">
        <ele>86</ele>
        <time>2022-02-27T11:25:36Z</time>
      </trkpt>
      <trkpt lat="47.16603" lon="-1.46191">
        <ele>86</ele>
        <time>2022-02-27T11:25:38Z</time>
      </trkpt>
      <trkpt lat="47.16612" lon="-1.46203">
        <ele>86</ele>
        <time>2022-02-27T11:25:40Z</time>
      </trkpt>
      <trkpt lat="47.16624" lon="-1.46212">
        <ele>86</ele>
        <time>2022-02-27T11:25:42Z</time>
      </trkpt>
      <trkpt lat="47.1663" lon="-1.46228">
        <ele>86</ele>
        <time>2022-02-27T11:25:44Z</time>
      </trkpt>
      <trkpt lat="47.16632" lon="-1.46245">
        <ele>86</ele>
        <time>2022-02-27T11:25:46Z</time>
      </trkpt>
      <trkpt lat="47.16639" lon="-1.4626">
        <ele>86</ele>
        <time>2022-02-27T11:25:48Z</time>
      </trkpt>
      <trkpt lat="47.16646" lon="-1.46273">
        <ele>85</ele>
        <time>2022-02-27T11:25:50Z</time>
      </trkpt>
      <trkpt lat="47.16654" lon="-1.46287">
        <ele>86</ele>
        <time>2022-02-27T11:25:52Z</time>
      </trkpt>
      <trkpt lat="47.16661" lon="-1.46302">
        <ele>86</ele>
        <time>2022-02-27T11:25:54Z</time>
      </trkpt>
      <trkpt lat="47.16667" lon="-1.46319">
        <ele>86</ele>
        <time>2022-02-27T11:25:56Z</time>
      </trkpt>
      <trkpt lat="47.16675" lon="-1.46335">
        <ele>87</ele>
        <time>2022-02-27T11:25:58Z</time>
      </trkpt>
      <trkpt lat="47.16684" lon="-1.46351">
        <ele>87</ele>
        <time>2022-02-27T11:26:00Z</time>
      </trkpt>
      <trkpt lat="47.16692" lon="-1.46367">
        <ele>87</ele>
        <time>2022-02-27T11:26:02Z</time>
      </trkpt>
      <trkpt lat="47.167" lon="-1.46382">
        <ele>86</ele>
        <time>2022-02-27T11:26:04Z</time>
      </trkpt>
      <trkpt lat="47.1671" lon="-1.46398">
        <ele>86</ele>
        <time>2022-02-27T11:26:06Z</time>
      </trkpt>
      <trkpt lat="47.1672" lon="-1.46415">
        <ele>86</ele>
        <time>2022-02-27T11:26:08Z</time>
      </trkpt>
      <trkpt lat="47.16729" lon="-1.46429">
        <ele>86</ele>
        <time>2022-02-27T11:26:10Z</time>
      </trkpt>
      <trkpt lat="47.16739" lon="-1.46444">
        <ele>85</ele>
        <time>2022-02-27T11:26:12Z</time>
      </trkpt>
      <trkpt lat="47.1675" lon="-1.46458">
        <ele>86</ele>
        <time>2022-02-27T11:26:14Z</time>
      </trkpt>
      <trkpt lat="47.1676" lon="-1.46473">
        <ele>86</ele>
        <time>2022-02-27T11:26:16Z</time>
      </trkpt>
      <trkpt lat="47.16771" lon="-1.46489">
        <ele>85</ele>
        <time>2022-02-27T11:26:18Z</time>
      </trkpt>
      <trkpt lat="47.16782" lon="-1.46505">
        <ele>84</ele>
        <time>2022-02-27T11:26:20Z</time>
      </trkpt>
      <trkpt lat="47.16793" lon="-1.46519">
        <ele>84</ele>
        <time>2022-02-27T11:26:22Z</time>
      </trkpt>
      <trkpt lat="47.16804" lon="-1.46532">
        <ele>84</ele>
        <time>2022-02-27T11:26:24Z</time>
      </trkpt>
      <trkpt lat="47.16815" lon="-1.46546">
        <ele>84</ele>
        <time>2022-02-27T11:26:26Z</time>
      </trkpt>
      <trkpt lat="47.16827" lon="-1.46559">
        <ele>84</ele>
        <time>2022-02-27T11:26:28Z</time>
      </trkpt>
      <trkpt lat="47.1684" lon="-1.46572">
        <ele>84</ele>
        <time>2022-02-27T11:26:30Z</time>
      </trkpt>
      <trkpt lat="47.16852" lon="-1.46583">
        <ele>84</ele>
        <time>2022-02-27T11:26:32Z</time>
      </trkpt>
      <trkpt lat="47.16865" lon="-1.46595">
        <ele>84</ele>
        <time>2022-02-27T11:26:34Z</time>
      </trkpt>
      <trkpt lat="47.16878" lon="-1.46607">
        <ele>83</ele>
        <time>2022-02-27T11:26:36Z</time>
      </trkpt>
      <trkpt lat="47.16891" lon="-1.46618">
        <ele>82</ele>
        <time>2022-02-27T11:26:38Z</time>
      </trkpt>
      <trkpt lat="47.16904" lon="-1.46629">
        <ele>82</ele>
        <time>2022-02-27T11:26:40Z</time>
      </trkpt>
      <trkpt lat="47.16918" lon="-1.46639">
        <ele>81</ele>
        <time>2022-02-27T11:26:42Z</time>
      </trkpt>
      <trkpt lat="47.16931" lon="-1.46649">
        <ele>81</ele>
        <time>2022-02-27T11:26:44Z</time>
      </trkpt>
      <trkpt lat="47.16944" lon="-1.46659">
        <ele>80</ele>
        <time>2022-02-27T11:26:46Z</time>
      </trkpt>
      <trkpt lat="47.16958" lon="-1.46666">
        <ele>81</ele>
        <time>2022-02-27T11:26:48Z</time>
      </trkpt>
      <trkpt lat="47.16972" lon="-1.46673">
        <ele>80</ele>
        <time>2022-02-27T11:26:50Z</time>
      </trkpt>
      <trkpt lat="47.16983" lon="-1.46688">
        <ele>80</ele>
        <time>2022-02-27T11:26:52Z</time>
      </trkpt>
      <trkpt lat="47.16996" lon="-1.46703">
        <ele>79</ele>
        <time>2022-02-27T11:26:54Z</time>
      </trkpt>
      <trkpt lat="47.17011" lon="-1.46715">
        <ele>79</ele>
        <time>2022-02-27T11:26:56Z</time>
      </trkpt>
      <trkpt lat="47.17026" lon="-1.46727">
        <ele>78</ele>
        <time>2022-02-27T11:26:58Z</time>
      </trkpt>
      <trkpt lat="47.17041" lon="-1.46739">
        <ele>78</ele>
        <time>2022-02-27T11:27:00Z</time>
      </trkpt>
      <trkpt lat="47.17056" lon="-1.46751">
        <ele>77</ele>
        <time>2022-02-27T11:27:02Z</time>
      </trkpt>
      <trkpt lat="47.17071" lon="-1.46763">
        <ele>76</ele>
        <time>2022-02-27T11:27:04Z</time>
      </trkpt>
      <trkpt lat="47.17085" lon="-1.46778">
        <ele>76</ele>
        <time>2022-02-27T11:27:06Z</time>
      </trkpt>
      <trkpt lat="47.17098" lon="-1.46792">
        <ele>75</ele>
        <time>2022-02-27T11:27:08Z</time>
      </trkpt>
      <trkpt lat="47.17108" lon="-1.46802">
        <ele>74</ele>
        <time>2022-02-27T11:27:10Z</time>
      </trkpt>
      <trkpt lat="47.17119" lon="-1.46808">
        <ele>74</ele>
        <time>2022-02-27T11:27:13Z</time>
      </trkpt>
      <trkpt lat="47.1713" lon="-1.46812">
        <ele>73</ele>
        <time>2022-02-27T11:27:15Z</time>
      </trkpt>
      <trkpt lat="47.17139" lon="-1.46828">
        <ele>73</ele>
        <time>2022-02-27T11:27:17Z</time>
      </trkpt>
      <trkpt lat="47.17146" lon="-1.46846">
        <ele>72</ele>
        <time>2022-02-27T11:27:19Z</time>
      </trkpt>
      <trkpt lat="47.17156" lon="-1.4686">
        <ele>72</ele>
        <time>2022-02-27T11:27:21Z</time>
      </trkpt>
      <trkpt lat="47.17167" lon="-1.46876">
        <ele>73</ele>
        <time>2022-02-27T11:27:23Z</time>
      </trkpt>
      <trkpt lat="47.17177" lon="-1.46893">
        <ele>73</ele>
        <time>2022-02-27T11:27:25Z</time>
      </trkpt>
      <trkpt lat="47.17186" lon="-1.46914">
        <ele>73</ele>
        <time>2022-02-27T11:27:27Z</time>
      </trkpt>
      <trkpt lat="47.17195" lon="-1.46933">
        <ele>74</ele>
        <time>2022-02-27T11:27:29Z</time>
      </trkpt>
      <trkpt lat="47.17203" lon="-1.46952">
        <ele>74</ele>
        <time>2022-02-27T11:27:31Z</time>
      </trkpt>
      <trkpt lat="47.17212" lon="-1.46971">
        <ele>74</ele>
        <time>2022-02-27T11:27:33Z</time>
      </trkpt>
      <trkpt lat="47.17221" lon="-1.46991">
        <ele>73</ele>
        <time>2022-02-27T11:27:35Z</time>
      </trkpt>
      <trkpt lat="47.17229" lon="-1.47011">
        <ele>72</ele>
        <time>2022-02-27T11:27:37Z</time>
      </trkpt>
      <trkpt lat="47.17236" lon="-1.47032">
        <ele>72</ele>
        <time>2022-02-27T11:27:39Z</time>
      </trkpt>
      <trkpt lat="47.17243" lon="-1.47054">
        <ele>71</ele>
        <time>2022-02-27T11:27:41Z</time>
      </trkpt>
      <trkpt lat="47.1725" lon="-1.47076">
        <ele>71</ele>
        <time>2022-02-27T11:27:43Z</time>
      </trkpt>
      <trkpt lat="47.17256" lon="-1.47097">
        <ele>71</ele>
        <time>2022-02-27T11:27:45Z</time>
      </trkpt>
      <trkpt lat="47.17261" lon="-1.47119">
        <ele>71</ele>
        <time>2022-02-27T11:27:47Z</time>
      </trkpt>
      <trkpt lat="47.17266" lon="-1.47141">
        <ele>70</ele>
        <time>2022-02-27T11:27:49Z</time>
      </trkpt>
      <trkpt lat="47.1727" lon="-1.47164">
        <ele>70</ele>
        <time>2022-02-27T11:27:51Z</time>
      </trkpt>
      <trkpt lat="47.17276" lon="-1.47187">
        <ele>69</ele>
        <time>2022-02-27T11:27:53Z</time>
      </trkpt>
      <trkpt lat="47.1728" lon="-1.47209">
        <ele>69</ele>
        <time>2022-02-27T11:27:55Z</time>
      </trkpt>
      <trkpt lat="47.17285" lon="-1.47233">
        <ele>69</ele>
        <time>2022-02-27T11:27:57Z</time>
      </trkpt>
      <trkpt lat="47.1729" lon="-1.47256">
        <ele>69</ele>
        <time>2022-02-27T11:27:59Z</time>
      </trkpt>
      <trkpt lat="47.17294" lon="-1.47281">
        <ele>68</ele>
        <time>2022-02-27T11:28:01Z</time>
      </trkpt>
      <trkpt lat="47.17297" lon="-1.47307">
        <ele>67</ele>
        <time>2022-02-27T11:28:03Z</time>
      </trkpt>
      <trkpt lat="47.17301" lon="-1.47331">
        <ele>65</ele>
        <time>2022-02-27T11:28:05Z</time>
      </trkpt>
      <trkpt lat="47.17305" lon="-1.47352">
        <ele>65</ele>
        <time>2022-02-27T11:28:07Z</time>
      </trkpt>
      <trkpt lat="47.17314" lon="-1.47368">
        <ele>64</ele>
        <time>2022-02-27T11:28:09Z</time>
      </trkpt>
      <trkpt lat="47.17329" lon="-1.47369">
        <ele>64</ele>
        <time>2022-02-27T11:28:11Z</time>
      </trkpt>
      <trkpt lat="47.17345" lon="-1.47366">
        <ele>63</ele>
        <time>2022-02-27T11:28:13Z</time>
      </trkpt>
      <trkpt lat="47.1736" lon="-1.47362">
        <ele>63</ele>
        <time>2022-02-27T11:28:15Z</time>
      </trkpt>
      <trkpt lat="47.17376" lon="-1.47359">
        <ele>63</ele>
        <time>2022-02-27T11:28:17Z</time>
      </trkpt>
      <trkpt lat="47.17391" lon="-1.47357">
        <ele>63</ele>
        <time>2022-02-27T11:28:19Z</time>
      </trkpt>
      <trkpt lat="47.17407" lon="-1.47355">
        <ele>62</ele>
        <time>2022-02-27T11:28:21Z</time>
      </trkpt>
      <trkpt lat="47.17421" lon="-1.47353">
        <ele>61</ele>
        <time>2022-02-27T11:28:23Z</time>
      </trkpt>
      <trkpt lat="47.17436" lon="-1.47351">
        <ele>61</ele>
        <time>2022-02-27T11:28:25Z</time>
      </trkpt>
      <trkpt lat="47.17451" lon="-1.47351">
        <ele>60</ele>
        <time>2022-02-27T11:28:27Z</time>
      </trkpt>
      <trkpt lat="47.17467" lon="-1.47352">
        <ele>60</ele>
        <time>2022-02-27T11:28:29Z</time>
      </trkpt>
      <trkpt lat="47.17482" lon="-1.47352">
        <ele>60</ele>
        <time>2022-02-27T11:28:31Z</time>
      </trkpt>
      <trkpt lat="47.17497" lon="-1.47354">
        <ele>59</ele>
        <time>2022-02-27T11:28:33Z</time>
      </trkpt>
      <trkpt lat="47.17513" lon="-1.47354">
        <ele>58</ele>
        <time>2022-02-27T11:28:35Z</time>
      </trkpt>
      <trkpt lat="47.17529" lon="-1.47354">
        <ele>58</ele>
        <time>2022-02-27T11:28:37Z</time>
      </trkpt>
      <trkpt lat="47.17546" lon="-1.47355">
        <ele>57</ele>
        <time>2022-02-27T11:28:39Z</time>
      </trkpt>
      <trkpt lat="47.17562" lon="-1.47356">
        <ele>57</ele>
        <time>2022-02-27T11:28:41Z</time>
      </trkpt>
      <trkpt lat="47.17578" lon="-1.47359">
        <ele>57</ele>
        <time>2022-02-27T11:28:43Z</time>
      </trkpt>
      <trkpt lat="47.17593" lon="-1.47362">
        <ele>56</ele>
        <time>2022-02-27T11:28:45Z</time>
      </trkpt>
      <trkpt lat="47.17609" lon="-1.47366">
        <ele>56</ele>
        <time>2022-02-27T11:28:47Z</time>
      </trkpt>
      <trkpt lat="47.17624" lon="-1.47369">
        <ele>56</ele>
        <time>2022-02-27T11:28:49Z</time>
      </trkpt>
      <trkpt lat="47.17639" lon="-1.47374">
        <ele>56</ele>
        <time>2022-02-27T11:28:51Z</time>
      </trkpt>
      <trkpt lat="47.17653" lon="-1.4738">
        <ele>57</ele>
        <time>2022-02-27T11:28:53Z</time>
      </trkpt>
      <trkpt lat="47.17666" lon="-1.47388">
        <ele>57</ele>
        <time>2022-02-27T11:28:55Z</time>
      </trkpt>
      <trkpt lat="47.17678" lon="-1.47395">
        <ele>58</ele>
        <time>2022-02-27T11:28:57Z</time>
      </trkpt>
      <trkpt lat="47.17692" lon="-1.47402">
        <ele>58</ele>
        <time>2022-02-27T11:28:59Z</time>
      </trkpt>
      <trkpt lat="47.17706" lon="-1.47408">
        <ele>58</ele>
        <time>2022-02-27T11:29:01Z</time>
      </trkpt>
      <trkpt lat="47.1772" lon="-1.47413">
        <ele>58</ele>
        <time>2022-02-27T11:29:03Z</time>
      </trkpt>
      <trkpt lat="47.17733" lon="-1.47421">
        <ele>58</ele>
        <time>2022-02-27T11:29:05Z</time>
      </trkpt>
      <trkpt lat="47.17747" lon="-1.47429">
        <ele>59</ele>
        <time>2022-02-27T11:29:07Z</time>
      </trkpt>
      <trkpt lat="47.1776" lon="-1.47437">
        <ele>58</ele>
        <time>2022-02-27T11:29:09Z</time>
      </trkpt>
      <trkpt lat="47.17775" lon="-1.47444">
        <ele>58</ele>
        <time>2022-02-27T11:29:11Z</time>
      </trkpt>
      <trkpt lat="47.17789" lon="-1.4745">
        <ele>58</ele>
        <time>2022-02-27T11:29:13Z</time>
      </trkpt>
      <trkpt lat="47.17803" lon="-1.47456">
        <ele>58</ele>
        <time>2022-02-27T11:29:15Z</time>
      </trkpt>
      <trkpt lat="47.17817" lon="-1.47461">
        <ele>58</ele>
        <time>2022-02-27T11:29:17Z</time>
      </trkpt>
      <trkpt lat="47.17831" lon="-1.47466">
        <ele>58</ele>
        <time>2022-02-27T11:29:19Z</time>
      </trkpt>
      <trkpt lat="47.17845" lon="-1.47469">
        <ele>58</ele>
        <time>2022-02-27T11:29:21Z</time>
      </trkpt>
      <trkpt lat="47.17858" lon="-1.47472">
        <ele>58</ele>
        <time>2022-02-27T11:29:23Z</time>
      </trkpt>
      <trkpt lat="47.17871" lon="-1.47475">
        <ele>58</ele>
        <time>2022-02-27T11:29:25Z</time>
      </trkpt>
      <trkpt lat="47.17884" lon="-1.47475">
        <ele>59</ele>
        <time>2022-02-27T11:29:27Z</time>
      </trkpt>
      <trkpt lat="47.17897" lon="-1.47469">
        <ele>59</ele>
        <time>2022-02-27T11:29:29Z</time>
      </trkpt>
      <trkpt lat="47.1791" lon="-1.47467">
        <ele>59</ele>
        <time>2022-02-27T11:29:31Z</time>
      </trkpt>
      <trkpt lat="47.17922" lon="-1.47477">
        <ele>59</ele>
        <time>2022-02-27T11:29:33Z</time>
      </trkpt>
      <trkpt lat="47.17932" lon="-1.4749">
        <ele>59</ele>
        <time>2022-02-27T11:29:35Z</time>
      </trkpt>
      <trkpt lat="47.17942" lon="-1.47493">
        <ele>60</ele>
        <time>2022-02-27T11:29:37Z</time>
      </trkpt>
      <trkpt lat="47.17957" lon="-1.47497">
        <ele>60</ele>
        <time>2022-02-27T11:29:39Z</time>
      </trkpt>
      <trkpt lat="47.17971" lon="-1.47501">
        <ele>59</ele>
        <time>2022-02-27T11:29:41Z</time>
      </trkpt>
      <trkpt lat="47.17984" lon="-1.47505">
        <ele>59</ele>
        <time>2022-02-27T11:29:43Z</time>
      </trkpt>
      <trkpt lat="47.17997" lon="-1.47508">
        <ele>59</ele>
        <time>2022-02-27T11:29:45Z</time>
      </trkpt>
      <trkpt lat="47.1801" lon="-1.47511">
        <ele>59</ele>
        <time>2022-02-27T11:29:47Z</time>
      </trkpt>
      <trkpt lat="47.18023" lon="-1.47514">
        <ele>59</ele>
        <time>2022-02-27T11:29:49Z</time>
      </trkpt>
      <trkpt lat="47.18035" lon="-1.47517">
        <ele>59</ele>
        <time>2022-02-27T11:29:51Z</time>
      </trkpt>
      <trkpt lat="47.18048" lon="-1.4752">
        <ele>59</ele>
        <time>2022-02-27T11:29:53Z</time>
      </trkpt>
      <trkpt lat="47.18061" lon="-1.47523">
        <ele>59</ele>
        <time>2022-02-27T11:29:55Z</time>
      </trkpt>
      <trkpt lat="47.18074" lon="-1.47527">
        <ele>59</ele>
        <time>2022-02-27T11:29:57Z</time>
      </trkpt>
      <trkpt lat="47.18086" lon="-1.4753">
        <ele>59</ele>
        <time>2022-02-27T11:29:59Z</time>
      </trkpt>
      <trkpt lat="47.18099" lon="-1.47534">
        <ele>59</ele>
        <time>2022-02-27T11:30:01Z</time>
      </trkpt>
      <trkpt lat="47.18112" lon="-1.47537">
        <ele>60</ele>
        <time>2022-02-27T11:30:03Z</time>
      </trkpt>
      <trkpt lat="47.18124" lon="-1.4754">
        <ele>60</ele>
        <time>2022-02-27T11:30:05Z</time>
      </trkpt>
      <trkpt lat="47.18137" lon="-1.47543">
        <ele>61</ele>
        <time>2022-02-27T11:30:07Z</time>
      </trkpt>
      <trkpt lat="47.18149" lon="-1.47545">
        <ele>61</ele>
        <time>2022-02-27T11:30:09Z</time>
      </trkpt>
      <trkpt lat="47.18162" lon="-1.47548">
        <ele>62</ele>
        <time>2022-02-27T11:30:11Z</time>
      </trkpt>
      <trkpt lat="47.18174" lon="-1.47551">
        <ele>62</ele>
        <time>2022-02-27T11:30:13Z</time>
      </trkpt>
      <trkpt lat="47.18186" lon="-1.47553">
        <ele>63</ele>
        <time>2022-02-27T11:30:15Z</time>
      </trkpt>
      <trkpt lat="47.18198" lon="-1.47556">
        <ele>63</ele>
        <time>2022-02-27T11:30:17Z</time>
      </trkpt>
      <trkpt lat="47.1821" lon="-1.4756">
        <ele>63</ele>
        <time>2022-02-27T11:30:19Z</time>
      </trkpt>
      <trkpt lat="47.18222" lon="-1.47564">
        <ele>63</ele>
        <time>2022-02-27T11:30:21Z</time>
      </trkpt>
      <trkpt lat="47.18233" lon="-1.47567">
        <ele>64</ele>
        <time>2022-02-27T11:30:23Z</time>
      </trkpt>
      <trkpt lat="47.18245" lon="-1.4757">
        <ele>64</ele>
        <time>2022-02-27T11:30:25Z</time>
      </trkpt>
      <trkpt lat="47.18256" lon="-1.47573">
        <ele>64</ele>
        <time>2022-02-27T11:30:27Z</time>
      </trkpt>
      <trkpt lat="47.18268" lon="-1.47576">
        <ele>64</ele>
        <time>2022-02-27T11:30:29Z</time>
      </trkpt>
      <trkpt lat="47.18279" lon="-1.4758">
        <ele>64</ele>
        <time>2022-02-27T11:30:31Z</time>
      </trkpt>
      <trkpt lat="47.18291" lon="-1.47584">
        <ele>64</ele>
        <time>2022-02-27T11:30:33Z</time>
      </trkpt>
      <trkpt lat="47.18302" lon="-1.47588">
        <ele>65</ele>
        <time>2022-02-27T11:30:35Z</time>
      </trkpt>
      <trkpt lat="47.18312" lon="-1.4759">
        <ele>65</ele>
        <time>2022-02-27T11:30:37Z</time>
      </trkpt>
      <trkpt lat="47.18322" lon="-1.47593">
        <ele>66</ele>
        <time>2022-02-27T11:30:39Z</time>
      </trkpt>
      <trkpt lat="47.18333" lon="-1.47596">
        <ele>66</ele>
        <time>2022-02-27T11:30:41Z</time>
      </trkpt>
      <trkpt lat="47.18343" lon="-1.47599">
        <ele>67</ele>
        <time>2022-02-27T11:30:43Z</time>
      </trkpt>
      <trkpt lat="47.18352" lon="-1.47602">
        <ele>67</ele>
        <time>2022-02-27T11:30:45Z</time>
      </trkpt>
      <trkpt lat="47.18362" lon="-1.47603">
        <ele>67</ele>
        <time>2022-02-27T11:30:47Z</time>
      </trkpt>
      <trkpt lat="47.18374" lon="-1.47606">
        <ele>68</ele>
        <time>2022-02-27T11:30:50Z</time>
      </trkpt>
      <trkpt lat="47.18387" lon="-1.47609">
        <ele>69</ele>
        <time>2022-02-27T11:30:53Z</time>
      </trkpt>
      <trkpt lat="47.18397" lon="-1.47611">
        <ele>69</ele>
        <time>2022-02-27T11:30:55Z</time>
      </trkpt>
      <trkpt lat="47.18406" lon="-1.47613">
        <ele>70</ele>
        <time>2022-02-27T11:30:57Z</time>
      </trkpt>
      <trkpt lat="47.18416" lon="-1.47616">
        <ele>70</ele>
        <time>2022-02-27T11:30:59Z</time>
      </trkpt>
      <trkpt lat="47.18425" lon="-1.47619">
        <ele>70</ele>
        <time>2022-02-27T11:31:01Z</time>
      </trkpt>
      <trkpt lat="47.18435" lon="-1.47621">
        <ele>70</ele>
        <time>2022-02-27T11:31:03Z</time>
      </trkpt>
      <trkpt lat="47.18445" lon="-1.47624">
        <ele>71</ele>
        <time>2022-02-27T11:31:05Z</time>
      </trkpt>
      <trkpt lat="47.18454" lon="-1.47627">
        <ele>72</ele>
        <time>2022-02-27T11:31:07Z</time>
      </trkpt>
      <trkpt lat="47.18464" lon="-1.47629">
        <ele>72</ele>
        <time>2022-02-27T11:31:09Z</time>
      </trkpt>
      <trkpt lat="47.18474" lon="-1.47632">
        <ele>72</ele>
        <time>2022-02-27T11:31:11Z</time>
      </trkpt>
      <trkpt lat="47.18484" lon="-1.47635">
        <ele>73</ele>
        <time>2022-02-27T11:31:13Z</time>
      </trkpt>
      <trkpt lat="47.18494" lon="-1.47638">
        <ele>74</ele>
        <time>2022-02-27T11:31:15Z</time>
      </trkpt>
      <trkpt lat="47.18504" lon="-1.4764">
        <ele>74</ele>
        <time>2022-02-27T11:31:17Z</time>
      </trkpt>
      <trkpt lat="47.18514" lon="-1.47643">
        <ele>74</ele>
        <time>2022-02-27T11:31:19Z</time>
      </trkpt>
      <trkpt lat="47.18524" lon="-1.47645">
        <ele>74</ele>
        <time>2022-02-27T11:31:21Z</time>
      </trkpt>
      <trkpt lat="47.18534" lon="-1.47647">
        <ele>75</ele>
        <time>2022-02-27T11:31:23Z</time>
      </trkpt>
      <trkpt lat="47.18543" lon="-1.47649">
        <ele>75</ele>
        <time>2022-02-27T11:31:25Z</time>
      </trkpt>
      <trkpt lat="47.18552" lon="-1.4765">
        <ele>76</ele>
        <time>2022-02-27T11:31:27Z</time>
      </trkpt>
      <trkpt lat="47.18561" lon="-1.47653">
        <ele>76</ele>
        <time>2022-02-27T11:31:29Z</time>
      </trkpt>
      <trkpt lat="47.1857" lon="-1.47656">
        <ele>76</ele>
        <time>2022-02-27T11:31:31Z</time>
      </trkpt>
      <trkpt lat="47.1858" lon="-1.47659">
        <ele>76</ele>
        <time>2022-02-27T11:31:33Z</time>
      </trkpt>
      <trkpt lat="47.18589" lon="-1.47662">
        <ele>77</ele>
        <time>2022-02-27T11:31:35Z</time>
      </trkpt>
      <trkpt lat="47.18599" lon="-1.47665">
        <ele>78</ele>
        <time>2022-02-27T11:31:37Z</time>
      </trkpt>
      <trkpt lat="47.18608" lon="-1.47668">
        <ele>78</ele>
        <time>2022-02-27T11:31:39Z</time>
      </trkpt>
      <trkpt lat="47.18618" lon="-1.47669">
        <ele>79</ele>
        <time>2022-02-27T11:31:41Z</time>
      </trkpt>
      <trkpt lat="47.18627" lon="-1.4767">
        <ele>80</ele>
        <time>2022-02-27T11:31:43Z</time>
      </trkpt>
      <trkpt lat="47.18637" lon="-1.47672">
        <ele>81</ele>
        <time>2022-02-27T11:31:45Z</time>
      </trkpt>
      <trkpt lat="47.1865" lon="-1.47675">
        <ele>80</ele>
        <time>2022-02-27T11:31:48Z</time>
      </trkpt>
      <trkpt lat="47.1866" lon="-1.47678">
        <ele>80</ele>
        <time>2022-02-27T11:31:51Z</time>
      </trkpt>
      <trkpt lat="47.18668" lon="-1.47681">
        <ele>80</ele>
        <time>2022-02-27T11:31:55Z</time>
      </trkpt>
      <trkpt lat="47.18678" lon="-1.47682">
        <ele>81</ele>
        <time>2022-02-27T11:32:28Z</time>
      </trkpt>
      <trkpt lat="47.18693" lon="-1.47682">
        <ele>82</ele>
        <time>2022-02-27T11:32:32Z</time>
      </trkpt>
      <trkpt lat="47.18703" lon="-1.47675">
        <ele>83</ele>
        <time>2022-02-27T11:32:34Z</time>
      </trkpt>
      <trkpt lat="47.18711" lon="-1.47661">
        <ele>83</ele>
        <time>2022-02-27T11:32:36Z</time>
      </trkpt>
      <trkpt lat="47.18718" lon="-1.47647">
        <ele>83</ele>
        <time>2022-02-27T11:32:38Z</time>
      </trkpt>
      <trkpt lat="47.18725" lon="-1.47632">
        <ele>83</ele>
        <time>2022-02-27T11:32:40Z</time>
      </trkpt>
      <trkpt lat="47.18732" lon="-1.47618">
        <ele>83</ele>
        <time>2022-02-27T11:32:42Z</time>
      </trkpt>
      <trkpt lat="47.1874" lon="-1.47603">
        <ele>83</ele>
        <time>2022-02-27T11:32:44Z</time>
      </trkpt>
      <trkpt lat="47.18748" lon="-1.47587">
        <ele>83</ele>
        <time>2022-02-27T11:32:46Z</time>
      </trkpt>
      <trkpt lat="47.18755" lon="-1.47572">
        <ele>83</ele>
        <time>2022-02-27T11:32:48Z</time>
      </trkpt>
      <trkpt lat="47.18763" lon="-1.47557">
        <ele>83</ele>
        <time>2022-02-27T11:32:50Z</time>
      </trkpt>
      <trkpt lat="47.18772" lon="-1.47542">
        <ele>83</ele>
        <time>2022-02-27T11:32:52Z</time>
      </trkpt>
      <trkpt lat="47.18779" lon="-1.47527">
        <ele>83</ele>
        <time>2022-02-27T11:32:54Z</time>
      </trkpt>
      <trkpt lat="47.18787" lon="-1.47513">
        <ele>83</ele>
        <time>2022-02-27T11:32:56Z</time>
      </trkpt>
      <trkpt lat="47.18794" lon="-1.47499">
        <ele>83</ele>
        <time>2022-02-27T11:32:58Z</time>
      </trkpt>
      <trkpt lat="47.18801" lon="-1.47484">
        <ele>83</ele>
        <time>2022-02-27T11:33:00Z</time>
      </trkpt>
      <trkpt lat="47.18808" lon="-1.47469">
        <ele>83</ele>
        <time>2022-02-27T11:33:02Z</time>
      </trkpt>
      <trkpt lat="47.18815" lon="-1.47454">
        <ele>84</ele>
        <time>2022-02-27T11:33:04Z</time>
      </trkpt>
      <trkpt lat="47.18822" lon="-1.4744">
        <ele>85</ele>
        <time>2022-02-27T11:33:06Z</time>
      </trkpt>
      <trkpt lat="47.18829" lon="-1.47426">
        <ele>86</ele>
        <time>2022-02-27T11:33:08Z</time>
      </trkpt>
      <trkpt lat="47.18836" lon="-1.47411">
        <ele>86</ele>
        <time>2022-02-27T11:33:10Z</time>
      </trkpt>
      <trkpt lat="47.18844" lon="-1.47397">
        <ele>87</ele>
        <time>2022-02-27T11:33:12Z</time>
      </trkpt>
      <trkpt lat="47.1885" lon="-1.47383">
        <ele>88</ele>
        <time>2022-02-27T11:33:14Z</time>
      </trkpt>
      <trkpt lat="47.18856" lon="-1.47368">
        <ele>88</ele>
        <time>2022-02-27T11:33:16Z</time>
      </trkpt>
      <trkpt lat="47.18863" lon="-1.47352">
        <ele>89</ele>
        <time>2022-02-27T11:33:18Z</time>
      </trkpt>
      <trkpt lat="47.1887" lon="-1.47336">
        <ele>89</ele>
        <time>2022-02-27T11:33:20Z</time>
      </trkpt>
      <trkpt lat="47.18876" lon="-1.4732">
        <ele>89</ele>
        <time>2022-02-27T11:33:22Z</time>
      </trkpt>
      <trkpt lat="47.18883" lon="-1.47306">
        <ele>89</ele>
        <time>2022-02-27T11:33:24Z</time>
      </trkpt>
      <trkpt lat="47.18889" lon="-1.47291">
        <ele>90</ele>
        <time>2022-02-27T11:33:26Z</time>
      </trkpt>
      <trkpt lat="47.18896" lon="-1.47278">
        <ele>90</ele>
        <time>2022-02-27T11:33:28Z</time>
      </trkpt>
      <trkpt lat="47.18903" lon="-1.47264">
        <ele>90</ele>
        <time>2022-02-27T11:33:30Z</time>
      </trkpt>
      <trkpt lat="47.1891" lon="-1.4725">
        <ele>90</ele>
        <time>2022-02-27T11:33:32Z</time>
      </trkpt>
      <trkpt lat="47.18917" lon="-1.47236">
        <ele>90</ele>
        <time>2022-02-27T11:33:34Z</time>
      </trkpt>
      <trkpt lat="47.18923" lon="-1.47222">
        <ele>91</ele>
        <time>2022-02-27T11:33:36Z</time>
      </trkpt>
      <trkpt lat="47.18927" lon="-1.47206">
        <ele>91</ele>
        <time>2022-02-27T11:33:38Z</time>
      </trkpt>
      <trkpt lat="47.1893" lon="-1.47187">
        <ele>90</ele>
        <time>2022-02-27T11:33:40Z</time>
      </trkpt>
      <trkpt lat="47.18938" lon="-1.47174">
        <ele>90</ele>
        <time>2022-02-27T11:33:42Z</time>
      </trkpt>
      <trkpt lat="47.18948" lon="-1.47163">
        <ele>89</ele>
        <time>2022-02-27T11:33:44Z</time>
      </trkpt>
      <trkpt lat="47.18956" lon="-1.47148">
        <ele>89</ele>
        <time>2022-02-27T11:33:46Z</time>
      </trkpt>
      <trkpt lat="47.18965" lon="-1.47133">
        <ele>89</ele>
        <time>2022-02-27T11:33:48Z</time>
      </trkpt>
      <trkpt lat="47.18973" lon="-1.47119">
        <ele>89</ele>
        <time>2022-02-27T11:33:50Z</time>
      </trkpt>
      <trkpt lat="47.1898" lon="-1.47104">
        <ele>89</ele>
        <time>2022-02-27T11:33:52Z</time>
      </trkpt>
      <trkpt lat="47.18988" lon="-1.4709">
        <ele>89</ele>
        <time>2022-02-27T11:33:54Z</time>
      </trkpt>
      <trkpt lat="47.18996" lon="-1.47072">
        <ele>89</ele>
        <time>2022-02-27T11:33:56Z</time>
      </trkpt>
      <trkpt lat="47.19004" lon="-1.47055">
        <ele>89</ele>
        <time>2022-02-27T11:33:58Z</time>
      </trkpt>
      <trkpt lat="47.19012" lon="-1.47039">
        <ele>88</ele>
        <time>2022-02-27T11:34:00Z</time>
      </trkpt>
      <trkpt lat="47.1902" lon="-1.47022">
        <ele>87</ele>
        <time>2022-02-27T11:34:02Z</time>
      </trkpt>
      <trkpt lat="47.19027" lon="-1.47005">
        <ele>86</ele>
        <time>2022-02-27T11:34:04Z</time>
      </trkpt>
      <trkpt lat="47.19035" lon="-1.46989">
        <ele>86</ele>
        <time>2022-02-27T11:34:06Z</time>
      </trkpt>
      <trkpt lat="47.19043" lon="-1.46972">
        <ele>86</ele>
        <time>2022-02-27T11:34:08Z</time>
      </trkpt>
      <trkpt lat="47.19051" lon="-1.46956">
        <ele>85</ele>
        <time>2022-02-27T11:34:10Z</time>
      </trkpt>
      <trkpt lat="47.19058" lon="-1.46939">
        <ele>85</ele>
        <time>2022-02-27T11:34:12Z</time>
      </trkpt>
      <trkpt lat="47.19066" lon="-1.46924">
        <ele>85</ele>
        <time>2022-02-27T11:34:14Z</time>
      </trkpt>
      <trkpt lat="47.19073" lon="-1.46908">
        <ele>85</ele>
        <time>2022-02-27T11:34:16Z</time>
      </trkpt>
      <trkpt lat="47.1908" lon="-1.46893">
        <ele>85</ele>
        <time>2022-02-27T11:34:18Z</time>
      </trkpt>
      <trkpt lat="47.19087" lon="-1.46877">
        <ele>85</ele>
        <time>2022-02-27T11:34:20Z</time>
      </trkpt>
      <trkpt lat="47.19095" lon="-1.46862">
        <ele>84</ele>
        <time>2022-02-27T11:34:22Z</time>
      </trkpt>
      <trkpt lat="47.19101" lon="-1.46847">
        <ele>84</ele>
        <time>2022-02-27T11:34:24Z</time>
      </trkpt>
      <trkpt lat="47.19108" lon="-1.46831">
        <ele>84</ele>
        <time>2022-02-27T11:34:26Z</time>
      </trkpt>
      <trkpt lat="47.19116" lon="-1.46816">
        <ele>83</ele>
        <time>2022-02-27T11:34:28Z</time>
      </trkpt>
      <trkpt lat="47.19123" lon="-1.468">
        <ele>83</ele>
        <time>2022-02-27T11:34:30Z</time>
      </trkpt>
      <trkpt lat="47.1913" lon="-1.46784">
        <ele>83</ele>
        <time>2022-02-27T11:34:32Z</time>
      </trkpt>
      <trkpt lat="47.19138" lon="-1.46769">
        <ele>83</ele>
        <time>2022-02-27T11:34:34Z</time>
      </trkpt>
      <trkpt lat="47.19146" lon="-1.46754">
        <ele>83</ele>
        <time>2022-02-27T11:34:36Z</time>
      </trkpt>
      <trkpt lat="47.19153" lon="-1.46739">
        <ele>84</ele>
        <time>2022-02-27T11:34:38Z</time>
      </trkpt>
      <trkpt lat="47.1916" lon="-1.46724">
        <ele>84</ele>
        <time>2022-02-27T11:34:40Z</time>
      </trkpt>
      <trkpt lat="47.19167" lon="-1.46709">
        <ele>83</ele>
        <time>2022-02-27T11:34:42Z</time>
      </trkpt>
      <trkpt lat="47.19175" lon="-1.46694">
        <ele>83</ele>
        <time>2022-02-27T11:34:44Z</time>
      </trkpt>
      <trkpt lat="47.19182" lon="-1.46679">
        <ele>83</ele>
        <time>2022-02-27T11:34:46Z</time>
      </trkpt>
      <trkpt lat="47.19189" lon="-1.46664">
        <ele>83</ele>
        <time>2022-02-27T11:34:48Z</time>
      </trkpt>
      <trkpt lat="47.19196" lon="-1.46649">
        <ele>83</ele>
        <time>2022-02-27T11:34:50Z</time>
      </trkpt>
      <trkpt lat="47.19204" lon="-1.46634">
        <ele>83</ele>
        <time>2022-02-27T11:34:52Z</time>
      </trkpt>
      <trkpt lat="47.1921" lon="-1.46619">
        <ele>84</ele>
        <time>2022-02-27T11:34:54Z</time>
      </trkpt>
      <trkpt lat="47.19218" lon="-1.46603">
        <ele>84</ele>
        <time>2022-02-27T11:34:56Z</time>
      </trkpt>
      <trkpt lat="47.19225" lon="-1.46589">
        <ele>84</ele>
        <time>2022-02-27T11:34:58Z</time>
      </trkpt>
      <trkpt lat="47.19233" lon="-1.46574">
        <ele>84</ele>
        <time>2022-02-27T11:35:00Z</time>
      </trkpt>
      <trkpt lat="47.19239" lon="-1.46558">
        <ele>84</ele>
        <time>2022-02-27T11:35:02Z</time>
      </trkpt>
      <trkpt lat="47.19247" lon="-1.46544">
        <ele>85</ele>
        <time>2022-02-27T11:35:04Z</time>
      </trkpt>
      <trkpt lat="47.19254" lon="-1.46529">
        <ele>85</ele>
        <time>2022-02-27T11:35:06Z</time>
      </trkpt>
      <trkpt lat="47.19261" lon="-1.46514">
        <ele>85</ele>
        <time>2022-02-27T11:35:08Z</time>
      </trkpt>
      <trkpt lat="47.19268" lon="-1.46499">
        <ele>85</ele>
        <time>2022-02-27T11:35:10Z</time>
      </trkpt>
      <trkpt lat="47.19275" lon="-1.46485">
        <ele>85</ele>
        <time>2022-02-27T11:35:12Z</time>
      </trkpt>
      <trkpt lat="47.19282" lon="-1.4647">
        <ele>86</ele>
        <time>2022-02-27T11:35:14Z</time>
      </trkpt>
      <trkpt lat="47.1929" lon="-1.46455">
        <ele>85</ele>
        <time>2022-02-27T11:35:16Z</time>
      </trkpt>
      <trkpt lat="47.19297" lon="-1.4644">
        <ele>86</ele>
        <time>2022-02-27T11:35:18Z</time>
      </trkpt>
      <trkpt lat="47.19304" lon="-1.46426">
        <ele>86</ele>
        <time>2022-02-27T11:35:20Z</time>
      </trkpt>
      <trkpt lat="47.19311" lon="-1.46411">
        <ele>86</ele>
        <time>2022-02-27T11:35:22Z</time>
      </trkpt>
      <trkpt lat="47.19318" lon="-1.46396">
        <ele>86</ele>
        <time>2022-02-27T11:35:24Z</time>
      </trkpt>
      <trkpt lat="47.19325" lon="-1.46381">
        <ele>86</ele>
        <time>2022-02-27T11:35:26Z</time>
      </trkpt>
      <trkpt lat="47.19331" lon="-1.46366">
        <ele>86</ele>
        <time>2022-02-27T11:35:28Z</time>
      </trkpt>
      <trkpt lat="47.19338" lon="-1.46351">
        <ele>86</ele>
        <time>2022-02-27T11:35:30Z</time>
      </trkpt>
      <trkpt lat="47.19344" lon="-1.46336">
        <ele>85</ele>
        <time>2022-02-27T11:35:32Z</time>
      </trkpt>
      <trkpt lat="47.19349" lon="-1.46324">
        <ele>85</ele>
        <time>2022-02-27T11:35:34Z</time>
      </trkpt>
      <trkpt lat="47.19352" lon="-1.46311">
        <ele>84</ele>
        <time>2022-02-27T11:35:36Z</time>
      </trkpt>
      <trkpt lat="47.19357" lon="-1.46297">
        <ele>85</ele>
        <time>2022-02-27T11:35:38Z</time>
      </trkpt>
      <trkpt lat="47.19368" lon="-1.46291">
        <ele>84</ele>
        <time>2022-02-27T11:35:40Z</time>
      </trkpt>
      <trkpt lat="47.19381" lon="-1.46299">
        <ele>82</ele>
        <time>2022-02-27T11:35:42Z</time>
      </trkpt>
      <trkpt lat="47.19391" lon="-1.46311">
        <ele>82</ele>
        <time>2022-02-27T11:35:44Z</time>
      </trkpt>
      <trkpt lat="47.19402" lon="-1.46319">
        <ele>82</ele>
        <time>2022-02-27T11:35:46Z</time>
      </trkpt>
      <trkpt lat="47.19413" lon="-1.46327">
        <ele>81</ele>
        <time>2022-02-27T11:35:48Z</time>
      </trkpt>
      <trkpt lat="47.19424" lon="-1.46333">
        <ele>80</ele>
        <time>2022-02-27T11:35:50Z</time>
      </trkpt>
      <trkpt lat="47.19437" lon="-1.46339">
        <ele>80</ele>
        <time>2022-02-27T11:35:52Z</time>
      </trkpt>
      <trkpt lat="47.19449" lon="-1.46345">
        <ele>80</ele>
        <time>2022-02-27T11:35:54Z</time>
      </trkpt>
      <trkpt lat="47.1946" lon="-1.4635">
        <ele>80</ele>
        <time>2022-02-27T11:35:56Z</time>
      </trkpt>
      <trkpt lat="47.19472" lon="-1.46356">
        <ele>80</ele>
        <time>2022-02-27T11:35:58Z</time>
      </trkpt>
      <trkpt lat="47.19483" lon="-1.46361">
        <ele>80</ele>
        <time>2022-02-27T11:36:00Z</time>
      </trkpt>
      <trkpt lat="47.19495" lon="-1.46367">
        <ele>80</ele>
        <time>2022-02-27T11:36:02Z</time>
      </trkpt>
      <trkpt lat="47.19508" lon="-1.46373">
        <ele>79</ele>
        <time>2022-02-27T11:36:04Z</time>
      </trkpt>
      <trkpt lat="47.1952" lon="-1.46378">
        <ele>79</ele>
        <time>2022-02-27T11:36:06Z</time>
      </trkpt>
      <trkpt lat="47.19532" lon="-1.46385">
        <ele>79</ele>
        <time>2022-02-27T11:36:08Z</time>
      </trkpt>
      <trkpt lat="47.19544" lon="-1.46391">
        <ele>79</ele>
        <time>2022-02-27T11:36:10Z</time>
      </trkpt>
      <trkpt lat="47.19557" lon="-1.46397">
        <ele>79</ele>
        <time>2022-02-27T11:36:12Z</time>
      </trkpt>
      <trkpt lat="47.1957" lon="-1.46403">
        <ele>79</ele>
        <time>2022-02-27T11:36:14Z</time>
      </trkpt>
      <trkpt lat="47.19582" lon="-1.4641">
        <ele>79</ele>
        <time>2022-02-27T11:36:16Z</time>
      </trkpt>
      <trkpt lat="47.19595" lon="-1.46416">
        <ele>79</ele>
        <time>2022-02-27T11:36:18Z</time>
      </trkpt>
      <trkpt lat="47.19609" lon="-1.46422">
        <ele>78</ele>
        <time>2022-02-27T11:36:20Z</time>
      </trkpt>
      <trkpt lat="47.19622" lon="-1.46429">
        <ele>77</ele>
        <time>2022-02-27T11:36:22Z</time>
      </trkpt>
      <trkpt lat="47.19636" lon="-1.46435">
        <ele>77</ele>
        <time>2022-02-27T11:36:24Z</time>
      </trkpt>
      <trkpt lat="47.19649" lon="-1.46442">
        <ele>77</ele>
        <time>2022-02-27T11:36:26Z</time>
      </trkpt>
      <trkpt lat="47.19662" lon="-1.46448">
        <ele>77</ele>
        <time>2022-02-27T11:36:28Z</time>
      </trkpt>
      <trkpt lat="47.19676" lon="-1.46455">
        <ele>76</ele>
        <time>2022-02-27T11:36:30Z</time>
      </trkpt>
      <trkpt lat="47.1969" lon="-1.46461">
        <ele>76</ele>
        <time>2022-02-27T11:36:32Z</time>
      </trkpt>
      <trkpt lat="47.19704" lon="-1.46467">
        <ele>76</ele>
        <time>2022-02-27T11:36:34Z</time>
      </trkpt>
      <trkpt lat="47.19718" lon="-1.46474">
        <ele>76</ele>
        <time>2022-02-27T11:36:36Z</time>
      </trkpt>
      <trkpt lat="47.19732" lon="-1.46481">
        <ele>76</ele>
        <time>2022-02-27T11:36:38Z</time>
      </trkpt>
      <trkpt lat="47.19746" lon="-1.46487">
        <ele>75</ele>
        <time>2022-02-27T11:36:40Z</time>
      </trkpt>
      <trkpt lat="47.19761" lon="-1.46494">
        <ele>74</ele>
        <time>2022-02-27T11:36:42Z</time>
      </trkpt>
      <trkpt lat="47.19775" lon="-1.46501">
        <ele>74</ele>
        <time>2022-02-27T11:36:44Z</time>
      </trkpt>
      <trkpt lat="47.19789" lon="-1.46508">
        <ele>73</ele>
        <time>2022-02-27T11:36:46Z</time>
      </trkpt>
      <trkpt lat="47.19803" lon="-1.46515">
        <ele>73</ele>
        <time>2022-02-27T11:36:48Z</time>
      </trkpt>
      <trkpt lat="47.19817" lon="-1.46522">
        <ele>73</ele>
        <time>2022-02-27T11:36:50Z</time>
      </trkpt>
      <trkpt lat="47.19832" lon="-1.46529">
        <ele>73</ele>
        <time>2022-02-27T11:36:52Z</time>
      </trkpt>
      <trkpt lat="47.19846" lon="-1.46536">
        <ele>72</ele>
        <time>2022-02-27T11:36:54Z</time>
      </trkpt>
      <trkpt lat="47.1986" lon="-1.46542">
        <ele>72</ele>
        <time>2022-02-27T11:36:56Z</time>
      </trkpt>
      <trkpt lat="47.19875" lon="-1.46549">
        <ele>72</ele>
        <time>2022-02-27T11:36:58Z</time>
      </trkpt>
      <trkpt lat="47.19889" lon="-1.46555">
        <ele>72</ele>
        <time>2022-02-27T11:37:00Z</time>
      </trkpt>
      <trkpt lat="47.19903" lon="-1.46561">
        <ele>72</ele>
        <time>2022-02-27T11:37:02Z</time>
      </trkpt>
      <trkpt lat="47.19918" lon="-1.46568">
        <ele>71</ele>
        <time>2022-02-27T11:37:04Z</time>
      </trkpt>
      <trkpt lat="47.19932" lon="-1.46575">
        <ele>71</ele>
        <time>2022-02-27T11:37:06Z</time>
      </trkpt>
      <trkpt lat="47.19946" lon="-1.46581">
        <ele>71</ele>
        <time>2022-02-27T11:37:08Z</time>
      </trkpt>
      <trkpt lat="47.1996" lon="-1.46587">
        <ele>70</ele>
        <time>2022-02-27T11:37:10Z</time>
      </trkpt>
      <trkpt lat="47.19974" lon="-1.46593">
        <ele>70</ele>
        <time>2022-02-27T11:37:12Z</time>
      </trkpt>
      <trkpt lat="47.19988" lon="-1.46599">
        <ele>70</ele>
        <time>2022-02-27T11:37:14Z</time>
      </trkpt>
      <trkpt lat="47.20002" lon="-1.46604">
        <ele>70</ele>
        <time>2022-02-27T11:37:16Z</time>
      </trkpt>
      <trkpt lat="47.20016" lon="-1.46611">
        <ele>70</ele>
        <time>2022-02-27T11:37:18Z</time>
      </trkpt>
      <trkpt lat="47.20029" lon="-1.46616">
        <ele>71</ele>
        <time>2022-02-27T11:37:20Z</time>
      </trkpt>
      <trkpt lat="47.20043" lon="-1.46622">
        <ele>71</ele>
        <time>2022-02-27T11:37:22Z</time>
      </trkpt>
      <trkpt lat="47.20056" lon="-1.46627">
        <ele>71</ele>
        <time>2022-02-27T11:37:24Z</time>
      </trkpt>
      <trkpt lat="47.2007" lon="-1.46633">
        <ele>71</ele>
        <time>2022-02-27T11:37:26Z</time>
      </trkpt>
      <trkpt lat="47.20083" lon="-1.46639">
        <ele>71</ele>
        <time>2022-02-27T11:37:28Z</time>
      </trkpt>
      <trkpt lat="47.20097" lon="-1.46645">
        <ele>71</ele>
        <time>2022-02-27T11:37:30Z</time>
      </trkpt>
      <trkpt lat="47.2011" lon="-1.46652">
        <ele>70</ele>
        <time>2022-02-27T11:37:32Z</time>
      </trkpt>
      <trkpt lat="47.20123" lon="-1.46659">
        <ele>71</ele>
        <time>2022-02-27T11:37:34Z</time>
      </trkpt>
      <trkpt lat="47.20136" lon="-1.46668">
        <ele>70</ele>
        <time>2022-02-27T11:37:36Z</time>
      </trkpt>
      <trkpt lat="47.20148" lon="-1.46672">
        <ele>70</ele>
        <time>2022-02-27T11:37:38Z</time>
      </trkpt>
      <trkpt lat="47.20162" lon="-1.46673">
        <ele>69</ele>
        <time>2022-02-27T11:37:40Z</time>
      </trkpt>
      <trkpt lat="47.20176" lon="-1.46675">
        <ele>69</ele>
        <time>2022-02-27T11:37:42Z</time>
      </trkpt>
      <trkpt lat="47.2019" lon="-1.4668">
        <ele>68</ele>
        <time>2022-02-27T11:37:44Z</time>
      </trkpt>
      <trkpt lat="47.20202" lon="-1.46684">
        <ele>68</ele>
        <time>2022-02-27T11:37:46Z</time>
      </trkpt>
      <trkpt lat="47.20216" lon="-1.46687">
        <ele>67</ele>
        <time>2022-02-27T11:37:48Z</time>
      </trkpt>
      <trkpt lat="47.2023" lon="-1.46688">
        <ele>67</ele>
        <time>2022-02-27T11:37:50Z</time>
      </trkpt>
      <trkpt lat="47.20243" lon="-1.46693">
        <ele>68</ele>
        <time>2022-02-27T11:37:52Z</time>
      </trkpt>
      <trkpt lat="47.20257" lon="-1.46696">
        <ele>68</ele>
        <time>2022-02-27T11:37:54Z</time>
      </trkpt>
      <trkpt lat="47.2027" lon="-1.46699">
        <ele>68</ele>
        <time>2022-02-27T11:37:56Z</time>
      </trkpt>
      <trkpt lat="47.20284" lon="-1.46701">
        <ele>68</ele>
        <time>2022-02-27T11:37:58Z</time>
      </trkpt>
      <trkpt lat="47.20297" lon="-1.46703">
        <ele>68</ele>
        <time>2022-02-27T11:38:00Z</time>
      </trkpt>
      <trkpt lat="47.2031" lon="-1.46705">
        <ele>67</ele>
        <time>2022-02-27T11:38:02Z</time>
      </trkpt>
      <trkpt lat="47.20323" lon="-1.46708">
        <ele>68</ele>
        <time>2022-02-27T11:38:04Z</time>
      </trkpt>
      <trkpt lat="47.20337" lon="-1.4671">
        <ele>68</ele>
        <time>2022-02-27T11:38:06Z</time>
      </trkpt>
      <trkpt lat="47.2035" lon="-1.46713">
        <ele>68</ele>
        <time>2022-02-27T11:38:08Z</time>
      </trkpt>
      <trkpt lat="47.20363" lon="-1.46715">
        <ele>68</ele>
        <time>2022-02-27T11:38:10Z</time>
      </trkpt>
      <trkpt lat="47.20376" lon="-1.46716">
        <ele>68</ele>
        <time>2022-02-27T11:38:12Z</time>
      </trkpt>
      <trkpt lat="47.20389" lon="-1.46718">
        <ele>68</ele>
        <time>2022-02-27T11:38:14Z</time>
      </trkpt>
      <trkpt lat="47.20402" lon="-1.46719">
        <ele>69</ele>
        <time>2022-02-27T11:38:16Z</time>
      </trkpt>
      <trkpt lat="47.20415" lon="-1.46721">
        <ele>69</ele>
        <time>2022-02-27T11:38:18Z</time>
      </trkpt>
      <trkpt lat="47.20428" lon="-1.46723">
        <ele>69</ele>
        <time>2022-02-27T11:38:20Z</time>
      </trkpt>
      <trkpt lat="47.2044" lon="-1.46725">
        <ele>69</ele>
        <time>2022-02-27T11:38:22Z</time>
      </trkpt>
      <trkpt lat="47.20453" lon="-1.46726">
        <ele>69</ele>
        <time>2022-02-27T11:38:24Z</time>
      </trkpt>
      <trkpt lat="47.20466" lon="-1.46728">
        <ele>69</ele>
        <time>2022-02-27T11:38:26Z</time>
      </trkpt>
      <trkpt lat="47.20479" lon="-1.4673">
        <ele>70</ele>
        <time>2022-02-27T11:38:28Z</time>
      </trkpt>
      <trkpt lat="47.20492" lon="-1.46732">
        <ele>70</ele>
        <time>2022-02-27T11:38:30Z</time>
      </trkpt>
      <trkpt lat="47.20505" lon="-1.46734">
        <ele>70</ele>
        <time>2022-02-27T11:38:32Z</time>
      </trkpt>
      <trkpt lat="47.20519" lon="-1.46736">
        <ele>70</ele>
        <time>2022-02-27T11:38:34Z</time>
      </trkpt>
      <trkpt lat="47.20532" lon="-1.46738">
        <ele>70</ele>
        <time>2022-02-27T11:38:36Z</time>
      </trkpt>
      <trkpt lat="47.20544" lon="-1.46739">
        <ele>70</ele>
        <time>2022-02-27T11:38:38Z</time>
      </trkpt>
      <trkpt lat="47.20557" lon="-1.46739">
        <ele>70</ele>
        <time>2022-02-27T11:38:40Z</time>
      </trkpt>
      <trkpt lat="47.2057" lon="-1.46738">
        <ele>71</ele>
        <time>2022-02-27T11:38:42Z</time>
      </trkpt>
      <trkpt lat="47.20582" lon="-1.46736">
        <ele>71</ele>
        <time>2022-02-27T11:38:44Z</time>
      </trkpt>
      <trkpt lat="47.20595" lon="-1.46733">
        <ele>71</ele>
        <time>2022-02-27T11:38:46Z</time>
      </trkpt>
      <trkpt lat="47.20608" lon="-1.4673">
        <ele>71</ele>
        <time>2022-02-27T11:38:48Z</time>
      </trkpt>
      <trkpt lat="47.20621" lon="-1.46727">
        <ele>71</ele>
        <time>2022-02-27T11:38:50Z</time>
      </trkpt>
      <trkpt lat="47.20634" lon="-1.46725">
        <ele>71</ele>
        <time>2022-02-27T11:38:52Z</time>
      </trkpt>
      <trkpt lat="47.20646" lon="-1.46723">
        <ele>71</ele>
        <time>2022-02-27T11:38:54Z</time>
      </trkpt>
      <trkpt lat="47.20659" lon="-1.4672">
        <ele>71</ele>
        <time>2022-02-27T11:38:56Z</time>
      </trkpt>
      <trkpt lat="47.20672" lon="-1.46718">
        <ele>71</ele>
        <time>2022-02-27T11:38:58Z</time>
      </trkpt>
      <trkpt lat="47.20685" lon="-1.46716">
        <ele>72</ele>
        <time>2022-02-27T11:39:00Z</time>
      </trkpt>
      <trkpt lat="47.20697" lon="-1.46713">
        <ele>72</ele>
        <time>2022-02-27T11:39:02Z</time>
      </trkpt>
      <trkpt lat="47.2071" lon="-1.46711">
        <ele>73</ele>
        <time>2022-02-27T11:39:04Z</time>
      </trkpt>
      <trkpt lat="47.20723" lon="-1.46709">
        <ele>73</ele>
        <time>2022-02-27T11:39:06Z</time>
      </trkpt>
      <trkpt lat="47.20736" lon="-1.46707">
        <ele>73</ele>
        <time>2022-02-27T11:39:08Z</time>
      </trkpt>
      <trkpt lat="47.20749" lon="-1.46705">
        <ele>73</ele>
        <time>2022-02-27T11:39:10Z</time>
      </trkpt>
      <trkpt lat="47.20763" lon="-1.46702">
        <ele>73</ele>
        <time>2022-02-27T11:39:12Z</time>
      </trkpt>
      <trkpt lat="47.20776" lon="-1.467">
        <ele>73</ele>
        <time>2022-02-27T11:39:14Z</time>
      </trkpt>
      <trkpt lat="47.2079" lon="-1.46697">
        <ele>73</ele>
        <time>2022-02-27T11:39:16Z</time>
      </trkpt>
      <trkpt lat="47.20803" lon="-1.46696">
        <ele>74</ele>
        <time>2022-02-27T11:39:18Z</time>
      </trkpt>
      <trkpt lat="47.20817" lon="-1.46695">
        <ele>74</ele>
        <time>2022-02-27T11:39:20Z</time>
      </trkpt>
      <trkpt lat="47.2083" lon="-1.46693">
        <ele>74</ele>
        <time>2022-02-27T11:39:22Z</time>
      </trkpt>
      <trkpt lat="47.20843" lon="-1.46689">
        <ele>73</ele>
        <time>2022-02-27T11:39:24Z</time>
      </trkpt>
      <trkpt lat="47.20855" lon="-1.46682">
        <ele>73</ele>
        <time>2022-02-27T11:39:26Z</time>
      </trkpt>
      <trkpt lat="47.20869" lon="-1.46682">
        <ele>72</ele>
        <time>2022-02-27T11:39:28Z</time>
      </trkpt>
      <trkpt lat="47.20883" lon="-1.46679">
        <ele>72</ele>
        <time>2022-02-27T11:39:30Z</time>
      </trkpt>
      <trkpt lat="47.20896" lon="-1.46671">
        <ele>72</ele>
        <time>2022-02-27T11:39:32Z</time>
      </trkpt>
      <trkpt lat="47.20909" lon="-1.46664">
        <ele>72</ele>
        <time>2022-02-27T11:39:34Z</time>
      </trkpt>
      <trkpt lat="47.20922" lon="-1.46657">
        <ele>71</ele>
        <time>2022-02-27T11:39:36Z</time>
      </trkpt>
      <trkpt lat="47.20934" lon="-1.46648">
        <ele>72</ele>
        <time>2022-02-27T11:39:38Z</time>
      </trkpt>
      <trkpt lat="47.20946" lon="-1.46639">
        <ele>72</ele>
        <time>2022-02-27T11:39:40Z</time>
      </trkpt>
      <trkpt lat="47.2096" lon="-1.46632">
        <ele>72</ele>
        <time>2022-02-27T11:39:42Z</time>
      </trkpt>
      <trkpt lat="47.20973" lon="-1.46627">
        <ele>72</ele>
        <time>2022-02-27T11:39:44Z</time>
      </trkpt>
      <trkpt lat="47.20987" lon="-1.46623">
        <ele>72</ele>
        <time>2022-02-27T11:39:46Z</time>
      </trkpt>
      <trkpt lat="47.21" lon="-1.4662">
        <ele>72</ele>
        <time>2022-02-27T11:39:48Z</time>
      </trkpt>
      <trkpt lat="47.21014" lon="-1.46616">
        <ele>72</ele>
        <time>2022-02-27T11:39:50Z</time>
      </trkpt>
      <trkpt lat="47.21028" lon="-1.46611">
        <ele>72</ele>
        <time>2022-02-27T11:39:52Z</time>
      </trkpt>
      <trkpt lat="47.21041" lon="-1.46606">
        <ele>72</ele>
        <time>2022-02-27T11:39:54Z</time>
      </trkpt>
      <trkpt lat="47.21052" lon="-1.46594">
        <ele>71</ele>
        <time>2022-02-27T11:39:56Z</time>
      </trkpt>
      <trkpt lat="47.21059" lon="-1.46578">
        <ele>71</ele>
        <time>2022-02-27T11:39:58Z</time>
      </trkpt>
      <trkpt lat="47.21066" lon="-1.46562">
        <ele>71</ele>
        <time>2022-02-27T11:40:00Z</time>
      </trkpt>
      <trkpt lat="47.21074" lon="-1.46547">
        <ele>71</ele>
        <time>2022-02-27T11:40:02Z</time>
      </trkpt>
      <trkpt lat="47.21085" lon="-1.46537">
        <ele>71</ele>
        <time>2022-02-27T11:40:04Z</time>
      </trkpt>
      <trkpt lat="47.21098" lon="-1.4654">
        <ele>71</ele>
        <time>2022-02-27T11:40:06Z</time>
      </trkpt>
      <trkpt lat="47.21109" lon="-1.46551">
        <ele>71</ele>
        <time>2022-02-27T11:40:08Z</time>
      </trkpt>
      <trkpt lat="47.2112" lon="-1.46563">
        <ele>70</ele>
        <time>2022-02-27T11:40:10Z</time>
      </trkpt>
      <trkpt lat="47.21131" lon="-1.46575">
        <ele>70</ele>
        <time>2022-02-27T11:40:12Z</time>
      </trkpt>
      <trkpt lat="47.21141" lon="-1.46588">
        <ele>70</ele>
        <time>2022-02-27T11:40:14Z</time>
      </trkpt>
      <trkpt lat="47.21155" lon="-1.46593">
        <ele>70</ele>
        <time>2022-02-27T11:40:16Z</time>
      </trkpt>
      <trkpt lat="47.21168" lon="-1.46599">
        <ele>70</ele>
        <time>2022-02-27T11:40:18Z</time>
      </trkpt>
      <trkpt lat="47.21181" lon="-1.46606">
        <ele>71</ele>
        <time>2022-02-27T11:40:20Z</time>
      </trkpt>
      <trkpt lat="47.21195" lon="-1.46614">
        <ele>70</ele>
        <time>2022-02-27T11:40:22Z</time>
      </trkpt>
      <trkpt lat="47.21208" lon="-1.4662">
        <ele>70</ele>
        <time>2022-02-27T11:40:24Z</time>
      </trkpt>
      <trkpt lat="47.21221" lon="-1.46625">
        <ele>70</ele>
        <time>2022-02-27T11:40:26Z</time>
      </trkpt>
      <trkpt lat="47.21235" lon="-1.46629">
        <ele>69</ele>
        <time>2022-02-27T11:40:28Z</time>
      </trkpt>
      <trkpt lat="47.21249" lon="-1.46631">
        <ele>70</ele>
        <time>2022-02-27T11:40:30Z</time>
      </trkpt>
      <trkpt lat="47.21262" lon="-1.46632">
        <ele>70</ele>
        <time>2022-02-27T11:40:32Z</time>
      </trkpt>
      <trkpt lat="47.21275" lon="-1.46634">
        <ele>70</ele>
        <time>2022-02-27T11:40:34Z</time>
      </trkpt>
      <trkpt lat="47.21288" lon="-1.46635">
        <ele>71</ele>
        <time>2022-02-27T11:40:36Z</time>
      </trkpt>
      <trkpt lat="47.21302" lon="-1.46635">
        <ele>71</ele>
        <time>2022-02-27T11:40:38Z</time>
      </trkpt>
      <trkpt lat="47.21316" lon="-1.46635">
        <ele>71</ele>
        <time>2022-02-27T11:40:40Z</time>
      </trkpt>
      <trkpt lat="47.2133" lon="-1.46636">
        <ele>71</ele>
        <time>2022-02-27T11:40:42Z</time>
      </trkpt>
      <trkpt lat="47.21345" lon="-1.46637">
        <ele>70</ele>
        <time>2022-02-27T11:40:44Z</time>
      </trkpt>
      <trkpt lat="47.21359" lon="-1.46638">
        <ele>70</ele>
        <time>2022-02-27T11:40:46Z</time>
      </trkpt>
      <trkpt lat="47.21372" lon="-1.46639">
        <ele>70</ele>
        <time>2022-02-27T11:40:48Z</time>
      </trkpt>
      <trkpt lat="47.21386" lon="-1.46639">
        <ele>70</ele>
        <time>2022-02-27T11:40:50Z</time>
      </trkpt>
      <trkpt lat="47.214" lon="-1.46639">
        <ele>70</ele>
        <time>2022-02-27T11:40:52Z</time>
      </trkpt>
      <trkpt lat="47.21414" lon="-1.4664">
        <ele>70</ele>
        <time>2022-02-27T11:40:54Z</time>
      </trkpt>
      <trkpt lat="47.21428" lon="-1.4664">
        <ele>70</ele>
        <time>2022-02-27T11:40:56Z</time>
      </trkpt>
      <trkpt lat="47.21443" lon="-1.46637">
        <ele>69</ele>
        <time>2022-02-27T11:40:58Z</time>
      </trkpt>
      <trkpt lat="47.21458" lon="-1.46629">
        <ele>69</ele>
        <time>2022-02-27T11:41:00Z</time>
      </trkpt>
      <trkpt lat="47.21473" lon="-1.46618">
        <ele>68</ele>
        <time>2022-02-27T11:41:02Z</time>
      </trkpt>
      <trkpt lat="47.21487" lon="-1.46607">
        <ele>67</ele>
        <time>2022-02-27T11:41:04Z</time>
      </trkpt>
      <trkpt lat="47.21501" lon="-1.46595">
        <ele>66</ele>
        <time>2022-02-27T11:41:06Z</time>
      </trkpt>
      <trkpt lat="47.21512" lon="-1.46582">
        <ele>66</ele>
        <time>2022-02-27T11:41:08Z</time>
      </trkpt>
      <trkpt lat="47.21523" lon="-1.46567">
        <ele>65</ele>
        <time>2022-02-27T11:41:10Z</time>
      </trkpt>
      <trkpt lat="47.21531" lon="-1.46556">
        <ele>65</ele>
        <time>2022-02-27T11:41:12Z</time>
      </trkpt>
      <trkpt lat="47.21541" lon="-1.46547">
        <ele>64</ele>
        <time>2022-02-27T11:41:15Z</time>
      </trkpt>
      <trkpt lat="47.21553" lon="-1.46542">
        <ele>65</ele>
        <time>2022-02-27T11:41:18Z</time>
      </trkpt>
      <trkpt lat="47.21564" lon="-1.46539">
        <ele>65</ele>
        <time>2022-02-27T11:41:20Z</time>
      </trkpt>
      <trkpt lat="47.21574" lon="-1.46537">
        <ele>64</ele>
        <time>2022-02-27T11:41:22Z</time>
      </trkpt>
      <trkpt lat="47.21587" lon="-1.46536">
        <ele>65</ele>
        <time>2022-02-27T11:41:24Z</time>
      </trkpt>
      <trkpt lat="47.21601" lon="-1.46535">
        <ele>64</ele>
        <time>2022-02-27T11:41:26Z</time>
      </trkpt>
      <trkpt lat="47.21616" lon="-1.46534">
        <ele>62</ele>
        <time>2022-02-27T11:41:28Z</time>
      </trkpt>
      <trkpt lat="47.21629" lon="-1.46533">
        <ele>61</ele>
        <time>2022-02-27T11:41:30Z</time>
      </trkpt>
      <trkpt lat="47.21641" lon="-1.46529">
        <ele>61</ele>
        <time>2022-02-27T11:41:33Z</time>
      </trkpt>
      <trkpt lat="47.21645" lon="-1.46509">
        <ele>62</ele>
        <time>2022-02-27T11:41:36Z</time>
      </trkpt>
      <trkpt lat="47.21645" lon="-1.46493">
        <ele>62</ele>
        <time>2022-02-27T11:41:38Z</time>
      </trkpt>
      <trkpt lat="47.21646" lon="-1.46476">
        <ele>62</ele>
        <time>2022-02-27T11:41:40Z</time>
      </trkpt>
      <trkpt lat="47.21652" lon="-1.46459">
        <ele>61</ele>
        <time>2022-02-27T11:41:42Z</time>
      </trkpt>
      <trkpt lat="47.21657" lon="-1.46433">
        <ele>60</ele>
        <time>2022-02-27T11:41:45Z</time>
      </trkpt>
      <trkpt lat="47.21658" lon="-1.46414">
        <ele>59</ele>
        <time>2022-02-27T11:41:47Z</time>
      </trkpt>
      <trkpt lat="47.2166" lon="-1.46396">
        <ele>58</ele>
        <time>2022-02-27T11:41:49Z</time>
      </trkpt>
      <trkpt lat="47.21661" lon="-1.46377">
        <ele>58</ele>
        <time>2022-02-27T11:41:51Z</time>
      </trkpt>
      <trkpt lat="47.21662" lon="-1.46359">
        <ele>57</ele>
        <time>2022-02-27T11:41:53Z</time>
      </trkpt>
      <trkpt lat="47.21663" lon="-1.46341">
        <ele>57</ele>
        <time>2022-02-27T11:41:55Z</time>
      </trkpt>
      <trkpt lat="47.21665" lon="-1.46323">
        <ele>57</ele>
        <time>2022-02-27T11:41:57Z</time>
      </trkpt>
      <trkpt lat="47.21666" lon="-1.46306">
        <ele>57</ele>
        <time>2022-02-27T11:41:59Z</time>
      </trkpt>
      <trkpt lat="47.21668" lon="-1.46288">
        <ele>57</ele>
        <time>2022-02-27T11:42:01Z</time>
      </trkpt>
      <trkpt lat="47.21669" lon="-1.46271">
        <ele>57</ele>
        <time>2022-02-27T11:42:03Z</time>
      </trkpt>
      <trkpt lat="47.2167" lon="-1.46254">
        <ele>57</ele>
        <time>2022-02-27T11:42:05Z</time>
      </trkpt>
      <trkpt lat="47.21671" lon="-1.46237">
        <ele>57</ele>
        <time>2022-02-27T11:42:07Z</time>
      </trkpt>
      <trkpt lat="47.2167" lon="-1.46221">
        <ele>57</ele>
        <time>2022-02-27T11:42:09Z</time>
      </trkpt>
      <trkpt lat="47.21667" lon="-1.46205">
        <ele>57</ele>
        <time>2022-02-27T11:42:11Z</time>
      </trkpt>
      <trkpt lat="47.21666" lon="-1.4619">
        <ele>57</ele>
        <time>2022-02-27T11:42:13Z</time>
      </trkpt>
      <trkpt lat="47.21675" lon="-1.46183">
        <ele>56</ele>
        <time>2022-02-27T11:42:15Z</time>
      </trkpt>
      <trkpt lat="47.21685" lon="-1.46182">
        <ele>55</ele>
        <time>2022-02-27T11:42:17Z</time>
      </trkpt>
      <trkpt lat="47.21693" lon="-1.46173">
        <ele>54</ele>
        <time>2022-02-27T11:42:19Z</time>
      </trkpt>
      <trkpt lat="47.21697" lon="-1.46159">
        <ele>54</ele>
        <time>2022-02-27T11:42:21Z</time>
      </trkpt>
      <trkpt lat="47.21702" lon="-1.46145">
        <ele>54</ele>
        <time>2022-02-27T11:42:23Z</time>
      </trkpt>
      <trkpt lat="47.21707" lon="-1.46131">
        <ele>54</ele>
        <time>2022-02-27T11:42:25Z</time>
      </trkpt>
      <trkpt lat="47.21716" lon="-1.46125">
        <ele>53</ele>
        <time>2022-02-27T11:42:27Z</time>
      </trkpt>
      <trkpt lat="47.21726" lon="-1.46132">
        <ele>53</ele>
        <time>2022-02-27T11:42:29Z</time>
      </trkpt>
      <trkpt lat="47.21737" lon="-1.46138">
        <ele>52</ele>
        <time>2022-02-27T11:42:31Z</time>
      </trkpt>
      <trkpt lat="47.21748" lon="-1.46145">
        <ele>52</ele>
        <time>2022-02-27T11:42:33Z</time>
      </trkpt>
      <trkpt lat="47.2176" lon="-1.46152">
        <ele>52</ele>
        <time>2022-02-27T11:42:35Z</time>
      </trkpt>
      <trkpt lat="47.21771" lon="-1.4616">
        <ele>52</ele>
        <time>2022-02-27T11:42:37Z</time>
      </trkpt>
      <trkpt lat="47.21783" lon="-1.46167">
        <ele>51</ele>
        <time>2022-02-27T11:42:39Z</time>
      </trkpt>
      <trkpt lat="47.21795" lon="-1.46172">
        <ele>51</ele>
        <time>2022-02-27T11:42:41Z</time>
      </trkpt>
      <trkpt lat="47.21808" lon="-1.46178">
        <ele>51</ele>
        <time>2022-02-27T11:42:43Z</time>
      </trkpt>
      <trkpt lat="47.21821" lon="-1.46183">
        <ele>51</ele>
        <time>2022-02-27T11:42:45Z</time>
      </trkpt>
      <trkpt lat="47.21833" lon="-1.46189">
        <ele>50</ele>
        <time>2022-02-27T11:42:47Z</time>
      </trkpt>
      <trkpt lat="47.21845" lon="-1.46194">
        <ele>50</ele>
        <time>2022-02-27T11:42:49Z</time>
      </trkpt>
      <trkpt lat="47.21857" lon="-1.462">
        <ele>50</ele>
        <time>2022-02-27T11:42:51Z</time>
      </trkpt>
      <trkpt lat="47.21869" lon="-1.46206">
        <ele>50</ele>
        <time>2022-02-27T11:42:53Z</time>
      </trkpt>
      <trkpt lat="47.21881" lon="-1.46213">
        <ele>51</ele>
        <time>2022-02-27T11:42:55Z</time>
      </trkpt>
      <trkpt lat="47.21893" lon="-1.46219">
        <ele>51</ele>
        <time>2022-02-27T11:42:57Z</time>
      </trkpt>
      <trkpt lat="47.21905" lon="-1.46226">
        <ele>50</ele>
        <time>2022-02-27T11:42:59Z</time>
      </trkpt>
      <trkpt lat="47.21917" lon="-1.46232">
        <ele>50</ele>
        <time>2022-02-27T11:43:01Z</time>
      </trkpt>
      <trkpt lat="47.21928" lon="-1.46238">
        <ele>51</ele>
        <time>2022-02-27T11:43:03Z</time>
      </trkpt>
      <trkpt lat="47.2194" lon="-1.46244">
        <ele>51</ele>
        <time>2022-02-27T11:43:05Z</time>
      </trkpt>
      <trkpt lat="47.21952" lon="-1.46251">
        <ele>51</ele>
        <time>2022-02-27T11:43:07Z</time>
      </trkpt>
      <trkpt lat="47.21962" lon="-1.46256">
        <ele>52</ele>
        <time>2022-02-27T11:43:09Z</time>
      </trkpt>
      <trkpt lat="47.21973" lon="-1.46262">
        <ele>52</ele>
        <time>2022-02-27T11:43:11Z</time>
      </trkpt>
      <trkpt lat="47.21983" lon="-1.46267">
        <ele>52</ele>
        <time>2022-02-27T11:43:13Z</time>
      </trkpt>
      <trkpt lat="47.21995" lon="-1.46272">
        <ele>51</ele>
        <time>2022-02-27T11:43:15Z</time>
      </trkpt>
      <trkpt lat="47.22008" lon="-1.46279">
        <ele>51</ele>
        <time>2022-02-27T11:43:17Z</time>
      </trkpt>
      <trkpt lat="47.22021" lon="-1.46285">
        <ele>51</ele>
        <time>2022-02-27T11:43:19Z</time>
      </trkpt>
      <trkpt lat="47.22035" lon="-1.46292">
        <ele>52</ele>
        <time>2022-02-27T11:43:21Z</time>
      </trkpt>
      <trkpt lat="47.22047" lon="-1.46298">
        <ele>51</ele>
        <time>2022-02-27T11:43:23Z</time>
      </trkpt>
      <trkpt lat="47.2206" lon="-1.46305">
        <ele>51</ele>
        <time>2022-02-27T11:43:25Z</time>
      </trkpt>
      <trkpt lat="47.22072" lon="-1.46311">
        <ele>51</ele>
        <time>2022-02-27T11:43:27Z</time>
      </trkpt>
      <trkpt lat="47.22082" lon="-1.46317">
        <ele>51</ele>
        <time>2022-02-27T11:43:29Z</time>
      </trkpt>
      <trkpt lat="47.22092" lon="-1.46324">
        <ele>51</ele>
        <time>2022-02-27T11:43:31Z</time>
      </trkpt>
      <trkpt lat="47.22104" lon="-1.46329">
        <ele>51</ele>
        <time>2022-02-27T11:43:33Z</time>
      </trkpt>
      <trkpt lat="47.22117" lon="-1.46335">
        <ele>51</ele>
        <time>2022-02-27T11:43:35Z</time>
      </trkpt>
      <trkpt lat="47.22131" lon="-1.46342">
        <ele>51</ele>
        <time>2022-02-27T11:43:37Z</time>
      </trkpt>
      <trkpt lat="47.22145" lon="-1.46348">
        <ele>51</ele>
        <time>2022-02-27T11:43:39Z</time>
      </trkpt>
      <trkpt lat="47.22159" lon="-1.46355">
        <ele>51</ele>
        <time>2022-02-27T11:43:41Z</time>
      </trkpt>
      <trkpt lat="47.22172" lon="-1.46363">
        <ele>51</ele>
        <time>2022-02-27T11:43:43Z</time>
      </trkpt>
      <trkpt lat="47.22185" lon="-1.46369">
        <ele>51</ele>
        <time>2022-02-27T11:43:45Z</time>
      </trkpt>
      <trkpt lat="47.22198" lon="-1.46376">
        <ele>51</ele>
        <time>2022-02-27T11:43:47Z</time>
      </trkpt>
      <trkpt lat="47.22211" lon="-1.46384">
        <ele>51</ele>
        <time>2022-02-27T11:43:49Z</time>
      </trkpt>
      <trkpt lat="47.22224" lon="-1.46391">
        <ele>51</ele>
        <time>2022-02-27T11:43:51Z</time>
      </trkpt>
      <trkpt lat="47.22237" lon="-1.46397">
        <ele>51</ele>
        <time>2022-02-27T11:43:53Z</time>
      </trkpt>
      <trkpt lat="47.22249" lon="-1.46404">
        <ele>51</ele>
        <time>2022-02-27T11:43:55Z</time>
      </trkpt>
      <trkpt lat="47.22262" lon="-1.4641">
        <ele>51</ele>
        <time>2022-02-27T11:43:57Z</time>
      </trkpt>
      <trkpt lat="47.22274" lon="-1.46417">
        <ele>51</ele>
        <time>2022-02-27T11:43:59Z</time>
      </trkpt>
      <trkpt lat="47.22286" lon="-1.46423">
        <ele>51</ele>
        <time>2022-02-27T11:44:01Z</time>
      </trkpt>
      <trkpt lat="47.22299" lon="-1.46429">
        <ele>50</ele>
        <time>2022-02-27T11:44:03Z</time>
      </trkpt>
      <trkpt lat="47.22311" lon="-1.46435">
        <ele>50</ele>
        <time>2022-02-27T11:44:05Z</time>
      </trkpt>
      <trkpt lat="47.22323" lon="-1.46442">
        <ele>50</ele>
        <time>2022-02-27T11:44:07Z</time>
      </trkpt>
      <trkpt lat="47.22335" lon="-1.46451">
        <ele>50</ele>
        <time>2022-02-27T11:44:09Z</time>
      </trkpt>
      <trkpt lat="47.22346" lon="-1.46462">
        <ele>51</ele>
        <time>2022-02-27T11:44:11Z</time>
      </trkpt>
      <trkpt lat="47.22357" lon="-1.46474">
        <ele>51</ele>
        <time>2022-02-27T11:44:13Z</time>
      </trkpt>
      <trkpt lat="47.22367" lon="-1.46486">
        <ele>51</ele>
        <time>2022-02-27T11:44:15Z</time>
      </trkpt>
      <trkpt lat="47.22375" lon="-1.46499">
        <ele>51</ele>
        <time>2022-02-27T11:44:17Z</time>
      </trkpt>
      <trkpt lat="47.22384" lon="-1.46512">
        <ele>51</ele>
        <time>2022-02-27T11:44:19Z</time>
      </trkpt>
      <trkpt lat="47.22393" lon="-1.46525">
        <ele>51</ele>
        <time>2022-02-27T11:44:21Z</time>
      </trkpt>
      <trkpt lat="47.22402" lon="-1.46537">
        <ele>51</ele>
        <time>2022-02-27T11:44:23Z</time>
      </trkpt>
      <trkpt lat="47.22412" lon="-1.4655">
        <ele>51</ele>
        <time>2022-02-27T11:44:25Z</time>
      </trkpt>
      <trkpt lat="47.22421" lon="-1.46562">
        <ele>51</ele>
        <time>2022-02-27T11:44:27Z</time>
      </trkpt>
      <trkpt lat="47.2243" lon="-1.46576">
        <ele>52</ele>
        <time>2022-02-27T11:44:29Z</time>
      </trkpt>
      <trkpt lat="47.22439" lon="-1.46588">
        <ele>52</ele>
        <time>2022-02-27T11:44:31Z</time>
      </trkpt>
      <trkpt lat="47.22448" lon="-1.466">
        <ele>52</ele>
        <time>2022-02-27T11:44:33Z</time>
      </trkpt>
      <trkpt lat="47.22457" lon="-1.46613">
        <ele>52</ele>
        <time>2022-02-27T11:44:35Z</time>
      </trkpt>
      <trkpt lat="47.22466" lon="-1.46625">
        <ele>51</ele>
        <time>2022-02-27T11:44:37Z</time>
      </trkpt>
      <trkpt lat="47.22475" lon="-1.46637">
        <ele>51</ele>
        <time>2022-02-27T11:44:39Z</time>
      </trkpt>
      <trkpt lat="47.22483" lon="-1.46648">
        <ele>51</ele>
        <time>2022-02-27T11:44:41Z</time>
      </trkpt>
      <trkpt lat="47.22491" lon="-1.4666">
        <ele>51</ele>
        <time>2022-02-27T11:44:44Z</time>
      </trkpt>
      <trkpt lat="47.225" lon="-1.46668">
        <ele>52</ele>
        <time>2022-02-27T11:44:47Z</time>
      </trkpt>
      <trkpt lat="47.22511" lon="-1.46678">
        <ele>52</ele>
        <time>2022-02-27T11:44:49Z</time>
      </trkpt>
      <trkpt lat="47.2252" lon="-1.46685">
        <ele>52</ele>
        <time>2022-02-27T11:44:51Z</time>
      </trkpt>
      <trkpt lat="47.22529" lon="-1.46691">
        <ele>52</ele>
        <time>2022-02-27T11:44:53Z</time>
      </trkpt>
      <trkpt lat="47.22537" lon="-1.46699">
        <ele>51</ele>
        <time>2022-02-27T11:44:55Z</time>
      </trkpt>
      <trkpt lat="47.22543" lon="-1.4671">
        <ele>51</ele>
        <time>2022-02-27T11:44:57Z</time>
      </trkpt>
      <trkpt lat="47.22549" lon="-1.46723">
        <ele>51</ele>
        <time>2022-02-27T11:44:59Z</time>
      </trkpt>
      <trkpt lat="47.22557" lon="-1.46735">
        <ele>50</ele>
        <time>2022-02-27T11:45:01Z</time>
      </trkpt>
      <trkpt lat="47.22566" lon="-1.46747">
        <ele>49</ele>
        <time>2022-02-27T11:45:03Z</time>
      </trkpt>
      <trkpt lat="47.22577" lon="-1.46757">
        <ele>49</ele>
        <time>2022-02-27T11:45:05Z</time>
      </trkpt>
      <trkpt lat="47.22587" lon="-1.46766">
        <ele>49</ele>
        <time>2022-02-27T11:45:07Z</time>
      </trkpt>
      <trkpt lat="47.22599" lon="-1.46773">
        <ele>50</ele>
        <time>2022-02-27T11:45:09Z</time>
      </trkpt>
      <trkpt lat="47.2261" lon="-1.4678">
        <ele>49</ele>
        <time>2022-02-27T11:45:11Z</time>
      </trkpt>
      <trkpt lat="47.22621" lon="-1.46788">
        <ele>50</ele>
        <time>2022-02-27T11:45:13Z</time>
      </trkpt>
      <trkpt lat="47.2263" lon="-1.468">
        <ele>51</ele>
        <time>2022-02-27T11:45:15Z</time>
      </trkpt>
      <trkpt lat="47.22633" lon="-1.46815">
        <ele>51</ele>
        <time>2022-02-27T11:45:17Z</time>
      </trkpt>
      <trkpt lat="47.22628" lon="-1.46831">
        <ele>52</ele>
        <time>2022-02-27T11:45:19Z</time>
      </trkpt>
      <trkpt lat="47.22621" lon="-1.46844">
        <ele>53</ele>
        <time>2022-02-27T11:45:21Z</time>
      </trkpt>
      <trkpt lat="47.22613" lon="-1.46856">
        <ele>54</ele>
        <time>2022-02-27T11:45:23Z</time>
      </trkpt>
      <trkpt lat="47.22607" lon="-1.46872">
        <ele>54</ele>
        <time>2022-02-27T11:45:25Z</time>
      </trkpt>
      <trkpt lat="47.22605" lon="-1.4689">
        <ele>53</ele>
        <time>2022-02-27T11:45:27Z</time>
      </trkpt>
      <trkpt lat="47.22605" lon="-1.46909">
        <ele>53</ele>
        <time>2022-02-27T11:45:29Z</time>
      </trkpt>
      <trkpt lat="47.22605" lon="-1.46929">
        <ele>53</ele>
        <time>2022-02-27T11:45:31Z</time>
      </trkpt>
      <trkpt lat="47.22605" lon="-1.46947">
        <ele>52</ele>
        <time>2022-02-27T11:45:33Z</time>
      </trkpt>
      <trkpt lat="47.22605" lon="-1.46967">
        <ele>52</ele>
        <time>2022-02-27T11:45:35Z</time>
      </trkpt>
      <trkpt lat="47.22606" lon="-1.46988">
        <ele>54</ele>
        <time>2022-02-27T11:45:37Z</time>
      </trkpt>
      <trkpt lat="47.22605" lon="-1.47006">
        <ele>54</ele>
        <time>2022-02-27T11:45:39Z</time>
      </trkpt>
      <trkpt lat="47.22603" lon="-1.47024">
        <ele>54</ele>
        <time>2022-02-27T11:45:41Z</time>
      </trkpt>
      <trkpt lat="47.22598" lon="-1.4704">
        <ele>54</ele>
        <time>2022-02-27T11:45:43Z</time>
      </trkpt>
      <trkpt lat="47.22592" lon="-1.47056">
        <ele>54</ele>
        <time>2022-02-27T11:45:45Z</time>
      </trkpt>
      <trkpt lat="47.22584" lon="-1.4707">
        <ele>54</ele>
        <time>2022-02-27T11:45:47Z</time>
      </trkpt>
      <trkpt lat="47.22576" lon="-1.47081">
        <ele>55</ele>
        <time>2022-02-27T11:45:49Z</time>
      </trkpt>
      <trkpt lat="47.22567" lon="-1.47092">
        <ele>55</ele>
        <time>2022-02-27T11:45:51Z</time>
      </trkpt>
      <trkpt lat="47.22557" lon="-1.47099">
        <ele>56</ele>
        <time>2022-02-27T11:45:53Z</time>
      </trkpt>
      <trkpt lat="47.22548" lon="-1.47107">
        <ele>56</ele>
        <time>2022-02-27T11:45:55Z</time>
      </trkpt>
      <trkpt lat="47.22538" lon="-1.47112">
        <ele>56</ele>
        <time>2022-02-27T11:45:57Z</time>
      </trkpt>
      <trkpt lat="47.22529" lon="-1.47118">
        <ele>56</ele>
        <time>2022-02-27T11:45:59Z</time>
      </trkpt>
      <trkpt lat="47.2254" lon="-1.47125">
        <ele>55</ele>
        <time>2022-02-27T11:46:04Z</time>
      </trkpt>
      <trkpt lat="47.22552" lon="-1.4712">
        <ele>55</ele>
        <time>2022-02-27T11:46:06Z</time>
      </trkpt>
      <trkpt lat="47.22565" lon="-1.47117">
        <ele>54</ele>
        <time>2022-02-27T11:46:08Z</time>
      </trkpt>
      <trkpt lat="47.22578" lon="-1.47112">
        <ele>53</ele>
        <time>2022-02-27T11:46:10Z</time>
      </trkpt>
      <trkpt lat="47.2259" lon="-1.47101">
        <ele>53</ele>
        <time>2022-02-27T11:46:12Z</time>
      </trkpt>
      <trkpt lat="47.226" lon="-1.47087">
        <ele>53</ele>
        <time>2022-02-27T11:46:14Z</time>
      </trkpt>
      <trkpt lat="47.22609" lon="-1.47071">
        <ele>53</ele>
        <time>2022-02-27T11:46:16Z</time>
      </trkpt>
      <trkpt lat="47.22618" lon="-1.47054">
        <ele>53</ele>
        <time>2022-02-27T11:46:18Z</time>
      </trkpt>
      <trkpt lat="47.22627" lon="-1.47039">
        <ele>53</ele>
        <time>2022-02-27T11:46:20Z</time>
      </trkpt>
      <trkpt lat="47.22636" lon="-1.47025">
        <ele>54</ele>
        <time>2022-02-27T11:46:22Z</time>
      </trkpt>
      <trkpt lat="47.22646" lon="-1.47012">
        <ele>53</ele>
        <time>2022-02-27T11:46:24Z</time>
      </trkpt>
      <trkpt lat="47.22657" lon="-1.47001">
        <ele>54</ele>
        <time>2022-02-27T11:46:26Z</time>
      </trkpt>
      <trkpt lat="47.22669" lon="-1.4699">
        <ele>54</ele>
        <time>2022-02-27T11:46:28Z</time>
      </trkpt>
      <trkpt lat="47.2268" lon="-1.46982">
        <ele>54</ele>
        <time>2022-02-27T11:46:30Z</time>
      </trkpt>
      <trkpt lat="47.22693" lon="-1.46974">
        <ele>54</ele>
        <time>2022-02-27T11:46:32Z</time>
      </trkpt>
      <trkpt lat="47.22706" lon="-1.46967">
        <ele>53</ele>
        <time>2022-02-27T11:46:34Z</time>
      </trkpt>
      <trkpt lat="47.22719" lon="-1.46962">
        <ele>53</ele>
        <time>2022-02-27T11:46:36Z</time>
      </trkpt>
      <trkpt lat="47.22732" lon="-1.46958">
        <ele>53</ele>
        <time>2022-02-27T11:46:38Z</time>
      </trkpt>
      <trkpt lat="47.22745" lon="-1.46955">
        <ele>53</ele>
        <time>2022-02-27T11:46:40Z</time>
      </trkpt>
      <trkpt lat="47.22759" lon="-1.46954">
        <ele>53</ele>
        <time>2022-02-27T11:46:42Z</time>
      </trkpt>
      <trkpt lat="47.22772" lon="-1.46954">
        <ele>53</ele>
        <time>2022-02-27T11:46:44Z</time>
      </trkpt>
      <trkpt lat="47.22786" lon="-1.46956">
        <ele>52</ele>
        <time>2022-02-27T11:46:46Z</time>
      </trkpt>
      <trkpt lat="47.22799" lon="-1.4696">
        <ele>52</ele>
        <time>2022-02-27T11:46:48Z</time>
      </trkpt>
      <trkpt lat="47.22813" lon="-1.46965">
        <ele>52</ele>
        <time>2022-02-27T11:46:50Z</time>
      </trkpt>
      <trkpt lat="47.22826" lon="-1.46972">
        <ele>52</ele>
        <time>2022-02-27T11:46:52Z</time>
      </trkpt>
      <trkpt lat="47.22839" lon="-1.46978">
        <ele>52</ele>
        <time>2022-02-27T11:46:54Z</time>
      </trkpt>
      <trkpt lat="47.22852" lon="-1.46985">
        <ele>52</ele>
        <time>2022-02-27T11:46:56Z</time>
      </trkpt>
      <trkpt lat="47.22864" lon="-1.46992">
        <ele>52</ele>
        <time>2022-02-27T11:46:58Z</time>
      </trkpt>
      <trkpt lat="47.22878" lon="-1.46999">
        <ele>51</ele>
        <time>2022-02-27T11:47:00Z</time>
      </trkpt>
      <trkpt lat="47.22892" lon="-1.47003">
        <ele>51</ele>
        <time>2022-02-27T11:47:02Z</time>
      </trkpt>
      <trkpt lat="47.22905" lon="-1.46995">
        <ele>51</ele>
        <time>2022-02-27T11:47:04Z</time>
      </trkpt>
      <trkpt lat="47.22912" lon="-1.46975">
        <ele>52</ele>
        <time>2022-02-27T11:47:06Z</time>
      </trkpt>
      <trkpt lat="47.22916" lon="-1.46954">
        <ele>52</ele>
        <time>2022-02-27T11:47:08Z</time>
      </trkpt>
      <trkpt lat="47.22921" lon="-1.46935">
        <ele>53</ele>
        <time>2022-02-27T11:47:10Z</time>
      </trkpt>
      <trkpt lat="47.22925" lon="-1.46916">
        <ele>53</ele>
        <time>2022-02-27T11:47:12Z</time>
      </trkpt>
      <trkpt lat="47.2293" lon="-1.46898">
        <ele>53</ele>
        <time>2022-02-27T11:47:14Z</time>
      </trkpt>
      <trkpt lat="47.22934" lon="-1.46878">
        <ele>54</ele>
        <time>2022-02-27T11:47:16Z</time>
      </trkpt>
      <trkpt lat="47.22939" lon="-1.4686">
        <ele>54</ele>
        <time>2022-02-27T11:47:18Z</time>
      </trkpt>
      <trkpt lat="47.22944" lon="-1.46842">
        <ele>55</ele>
        <time>2022-02-27T11:47:20Z</time>
      </trkpt>
      <trkpt lat="47.22953" lon="-1.46833">
        <ele>55</ele>
        <time>2022-02-27T11:47:22Z</time>
      </trkpt>
      <trkpt lat="47.22964" lon="-1.46825">
        <ele>55</ele>
        <time>2022-02-27T11:47:24Z</time>
      </trkpt>
      <trkpt lat="47.22971" lon="-1.46809">
        <ele>55</ele>
        <time>2022-02-27T11:47:26Z</time>
      </trkpt>
      <trkpt lat="47.22976" lon="-1.46794">
        <ele>55</ele>
        <time>2022-02-27T11:47:28Z</time>
      </trkpt>
      <trkpt lat="47.22982" lon="-1.4678">
        <ele>56</ele>
        <time>2022-02-27T11:47:30Z</time>
      </trkpt>
      <trkpt lat="47.2299" lon="-1.4677">
        <ele>56</ele>
        <time>2022-02-27T11:47:32Z</time>
      </trkpt>
      <trkpt lat="47.23" lon="-1.4676">
        <ele>56</ele>
        <time>2022-02-27T11:47:34Z</time>
      </trkpt>
      <trkpt lat="47.23009" lon="-1.46753">
        <ele>57</ele>
        <time>2022-02-27T11:47:36Z</time>
      </trkpt>
      <trkpt lat="47.23019" lon="-1.46746">
        <ele>57</ele>
        <time>2022-02-27T11:47:38Z</time>
      </trkpt>
      <trkpt lat="47.23029" lon="-1.46743">
        <ele>56</ele>
        <time>2022-02-27T11:47:40Z</time>
      </trkpt>
      <trkpt lat="47.23037" lon="-1.46738">
        <ele>56</ele>
        <time>2022-02-27T11:47:43Z</time>
      </trkpt>
      <trkpt lat="47.23043" lon="-1.46751">
        <ele>57</ele>
        <time>2022-02-27T11:47:48Z</time>
      </trkpt>
      <trkpt lat="47.23042" lon="-1.46766">
        <ele>58</ele>
        <time>2022-02-27T11:47:50Z</time>
      </trkpt>
      <trkpt lat="47.23042" lon="-1.46784">
        <ele>58</ele>
        <time>2022-02-27T11:47:52Z</time>
      </trkpt>
      <trkpt lat="47.23043" lon="-1.468">
        <ele>57</ele>
        <time>2022-02-27T11:47:54Z</time>
      </trkpt>
      <trkpt lat="47.23044" lon="-1.46817">
        <ele>55</ele>
        <time>2022-02-27T11:47:56Z</time>
      </trkpt>
      <trkpt lat="47.23044" lon="-1.46835">
        <ele>54</ele>
        <time>2022-02-27T11:47:58Z</time>
      </trkpt>
      <trkpt lat="47.23044" lon="-1.46853">
        <ele>54</ele>
        <time>2022-02-27T11:48:00Z</time>
      </trkpt>
      <trkpt lat="47.23044" lon="-1.46871">
        <ele>53</ele>
        <time>2022-02-27T11:48:02Z</time>
      </trkpt>
      <trkpt lat="47.23042" lon="-1.46888">
        <ele>53</ele>
        <time>2022-02-27T11:48:04Z</time>
      </trkpt>
      <trkpt lat="47.2304" lon="-1.46906">
        <ele>53</ele>
        <time>2022-02-27T11:48:06Z</time>
      </trkpt>
      <trkpt lat="47.23036" lon="-1.46919">
        <ele>53</ele>
        <time>2022-02-27T11:48:08Z</time>
      </trkpt>
      <trkpt lat="47.2304" lon="-1.46937">
        <ele>53</ele>
        <time>2022-02-27T11:48:11Z</time>
      </trkpt>
      <trkpt lat="47.23046" lon="-1.46947">
        <ele>53</ele>
        <time>2022-02-27T11:48:13Z</time>
      </trkpt>
      <trkpt lat="47.23052" lon="-1.46959">
        <ele>53</ele>
        <time>2022-02-27T11:48:15Z</time>
      </trkpt>
      <trkpt lat="47.23059" lon="-1.46971">
        <ele>54</ele>
        <time>2022-02-27T11:48:17Z</time>
      </trkpt>
      <trkpt lat="47.23064" lon="-1.46982">
        <ele>54</ele>
        <time>2022-02-27T11:48:19Z</time>
      </trkpt>
      <trkpt lat="47.2307" lon="-1.46994">
        <ele>55</ele>
        <time>2022-02-27T11:48:21Z</time>
      </trkpt>
      <trkpt lat="47.23076" lon="-1.47006">
        <ele>55</ele>
        <time>2022-02-27T11:48:23Z</time>
      </trkpt>
      <trkpt lat="47.23083" lon="-1.47018">
        <ele>56</ele>
        <time>2022-02-27T11:48:25Z</time>
      </trkpt>
      <trkpt lat="47.23089" lon="-1.47029">
        <ele>56</ele>
        <time>2022-02-27T11:48:27Z</time>
      </trkpt>
      <trkpt lat="47.23096" lon="-1.4704">
        <ele>56</ele>
        <time>2022-02-27T11:48:29Z</time>
      </trkpt>
      <trkpt lat="47.23103" lon="-1.47052">
        <ele>57</ele>
        <time>2022-02-27T11:48:31Z</time>
      </trkpt>
      <trkpt lat="47.2311" lon="-1.47065">
        <ele>57</ele>
        <time>2022-02-27T11:48:33Z</time>
      </trkpt>
      <trkpt lat="47.23115" lon="-1.47077">
        <ele>58</ele>
        <time>2022-02-27T11:48:35Z</time>
      </trkpt>
      <trkpt lat="47.23121" lon="-1.47089">
        <ele>58</ele>
        <time>2022-02-27T11:48:37Z</time>
      </trkpt>
      <trkpt lat="47.23128" lon="-1.47101">
        <ele>59</ele>
        <time>2022-02-27T11:48:39Z</time>
      </trkpt>
      <trkpt lat="47.23135" lon="-1.47113">
        <ele>59</ele>
        <time>2022-02-27T11:48:41Z</time>
      </trkpt>
      <trkpt lat="47.23142" lon="-1.47124">
        <ele>59</ele>
        <time>2022-02-27T11:48:43Z</time>
      </trkpt>
      <trkpt lat="47.23149" lon="-1.47136">
        <ele>59</ele>
        <time>2022-02-27T11:48:45Z</time>
      </trkpt>
      <trkpt lat="47.23156" lon="-1.47147">
        <ele>60</ele>
        <time>2022-02-27T11:48:47Z</time>
      </trkpt>
      <trkpt lat="47.23162" lon="-1.47159">
        <ele>60</ele>
        <time>2022-02-27T11:48:49Z</time>
      </trkpt>
      <trkpt lat="47.2317" lon="-1.47171">
        <ele>60</ele>
        <time>2022-02-27T11:48:51Z</time>
      </trkpt>
      <trkpt lat="47.23176" lon="-1.47183">
        <ele>60</ele>
        <time>2022-02-27T11:48:53Z</time>
      </trkpt>
      <trkpt lat="47.23183" lon="-1.47194">
        <ele>60</ele>
        <time>2022-02-27T11:48:55Z</time>
      </trkpt>
      <trkpt lat="47.2319" lon="-1.47206">
        <ele>60</ele>
        <time>2022-02-27T11:48:57Z</time>
      </trkpt>
      <trkpt lat="47.23198" lon="-1.47218">
        <ele>60</ele>
        <time>2022-02-27T11:48:59Z</time>
      </trkpt>
      <trkpt lat="47.23205" lon="-1.4723">
        <ele>61</ele>
        <time>2022-02-27T11:49:01Z</time>
      </trkpt>
      <trkpt lat="47.23212" lon="-1.47242">
        <ele>61</ele>
        <time>2022-02-27T11:49:03Z</time>
      </trkpt>
      <trkpt lat="47.23219" lon="-1.47254">
        <ele>61</ele>
        <time>2022-02-27T11:49:05Z</time>
      </trkpt>
      <trkpt lat="47.23226" lon="-1.47267">
        <ele>61</ele>
        <time>2022-02-27T11:49:07Z</time>
      </trkpt>
      <trkpt lat="47.23233" lon="-1.4728">
        <ele>61</ele>
        <time>2022-02-27T11:49:09Z</time>
      </trkpt>
      <trkpt lat="47.23241" lon="-1.47292">
        <ele>61</ele>
        <time>2022-02-27T11:49:11Z</time>
      </trkpt>
      <trkpt lat="47.23248" lon="-1.47305">
        <ele>61</ele>
        <time>2022-02-27T11:49:13Z</time>
      </trkpt>
      <trkpt lat="47.23256" lon="-1.47319">
        <ele>60</ele>
        <time>2022-02-27T11:49:15Z</time>
      </trkpt>
      <trkpt lat="47.23264" lon="-1.47332">
        <ele>61</ele>
        <time>2022-02-27T11:49:17Z</time>
      </trkpt>
      <trkpt lat="47.23272" lon="-1.47345">
        <ele>61</ele>
        <time>2022-02-27T11:49:19Z</time>
      </trkpt>
      <trkpt lat="47.2328" lon="-1.47359">
        <ele>61</ele>
        <time>2022-02-27T11:49:21Z</time>
      </trkpt>
      <trkpt lat="47.23287" lon="-1.47373">
        <ele>61</ele>
        <time>2022-02-27T11:49:23Z</time>
      </trkpt>
      <trkpt lat="47.23295" lon="-1.47387">
        <ele>61</ele>
        <time>2022-02-27T11:49:25Z</time>
      </trkpt>
      <trkpt lat="47.23303" lon="-1.47401">
        <ele>61</ele>
        <time>2022-02-27T11:49:27Z</time>
      </trkpt>
      <trkpt lat="47.23311" lon="-1.47416">
        <ele>60</ele>
        <time>2022-02-27T11:49:29Z</time>
      </trkpt>
      <trkpt lat="47.2332" lon="-1.4743">
        <ele>60</ele>
        <time>2022-02-27T11:49:31Z</time>
      </trkpt>
      <trkpt lat="47.23328" lon="-1.47444">
        <ele>60</ele>
        <time>2022-02-27T11:49:33Z</time>
      </trkpt>
      <trkpt lat="47.23337" lon="-1.47459">
        <ele>60</ele>
        <time>2022-02-27T11:49:35Z</time>
      </trkpt>
      <trkpt lat="47.23346" lon="-1.47473">
        <ele>60</ele>
        <time>2022-02-27T11:49:37Z</time>
      </trkpt>
      <trkpt lat="47.23354" lon="-1.47488">
        <ele>60</ele>
        <time>2022-02-27T11:49:39Z</time>
      </trkpt>
      <trkpt lat="47.23363" lon="-1.47502">
        <ele>59</ele>
        <time>2022-02-27T11:49:41Z</time>
      </trkpt>
      <trkpt lat="47.23374" lon="-1.47516">
        <ele>59</ele>
        <time>2022-02-27T11:49:43Z</time>
      </trkpt>
      <trkpt lat="47.23385" lon="-1.4753">
        <ele>59</ele>
        <time>2022-02-27T11:49:45Z</time>
      </trkpt>
      <trkpt lat="47.23394" lon="-1.47546">
        <ele>59</ele>
        <time>2022-02-27T11:49:47Z</time>
      </trkpt>
      <trkpt lat="47.23404" lon="-1.47562">
        <ele>58</ele>
        <time>2022-02-27T11:49:49Z</time>
      </trkpt>
      <trkpt lat="47.23415" lon="-1.47577">
        <ele>58</ele>
        <time>2022-02-27T11:49:51Z</time>
      </trkpt>
      <trkpt lat="47.23425" lon="-1.47594">
        <ele>57</ele>
        <time>2022-02-27T11:49:53Z</time>
      </trkpt>
      <trkpt lat="47.23435" lon="-1.4761">
        <ele>56</ele>
        <time>2022-02-27T11:49:55Z</time>
      </trkpt>
      <trkpt lat="47.23446" lon="-1.47625">
        <ele>56</ele>
        <time>2022-02-27T11:49:57Z</time>
      </trkpt>
      <trkpt lat="47.23457" lon="-1.4764">
        <ele>55</ele>
        <time>2022-02-27T11:49:59Z</time>
      </trkpt>
      <trkpt lat="47.23468" lon="-1.47654">
        <ele>55</ele>
        <time>2022-02-27T11:50:01Z</time>
      </trkpt>
      <trkpt lat="47.2348" lon="-1.47665">
        <ele>54</ele>
        <time>2022-02-27T11:50:03Z</time>
      </trkpt>
      <trkpt lat="47.23494" lon="-1.47674">
        <ele>53</ele>
        <time>2022-02-27T11:50:05Z</time>
      </trkpt>
      <trkpt lat="47.23508" lon="-1.47683">
        <ele>53</ele>
        <time>2022-02-27T11:50:07Z</time>
      </trkpt>
      <trkpt lat="47.23521" lon="-1.47691">
        <ele>53</ele>
        <time>2022-02-27T11:50:09Z</time>
      </trkpt>
      <trkpt lat="47.23533" lon="-1.47699">
        <ele>53</ele>
        <time>2022-02-27T11:50:11Z</time>
      </trkpt>
      <trkpt lat="47.23545" lon="-1.47703">
        <ele>53</ele>
        <time>2022-02-27T11:50:13Z</time>
      </trkpt>
      <trkpt lat="47.23557" lon="-1.47696">
        <ele>53</ele>
        <time>2022-02-27T11:50:15Z</time>
      </trkpt>
      <trkpt lat="47.23567" lon="-1.47687">
        <ele>53</ele>
        <time>2022-02-27T11:50:18Z</time>
      </trkpt>
      <trkpt lat="47.23577" lon="-1.47688">
        <ele>54</ele>
        <time>2022-02-27T11:50:20Z</time>
      </trkpt>
      <trkpt lat="47.23587" lon="-1.47696">
        <ele>54</ele>
        <time>2022-02-27T11:50:22Z</time>
      </trkpt>
      <trkpt lat="47.23599" lon="-1.47703">
        <ele>53</ele>
        <time>2022-02-27T11:50:24Z</time>
      </trkpt>
      <trkpt lat="47.23611" lon="-1.4771">
        <ele>53</ele>
        <time>2022-02-27T11:50:26Z</time>
      </trkpt>
      <trkpt lat="47.23623" lon="-1.47718">
        <ele>52</ele>
        <time>2022-02-27T11:50:28Z</time>
      </trkpt>
      <trkpt lat="47.23635" lon="-1.47725">
        <ele>52</ele>
        <time>2022-02-27T11:50:30Z</time>
      </trkpt>
      <trkpt lat="47.23648" lon="-1.47733">
        <ele>52</ele>
        <time>2022-02-27T11:50:32Z</time>
      </trkpt>
      <trkpt lat="47.23661" lon="-1.4774">
        <ele>51</ele>
        <time>2022-02-27T11:50:34Z</time>
      </trkpt>
      <trkpt lat="47.23674" lon="-1.47747">
        <ele>51</ele>
        <time>2022-02-27T11:50:36Z</time>
      </trkpt>
      <trkpt lat="47.23687" lon="-1.4775">
        <ele>52</ele>
        <time>2022-02-27T11:50:38Z</time>
      </trkpt>
      <trkpt lat="47.23699" lon="-1.47748">
        <ele>52</ele>
        <time>2022-02-27T11:50:40Z</time>
      </trkpt>
      <trkpt lat="47.23711" lon="-1.47741">
        <ele>52</ele>
        <time>2022-02-27T11:50:42Z</time>
      </trkpt>
      <trkpt lat="47.23723" lon="-1.47732">
        <ele>53</ele>
        <time>2022-02-27T11:50:44Z</time>
      </trkpt>
      <trkpt lat="47.23734" lon="-1.47721">
        <ele>53</ele>
        <time>2022-02-27T11:50:46Z</time>
      </trkpt>
      <trkpt lat="47.23744" lon="-1.47709">
        <ele>53</ele>
        <time>2022-02-27T11:50:48Z</time>
      </trkpt>
      <trkpt lat="47.23754" lon="-1.47697">
        <ele>54</ele>
        <time>2022-02-27T11:50:50Z</time>
      </trkpt>
      <trkpt lat="47.23764" lon="-1.47687">
        <ele>54</ele>
        <time>2022-02-27T11:50:52Z</time>
      </trkpt>
      <trkpt lat="47.23775" lon="-1.47679">
        <ele>54</ele>
        <time>2022-02-27T11:50:54Z</time>
      </trkpt>
      <trkpt lat="47.23787" lon="-1.47673">
        <ele>55</ele>
        <time>2022-02-27T11:50:56Z</time>
      </trkpt>
      <trkpt lat="47.23797" lon="-1.47664">
        <ele>55</ele>
        <time>2022-02-27T11:50:58Z</time>
      </trkpt>
      <trkpt lat="47.23807" lon="-1.47656">
        <ele>55</ele>
        <time>2022-02-27T11:51:00Z</time>
      </trkpt>
      <trkpt lat="47.2382" lon="-1.47652">
        <ele>55</ele>
        <time>2022-02-27T11:51:02Z</time>
      </trkpt>
      <trkpt lat="47.23832" lon="-1.47649">
        <ele>56</ele>
        <time>2022-02-27T11:51:04Z</time>
      </trkpt>
      <trkpt lat="47.23845" lon="-1.47644">
        <ele>56</ele>
        <time>2022-02-27T11:51:06Z</time>
      </trkpt>
      <trkpt lat="47.23857" lon="-1.47638">
        <ele>55</ele>
        <time>2022-02-27T11:51:08Z</time>
      </trkpt>
      <trkpt lat="47.23869" lon="-1.47633">
        <ele>56</ele>
        <time>2022-02-27T11:51:10Z</time>
      </trkpt>
      <trkpt lat="47.23881" lon="-1.47629">
        <ele>56</ele>
        <time>2022-02-27T11:51:12Z</time>
      </trkpt>
      <trkpt lat="47.23893" lon="-1.47628">
        <ele>56</ele>
        <time>2022-02-27T11:51:14Z</time>
      </trkpt>
      <trkpt lat="47.23906" lon="-1.4763">
        <ele>57</ele>
        <time>2022-02-27T11:51:16Z</time>
      </trkpt>
      <trkpt lat="47.23918" lon="-1.47634">
        <ele>57</ele>
        <time>2022-02-27T11:51:18Z</time>
      </trkpt>
      <trkpt lat="47.23931" lon="-1.47641">
        <ele>56</ele>
        <time>2022-02-27T11:51:20Z</time>
      </trkpt>
      <trkpt lat="47.23942" lon="-1.4765">
        <ele>56</ele>
        <time>2022-02-27T11:51:22Z</time>
      </trkpt>
      <trkpt lat="47.23952" lon="-1.47661">
        <ele>57</ele>
        <time>2022-02-27T11:51:24Z</time>
      </trkpt>
      <trkpt lat="47.23961" lon="-1.47674">
        <ele>57</ele>
        <time>2022-02-27T11:51:26Z</time>
      </trkpt>
      <trkpt lat="47.23969" lon="-1.47689">
        <ele>57</ele>
        <time>2022-02-27T11:51:28Z</time>
      </trkpt>
      <trkpt lat="47.23977" lon="-1.47705">
        <ele>56</ele>
        <time>2022-02-27T11:51:30Z</time>
      </trkpt>
      <trkpt lat="47.23984" lon="-1.47722">
        <ele>56</ele>
        <time>2022-02-27T11:51:32Z</time>
      </trkpt>
      <trkpt lat="47.23991" lon="-1.47738">
        <ele>56</ele>
        <time>2022-02-27T11:51:34Z</time>
      </trkpt>
      <trkpt lat="47.23997" lon="-1.47754">
        <ele>55</ele>
        <time>2022-02-27T11:51:36Z</time>
      </trkpt>
      <trkpt lat="47.24007" lon="-1.4778">
        <ele>55</ele>
        <time>2022-02-27T11:51:39Z</time>
      </trkpt>
      <trkpt lat="47.24013" lon="-1.47796">
        <ele>56</ele>
        <time>2022-02-27T11:51:41Z</time>
      </trkpt>
      <trkpt lat="47.24021" lon="-1.47811">
        <ele>56</ele>
        <time>2022-02-27T11:51:43Z</time>
      </trkpt>
      <trkpt lat="47.24027" lon="-1.47826">
        <ele>55</ele>
        <time>2022-02-27T11:51:45Z</time>
      </trkpt>
      <trkpt lat="47.24033" lon="-1.47842">
        <ele>55</ele>
        <time>2022-02-27T11:51:47Z</time>
      </trkpt>
      <trkpt lat="47.24039" lon="-1.47859">
        <ele>54</ele>
        <time>2022-02-27T11:51:49Z</time>
      </trkpt>
      <trkpt lat="47.24045" lon="-1.47876">
        <ele>54</ele>
        <time>2022-02-27T11:51:51Z</time>
      </trkpt>
      <trkpt lat="47.24051" lon="-1.47893">
        <ele>54</ele>
        <time>2022-02-27T11:51:53Z</time>
      </trkpt>
      <trkpt lat="47.24056" lon="-1.4791">
        <ele>54</ele>
        <time>2022-02-27T11:51:55Z</time>
      </trkpt>
      <trkpt lat="47.24062" lon="-1.47927">
        <ele>54</ele>
        <time>2022-02-27T11:51:57Z</time>
      </trkpt>
      <trkpt lat="47.24067" lon="-1.47944">
        <ele>53</ele>
        <time>2022-02-27T11:51:59Z</time>
      </trkpt>
      <trkpt lat="47.24073" lon="-1.47962">
        <ele>53</ele>
        <time>2022-02-27T11:52:01Z</time>
      </trkpt>
      <trkpt lat="47.24079" lon="-1.47981">
        <ele>52</ele>
        <time>2022-02-27T11:52:03Z</time>
      </trkpt>
      <trkpt lat="47.24085" lon="-1.48">
        <ele>52</ele>
        <time>2022-02-27T11:52:05Z</time>
      </trkpt>
      <trkpt lat="47.24092" lon="-1.48018">
        <ele>52</ele>
        <time>2022-02-27T11:52:07Z</time>
      </trkpt>
      <trkpt lat="47.24105" lon="-1.48045">
        <ele>51</ele>
        <time>2022-02-27T11:52:10Z</time>
      </trkpt>
      <trkpt lat="47.24114" lon="-1.48061">
        <ele>51</ele>
        <time>2022-02-27T11:52:12Z</time>
      </trkpt>
      <trkpt lat="47.24123" lon="-1.48076">
        <ele>51</ele>
        <time>2022-02-27T11:52:14Z</time>
      </trkpt>
      <trkpt lat="47.24133" lon="-1.4809">
        <ele>52</ele>
        <time>2022-02-27T11:52:16Z</time>
      </trkpt>
      <trkpt lat="47.24142" lon="-1.48103">
        <ele>52</ele>
        <time>2022-02-27T11:52:18Z</time>
      </trkpt>
      <trkpt lat="47.24153" lon="-1.48114">
        <ele>52</ele>
        <time>2022-02-27T11:52:20Z</time>
      </trkpt>
      <trkpt lat="47.2417" lon="-1.48128">
        <ele>53</ele>
        <time>2022-02-27T11:52:23Z</time>
      </trkpt>
      <trkpt lat="47.24181" lon="-1.48137">
        <ele>53</ele>
        <time>2022-02-27T11:52:25Z</time>
      </trkpt>
      <trkpt lat="47.24192" lon="-1.48147">
        <ele>53</ele>
        <time>2022-02-27T11:52:27Z</time>
      </trkpt>
      <trkpt lat="47.24204" lon="-1.48155">
        <ele>52</ele>
        <time>2022-02-27T11:52:29Z</time>
      </trkpt>
      <trkpt lat="47.24216" lon="-1.48163">
        <ele>52</ele>
        <time>2022-02-27T11:52:31Z</time>
      </trkpt>
      <trkpt lat="47.24228" lon="-1.48171">
        <ele>52</ele>
        <time>2022-02-27T11:52:33Z</time>
      </trkpt>
      <trkpt lat="47.2424" lon="-1.48178">
        <ele>52</ele>
        <time>2022-02-27T11:52:35Z</time>
      </trkpt>
      <trkpt lat="47.24252" lon="-1.48184">
        <ele>52</ele>
        <time>2022-02-27T11:52:37Z</time>
      </trkpt>
      <trkpt lat="47.24265" lon="-1.48191">
        <ele>52</ele>
        <time>2022-02-27T11:52:39Z</time>
      </trkpt>
      <trkpt lat="47.24278" lon="-1.48198">
        <ele>52</ele>
        <time>2022-02-27T11:52:41Z</time>
      </trkpt>
      <trkpt lat="47.24289" lon="-1.48206">
        <ele>52</ele>
        <time>2022-02-27T11:52:43Z</time>
      </trkpt>
      <trkpt lat="47.243" lon="-1.48216">
        <ele>52</ele>
        <time>2022-02-27T11:52:45Z</time>
      </trkpt>
      <trkpt lat="47.24311" lon="-1.48226">
        <ele>52</ele>
        <time>2022-02-27T11:52:47Z</time>
      </trkpt>
      <trkpt lat="47.24322" lon="-1.48236">
        <ele>52</ele>
        <time>2022-02-27T11:52:49Z</time>
      </trkpt>
      <trkpt lat="47.24333" lon="-1.48244">
        <ele>52</ele>
        <time>2022-02-27T11:52:51Z</time>
      </trkpt>
      <trkpt lat="47.24344" lon="-1.4825">
        <ele>52</ele>
        <time>2022-02-27T11:52:53Z</time>
      </trkpt>
      <trkpt lat="47.24354" lon="-1.48262">
        <ele>51</ele>
        <time>2022-02-27T11:52:55Z</time>
      </trkpt>
      <trkpt lat="47.24362" lon="-1.48278">
        <ele>52</ele>
        <time>2022-02-27T11:52:57Z</time>
      </trkpt>
      <trkpt lat="47.2437" lon="-1.48293">
        <ele>52</ele>
        <time>2022-02-27T11:52:59Z</time>
      </trkpt>
      <trkpt lat="47.2438" lon="-1.48306">
        <ele>52</ele>
        <time>2022-02-27T11:53:01Z</time>
      </trkpt>
      <trkpt lat="47.2439" lon="-1.48318">
        <ele>52</ele>
        <time>2022-02-27T11:53:03Z</time>
      </trkpt>
      <trkpt lat="47.244" lon="-1.48331">
        <ele>52</ele>
        <time>2022-02-27T11:53:05Z</time>
      </trkpt>
      <trkpt lat="47.24409" lon="-1.48343">
        <ele>52</ele>
        <time>2022-02-27T11:53:07Z</time>
      </trkpt>
      <trkpt lat="47.2442" lon="-1.48352">
        <ele>52</ele>
        <time>2022-02-27T11:53:09Z</time>
      </trkpt>
      <trkpt lat="47.24432" lon="-1.48359">
        <ele>52</ele>
        <time>2022-02-27T11:53:11Z</time>
      </trkpt>
      <trkpt lat="47.24444" lon="-1.48365">
        <ele>53</ele>
        <time>2022-02-27T11:53:13Z</time>
      </trkpt>
      <trkpt lat="47.24456" lon="-1.48373">
        <ele>53</ele>
        <time>2022-02-27T11:53:15Z</time>
      </trkpt>
      <trkpt lat="47.24468" lon="-1.48381">
        <ele>52</ele>
        <time>2022-02-27T11:53:17Z</time>
      </trkpt>
      <trkpt lat="47.24479" lon="-1.4839">
        <ele>53</ele>
        <time>2022-02-27T11:53:19Z</time>
      </trkpt>
      <trkpt lat="47.2449" lon="-1.48397">
        <ele>53</ele>
        <time>2022-02-27T11:53:21Z</time>
      </trkpt>
      <trkpt lat="47.24503" lon="-1.48405">
        <ele>54</ele>
        <time>2022-02-27T11:53:23Z</time>
      </trkpt>
      <trkpt lat="47.24515" lon="-1.48414">
        <ele>54</ele>
        <time>2022-02-27T11:53:25Z</time>
      </trkpt>
      <trkpt lat="47.24528" lon="-1.48424">
        <ele>54</ele>
        <time>2022-02-27T11:53:27Z</time>
      </trkpt>
      <trkpt lat="47.24539" lon="-1.48435">
        <ele>54</ele>
        <time>2022-02-27T11:53:29Z</time>
      </trkpt>
      <trkpt lat="47.24549" lon="-1.48446">
        <ele>54</ele>
        <time>2022-02-27T11:53:31Z</time>
      </trkpt>
      <trkpt lat="47.2456" lon="-1.48457">
        <ele>53</ele>
        <time>2022-02-27T11:53:33Z</time>
      </trkpt>
      <trkpt lat="47.2457" lon="-1.48469">
        <ele>54</ele>
        <time>2022-02-27T11:53:35Z</time>
      </trkpt>
      <trkpt lat="47.2458" lon="-1.48481">
        <ele>54</ele>
        <time>2022-02-27T11:53:37Z</time>
      </trkpt>
      <trkpt lat="47.2459" lon="-1.48493">
        <ele>54</ele>
        <time>2022-02-27T11:53:39Z</time>
      </trkpt>
      <trkpt lat="47.24599" lon="-1.48505">
        <ele>54</ele>
        <time>2022-02-27T11:53:41Z</time>
      </trkpt>
      <trkpt lat="47.2461" lon="-1.48518">
        <ele>54</ele>
        <time>2022-02-27T11:53:43Z</time>
      </trkpt>
      <trkpt lat="47.2462" lon="-1.4853">
        <ele>54</ele>
        <time>2022-02-27T11:53:45Z</time>
      </trkpt>
      <trkpt lat="47.2463" lon="-1.48542">
        <ele>54</ele>
        <time>2022-02-27T11:53:47Z</time>
      </trkpt>
      <trkpt lat="47.24641" lon="-1.48553">
        <ele>54</ele>
        <time>2022-02-27T11:53:49Z</time>
      </trkpt>
      <trkpt lat="47.24651" lon="-1.48564">
        <ele>53</ele>
        <time>2022-02-27T11:53:51Z</time>
      </trkpt>
      <trkpt lat="47.24661" lon="-1.48574">
        <ele>53</ele>
        <time>2022-02-27T11:53:53Z</time>
      </trkpt>
      <trkpt lat="47.24671" lon="-1.48583">
        <ele>53</ele>
        <time>2022-02-27T11:53:55Z</time>
      </trkpt>
      <trkpt lat="47.24682" lon="-1.48593">
        <ele>53</ele>
        <time>2022-02-27T11:53:57Z</time>
      </trkpt>
      <trkpt lat="47.24693" lon="-1.48602">
        <ele>54</ele>
        <time>2022-02-27T11:53:59Z</time>
      </trkpt>
      <trkpt lat="47.24703" lon="-1.48611">
        <ele>54</ele>
        <time>2022-02-27T11:54:01Z</time>
      </trkpt>
      <trkpt lat="47.24714" lon="-1.4862">
        <ele>54</ele>
        <time>2022-02-27T11:54:03Z</time>
      </trkpt>
      <trkpt lat="47.24724" lon="-1.48628">
        <ele>55</ele>
        <time>2022-02-27T11:54:05Z</time>
      </trkpt>
      <trkpt lat="47.24734" lon="-1.48631">
        <ele>55</ele>
        <time>2022-02-27T11:54:07Z</time>
      </trkpt>
      <trkpt lat="47.24745" lon="-1.48629">
        <ele>55</ele>
        <time>2022-02-27T11:54:09Z</time>
      </trkpt>
      <trkpt lat="47.24757" lon="-1.48632">
        <ele>55</ele>
        <time>2022-02-27T11:54:11Z</time>
      </trkpt>
      <trkpt lat="47.24767" lon="-1.48641">
        <ele>56</ele>
        <time>2022-02-27T11:54:13Z</time>
      </trkpt>
      <trkpt lat="47.24777" lon="-1.48648">
        <ele>56</ele>
        <time>2022-02-27T11:54:15Z</time>
      </trkpt>
      <trkpt lat="47.24789" lon="-1.48649">
        <ele>57</ele>
        <time>2022-02-27T11:54:17Z</time>
      </trkpt>
      <trkpt lat="47.248" lon="-1.4865">
        <ele>57</ele>
        <time>2022-02-27T11:54:19Z</time>
      </trkpt>
      <trkpt lat="47.24812" lon="-1.48651">
        <ele>57</ele>
        <time>2022-02-27T11:54:21Z</time>
      </trkpt>
      <trkpt lat="47.24824" lon="-1.48652">
        <ele>58</ele>
        <time>2022-02-27T11:54:23Z</time>
      </trkpt>
      <trkpt lat="47.24836" lon="-1.48652">
        <ele>58</ele>
        <time>2022-02-27T11:54:25Z</time>
      </trkpt>
      <trkpt lat="47.24848" lon="-1.48655">
        <ele>58</ele>
        <time>2022-02-27T11:54:27Z</time>
      </trkpt>
      <trkpt lat="47.24859" lon="-1.48658">
        <ele>59</ele>
        <time>2022-02-27T11:54:29Z</time>
      </trkpt>
      <trkpt lat="47.2487" lon="-1.48661">
        <ele>60</ele>
        <time>2022-02-27T11:54:31Z</time>
      </trkpt>
      <trkpt lat="47.24881" lon="-1.48664">
        <ele>60</ele>
        <time>2022-02-27T11:54:33Z</time>
      </trkpt>
      <trkpt lat="47.24892" lon="-1.48667">
        <ele>60</ele>
        <time>2022-02-27T11:54:35Z</time>
      </trkpt>
      <trkpt lat="47.24903" lon="-1.48671">
        <ele>60</ele>
        <time>2022-02-27T11:54:37Z</time>
      </trkpt>
      <trkpt lat="47.24915" lon="-1.48676">
        <ele>60</ele>
        <time>2022-02-27T11:54:39Z</time>
      </trkpt>
      <trkpt lat="47.24925" lon="-1.4868">
        <ele>60</ele>
        <time>2022-02-27T11:54:41Z</time>
      </trkpt>
      <trkpt lat="47.24935" lon="-1.48684">
        <ele>61</ele>
        <time>2022-02-27T11:54:43Z</time>
      </trkpt>
      <trkpt lat="47.24947" lon="-1.48687">
        <ele>61</ele>
        <time>2022-02-27T11:54:46Z</time>
      </trkpt>
      <trkpt lat="47.24957" lon="-1.48692">
        <ele>62</ele>
        <time>2022-02-27T11:54:48Z</time>
      </trkpt>
      <trkpt lat="47.24966" lon="-1.48702">
        <ele>62</ele>
        <time>2022-02-27T11:54:50Z</time>
      </trkpt>
      <trkpt lat="47.24978" lon="-1.48709">
        <ele>62</ele>
        <time>2022-02-27T11:54:52Z</time>
      </trkpt>
      <trkpt lat="47.24989" lon="-1.48712">
        <ele>63</ele>
        <time>2022-02-27T11:54:54Z</time>
      </trkpt>
      <trkpt lat="47.24999" lon="-1.48717">
        <ele>64</ele>
        <time>2022-02-27T11:54:56Z</time>
      </trkpt>
      <trkpt lat="47.2501" lon="-1.48722">
        <ele>63</ele>
        <time>2022-02-27T11:54:58Z</time>
      </trkpt>
      <trkpt lat="47.2502" lon="-1.48727">
        <ele>63</ele>
        <time>2022-02-27T11:55:00Z</time>
      </trkpt>
      <trkpt lat="47.25032" lon="-1.48732">
        <ele>63</ele>
        <time>2022-02-27T11:55:02Z</time>
      </trkpt>
      <trkpt lat="47.25042" lon="-1.48736">
        <ele>63</ele>
        <time>2022-02-27T11:55:04Z</time>
      </trkpt>
      <trkpt lat="47.25054" lon="-1.4874">
        <ele>63</ele>
        <time>2022-02-27T11:55:06Z</time>
      </trkpt>
      <trkpt lat="47.25065" lon="-1.48744">
        <ele>63</ele>
        <time>2022-02-27T11:55:08Z</time>
      </trkpt>
      <trkpt lat="47.25076" lon="-1.48745">
        <ele>64</ele>
        <time>2022-02-27T11:55:10Z</time>
      </trkpt>
      <trkpt lat="47.25088" lon="-1.48748">
        <ele>63</ele>
        <time>2022-02-27T11:55:12Z</time>
      </trkpt>
      <trkpt lat="47.251" lon="-1.48751">
        <ele>63</ele>
        <time>2022-02-27T11:55:14Z</time>
      </trkpt>
      <trkpt lat="47.25112" lon="-1.48753">
        <ele>64</ele>
        <time>2022-02-27T11:55:16Z</time>
      </trkpt>
      <trkpt lat="47.25124" lon="-1.48752">
        <ele>64</ele>
        <time>2022-02-27T11:55:18Z</time>
      </trkpt>
      <trkpt lat="47.25136" lon="-1.48751">
        <ele>63</ele>
        <time>2022-02-27T11:55:20Z</time>
      </trkpt>
      <trkpt lat="47.25148" lon="-1.48749">
        <ele>64</ele>
        <time>2022-02-27T11:55:22Z</time>
      </trkpt>
      <trkpt lat="47.25161" lon="-1.48747">
        <ele>64</ele>
        <time>2022-02-27T11:55:24Z</time>
      </trkpt>
      <trkpt lat="47.25173" lon="-1.48745">
        <ele>65</ele>
        <time>2022-02-27T11:55:26Z</time>
      </trkpt>
      <trkpt lat="47.25185" lon="-1.48742">
        <ele>65</ele>
        <time>2022-02-27T11:55:28Z</time>
      </trkpt>
      <trkpt lat="47.25196" lon="-1.4874">
        <ele>66</ele>
        <time>2022-02-27T11:55:30Z</time>
      </trkpt>
      <trkpt lat="47.25208" lon="-1.48738">
        <ele>66</ele>
        <time>2022-02-27T11:55:32Z</time>
      </trkpt>
      <trkpt lat="47.2522" lon="-1.48738">
        <ele>66</ele>
        <time>2022-02-27T11:55:34Z</time>
      </trkpt>
      <trkpt lat="47.25232" lon="-1.48737">
        <ele>66</ele>
        <time>2022-02-27T11:55:36Z</time>
      </trkpt>
      <trkpt lat="47.25243" lon="-1.48738">
        <ele>68</ele>
        <time>2022-02-27T11:55:38Z</time>
      </trkpt>
      <trkpt lat="47.25255" lon="-1.48738">
        <ele>67</ele>
        <time>2022-02-27T11:55:40Z</time>
      </trkpt>
      <trkpt lat="47.25266" lon="-1.48738">
        <ele>68</ele>
        <time>2022-02-27T11:55:42Z</time>
      </trkpt>
      <trkpt lat="47.25277" lon="-1.48734">
        <ele>68</ele>
        <time>2022-02-27T11:55:44Z</time>
      </trkpt>
      <trkpt lat="47.25289" lon="-1.48738">
        <ele>68</ele>
        <time>2022-02-27T11:55:46Z</time>
      </trkpt>
      <trkpt lat="47.25298" lon="-1.48748">
        <ele>68</ele>
        <time>2022-02-27T11:55:48Z</time>
      </trkpt>
      <trkpt lat="47.25308" lon="-1.48755">
        <ele>67</ele>
        <time>2022-02-27T11:55:50Z</time>
      </trkpt>
      <trkpt lat="47.25319" lon="-1.48759">
        <ele>67</ele>
        <time>2022-02-27T11:55:52Z</time>
      </trkpt>
      <trkpt lat="47.25331" lon="-1.48762">
        <ele>67</ele>
        <time>2022-02-27T11:55:54Z</time>
      </trkpt>
      <trkpt lat="47.25342" lon="-1.48765">
        <ele>67</ele>
        <time>2022-02-27T11:55:56Z</time>
      </trkpt>
      <trkpt lat="47.25354" lon="-1.48768">
        <ele>67</ele>
        <time>2022-02-27T11:55:58Z</time>
      </trkpt>
      <trkpt lat="47.25366" lon="-1.48771">
        <ele>66</ele>
        <time>2022-02-27T11:56:00Z</time>
      </trkpt>
      <trkpt lat="47.25377" lon="-1.48773">
        <ele>66</ele>
        <time>2022-02-27T11:56:02Z</time>
      </trkpt>
      <trkpt lat="47.25389" lon="-1.48775">
        <ele>67</ele>
        <time>2022-02-27T11:56:04Z</time>
      </trkpt>
      <trkpt lat="47.25401" lon="-1.48777">
        <ele>67</ele>
        <time>2022-02-27T11:56:06Z</time>
      </trkpt>
      <trkpt lat="47.25413" lon="-1.48778">
        <ele>68</ele>
        <time>2022-02-27T11:56:08Z</time>
      </trkpt>
      <trkpt lat="47.25426" lon="-1.48778">
        <ele>68</ele>
        <time>2022-02-27T11:56:10Z</time>
      </trkpt>
      <trkpt lat="47.25437" lon="-1.48778">
        <ele>68</ele>
        <time>2022-02-27T11:56:12Z</time>
      </trkpt>
      <trkpt lat="47.25449" lon="-1.48778">
        <ele>69</ele>
        <time>2022-02-27T11:56:14Z</time>
      </trkpt>
      <trkpt lat="47.25461" lon="-1.48777">
        <ele>70</ele>
        <time>2022-02-27T11:56:16Z</time>
      </trkpt>
      <trkpt lat="47.25472" lon="-1.48775">
        <ele>70</ele>
        <time>2022-02-27T11:56:18Z</time>
      </trkpt>
      <trkpt lat="47.25484" lon="-1.48773">
        <ele>71</ele>
        <time>2022-02-27T11:56:20Z</time>
      </trkpt>
      <trkpt lat="47.25495" lon="-1.48771">
        <ele>71</ele>
        <time>2022-02-27T11:56:22Z</time>
      </trkpt>
      <trkpt lat="47.25506" lon="-1.48769">
        <ele>71</ele>
        <time>2022-02-27T11:56:24Z</time>
      </trkpt>
      <trkpt lat="47.25518" lon="-1.48766">
        <ele>72</ele>
        <time>2022-02-27T11:56:26Z</time>
      </trkpt>
      <trkpt lat="47.25529" lon="-1.48762">
        <ele>72</ele>
        <time>2022-02-27T11:56:28Z</time>
      </trkpt>
      <trkpt lat="47.25541" lon="-1.48759">
        <ele>73</ele>
        <time>2022-02-27T11:56:30Z</time>
      </trkpt>
      <trkpt lat="47.25552" lon="-1.48756">
        <ele>73</ele>
        <time>2022-02-27T11:56:32Z</time>
      </trkpt>
      <trkpt lat="47.25564" lon="-1.48753">
        <ele>73</ele>
        <time>2022-02-27T11:56:34Z</time>
      </trkpt>
      <trkpt lat="47.25575" lon="-1.48749">
        <ele>73</ele>
        <time>2022-02-27T11:56:36Z</time>
      </trkpt>
      <trkpt lat="47.25586" lon="-1.48747">
        <ele>73</ele>
        <time>2022-02-27T11:56:38Z</time>
      </trkpt>
      <trkpt lat="47.25598" lon="-1.48747">
        <ele>73</ele>
        <time>2022-02-27T11:56:40Z</time>
      </trkpt>
      <trkpt lat="47.25609" lon="-1.48747">
        <ele>74</ele>
        <time>2022-02-27T11:56:42Z</time>
      </trkpt>
      <trkpt lat="47.25621" lon="-1.48748">
        <ele>74</ele>
        <time>2022-02-27T11:56:44Z</time>
      </trkpt>
      <trkpt lat="47.25632" lon="-1.48749">
        <ele>74</ele>
        <time>2022-02-27T11:56:46Z</time>
      </trkpt>
      <trkpt lat="47.25644" lon="-1.48751">
        <ele>74</ele>
        <time>2022-02-27T11:56:48Z</time>
      </trkpt>
      <trkpt lat="47.25655" lon="-1.48753">
        <ele>74</ele>
        <time>2022-02-27T11:56:50Z</time>
      </trkpt>
      <trkpt lat="47.25667" lon="-1.48754">
        <ele>74</ele>
        <time>2022-02-27T11:56:52Z</time>
      </trkpt>
      <trkpt lat="47.25678" lon="-1.48754">
        <ele>74</ele>
        <time>2022-02-27T11:56:54Z</time>
      </trkpt>
      <trkpt lat="47.25687" lon="-1.48759">
        <ele>75</ele>
        <time>2022-02-27T11:56:56Z</time>
      </trkpt>
      <trkpt lat="47.25699" lon="-1.4876">
        <ele>76</ele>
        <time>2022-02-27T11:56:58Z</time>
      </trkpt>
      <trkpt lat="47.25711" lon="-1.4876">
        <ele>75</ele>
        <time>2022-02-27T11:57:00Z</time>
      </trkpt>
      <trkpt lat="47.25723" lon="-1.4876">
        <ele>75</ele>
        <time>2022-02-27T11:57:02Z</time>
      </trkpt>
      <trkpt lat="47.25734" lon="-1.48757">
        <ele>75</ele>
        <time>2022-02-27T11:57:04Z</time>
      </trkpt>
      <trkpt lat="47.25745" lon="-1.48754">
        <ele>76</ele>
        <time>2022-02-27T11:57:06Z</time>
      </trkpt>
      <trkpt lat="47.25756" lon="-1.48752">
        <ele>76</ele>
        <time>2022-02-27T11:57:08Z</time>
      </trkpt>
      <trkpt lat="47.25767" lon="-1.48749">
        <ele>77</ele>
        <time>2022-02-27T11:57:10Z</time>
      </trkpt>
      <trkpt lat="47.25778" lon="-1.48746">
        <ele>77</ele>
        <time>2022-02-27T11:57:12Z</time>
      </trkpt>
      <trkpt lat="47.25789" lon="-1.48745">
        <ele>78</ele>
        <time>2022-02-27T11:57:14Z</time>
      </trkpt>
      <trkpt lat="47.258" lon="-1.48744">
        <ele>78</ele>
        <time>2022-02-27T11:57:16Z</time>
      </trkpt>
      <trkpt lat="47.25812" lon="-1.48745">
        <ele>77</ele>
        <time>2022-02-27T11:57:18Z</time>
      </trkpt>
      <trkpt lat="47.25824" lon="-1.48745">
        <ele>77</ele>
        <time>2022-02-27T11:57:20Z</time>
      </trkpt>
      <trkpt lat="47.25836" lon="-1.48746">
        <ele>77</ele>
        <time>2022-02-27T11:57:22Z</time>
      </trkpt>
      <trkpt lat="47.25848" lon="-1.48746">
        <ele>76</ele>
        <time>2022-02-27T11:57:24Z</time>
      </trkpt>
      <trkpt lat="47.25861" lon="-1.48746">
        <ele>76</ele>
        <time>2022-02-27T11:57:26Z</time>
      </trkpt>
      <trkpt lat="47.25873" lon="-1.48747">
        <ele>76</ele>
        <time>2022-02-27T11:57:28Z</time>
      </trkpt>
      <trkpt lat="47.25885" lon="-1.48748">
        <ele>75</ele>
        <time>2022-02-27T11:57:30Z</time>
      </trkpt>
      <trkpt lat="47.25897" lon="-1.48748">
        <ele>75</ele>
        <time>2022-02-27T11:57:32Z</time>
      </trkpt>
      <trkpt lat="47.25909" lon="-1.48749">
        <ele>75</ele>
        <time>2022-02-27T11:57:34Z</time>
      </trkpt>
      <trkpt lat="47.25922" lon="-1.4875">
        <ele>75</ele>
        <time>2022-02-27T11:57:36Z</time>
      </trkpt>
      <trkpt lat="47.25935" lon="-1.48751">
        <ele>75</ele>
        <time>2022-02-27T11:57:38Z</time>
      </trkpt>
      <trkpt lat="47.25948" lon="-1.48752">
        <ele>74</ele>
        <time>2022-02-27T11:57:40Z</time>
      </trkpt>
      <trkpt lat="47.2596" lon="-1.48752">
        <ele>75</ele>
        <time>2022-02-27T11:57:42Z</time>
      </trkpt>
      <trkpt lat="47.25973" lon="-1.48753">
        <ele>75</ele>
        <time>2022-02-27T11:57:44Z</time>
      </trkpt>
      <trkpt lat="47.25985" lon="-1.48753">
        <ele>76</ele>
        <time>2022-02-27T11:57:46Z</time>
      </trkpt>
      <trkpt lat="47.25998" lon="-1.48754">
        <ele>75</ele>
        <time>2022-02-27T11:57:48Z</time>
      </trkpt>
      <trkpt lat="47.2601" lon="-1.48752">
        <ele>74</ele>
        <time>2022-02-27T11:57:50Z</time>
      </trkpt>
      <trkpt lat="47.26023" lon="-1.48751">
        <ele>74</ele>
        <time>2022-02-27T11:57:52Z</time>
      </trkpt>
      <trkpt lat="47.26036" lon="-1.48749">
        <ele>74</ele>
        <time>2022-02-27T11:57:54Z</time>
      </trkpt>
      <trkpt lat="47.26049" lon="-1.48746">
        <ele>74</ele>
        <time>2022-02-27T11:57:56Z</time>
      </trkpt>
      <trkpt lat="47.26062" lon="-1.48744">
        <ele>75</ele>
        <time>2022-02-27T11:57:58Z</time>
      </trkpt>
      <trkpt lat="47.26075" lon="-1.48741">
        <ele>75</ele>
        <time>2022-02-27T11:58:00Z</time>
      </trkpt>
      <trkpt lat="47.26088" lon="-1.48738">
        <ele>75</ele>
        <time>2022-02-27T11:58:02Z</time>
      </trkpt>
      <trkpt lat="47.26101" lon="-1.48735">
        <ele>74</ele>
        <time>2022-02-27T11:58:04Z</time>
      </trkpt>
      <trkpt lat="47.26113" lon="-1.48731">
        <ele>74</ele>
        <time>2022-02-27T11:58:06Z</time>
      </trkpt>
      <trkpt lat="47.26126" lon="-1.48728">
        <ele>74</ele>
        <time>2022-02-27T11:58:08Z</time>
      </trkpt>
      <trkpt lat="47.26138" lon="-1.48721">
        <ele>74</ele>
        <time>2022-02-27T11:58:10Z</time>
      </trkpt>
      <trkpt lat="47.2615" lon="-1.48715">
        <ele>74</ele>
        <time>2022-02-27T11:58:12Z</time>
      </trkpt>
      <trkpt lat="47.26161" lon="-1.4871">
        <ele>74</ele>
        <time>2022-02-27T11:58:14Z</time>
      </trkpt>
      <trkpt lat="47.26173" lon="-1.48705">
        <ele>75</ele>
        <time>2022-02-27T11:58:16Z</time>
      </trkpt>
      <trkpt lat="47.26183" lon="-1.487">
        <ele>75</ele>
        <time>2022-02-27T11:58:18Z</time>
      </trkpt>
      <trkpt lat="47.26194" lon="-1.48695">
        <ele>76</ele>
        <time>2022-02-27T11:58:20Z</time>
      </trkpt>
      <trkpt lat="47.26206" lon="-1.4869">
        <ele>76</ele>
        <time>2022-02-27T11:58:22Z</time>
      </trkpt>
      <trkpt lat="47.26217" lon="-1.48685">
        <ele>76</ele>
        <time>2022-02-27T11:58:24Z</time>
      </trkpt>
      <trkpt lat="47.26227" lon="-1.48679">
        <ele>76</ele>
        <time>2022-02-27T11:58:26Z</time>
      </trkpt>
      <trkpt lat="47.26238" lon="-1.48674">
        <ele>77</ele>
        <time>2022-02-27T11:58:28Z</time>
      </trkpt>
      <trkpt lat="47.26249" lon="-1.48672">
        <ele>77</ele>
        <time>2022-02-27T11:58:30Z</time>
      </trkpt>
      <trkpt lat="47.26259" lon="-1.48671">
        <ele>78</ele>
        <time>2022-02-27T11:58:32Z</time>
      </trkpt>
      <trkpt lat="47.26271" lon="-1.48669">
        <ele>77</ele>
        <time>2022-02-27T11:58:34Z</time>
      </trkpt>
      <trkpt lat="47.26282" lon="-1.48667">
        <ele>77</ele>
        <time>2022-02-27T11:58:36Z</time>
      </trkpt>
      <trkpt lat="47.26293" lon="-1.48666">
        <ele>77</ele>
        <time>2022-02-27T11:58:38Z</time>
      </trkpt>
      <trkpt lat="47.26303" lon="-1.48665">
        <ele>78</ele>
        <time>2022-02-27T11:58:40Z</time>
      </trkpt>
      <trkpt lat="47.26315" lon="-1.48665">
        <ele>78</ele>
        <time>2022-02-27T11:58:42Z</time>
      </trkpt>
      <trkpt lat="47.26326" lon="-1.48665">
        <ele>78</ele>
        <time>2022-02-27T11:58:44Z</time>
      </trkpt>
      <trkpt lat="47.26337" lon="-1.48666">
        <ele>78</ele>
        <time>2022-02-27T11:58:46Z</time>
      </trkpt>
      <trkpt lat="47.26349" lon="-1.48667">
        <ele>78</ele>
        <time>2022-02-27T11:58:48Z</time>
      </trkpt>
      <trkpt lat="47.2636" lon="-1.48668">
        <ele>78</ele>
        <time>2022-02-27T11:58:50Z</time>
      </trkpt>
      <trkpt lat="47.26372" lon="-1.4867">
        <ele>78</ele>
        <time>2022-02-27T11:58:52Z</time>
      </trkpt>
      <trkpt lat="47.26383" lon="-1.48672">
        <ele>78</ele>
        <time>2022-02-27T11:58:54Z</time>
      </trkpt>
      <trkpt lat="47.26395" lon="-1.48672">
        <ele>78</ele>
        <time>2022-02-27T11:58:56Z</time>
      </trkpt>
      <trkpt lat="47.26406" lon="-1.48672">
        <ele>78</ele>
        <time>2022-02-27T11:58:58Z</time>
      </trkpt>
      <trkpt lat="47.26417" lon="-1.48674">
        <ele>79</ele>
        <time>2022-02-27T11:59:00Z</time>
      </trkpt>
      <trkpt lat="47.26429" lon="-1.48675">
        <ele>79</ele>
        <time>2022-02-27T11:59:02Z</time>
      </trkpt>
      <trkpt lat="47.2644" lon="-1.48678">
        <ele>79</ele>
        <time>2022-02-27T11:59:04Z</time>
      </trkpt>
      <trkpt lat="47.26452" lon="-1.48681">
        <ele>79</ele>
        <time>2022-02-27T11:59:06Z</time>
      </trkpt>
      <trkpt lat="47.26463" lon="-1.48683">
        <ele>79</ele>
        <time>2022-02-27T11:59:08Z</time>
      </trkpt>
      <trkpt lat="47.26474" lon="-1.48686">
        <ele>79</ele>
        <time>2022-02-27T11:59:10Z</time>
      </trkpt>
      <trkpt lat="47.26486" lon="-1.48689">
        <ele>79</ele>
        <time>2022-02-27T11:59:12Z</time>
      </trkpt>
      <trkpt lat="47.26497" lon="-1.48692">
        <ele>80</ele>
        <time>2022-02-27T11:59:14Z</time>
      </trkpt>
      <trkpt lat="47.26508" lon="-1.48695">
        <ele>79</ele>
        <time>2022-02-27T11:59:16Z</time>
      </trkpt>
      <trkpt lat="47.2652" lon="-1.48699">
        <ele>80</ele>
        <time>2022-02-27T11:59:18Z</time>
      </trkpt>
      <trkpt lat="47.26531" lon="-1.48702">
        <ele>80</ele>
        <time>2022-02-27T11:59:20Z</time>
      </trkpt>
      <trkpt lat="47.26542" lon="-1.48706">
        <ele>80</ele>
        <time>2022-02-27T11:59:22Z</time>
      </trkpt>
      <trkpt lat="47.26553" lon="-1.4871">
        <ele>80</ele>
        <time>2022-02-27T11:59:24Z</time>
      </trkpt>
      <trkpt lat="47.26563" lon="-1.48715">
        <ele>80</ele>
        <time>2022-02-27T11:59:26Z</time>
      </trkpt>
      <trkpt lat="47.26573" lon="-1.48719">
        <ele>80</ele>
        <time>2022-02-27T11:59:28Z</time>
      </trkpt>
      <trkpt lat="47.26586" lon="-1.48716">
        <ele>80</ele>
        <time>2022-02-27T11:59:31Z</time>
      </trkpt>
      <trkpt lat="47.26595" lon="-1.48713">
        <ele>80</ele>
        <time>2022-02-27T11:59:34Z</time>
      </trkpt>
      <trkpt lat="47.26604" lon="-1.48713">
        <ele>81</ele>
        <time>2022-02-27T11:59:41Z</time>
      </trkpt>
      <trkpt lat="47.26612" lon="-1.48722">
        <ele>82</ele>
        <time>2022-02-27T11:59:44Z</time>
      </trkpt>
      <trkpt lat="47.2662" lon="-1.48731">
        <ele>81</ele>
        <time>2022-02-27T11:59:46Z</time>
      </trkpt>
      <trkpt lat="47.26628" lon="-1.48743">
        <ele>81</ele>
        <time>2022-02-27T11:59:48Z</time>
      </trkpt>
      <trkpt lat="47.26634" lon="-1.48759">
        <ele>81</ele>
        <time>2022-02-27T11:59:50Z</time>
      </trkpt>
      <trkpt lat="47.26639" lon="-1.48775">
        <ele>81</ele>
        <time>2022-02-27T11:59:52Z</time>
      </trkpt>
      <trkpt lat="47.26649" lon="-1.48788">
        <ele>81</ele>
        <time>2022-02-27T11:59:54Z</time>
      </trkpt>
      <trkpt lat="47.2666" lon="-1.48799">
        <ele>81</ele>
        <time>2022-02-27T11:59:56Z</time>
      </trkpt>
      <trkpt lat="47.26672" lon="-1.48809">
        <ele>82</ele>
        <time>2022-02-27T11:59:58Z</time>
      </trkpt>
      <trkpt lat="47.26683" lon="-1.48818">
        <ele>83</ele>
        <time>2022-02-27T12:00:00Z</time>
      </trkpt>
      <trkpt lat="47.26694" lon="-1.48829">
        <ele>84</ele>
        <time>2022-02-27T12:00:02Z</time>
      </trkpt>
      <trkpt lat="47.26705" lon="-1.48841">
        <ele>85</ele>
        <time>2022-02-27T12:00:04Z</time>
      </trkpt>
      <trkpt lat="47.26715" lon="-1.48854">
        <ele>86</ele>
        <time>2022-02-27T12:00:06Z</time>
      </trkpt>
      <trkpt lat="47.26725" lon="-1.48865">
        <ele>86</ele>
        <time>2022-02-27T12:00:08Z</time>
      </trkpt>
      <trkpt lat="47.26738" lon="-1.48868">
        <ele>85</ele>
        <time>2022-02-27T12:00:10Z</time>
      </trkpt>
      <trkpt lat="47.26748" lon="-1.48862">
        <ele>84</ele>
        <time>2022-02-27T12:00:12Z</time>
      </trkpt>
      <trkpt lat="47.26757" lon="-1.4885">
        <ele>83</ele>
        <time>2022-02-27T12:00:14Z</time>
      </trkpt>
      <trkpt lat="47.26766" lon="-1.48838">
        <ele>83</ele>
        <time>2022-02-27T12:00:16Z</time>
      </trkpt>
      <trkpt lat="47.26774" lon="-1.48825">
        <ele>83</ele>
        <time>2022-02-27T12:00:18Z</time>
      </trkpt>
      <trkpt lat="47.26783" lon="-1.48813">
        <ele>83</ele>
        <time>2022-02-27T12:00:20Z</time>
      </trkpt>
      <trkpt lat="47.26792" lon="-1.48801">
        <ele>83</ele>
        <time>2022-02-27T12:00:22Z</time>
      </trkpt>
      <trkpt lat="47.26801" lon="-1.48789">
        <ele>83</ele>
        <time>2022-02-27T12:00:24Z</time>
      </trkpt>
      <trkpt lat="47.2681" lon="-1.48777">
        <ele>83</ele>
        <time>2022-02-27T12:00:26Z</time>
      </trkpt>
      <trkpt lat="47.26819" lon="-1.48765">
        <ele>84</ele>
        <time>2022-02-27T12:00:28Z</time>
      </trkpt>
      <trkpt lat="47.26828" lon="-1.48753">
        <ele>84</ele>
        <time>2022-02-27T12:00:30Z</time>
      </trkpt>
      <trkpt lat="47.26836" lon="-1.48741">
        <ele>85</ele>
        <time>2022-02-27T12:00:32Z</time>
      </trkpt>
      <trkpt lat="47.26845" lon="-1.48729">
        <ele>85</ele>
        <time>2022-02-27T12:00:34Z</time>
      </trkpt>
      <trkpt lat="47.26853" lon="-1.48717">
        <ele>86</ele>
        <time>2022-02-27T12:00:36Z</time>
      </trkpt>
      <trkpt lat="47.26862" lon="-1.48706">
        <ele>86</ele>
        <time>2022-02-27T12:00:38Z</time>
      </trkpt>
      <trkpt lat="47.26871" lon="-1.48694">
        <ele>86</ele>
        <time>2022-02-27T12:00:40Z</time>
      </trkpt>
      <trkpt lat="47.2688" lon="-1.48685">
        <ele>86</ele>
        <time>2022-02-27T12:00:42Z</time>
      </trkpt>
      <trkpt lat="47.2689" lon="-1.48675">
        <ele>86</ele>
        <time>2022-02-27T12:00:44Z</time>
      </trkpt>
      <trkpt lat="47.269" lon="-1.48666">
        <ele>85</ele>
        <time>2022-02-27T12:00:46Z</time>
      </trkpt>
      <trkpt lat="47.2691" lon="-1.48657">
        <ele>85</ele>
        <time>2022-02-27T12:00:48Z</time>
      </trkpt>
      <trkpt lat="47.26921" lon="-1.48648">
        <ele>85</ele>
        <time>2022-02-27T12:00:50Z</time>
      </trkpt>
      <trkpt lat="47.26931" lon="-1.4864">
        <ele>85</ele>
        <time>2022-02-27T12:00:52Z</time>
      </trkpt>
      <trkpt lat="47.26941" lon="-1.48631">
        <ele>85</ele>
        <time>2022-02-27T12:00:54Z</time>
      </trkpt>
      <trkpt lat="47.26952" lon="-1.48623">
        <ele>85</ele>
        <time>2022-02-27T12:00:56Z</time>
      </trkpt>
      <trkpt lat="47.26962" lon="-1.48615">
        <ele>85</ele>
        <time>2022-02-27T12:00:58Z</time>
      </trkpt>
      <trkpt lat="47.26973" lon="-1.48607">
        <ele>85</ele>
        <time>2022-02-27T12:01:00Z</time>
      </trkpt>
      <trkpt lat="47.26984" lon="-1.48598">
        <ele>84</ele>
        <time>2022-02-27T12:01:02Z</time>
      </trkpt>
      <trkpt lat="47.26996" lon="-1.48591">
        <ele>84</ele>
        <time>2022-02-27T12:01:04Z</time>
      </trkpt>
      <trkpt lat="47.27007" lon="-1.48583">
        <ele>84</ele>
        <time>2022-02-27T12:01:06Z</time>
      </trkpt>
      <trkpt lat="47.27019" lon="-1.48574">
        <ele>84</ele>
        <time>2022-02-27T12:01:08Z</time>
      </trkpt>
      <trkpt lat="47.27031" lon="-1.48566">
        <ele>84</ele>
        <time>2022-02-27T12:01:10Z</time>
      </trkpt>
      <trkpt lat="47.27042" lon="-1.48559">
        <ele>84</ele>
        <time>2022-02-27T12:01:12Z</time>
      </trkpt>
      <trkpt lat="47.27053" lon="-1.48551">
        <ele>84</ele>
        <time>2022-02-27T12:01:14Z</time>
      </trkpt>
      <trkpt lat="47.27062" lon="-1.48542">
        <ele>84</ele>
        <time>2022-02-27T12:01:16Z</time>
      </trkpt>
      <trkpt lat="47.27073" lon="-1.48537">
        <ele>84</ele>
        <time>2022-02-27T12:01:18Z</time>
      </trkpt>
      <trkpt lat="47.27084" lon="-1.48534">
        <ele>84</ele>
        <time>2022-02-27T12:01:20Z</time>
      </trkpt>
      <trkpt lat="47.27094" lon="-1.48525">
        <ele>84</ele>
        <time>2022-02-27T12:01:22Z</time>
      </trkpt>
      <trkpt lat="47.27104" lon="-1.48515">
        <ele>83</ele>
        <time>2022-02-27T12:01:24Z</time>
      </trkpt>
      <trkpt lat="47.27114" lon="-1.48506">
        <ele>83</ele>
        <time>2022-02-27T12:01:26Z</time>
      </trkpt>
      <trkpt lat="47.27125" lon="-1.48497">
        <ele>83</ele>
        <time>2022-02-27T12:01:28Z</time>
      </trkpt>
      <trkpt lat="47.27136" lon="-1.48489">
        <ele>83</ele>
        <time>2022-02-27T12:01:30Z</time>
      </trkpt>
      <trkpt lat="47.27146" lon="-1.48479">
        <ele>84</ele>
        <time>2022-02-27T12:01:32Z</time>
      </trkpt>
      <trkpt lat="47.27156" lon="-1.4847">
        <ele>85</ele>
        <time>2022-02-27T12:01:34Z</time>
      </trkpt>
      <trkpt lat="47.27168" lon="-1.48461">
        <ele>86</ele>
        <time>2022-02-27T12:01:36Z</time>
      </trkpt>
      <trkpt lat="47.27179" lon="-1.48452">
        <ele>86</ele>
        <time>2022-02-27T12:01:38Z</time>
      </trkpt>
      <trkpt lat="47.2719" lon="-1.48443">
        <ele>86</ele>
        <time>2022-02-27T12:01:40Z</time>
      </trkpt>
      <trkpt lat="47.27202" lon="-1.48435">
        <ele>86</ele>
        <time>2022-02-27T12:01:42Z</time>
      </trkpt>
      <trkpt lat="47.27212" lon="-1.48425">
        <ele>85</ele>
        <time>2022-02-27T12:01:44Z</time>
      </trkpt>
      <trkpt lat="47.27223" lon="-1.48417">
        <ele>86</ele>
        <time>2022-02-27T12:01:46Z</time>
      </trkpt>
      <trkpt lat="47.27235" lon="-1.48408">
        <ele>86</ele>
        <time>2022-02-27T12:01:48Z</time>
      </trkpt>
      <trkpt lat="47.27246" lon="-1.48399">
        <ele>85</ele>
        <time>2022-02-27T12:01:50Z</time>
      </trkpt>
      <trkpt lat="47.27257" lon="-1.4839">
        <ele>86</ele>
        <time>2022-02-27T12:01:52Z</time>
      </trkpt>
      <trkpt lat="47.27268" lon="-1.48382">
        <ele>86</ele>
        <time>2022-02-27T12:01:54Z</time>
      </trkpt>
      <trkpt lat="47.27278" lon="-1.48373">
        <ele>86</ele>
        <time>2022-02-27T12:01:56Z</time>
      </trkpt>
      <trkpt lat="47.27289" lon="-1.48364">
        <ele>86</ele>
        <time>2022-02-27T12:01:58Z</time>
      </trkpt>
      <trkpt lat="47.273" lon="-1.48356">
        <ele>86</ele>
        <time>2022-02-27T12:02:00Z</time>
      </trkpt>
      <trkpt lat="47.27311" lon="-1.48348">
        <ele>85</ele>
        <time>2022-02-27T12:02:02Z</time>
      </trkpt>
      <trkpt lat="47.27324" lon="-1.48342">
        <ele>85</ele>
        <time>2022-02-27T12:02:04Z</time>
      </trkpt>
      <trkpt lat="47.27336" lon="-1.48337">
        <ele>86</ele>
        <time>2022-02-27T12:02:06Z</time>
      </trkpt>
      <trkpt lat="47.27349" lon="-1.48332">
        <ele>85</ele>
        <time>2022-02-27T12:02:08Z</time>
      </trkpt>
      <trkpt lat="47.27361" lon="-1.48329">
        <ele>85</ele>
        <time>2022-02-27T12:02:10Z</time>
      </trkpt>
      <trkpt lat="47.27373" lon="-1.48327">
        <ele>86</ele>
        <time>2022-02-27T12:02:12Z</time>
      </trkpt>
      <trkpt lat="47.27386" lon="-1.48326">
        <ele>85</ele>
        <time>2022-02-27T12:02:14Z</time>
      </trkpt>
      <trkpt lat="47.27398" lon="-1.48327">
        <ele>85</ele>
        <time>2022-02-27T12:02:16Z</time>
      </trkpt>
      <trkpt lat="47.2741" lon="-1.48329">
        <ele>85</ele>
        <time>2022-02-27T12:02:18Z</time>
      </trkpt>
      <trkpt lat="47.27422" lon="-1.48331">
        <ele>86</ele>
        <time>2022-02-27T12:02:20Z</time>
      </trkpt>
      <trkpt lat="47.27435" lon="-1.48333">
        <ele>86</ele>
        <time>2022-02-27T12:02:22Z</time>
      </trkpt>
      <trkpt lat="47.27452" lon="-1.48336">
        <ele>87</ele>
        <time>2022-02-27T12:02:25Z</time>
      </trkpt>
      <trkpt lat="47.27462" lon="-1.48337">
        <ele>87</ele>
        <time>2022-02-27T12:02:27Z</time>
      </trkpt>
      <trkpt lat="47.2748" lon="-1.4834">
        <ele>89</ele>
        <time>2022-02-27T12:02:30Z</time>
      </trkpt>
      <trkpt lat="47.27492" lon="-1.48342">
        <ele>90</ele>
        <time>2022-02-27T12:02:32Z</time>
      </trkpt>
      <trkpt lat="47.27504" lon="-1.48344">
        <ele>90</ele>
        <time>2022-02-27T12:02:34Z</time>
      </trkpt>
      <trkpt lat="47.27517" lon="-1.48346">
        <ele>90</ele>
        <time>2022-02-27T12:02:36Z</time>
      </trkpt>
      <trkpt lat="47.27529" lon="-1.48348">
        <ele>90</ele>
        <time>2022-02-27T12:02:38Z</time>
      </trkpt>
      <trkpt lat="47.2754" lon="-1.4835">
        <ele>90</ele>
        <time>2022-02-27T12:02:40Z</time>
      </trkpt>
      <trkpt lat="47.27552" lon="-1.48353">
        <ele>90</ele>
        <time>2022-02-27T12:02:42Z</time>
      </trkpt>
      <trkpt lat="47.27564" lon="-1.48353">
        <ele>90</ele>
        <time>2022-02-27T12:02:44Z</time>
      </trkpt>
      <trkpt lat="47.27575" lon="-1.48352">
        <ele>90</ele>
        <time>2022-02-27T12:02:46Z</time>
      </trkpt>
      <trkpt lat="47.27587" lon="-1.48351">
        <ele>90</ele>
        <time>2022-02-27T12:02:48Z</time>
      </trkpt>
      <trkpt lat="47.27599" lon="-1.48349">
        <ele>90</ele>
        <time>2022-02-27T12:02:50Z</time>
      </trkpt>
      <trkpt lat="47.27612" lon="-1.48347">
        <ele>89</ele>
        <time>2022-02-27T12:02:52Z</time>
      </trkpt>
      <trkpt lat="47.27624" lon="-1.48344">
        <ele>89</ele>
        <time>2022-02-27T12:02:54Z</time>
      </trkpt>
      <trkpt lat="47.27636" lon="-1.48341">
        <ele>89</ele>
        <time>2022-02-27T12:02:56Z</time>
      </trkpt>
      <trkpt lat="47.27649" lon="-1.48337">
        <ele>88</ele>
        <time>2022-02-27T12:02:58Z</time>
      </trkpt>
      <trkpt lat="47.27662" lon="-1.48332">
        <ele>87</ele>
        <time>2022-02-27T12:03:00Z</time>
      </trkpt>
      <trkpt lat="47.27676" lon="-1.48333">
        <ele>86</ele>
        <time>2022-02-27T12:03:02Z</time>
      </trkpt>
      <trkpt lat="47.27689" lon="-1.48337">
        <ele>85</ele>
        <time>2022-02-27T12:03:04Z</time>
      </trkpt>
      <trkpt lat="47.27703" lon="-1.48343">
        <ele>84</ele>
        <time>2022-02-27T12:03:06Z</time>
      </trkpt>
      <trkpt lat="47.27717" lon="-1.4835">
        <ele>84</ele>
        <time>2022-02-27T12:03:08Z</time>
      </trkpt>
      <trkpt lat="47.27731" lon="-1.4836">
        <ele>82</ele>
        <time>2022-02-27T12:03:10Z</time>
      </trkpt>
      <trkpt lat="47.27744" lon="-1.48372">
        <ele>82</ele>
        <time>2022-02-27T12:03:12Z</time>
      </trkpt>
      <trkpt lat="47.27758" lon="-1.48385">
        <ele>81</ele>
        <time>2022-02-27T12:03:14Z</time>
      </trkpt>
      <trkpt lat="47.27772" lon="-1.48397">
        <ele>79</ele>
        <time>2022-02-27T12:03:16Z</time>
      </trkpt>
      <trkpt lat="47.27785" lon="-1.4841">
        <ele>78</ele>
        <time>2022-02-27T12:03:18Z</time>
      </trkpt>
      <trkpt lat="47.27799" lon="-1.48423">
        <ele>78</ele>
        <time>2022-02-27T12:03:20Z</time>
      </trkpt>
      <trkpt lat="47.27812" lon="-1.48434">
        <ele>78</ele>
        <time>2022-02-27T12:03:22Z</time>
      </trkpt>
      <trkpt lat="47.27826" lon="-1.48444">
        <ele>78</ele>
        <time>2022-02-27T12:03:24Z</time>
      </trkpt>
      <trkpt lat="47.27841" lon="-1.48453">
        <ele>77</ele>
        <time>2022-02-27T12:03:26Z</time>
      </trkpt>
      <trkpt lat="47.27857" lon="-1.4846">
        <ele>77</ele>
        <time>2022-02-27T12:03:28Z</time>
      </trkpt>
      <trkpt lat="47.27873" lon="-1.48467">
        <ele>77</ele>
        <time>2022-02-27T12:03:30Z</time>
      </trkpt>
      <trkpt lat="47.27888" lon="-1.48474">
        <ele>76</ele>
        <time>2022-02-27T12:03:32Z</time>
      </trkpt>
      <trkpt lat="47.27904" lon="-1.48481">
        <ele>76</ele>
        <time>2022-02-27T12:03:34Z</time>
      </trkpt>
      <trkpt lat="47.2792" lon="-1.48488">
        <ele>76</ele>
        <time>2022-02-27T12:03:36Z</time>
      </trkpt>
      <trkpt lat="47.27935" lon="-1.48495">
        <ele>75</ele>
        <time>2022-02-27T12:03:38Z</time>
      </trkpt>
      <trkpt lat="47.27951" lon="-1.48502">
        <ele>75</ele>
        <time>2022-02-27T12:03:40Z</time>
      </trkpt>
      <trkpt lat="47.27966" lon="-1.48509">
        <ele>74</ele>
        <time>2022-02-27T12:03:42Z</time>
      </trkpt>
      <trkpt lat="47.27979" lon="-1.48514">
        <ele>74</ele>
        <time>2022-02-27T12:03:44Z</time>
      </trkpt>
      <trkpt lat="47.27989" lon="-1.48511">
        <ele>74</ele>
        <time>2022-02-27T12:03:46Z</time>
      </trkpt>
      <trkpt lat="47.27999" lon="-1.48519">
        <ele>73</ele>
        <time>2022-02-27T12:03:48Z</time>
      </trkpt>
      <trkpt lat="47.28005" lon="-1.4853">
        <ele>74</ele>
        <time>2022-02-27T12:03:50Z</time>
      </trkpt>
      <trkpt lat="47.28018" lon="-1.48533">
        <ele>76</ele>
        <time>2022-02-27T12:03:52Z</time>
      </trkpt>
      <trkpt lat="47.28033" lon="-1.48534">
        <ele>76</ele>
        <time>2022-02-27T12:03:54Z</time>
      </trkpt>
      <trkpt lat="47.28049" lon="-1.48537">
        <ele>76</ele>
        <time>2022-02-27T12:03:56Z</time>
      </trkpt>
      <trkpt lat="47.28065" lon="-1.48537">
        <ele>76</ele>
        <time>2022-02-27T12:03:58Z</time>
      </trkpt>
      <trkpt lat="47.28081" lon="-1.48536">
        <ele>76</ele>
        <time>2022-02-27T12:04:00Z</time>
      </trkpt>
      <trkpt lat="47.28096" lon="-1.48535">
        <ele>75</ele>
        <time>2022-02-27T12:04:02Z</time>
      </trkpt>
      <trkpt lat="47.28111" lon="-1.48534">
        <ele>74</ele>
        <time>2022-02-27T12:04:04Z</time>
      </trkpt>
      <trkpt lat="47.28126" lon="-1.48534">
        <ele>74</ele>
        <time>2022-02-27T12:04:06Z</time>
      </trkpt>
      <trkpt lat="47.28141" lon="-1.48532">
        <ele>74</ele>
        <time>2022-02-27T12:04:08Z</time>
      </trkpt>
      <trkpt lat="47.28156" lon="-1.48531">
        <ele>74</ele>
        <time>2022-02-27T12:04:10Z</time>
      </trkpt>
      <trkpt lat="47.2817" lon="-1.48531">
        <ele>74</ele>
        <time>2022-02-27T12:04:12Z</time>
      </trkpt>
      <trkpt lat="47.28184" lon="-1.4853">
        <ele>74</ele>
        <time>2022-02-27T12:04:14Z</time>
      </trkpt>
      <trkpt lat="47.28197" lon="-1.48529">
        <ele>74</ele>
        <time>2022-02-27T12:04:16Z</time>
      </trkpt>
      <trkpt lat="47.28206" lon="-1.4852">
        <ele>74</ele>
        <time>2022-02-27T12:04:18Z</time>
      </trkpt>
      <trkpt lat="47.28208" lon="-1.48504">
        <ele>73</ele>
        <time>2022-02-27T12:04:20Z</time>
      </trkpt>
      <trkpt lat="47.28216" lon="-1.48496">
        <ele>72</ele>
        <time>2022-02-27T12:04:22Z</time>
      </trkpt>
      <trkpt lat="47.28228" lon="-1.48501">
        <ele>71</ele>
        <time>2022-02-27T12:04:24Z</time>
      </trkpt>
      <trkpt lat="47.28237" lon="-1.48513">
        <ele>70</ele>
        <time>2022-02-27T12:04:26Z</time>
      </trkpt>
      <trkpt lat="47.28246" lon="-1.48525">
        <ele>70</ele>
        <time>2022-02-27T12:04:28Z</time>
      </trkpt>
      <trkpt lat="47.28258" lon="-1.48534">
        <ele>69</ele>
        <time>2022-02-27T12:04:30Z</time>
      </trkpt>
      <trkpt lat="47.2827" lon="-1.48543">
        <ele>69</ele>
        <time>2022-02-27T12:04:32Z</time>
      </trkpt>
      <trkpt lat="47.28281" lon="-1.48555">
        <ele>69</ele>
        <time>2022-02-27T12:04:34Z</time>
      </trkpt>
      <trkpt lat="47.28291" lon="-1.48568">
        <ele>70</ele>
        <time>2022-02-27T12:04:36Z</time>
      </trkpt>
      <trkpt lat="47.283" lon="-1.48585">
        <ele>70</ele>
        <time>2022-02-27T12:04:38Z</time>
      </trkpt>
      <trkpt lat="47.28309" lon="-1.48602">
        <ele>70</ele>
        <time>2022-02-27T12:04:40Z</time>
      </trkpt>
      <trkpt lat="47.28319" lon="-1.48614">
        <ele>70</ele>
        <time>2022-02-27T12:04:42Z</time>
      </trkpt>
      <trkpt lat="47.2833" lon="-1.48617">
        <ele>72</ele>
        <time>2022-02-27T12:04:44Z</time>
      </trkpt>
      <trkpt lat="47.28343" lon="-1.48619">
        <ele>72</ele>
        <time>2022-02-27T12:04:46Z</time>
      </trkpt>
      <trkpt lat="47.28354" lon="-1.48626">
        <ele>72</ele>
        <time>2022-02-27T12:04:48Z</time>
      </trkpt>
      <trkpt lat="47.28365" lon="-1.48635">
        <ele>71</ele>
        <time>2022-02-27T12:04:50Z</time>
      </trkpt>
      <trkpt lat="47.28375" lon="-1.48644">
        <ele>70</ele>
        <time>2022-02-27T12:04:52Z</time>
      </trkpt>
      <trkpt lat="47.28386" lon="-1.48648">
        <ele>71</ele>
        <time>2022-02-27T12:04:54Z</time>
      </trkpt>
      <trkpt lat="47.28398" lon="-1.48644">
        <ele>71</ele>
        <time>2022-02-27T12:04:56Z</time>
      </trkpt>
      <trkpt lat="47.2841" lon="-1.48639">
        <ele>72</ele>
        <time>2022-02-27T12:04:58Z</time>
      </trkpt>
      <trkpt lat="47.28421" lon="-1.48633">
        <ele>73</ele>
        <time>2022-02-27T12:05:00Z</time>
      </trkpt>
      <trkpt lat="47.28431" lon="-1.48625">
        <ele>73</ele>
        <time>2022-02-27T12:05:02Z</time>
      </trkpt>
      <trkpt lat="47.28441" lon="-1.48617">
        <ele>74</ele>
        <time>2022-02-27T12:05:04Z</time>
      </trkpt>
      <trkpt lat="47.2845" lon="-1.48609">
        <ele>75</ele>
        <time>2022-02-27T12:05:06Z</time>
      </trkpt>
      <trkpt lat="47.2846" lon="-1.48601">
        <ele>76</ele>
        <time>2022-02-27T12:05:08Z</time>
      </trkpt>
      <trkpt lat="47.28471" lon="-1.48592">
        <ele>76</ele>
        <time>2022-02-27T12:05:10Z</time>
      </trkpt>
      <trkpt lat="47.28481" lon="-1.48585">
        <ele>77</ele>
        <time>2022-02-27T12:05:12Z</time>
      </trkpt>
      <trkpt lat="47.2849" lon="-1.48577">
        <ele>78</ele>
        <time>2022-02-27T12:05:14Z</time>
      </trkpt>
      <trkpt lat="47.285" lon="-1.48569">
        <ele>78</ele>
        <time>2022-02-27T12:05:16Z</time>
      </trkpt>
      <trkpt lat="47.28509" lon="-1.4856">
        <ele>78</ele>
        <time>2022-02-27T12:05:18Z</time>
      </trkpt>
      <trkpt lat="47.28519" lon="-1.48552">
        <ele>78</ele>
        <time>2022-02-27T12:05:20Z</time>
      </trkpt>
      <trkpt lat="47.28528" lon="-1.48544">
        <ele>78</ele>
        <time>2022-02-27T12:05:22Z</time>
      </trkpt>
      <trkpt lat="47.28538" lon="-1.48536">
        <ele>77</ele>
        <time>2022-02-27T12:05:24Z</time>
      </trkpt>
      <trkpt lat="47.28548" lon="-1.48527">
        <ele>78</ele>
        <time>2022-02-27T12:05:26Z</time>
      </trkpt>
      <trkpt lat="47.28557" lon="-1.48519">
        <ele>78</ele>
        <time>2022-02-27T12:05:28Z</time>
      </trkpt>
      <trkpt lat="47.28567" lon="-1.48512">
        <ele>78</ele>
        <time>2022-02-27T12:05:30Z</time>
      </trkpt>
      <trkpt lat="47.28577" lon="-1.48504">
        <ele>78</ele>
        <time>2022-02-27T12:05:32Z</time>
      </trkpt>
      <trkpt lat="47.28586" lon="-1.48495">
        <ele>78</ele>
        <time>2022-02-27T12:05:34Z</time>
      </trkpt>
      <trkpt lat="47.28595" lon="-1.48487">
        <ele>79</ele>
        <time>2022-02-27T12:05:36Z</time>
      </trkpt>
      <trkpt lat="47.28605" lon="-1.48479">
        <ele>80</ele>
        <time>2022-02-27T12:05:38Z</time>
      </trkpt>
      <trkpt lat="47.28615" lon="-1.48471">
        <ele>81</ele>
        <time>2022-02-27T12:05:40Z</time>
      </trkpt>
      <trkpt lat="47.28626" lon="-1.48464">
        <ele>81</ele>
        <time>2022-02-27T12:05:42Z</time>
      </trkpt>
      <trkpt lat="47.28636" lon="-1.48457">
        <ele>81</ele>
        <time>2022-02-27T12:05:44Z</time>
      </trkpt>
      <trkpt lat="47.28647" lon="-1.48451">
        <ele>81</ele>
        <time>2022-02-27T12:05:46Z</time>
      </trkpt>
      <trkpt lat="47.28657" lon="-1.48444">
        <ele>81</ele>
        <time>2022-02-27T12:05:48Z</time>
      </trkpt>
      <trkpt lat="47.28668" lon="-1.48438">
        <ele>81</ele>
        <time>2022-02-27T12:05:50Z</time>
      </trkpt>
      <trkpt lat="47.28679" lon="-1.48434">
        <ele>81</ele>
        <time>2022-02-27T12:05:52Z</time>
      </trkpt>
      <trkpt lat="47.2869" lon="-1.48429">
        <ele>82</ele>
        <time>2022-02-27T12:05:54Z</time>
      </trkpt>
      <trkpt lat="47.28701" lon="-1.48425">
        <ele>82</ele>
        <time>2022-02-27T12:05:56Z</time>
      </trkpt>
      <trkpt lat="47.28712" lon="-1.48421">
        <ele>82</ele>
        <time>2022-02-27T12:05:58Z</time>
      </trkpt>
      <trkpt lat="47.28723" lon="-1.48418">
        <ele>82</ele>
        <time>2022-02-27T12:06:00Z</time>
      </trkpt>
      <trkpt lat="47.28734" lon="-1.48414">
        <ele>83</ele>
        <time>2022-02-27T12:06:02Z</time>
      </trkpt>
      <trkpt lat="47.28745" lon="-1.4841">
        <ele>83</ele>
        <time>2022-02-27T12:06:04Z</time>
      </trkpt>
      <trkpt lat="47.28755" lon="-1.48405">
        <ele>82</ele>
        <time>2022-02-27T12:06:06Z</time>
      </trkpt>
      <trkpt lat="47.28763" lon="-1.48398">
        <ele>81</ele>
        <time>2022-02-27T12:06:08Z</time>
      </trkpt>
      <trkpt lat="47.28769" lon="-1.48386">
        <ele>81</ele>
        <time>2022-02-27T12:06:10Z</time>
      </trkpt>
      <trkpt lat="47.28776" lon="-1.48377">
        <ele>81</ele>
        <time>2022-02-27T12:06:12Z</time>
      </trkpt>
      <trkpt lat="47.28787" lon="-1.48377">
        <ele>80</ele>
        <time>2022-02-27T12:06:14Z</time>
      </trkpt>
      <trkpt lat="47.28799" lon="-1.48381">
        <ele>80</ele>
        <time>2022-02-27T12:06:16Z</time>
      </trkpt>
      <trkpt lat="47.28808" lon="-1.48391">
        <ele>80</ele>
        <time>2022-02-27T12:06:18Z</time>
      </trkpt>
      <trkpt lat="47.28818" lon="-1.48401">
        <ele>80</ele>
        <time>2022-02-27T12:06:20Z</time>
      </trkpt>
      <trkpt lat="47.28829" lon="-1.48406">
        <ele>80</ele>
        <time>2022-02-27T12:06:22Z</time>
      </trkpt>
      <trkpt lat="47.28842" lon="-1.4841">
        <ele>79</ele>
        <time>2022-02-27T12:06:24Z</time>
      </trkpt>
      <trkpt lat="47.28854" lon="-1.48416">
        <ele>79</ele>
        <time>2022-02-27T12:06:26Z</time>
      </trkpt>
      <trkpt lat="47.28866" lon="-1.48421">
        <ele>79</ele>
        <time>2022-02-27T12:06:28Z</time>
      </trkpt>
      <trkpt lat="47.28879" lon="-1.48427">
        <ele>79</ele>
        <time>2022-02-27T12:06:30Z</time>
      </trkpt>
      <trkpt lat="47.28892" lon="-1.48434">
        <ele>79</ele>
        <time>2022-02-27T12:06:32Z</time>
      </trkpt>
      <trkpt lat="47.28904" lon="-1.48441">
        <ele>78</ele>
        <time>2022-02-27T12:06:34Z</time>
      </trkpt>
      <trkpt lat="47.28916" lon="-1.48449">
        <ele>78</ele>
        <time>2022-02-27T12:06:36Z</time>
      </trkpt>
      <trkpt lat="47.28929" lon="-1.48456">
        <ele>78</ele>
        <time>2022-02-27T12:06:38Z</time>
      </trkpt>
      <trkpt lat="47.28941" lon="-1.48465">
        <ele>78</ele>
        <time>2022-02-27T12:06:40Z</time>
      </trkpt>
      <trkpt lat="47.28953" lon="-1.48472">
        <ele>78</ele>
        <time>2022-02-27T12:06:42Z</time>
      </trkpt>
      <trkpt lat="47.28964" lon="-1.48483">
        <ele>78</ele>
        <time>2022-02-27T12:06:44Z</time>
      </trkpt>
      <trkpt lat="47.28976" lon="-1.48492">
        <ele>78</ele>
        <time>2022-02-27T12:06:46Z</time>
      </trkpt>
      <trkpt lat="47.28989" lon="-1.48501">
        <ele>77</ele>
        <time>2022-02-27T12:06:48Z</time>
      </trkpt>
      <trkpt lat="47.29001" lon="-1.48511">
        <ele>77</ele>
        <time>2022-02-27T12:06:50Z</time>
      </trkpt>
      <trkpt lat="47.29014" lon="-1.4852">
        <ele>77</ele>
        <time>2022-02-27T12:06:52Z</time>
      </trkpt>
      <trkpt lat="47.29028" lon="-1.48529">
        <ele>76</ele>
        <time>2022-02-27T12:06:54Z</time>
      </trkpt>
      <trkpt lat="47.29041" lon="-1.48539">
        <ele>77</ele>
        <time>2022-02-27T12:06:56Z</time>
      </trkpt>
      <trkpt lat="47.29055" lon="-1.48548">
        <ele>77</ele>
        <time>2022-02-27T12:06:58Z</time>
      </trkpt>
      <trkpt lat="47.29068" lon="-1.48555">
        <ele>77</ele>
        <time>2022-02-27T12:07:00Z</time>
      </trkpt>
      <trkpt lat="47.29079" lon="-1.48566">
        <ele>76</ele>
        <time>2022-02-27T12:07:02Z</time>
      </trkpt>
      <trkpt lat="47.29091" lon="-1.48576">
        <ele>77</ele>
        <time>2022-02-27T12:07:04Z</time>
      </trkpt>
      <trkpt lat="47.29102" lon="-1.48585">
        <ele>76</ele>
        <time>2022-02-27T12:07:06Z</time>
      </trkpt>
      <trkpt lat="47.29114" lon="-1.48594">
        <ele>76</ele>
        <time>2022-02-27T12:07:08Z</time>
      </trkpt>
      <trkpt lat="47.29126" lon="-1.48603">
        <ele>76</ele>
        <time>2022-02-27T12:07:10Z</time>
      </trkpt>
      <trkpt lat="47.29138" lon="-1.48611">
        <ele>76</ele>
        <time>2022-02-27T12:07:12Z</time>
      </trkpt>
      <trkpt lat="47.2915" lon="-1.48619">
        <ele>75</ele>
        <time>2022-02-27T12:07:14Z</time>
      </trkpt>
      <trkpt lat="47.29162" lon="-1.48628">
        <ele>75</ele>
        <time>2022-02-27T12:07:16Z</time>
      </trkpt>
      <trkpt lat="47.29174" lon="-1.48637">
        <ele>75</ele>
        <time>2022-02-27T12:07:18Z</time>
      </trkpt>
      <trkpt lat="47.29185" lon="-1.48647">
        <ele>74</ele>
        <time>2022-02-27T12:07:20Z</time>
      </trkpt>
      <trkpt lat="47.29196" lon="-1.48656">
        <ele>75</ele>
        <time>2022-02-27T12:07:22Z</time>
      </trkpt>
      <trkpt lat="47.29207" lon="-1.48665">
        <ele>75</ele>
        <time>2022-02-27T12:07:24Z</time>
      </trkpt>
      <trkpt lat="47.29218" lon="-1.48673">
        <ele>75</ele>
        <time>2022-02-27T12:07:26Z</time>
      </trkpt>
      <trkpt lat="47.29228" lon="-1.48682">
        <ele>74</ele>
        <time>2022-02-27T12:07:28Z</time>
      </trkpt>
      <trkpt lat="47.29238" lon="-1.48688">
        <ele>74</ele>
        <time>2022-02-27T12:07:30Z</time>
      </trkpt>
      <trkpt lat="47.29248" lon="-1.48684">
        <ele>75</ele>
        <time>2022-02-27T12:07:32Z</time>
      </trkpt>
      <trkpt lat="47.29258" lon="-1.48678">
        <ele>77</ele>
        <time>2022-02-27T12:07:35Z</time>
      </trkpt>
      <trkpt lat="47.29269" lon="-1.48683">
        <ele>77</ele>
        <time>2022-02-27T12:07:39Z</time>
      </trkpt>
      <trkpt lat="47.29276" lon="-1.48695">
        <ele>77</ele>
        <time>2022-02-27T12:07:42Z</time>
      </trkpt>
      <trkpt lat="47.29279" lon="-1.48713">
        <ele>77</ele>
        <time>2022-02-27T12:07:45Z</time>
      </trkpt>
      <trkpt lat="47.29285" lon="-1.48725">
        <ele>78</ele>
        <time>2022-02-27T12:07:47Z</time>
      </trkpt>
      <trkpt lat="47.29294" lon="-1.48734">
        <ele>78</ele>
        <time>2022-02-27T12:07:49Z</time>
      </trkpt>
      <trkpt lat="47.29303" lon="-1.48742">
        <ele>78</ele>
        <time>2022-02-27T12:07:51Z</time>
      </trkpt>
      <trkpt lat="47.29313" lon="-1.4875">
        <ele>78</ele>
        <time>2022-02-27T12:07:53Z</time>
      </trkpt>
      <trkpt lat="47.29323" lon="-1.48758">
        <ele>77</ele>
        <time>2022-02-27T12:07:55Z</time>
      </trkpt>
      <trkpt lat="47.29332" lon="-1.48766">
        <ele>77</ele>
        <time>2022-02-27T12:07:57Z</time>
      </trkpt>
      <trkpt lat="47.29343" lon="-1.48775">
        <ele>77</ele>
        <time>2022-02-27T12:07:59Z</time>
      </trkpt>
      <trkpt lat="47.29353" lon="-1.48781">
        <ele>78</ele>
        <time>2022-02-27T12:08:01Z</time>
      </trkpt>
      <trkpt lat="47.29364" lon="-1.48785">
        <ele>77</ele>
        <time>2022-02-27T12:08:03Z</time>
      </trkpt>
      <trkpt lat="47.29373" lon="-1.48789">
        <ele>77</ele>
        <time>2022-02-27T12:08:05Z</time>
      </trkpt>
      <trkpt lat="47.29381" lon="-1.48796">
        <ele>77</ele>
        <time>2022-02-27T12:08:09Z</time>
      </trkpt>
      <trkpt lat="47.29393" lon="-1.48796">
        <ele>78</ele>
        <time>2022-02-27T12:08:13Z</time>
      </trkpt>
      <trkpt lat="47.29403" lon="-1.48796">
        <ele>78</ele>
        <time>2022-02-27T12:08:15Z</time>
      </trkpt>
      <trkpt lat="47.2941" lon="-1.48805">
        <ele>77</ele>
        <time>2022-02-27T12:08:17Z</time>
      </trkpt>
      <trkpt lat="47.29421" lon="-1.48813">
        <ele>76</ele>
        <time>2022-02-27T12:08:20Z</time>
      </trkpt>
      <trkpt lat="47.29434" lon="-1.4882">
        <ele>77</ele>
        <time>2022-02-27T12:08:23Z</time>
      </trkpt>
      <trkpt lat="47.29441" lon="-1.48833">
        <ele>77</ele>
        <time>2022-02-27T12:08:25Z</time>
      </trkpt>
      <trkpt lat="47.29449" lon="-1.48844">
        <ele>78</ele>
        <time>2022-02-27T12:08:27Z</time>
      </trkpt>
      <trkpt lat="47.29457" lon="-1.48855">
        <ele>78</ele>
        <time>2022-02-27T12:08:29Z</time>
      </trkpt>
      <trkpt lat="47.29464" lon="-1.48865">
        <ele>79</ele>
        <time>2022-02-27T12:08:31Z</time>
      </trkpt>
      <trkpt lat="47.29473" lon="-1.48875">
        <ele>79</ele>
        <time>2022-02-27T12:08:33Z</time>
      </trkpt>
      <trkpt lat="47.2948" lon="-1.48886">
        <ele>79</ele>
        <time>2022-02-27T12:08:35Z</time>
      </trkpt>
      <trkpt lat="47.29489" lon="-1.48897">
        <ele>79</ele>
        <time>2022-02-27T12:08:37Z</time>
      </trkpt>
      <trkpt lat="47.29497" lon="-1.48908">
        <ele>79</ele>
        <time>2022-02-27T12:08:39Z</time>
      </trkpt>
      <trkpt lat="47.29503" lon="-1.48922">
        <ele>79</ele>
        <time>2022-02-27T12:08:41Z</time>
      </trkpt>
      <trkpt lat="47.29511" lon="-1.48934">
        <ele>80</ele>
        <time>2022-02-27T12:08:43Z</time>
      </trkpt>
      <trkpt lat="47.29519" lon="-1.48941">
        <ele>80</ele>
        <time>2022-02-27T12:08:45Z</time>
      </trkpt>
      <trkpt lat="47.29527" lon="-1.48953">
        <ele>80</ele>
        <time>2022-02-27T12:08:47Z</time>
      </trkpt>
      <trkpt lat="47.29534" lon="-1.48965">
        <ele>80</ele>
        <time>2022-02-27T12:08:49Z</time>
      </trkpt>
      <trkpt lat="47.29542" lon="-1.48976">
        <ele>81</ele>
        <time>2022-02-27T12:08:51Z</time>
      </trkpt>
      <trkpt lat="47.2955" lon="-1.48988">
        <ele>81</ele>
        <time>2022-02-27T12:08:53Z</time>
      </trkpt>
      <trkpt lat="47.29556" lon="-1.49001">
        <ele>81</ele>
        <time>2022-02-27T12:08:55Z</time>
      </trkpt>
      <trkpt lat="47.29563" lon="-1.49016">
        <ele>80</ele>
        <time>2022-02-27T12:08:57Z</time>
      </trkpt>
      <trkpt lat="47.2957" lon="-1.49028">
        <ele>81</ele>
        <time>2022-02-27T12:08:59Z</time>
      </trkpt>
      <trkpt lat="47.29578" lon="-1.4904">
        <ele>81</ele>
        <time>2022-02-27T12:09:01Z</time>
      </trkpt>
      <trkpt lat="47.29585" lon="-1.49052">
        <ele>82</ele>
        <time>2022-02-27T12:09:03Z</time>
      </trkpt>
      <trkpt lat="47.29593" lon="-1.49063">
        <ele>82</ele>
        <time>2022-02-27T12:09:05Z</time>
      </trkpt>
      <trkpt lat="47.29601" lon="-1.49074">
        <ele>82</ele>
        <time>2022-02-27T12:09:07Z</time>
      </trkpt>
      <trkpt lat="47.29609" lon="-1.49086">
        <ele>83</ele>
        <time>2022-02-27T12:09:09Z</time>
      </trkpt>
      <trkpt lat="47.29617" lon="-1.49097">
        <ele>83</ele>
        <time>2022-02-27T12:09:11Z</time>
      </trkpt>
      <trkpt lat="47.29625" lon="-1.49106">
        <ele>83</ele>
        <time>2022-02-27T12:09:13Z</time>
      </trkpt>
      <trkpt lat="47.29631" lon="-1.49118">
        <ele>83</ele>
        <time>2022-02-27T12:09:15Z</time>
      </trkpt>
      <trkpt lat="47.29634" lon="-1.49132">
        <ele>83</ele>
        <time>2022-02-27T12:09:17Z</time>
      </trkpt>
      <trkpt lat="47.29637" lon="-1.49146">
        <ele>82</ele>
        <time>2022-02-27T12:09:19Z</time>
      </trkpt>
      <trkpt lat="47.29639" lon="-1.49161">
        <ele>82</ele>
        <time>2022-02-27T12:09:21Z</time>
      </trkpt>
      <trkpt lat="47.29642" lon="-1.49175">
        <ele>83</ele>
        <time>2022-02-27T12:09:23Z</time>
      </trkpt>
      <trkpt lat="47.29643" lon="-1.49189">
        <ele>83</ele>
        <time>2022-02-27T12:09:25Z</time>
      </trkpt>
      <trkpt lat="47.29644" lon="-1.49208">
        <ele>83</ele>
        <time>2022-02-27T12:09:28Z</time>
      </trkpt>
      <trkpt lat="47.29636" lon="-1.49223">
        <ele>82</ele>
        <time>2022-02-27T12:09:31Z</time>
      </trkpt>
      <trkpt lat="47.29633" lon="-1.4924">
        <ele>81</ele>
        <time>2022-02-27T12:09:34Z</time>
      </trkpt>
      <trkpt lat="47.29635" lon="-1.49255">
        <ele>82</ele>
        <time>2022-02-27T12:09:37Z</time>
      </trkpt>
      <trkpt lat="47.29642" lon="-1.49268">
        <ele>82</ele>
        <time>2022-02-27T12:09:40Z</time>
      </trkpt>
      <trkpt lat="47.29649" lon="-1.49284">
        <ele>83</ele>
        <time>2022-02-27T12:09:43Z</time>
      </trkpt>
      <trkpt lat="47.29652" lon="-1.49298">
        <ele>83</ele>
        <time>2022-02-27T12:09:45Z</time>
      </trkpt>
      <trkpt lat="47.29654" lon="-1.49312">
        <ele>83</ele>
        <time>2022-02-27T12:09:47Z</time>
      </trkpt>
      <trkpt lat="47.29657" lon="-1.49328">
        <ele>83</ele>
        <time>2022-02-27T12:09:50Z</time>
      </trkpt>
      <trkpt lat="47.29657" lon="-1.49344">
        <ele>83</ele>
        <time>2022-02-27T12:09:55Z</time>
      </trkpt>
      <trkpt lat="47.29658" lon="-1.4936">
        <ele>82</ele>
        <time>2022-02-27T12:09:58Z</time>
      </trkpt>
      <trkpt lat="47.29661" lon="-1.49375">
        <ele>81</ele>
        <time>2022-02-27T12:10:00Z</time>
      </trkpt>
      <trkpt lat="47.29667" lon="-1.4939">
        <ele>80</ele>
        <time>2022-02-27T12:10:02Z</time>
      </trkpt>
      <trkpt lat="47.29674" lon="-1.49407">
        <ele>79</ele>
        <time>2022-02-27T12:10:04Z</time>
      </trkpt>
      <trkpt lat="47.2968" lon="-1.49423">
        <ele>79</ele>
        <time>2022-02-27T12:10:06Z</time>
      </trkpt>
      <trkpt lat="47.29687" lon="-1.49437">
        <ele>78</ele>
        <time>2022-02-27T12:10:09Z</time>
      </trkpt>
      <trkpt lat="47.29689" lon="-1.4945">
        <ele>77</ele>
        <time>2022-02-27T12:10:12Z</time>
      </trkpt>
      <trkpt lat="47.29682" lon="-1.49463">
        <ele>76</ele>
        <time>2022-02-27T12:10:14Z</time>
      </trkpt>
      <trkpt lat="47.29673" lon="-1.49474">
        <ele>74</ele>
        <time>2022-02-27T12:10:16Z</time>
      </trkpt>
      <trkpt lat="47.29664" lon="-1.49485">
        <ele>73</ele>
        <time>2022-02-27T12:10:18Z</time>
      </trkpt>
      <trkpt lat="47.29653" lon="-1.49496">
        <ele>72</ele>
        <time>2022-02-27T12:10:20Z</time>
      </trkpt>
      <trkpt lat="47.29642" lon="-1.49506">
        <ele>71</ele>
        <time>2022-02-27T12:10:22Z</time>
      </trkpt>
      <trkpt lat="47.29631" lon="-1.49516">
        <ele>71</ele>
        <time>2022-02-27T12:10:24Z</time>
      </trkpt>
      <trkpt lat="47.29621" lon="-1.49526">
        <ele>71</ele>
        <time>2022-02-27T12:10:26Z</time>
      </trkpt>
      <trkpt lat="47.2961" lon="-1.49535">
        <ele>71</ele>
        <time>2022-02-27T12:10:28Z</time>
      </trkpt>
      <trkpt lat="47.296" lon="-1.49543">
        <ele>71</ele>
        <time>2022-02-27T12:10:30Z</time>
      </trkpt>
      <trkpt lat="47.2959" lon="-1.49551">
        <ele>71</ele>
        <time>2022-02-27T12:10:32Z</time>
      </trkpt>
      <trkpt lat="47.2958" lon="-1.49559">
        <ele>71</ele>
        <time>2022-02-27T12:10:34Z</time>
      </trkpt>
      <trkpt lat="47.29571" lon="-1.49568">
        <ele>71</ele>
        <time>2022-02-27T12:10:36Z</time>
      </trkpt>
      <trkpt lat="47.2956" lon="-1.49576">
        <ele>71</ele>
        <time>2022-02-27T12:10:38Z</time>
      </trkpt>
      <trkpt lat="47.29548" lon="-1.49585">
        <ele>70</ele>
        <time>2022-02-27T12:10:40Z</time>
      </trkpt>
      <trkpt lat="47.29536" lon="-1.49591">
        <ele>70</ele>
        <time>2022-02-27T12:10:42Z</time>
      </trkpt>
      <trkpt lat="47.29525" lon="-1.49599">
        <ele>69</ele>
        <time>2022-02-27T12:10:44Z</time>
      </trkpt>
      <trkpt lat="47.29515" lon="-1.49612">
        <ele>69</ele>
        <time>2022-02-27T12:10:46Z</time>
      </trkpt>
      <trkpt lat="47.29502" lon="-1.49622">
        <ele>68</ele>
        <time>2022-02-27T12:10:48Z</time>
      </trkpt>
      <trkpt lat="47.2949" lon="-1.49631">
        <ele>67</ele>
        <time>2022-02-27T12:10:50Z</time>
      </trkpt>
      <trkpt lat="47.29478" lon="-1.49639">
        <ele>67</ele>
        <time>2022-02-27T12:10:52Z</time>
      </trkpt>
      <trkpt lat="47.29465" lon="-1.49648">
        <ele>66</ele>
        <time>2022-02-27T12:10:54Z</time>
      </trkpt>
      <trkpt lat="47.29452" lon="-1.49657">
        <ele>65</ele>
        <time>2022-02-27T12:10:56Z</time>
      </trkpt>
      <trkpt lat="47.29439" lon="-1.49664">
        <ele>65</ele>
        <time>2022-02-27T12:10:58Z</time>
      </trkpt>
      <trkpt lat="47.29426" lon="-1.49668">
        <ele>64</ele>
        <time>2022-02-27T12:11:00Z</time>
      </trkpt>
      <trkpt lat="47.29413" lon="-1.49676">
        <ele>64</ele>
        <time>2022-02-27T12:11:02Z</time>
      </trkpt>
      <trkpt lat="47.294" lon="-1.49682">
        <ele>64</ele>
        <time>2022-02-27T12:11:04Z</time>
      </trkpt>
      <trkpt lat="47.29386" lon="-1.49687">
        <ele>63</ele>
        <time>2022-02-27T12:11:06Z</time>
      </trkpt>
      <trkpt lat="47.29373" lon="-1.49692">
        <ele>62</ele>
        <time>2022-02-27T12:11:08Z</time>
      </trkpt>
      <trkpt lat="47.2936" lon="-1.49699">
        <ele>62</ele>
        <time>2022-02-27T12:11:10Z</time>
      </trkpt>
      <trkpt lat="47.29347" lon="-1.49703">
        <ele>62</ele>
        <time>2022-02-27T12:11:12Z</time>
      </trkpt>
      <trkpt lat="47.29335" lon="-1.49708">
        <ele>61</ele>
        <time>2022-02-27T12:11:14Z</time>
      </trkpt>
      <trkpt lat="47.29323" lon="-1.49713">
        <ele>62</ele>
        <time>2022-02-27T12:11:16Z</time>
      </trkpt>
      <trkpt lat="47.29312" lon="-1.49717">
        <ele>62</ele>
        <time>2022-02-27T12:11:18Z</time>
      </trkpt>
      <trkpt lat="47.29301" lon="-1.49721">
        <ele>62</ele>
        <time>2022-02-27T12:11:20Z</time>
      </trkpt>
      <trkpt lat="47.2929" lon="-1.49725">
        <ele>62</ele>
        <time>2022-02-27T12:11:22Z</time>
      </trkpt>
      <trkpt lat="47.2928" lon="-1.49731">
        <ele>62</ele>
        <time>2022-02-27T12:11:24Z</time>
      </trkpt>
      <trkpt lat="47.29272" lon="-1.49739">
        <ele>62</ele>
        <time>2022-02-27T12:11:26Z</time>
      </trkpt>
      <trkpt lat="47.29266" lon="-1.49751">
        <ele>62</ele>
        <time>2022-02-27T12:11:28Z</time>
      </trkpt>
      <trkpt lat="47.29263" lon="-1.49765">
        <ele>61</ele>
        <time>2022-02-27T12:11:30Z</time>
      </trkpt>
      <trkpt lat="47.29257" lon="-1.49778">
        <ele>61</ele>
        <time>2022-02-27T12:11:32Z</time>
      </trkpt>
      <trkpt lat="47.29247" lon="-1.49785">
        <ele>60</ele>
        <time>2022-02-27T12:11:34Z</time>
      </trkpt>
      <trkpt lat="47.29236" lon="-1.49791">
        <ele>61</ele>
        <time>2022-02-27T12:11:36Z</time>
      </trkpt>
      <trkpt lat="47.29226" lon="-1.49796">
        <ele>61</ele>
        <time>2022-02-27T12:11:38Z</time>
      </trkpt>
      <trkpt lat="47.29219" lon="-1.49786">
        <ele>62</ele>
        <time>2022-02-27T12:11:41Z</time>
      </trkpt>
      <trkpt lat="47.2921" lon="-1.49782">
        <ele>63</ele>
        <time>2022-02-27T12:11:47Z</time>
      </trkpt>
      <trkpt lat="47.29196" lon="-1.49781">
        <ele>64</ele>
        <time>2022-02-27T12:11:51Z</time>
      </trkpt>
      <trkpt lat="47.29184" lon="-1.49782">
        <ele>64</ele>
        <time>2022-02-27T12:11:53Z</time>
      </trkpt>
      <trkpt lat="47.29173" lon="-1.4979">
        <ele>63</ele>
        <time>2022-02-27T12:11:55Z</time>
      </trkpt>
      <trkpt lat="47.29164" lon="-1.49803">
        <ele>63</ele>
        <time>2022-02-27T12:11:57Z</time>
      </trkpt>
      <trkpt lat="47.29157" lon="-1.49818">
        <ele>63</ele>
        <time>2022-02-27T12:11:59Z</time>
      </trkpt>
      <trkpt lat="47.29147" lon="-1.49829">
        <ele>62</ele>
        <time>2022-02-27T12:12:01Z</time>
      </trkpt>
      <trkpt lat="47.29137" lon="-1.49838">
        <ele>62</ele>
        <time>2022-02-27T12:12:03Z</time>
      </trkpt>
      <trkpt lat="47.29126" lon="-1.49848">
        <ele>62</ele>
        <time>2022-02-27T12:12:05Z</time>
      </trkpt>
      <trkpt lat="47.29116" lon="-1.49857">
        <ele>62</ele>
        <time>2022-02-27T12:12:07Z</time>
      </trkpt>
      <trkpt lat="47.29105" lon="-1.49863">
        <ele>62</ele>
        <time>2022-02-27T12:12:09Z</time>
      </trkpt>
      <trkpt lat="47.29094" lon="-1.49869">
        <ele>63</ele>
        <time>2022-02-27T12:12:11Z</time>
      </trkpt>
      <trkpt lat="47.29084" lon="-1.49874">
        <ele>63</ele>
        <time>2022-02-27T12:12:13Z</time>
      </trkpt>
      <trkpt lat="47.29074" lon="-1.49879">
        <ele>64</ele>
        <time>2022-02-27T12:12:15Z</time>
      </trkpt>
      <trkpt lat="47.29064" lon="-1.49883">
        <ele>63</ele>
        <time>2022-02-27T12:12:17Z</time>
      </trkpt>
      <trkpt lat="47.29054" lon="-1.49888">
        <ele>63</ele>
        <time>2022-02-27T12:12:19Z</time>
      </trkpt>
      <trkpt lat="47.29044" lon="-1.49892">
        <ele>63</ele>
        <time>2022-02-27T12:12:21Z</time>
      </trkpt>
      <trkpt lat="47.29034" lon="-1.49897">
        <ele>62</ele>
        <time>2022-02-27T12:12:23Z</time>
      </trkpt>
      <trkpt lat="47.29023" lon="-1.49901">
        <ele>62</ele>
        <time>2022-02-27T12:12:25Z</time>
      </trkpt>
      <trkpt lat="47.29011" lon="-1.49906">
        <ele>62</ele>
        <time>2022-02-27T12:12:27Z</time>
      </trkpt>
      <trkpt lat="47.28998" lon="-1.4991">
        <ele>61</ele>
        <time>2022-02-27T12:12:29Z</time>
      </trkpt>
      <trkpt lat="47.28986" lon="-1.49913">
        <ele>61</ele>
        <time>2022-02-27T12:12:31Z</time>
      </trkpt>
      <trkpt lat="47.28973" lon="-1.49915">
        <ele>61</ele>
        <time>2022-02-27T12:12:33Z</time>
      </trkpt>
      <trkpt lat="47.2896" lon="-1.49916">
        <ele>61</ele>
        <time>2022-02-27T12:12:35Z</time>
      </trkpt>
      <trkpt lat="47.28947" lon="-1.49917">
        <ele>61</ele>
        <time>2022-02-27T12:12:37Z</time>
      </trkpt>
      <trkpt lat="47.28933" lon="-1.49917">
        <ele>60</ele>
        <time>2022-02-27T12:12:39Z</time>
      </trkpt>
      <trkpt lat="47.2892" lon="-1.49916">
        <ele>60</ele>
        <time>2022-02-27T12:12:41Z</time>
      </trkpt>
      <trkpt lat="47.28906" lon="-1.49914">
        <ele>60</ele>
        <time>2022-02-27T12:12:43Z</time>
      </trkpt>
      <trkpt lat="47.28894" lon="-1.49911">
        <ele>61</ele>
        <time>2022-02-27T12:12:45Z</time>
      </trkpt>
      <trkpt lat="47.28881" lon="-1.49907">
        <ele>61</ele>
        <time>2022-02-27T12:12:47Z</time>
      </trkpt>
      <trkpt lat="47.2887" lon="-1.49903">
        <ele>61</ele>
        <time>2022-02-27T12:12:49Z</time>
      </trkpt>
      <trkpt lat="47.28859" lon="-1.49898">
        <ele>61</ele>
        <time>2022-02-27T12:12:51Z</time>
      </trkpt>
      <trkpt lat="47.28848" lon="-1.49892">
        <ele>61</ele>
        <time>2022-02-27T12:12:53Z</time>
      </trkpt>
      <trkpt lat="47.28838" lon="-1.49887">
        <ele>61</ele>
        <time>2022-02-27T12:12:55Z</time>
      </trkpt>
      <trkpt lat="47.28827" lon="-1.49888">
        <ele>61</ele>
        <time>2022-02-27T12:12:57Z</time>
      </trkpt>
      <trkpt lat="47.28815" lon="-1.4989">
        <ele>61</ele>
        <time>2022-02-27T12:12:59Z</time>
      </trkpt>
      <trkpt lat="47.28804" lon="-1.49892">
        <ele>61</ele>
        <time>2022-02-27T12:13:01Z</time>
      </trkpt>
      <trkpt lat="47.28793" lon="-1.49893">
        <ele>61</ele>
        <time>2022-02-27T12:13:03Z</time>
      </trkpt>
      <trkpt lat="47.28781" lon="-1.49895">
        <ele>61</ele>
        <time>2022-02-27T12:13:05Z</time>
      </trkpt>
      <trkpt lat="47.2877" lon="-1.49898">
        <ele>62</ele>
        <time>2022-02-27T12:13:07Z</time>
      </trkpt>
      <trkpt lat="47.28759" lon="-1.49901">
        <ele>62</ele>
        <time>2022-02-27T12:13:09Z</time>
      </trkpt>
      <trkpt lat="47.28749" lon="-1.49905">
        <ele>62</ele>
        <time>2022-02-27T12:13:11Z</time>
      </trkpt>
      <trkpt lat="47.28739" lon="-1.4991">
        <ele>62</ele>
        <time>2022-02-27T12:13:13Z</time>
      </trkpt>
      <trkpt lat="47.28728" lon="-1.49913">
        <ele>63</ele>
        <time>2022-02-27T12:13:15Z</time>
      </trkpt>
      <trkpt lat="47.2872" lon="-1.4992">
        <ele>63</ele>
        <time>2022-02-27T12:13:17Z</time>
      </trkpt>
      <trkpt lat="47.28711" lon="-1.49928">
        <ele>63</ele>
        <time>2022-02-27T12:13:19Z</time>
      </trkpt>
      <trkpt lat="47.28701" lon="-1.49935">
        <ele>63</ele>
        <time>2022-02-27T12:13:21Z</time>
      </trkpt>
      <trkpt lat="47.28692" lon="-1.49942">
        <ele>64</ele>
        <time>2022-02-27T12:13:23Z</time>
      </trkpt>
      <trkpt lat="47.28682" lon="-1.4995">
        <ele>64</ele>
        <time>2022-02-27T12:13:25Z</time>
      </trkpt>
      <trkpt lat="47.28673" lon="-1.4996">
        <ele>64</ele>
        <time>2022-02-27T12:13:27Z</time>
      </trkpt>
      <trkpt lat="47.28664" lon="-1.49971">
        <ele>65</ele>
        <time>2022-02-27T12:13:29Z</time>
      </trkpt>
      <trkpt lat="47.28656" lon="-1.49982">
        <ele>65</ele>
        <time>2022-02-27T12:13:31Z</time>
      </trkpt>
      <trkpt lat="47.28648" lon="-1.49994">
        <ele>65</ele>
        <time>2022-02-27T12:13:33Z</time>
      </trkpt>
      <trkpt lat="47.28641" lon="-1.50006">
        <ele>65</ele>
        <time>2022-02-27T12:13:35Z</time>
      </trkpt>
      <trkpt lat="47.28633" lon="-1.50019">
        <ele>65</ele>
        <time>2022-02-27T12:13:37Z</time>
      </trkpt>
      <trkpt lat="47.28624" lon="-1.50032">
        <ele>65</ele>
        <time>2022-02-27T12:13:39Z</time>
      </trkpt>
      <trkpt lat="47.28616" lon="-1.50045">
        <ele>65</ele>
        <time>2022-02-27T12:13:41Z</time>
      </trkpt>
      <trkpt lat="47.28607" lon="-1.50058">
        <ele>65</ele>
        <time>2022-02-27T12:13:43Z</time>
      </trkpt>
      <trkpt lat="47.28598" lon="-1.50072">
        <ele>65</ele>
        <time>2022-02-27T12:13:45Z</time>
      </trkpt>
      <trkpt lat="47.28589" lon="-1.50085">
        <ele>65</ele>
        <time>2022-02-27T12:13:47Z</time>
      </trkpt>
      <trkpt lat="47.28581" lon="-1.50097">
        <ele>64</ele>
        <time>2022-02-27T12:13:49Z</time>
      </trkpt>
      <trkpt lat="47.28573" lon="-1.5011">
        <ele>65</ele>
        <time>2022-02-27T12:13:51Z</time>
      </trkpt>
      <trkpt lat="47.28565" lon="-1.50123">
        <ele>65</ele>
        <time>2022-02-27T12:13:53Z</time>
      </trkpt>
      <trkpt lat="47.28557" lon="-1.50136">
        <ele>65</ele>
        <time>2022-02-27T12:13:55Z</time>
      </trkpt>
      <trkpt lat="47.2855" lon="-1.50151">
        <ele>65</ele>
        <time>2022-02-27T12:13:57Z</time>
      </trkpt>
      <trkpt lat="47.28543" lon="-1.50165">
        <ele>65</ele>
        <time>2022-02-27T12:13:59Z</time>
      </trkpt>
      <trkpt lat="47.28536" lon="-1.50179">
        <ele>65</ele>
        <time>2022-02-27T12:14:01Z</time>
      </trkpt>
      <trkpt lat="47.28529" lon="-1.50194">
        <ele>65</ele>
        <time>2022-02-27T12:14:03Z</time>
      </trkpt>
      <trkpt lat="47.28523" lon="-1.50208">
        <ele>66</ele>
        <time>2022-02-27T12:14:05Z</time>
      </trkpt>
      <trkpt lat="47.28516" lon="-1.50224">
        <ele>66</ele>
        <time>2022-02-27T12:14:07Z</time>
      </trkpt>
      <trkpt lat="47.2851" lon="-1.50239">
        <ele>65</ele>
        <time>2022-02-27T12:14:09Z</time>
      </trkpt>
      <trkpt lat="47.28504" lon="-1.50253">
        <ele>65</ele>
        <time>2022-02-27T12:14:11Z</time>
      </trkpt>
      <trkpt lat="47.28498" lon="-1.50268">
        <ele>65</ele>
        <time>2022-02-27T12:14:13Z</time>
      </trkpt>
      <trkpt lat="47.28492" lon="-1.50282">
        <ele>66</ele>
        <time>2022-02-27T12:14:15Z</time>
      </trkpt>
      <trkpt lat="47.28485" lon="-1.50295">
        <ele>66</ele>
        <time>2022-02-27T12:14:17Z</time>
      </trkpt>
      <trkpt lat="47.28479" lon="-1.50309">
        <ele>66</ele>
        <time>2022-02-27T12:14:19Z</time>
      </trkpt>
      <trkpt lat="47.28473" lon="-1.50323">
        <ele>66</ele>
        <time>2022-02-27T12:14:21Z</time>
      </trkpt>
      <trkpt lat="47.28467" lon="-1.50336">
        <ele>65</ele>
        <time>2022-02-27T12:14:23Z</time>
      </trkpt>
      <trkpt lat="47.2846" lon="-1.50349">
        <ele>66</ele>
        <time>2022-02-27T12:14:25Z</time>
      </trkpt>
      <trkpt lat="47.28454" lon="-1.50363">
        <ele>66</ele>
        <time>2022-02-27T12:14:27Z</time>
      </trkpt>
      <trkpt lat="47.28448" lon="-1.50378">
        <ele>66</ele>
        <time>2022-02-27T12:14:29Z</time>
      </trkpt>
      <trkpt lat="47.28442" lon="-1.50391">
        <ele>66</ele>
        <time>2022-02-27T12:14:31Z</time>
      </trkpt>
      <trkpt lat="47.28435" lon="-1.50404">
        <ele>66</ele>
        <time>2022-02-27T12:14:33Z</time>
      </trkpt>
      <trkpt lat="47.28428" lon="-1.50417">
        <ele>65</ele>
        <time>2022-02-27T12:14:35Z</time>
      </trkpt>
      <trkpt lat="47.28421" lon="-1.5043">
        <ele>66</ele>
        <time>2022-02-27T12:14:37Z</time>
      </trkpt>
      <trkpt lat="47.28414" lon="-1.50444">
        <ele>66</ele>
        <time>2022-02-27T12:14:39Z</time>
      </trkpt>
      <trkpt lat="47.28407" lon="-1.50458">
        <ele>65</ele>
        <time>2022-02-27T12:14:41Z</time>
      </trkpt>
      <trkpt lat="47.284" lon="-1.50471">
        <ele>65</ele>
        <time>2022-02-27T12:14:43Z</time>
      </trkpt>
      <trkpt lat="47.28393" lon="-1.50484">
        <ele>65</ele>
        <time>2022-02-27T12:14:45Z</time>
      </trkpt>
      <trkpt lat="47.28385" lon="-1.50496">
        <ele>65</ele>
        <time>2022-02-27T12:14:47Z</time>
      </trkpt>
      <trkpt lat="47.28377" lon="-1.50508">
        <ele>65</ele>
        <time>2022-02-27T12:14:49Z</time>
      </trkpt>
      <trkpt lat="47.28369" lon="-1.5052">
        <ele>65</ele>
        <time>2022-02-27T12:14:51Z</time>
      </trkpt>
      <trkpt lat="47.2836" lon="-1.5053">
        <ele>66</ele>
        <time>2022-02-27T12:14:53Z</time>
      </trkpt>
      <trkpt lat="47.2835" lon="-1.50538">
        <ele>66</ele>
        <time>2022-02-27T12:14:55Z</time>
      </trkpt>
      <trkpt lat="47.2834" lon="-1.50545">
        <ele>66</ele>
        <time>2022-02-27T12:14:57Z</time>
      </trkpt>
      <trkpt lat="47.28331" lon="-1.5055">
        <ele>65</ele>
        <time>2022-02-27T12:14:59Z</time>
      </trkpt>
      <trkpt lat="47.28321" lon="-1.50555">
        <ele>65</ele>
        <time>2022-02-27T12:15:01Z</time>
      </trkpt>
      <trkpt lat="47.28312" lon="-1.50559">
        <ele>66</ele>
        <time>2022-02-27T12:15:03Z</time>
      </trkpt>
      <trkpt lat="47.28303" lon="-1.50564">
        <ele>66</ele>
        <time>2022-02-27T12:15:05Z</time>
      </trkpt>
      <trkpt lat="47.28297" lon="-1.50579">
        <ele>66</ele>
        <time>2022-02-27T12:15:08Z</time>
      </trkpt>
      <trkpt lat="47.28299" lon="-1.50592">
        <ele>66</ele>
        <time>2022-02-27T12:15:10Z</time>
      </trkpt>
      <trkpt lat="47.28297" lon="-1.50607">
        <ele>66</ele>
        <time>2022-02-27T12:15:12Z</time>
      </trkpt>
      <trkpt lat="47.28287" lon="-1.50621">
        <ele>66</ele>
        <time>2022-02-27T12:15:15Z</time>
      </trkpt>
      <trkpt lat="47.28277" lon="-1.50629">
        <ele>67</ele>
        <time>2022-02-27T12:15:17Z</time>
      </trkpt>
      <trkpt lat="47.28267" lon="-1.50637">
        <ele>67</ele>
        <time>2022-02-27T12:15:19Z</time>
      </trkpt>
      <trkpt lat="47.28258" lon="-1.50645">
        <ele>68</ele>
        <time>2022-02-27T12:15:21Z</time>
      </trkpt>
      <trkpt lat="47.28247" lon="-1.50653">
        <ele>68</ele>
        <time>2022-02-27T12:15:23Z</time>
      </trkpt>
      <trkpt lat="47.28237" lon="-1.50661">
        <ele>68</ele>
        <time>2022-02-27T12:15:25Z</time>
      </trkpt>
      <trkpt lat="47.28227" lon="-1.50669">
        <ele>69</ele>
        <time>2022-02-27T12:15:27Z</time>
      </trkpt>
      <trkpt lat="47.28218" lon="-1.50676">
        <ele>69</ele>
        <time>2022-02-27T12:15:29Z</time>
      </trkpt>
      <trkpt lat="47.28207" lon="-1.50682">
        <ele>70</ele>
        <time>2022-02-27T12:15:31Z</time>
      </trkpt>
      <trkpt lat="47.28197" lon="-1.50688">
        <ele>70</ele>
        <time>2022-02-27T12:15:33Z</time>
      </trkpt>
      <trkpt lat="47.28187" lon="-1.50696">
        <ele>70</ele>
        <time>2022-02-27T12:15:35Z</time>
      </trkpt>
      <trkpt lat="47.28176" lon="-1.50703">
        <ele>70</ele>
        <time>2022-02-27T12:15:37Z</time>
      </trkpt>
      <trkpt lat="47.28165" lon="-1.50711">
        <ele>70</ele>
        <time>2022-02-27T12:15:39Z</time>
      </trkpt>
      <trkpt lat="47.28154" lon="-1.50718">
        <ele>70</ele>
        <time>2022-02-27T12:15:41Z</time>
      </trkpt>
      <trkpt lat="47.28142" lon="-1.50726">
        <ele>70</ele>
        <time>2022-02-27T12:15:43Z</time>
      </trkpt>
      <trkpt lat="47.28132" lon="-1.50734">
        <ele>69</ele>
        <time>2022-02-27T12:15:45Z</time>
      </trkpt>
      <trkpt lat="47.28121" lon="-1.50741">
        <ele>69</ele>
        <time>2022-02-27T12:15:47Z</time>
      </trkpt>
      <trkpt lat="47.28112" lon="-1.50748">
        <ele>69</ele>
        <time>2022-02-27T12:15:49Z</time>
      </trkpt>
      <trkpt lat="47.28102" lon="-1.50754">
        <ele>69</ele>
        <time>2022-02-27T12:15:51Z</time>
      </trkpt>
      <trkpt lat="47.28092" lon="-1.50761">
        <ele>69</ele>
        <time>2022-02-27T12:15:53Z</time>
      </trkpt>
      <trkpt lat="47.28082" lon="-1.50769">
        <ele>70</ele>
        <time>2022-02-27T12:15:55Z</time>
      </trkpt>
      <trkpt lat="47.28072" lon="-1.50776">
        <ele>70</ele>
        <time>2022-02-27T12:15:57Z</time>
      </trkpt>
      <trkpt lat="47.28062" lon="-1.50783">
        <ele>70</ele>
        <time>2022-02-27T12:15:59Z</time>
      </trkpt>
      <trkpt lat="47.28052" lon="-1.5079">
        <ele>70</ele>
        <time>2022-02-27T12:16:01Z</time>
      </trkpt>
      <trkpt lat="47.28043" lon="-1.50798">
        <ele>71</ele>
        <time>2022-02-27T12:16:03Z</time>
      </trkpt>
      <trkpt lat="47.28033" lon="-1.50805">
        <ele>71</ele>
        <time>2022-02-27T12:16:05Z</time>
      </trkpt>
      <trkpt lat="47.28024" lon="-1.50813">
        <ele>70</ele>
        <time>2022-02-27T12:16:07Z</time>
      </trkpt>
      <trkpt lat="47.28015" lon="-1.50819">
        <ele>71</ele>
        <time>2022-02-27T12:16:09Z</time>
      </trkpt>
      <trkpt lat="47.28005" lon="-1.50825">
        <ele>71</ele>
        <time>2022-02-27T12:16:11Z</time>
      </trkpt>
      <trkpt lat="47.27996" lon="-1.50833">
        <ele>71</ele>
        <time>2022-02-27T12:16:13Z</time>
      </trkpt>
      <trkpt lat="47.27987" lon="-1.50839">
        <ele>71</ele>
        <time>2022-02-27T12:16:15Z</time>
      </trkpt>
      <trkpt lat="47.27977" lon="-1.50847">
        <ele>71</ele>
        <time>2022-02-27T12:16:17Z</time>
      </trkpt>
      <trkpt lat="47.27966" lon="-1.50854">
        <ele>71</ele>
        <time>2022-02-27T12:16:19Z</time>
      </trkpt>
      <trkpt lat="47.27955" lon="-1.5086">
        <ele>71</ele>
        <time>2022-02-27T12:16:21Z</time>
      </trkpt>
      <trkpt lat="47.27945" lon="-1.50866">
        <ele>71</ele>
        <time>2022-02-27T12:16:23Z</time>
      </trkpt>
      <trkpt lat="47.27935" lon="-1.50872">
        <ele>72</ele>
        <time>2022-02-27T12:16:25Z</time>
      </trkpt>
      <trkpt lat="47.27925" lon="-1.50878">
        <ele>71</ele>
        <time>2022-02-27T12:16:27Z</time>
      </trkpt>
      <trkpt lat="47.27915" lon="-1.50883">
        <ele>71</ele>
        <time>2022-02-27T12:16:29Z</time>
      </trkpt>
      <trkpt lat="47.27904" lon="-1.50888">
        <ele>71</ele>
        <time>2022-02-27T12:16:31Z</time>
      </trkpt>
      <trkpt lat="47.27893" lon="-1.50892">
        <ele>72</ele>
        <time>2022-02-27T12:16:33Z</time>
      </trkpt>
      <trkpt lat="47.27883" lon="-1.50894">
        <ele>72</ele>
        <time>2022-02-27T12:16:35Z</time>
      </trkpt>
      <trkpt lat="47.27872" lon="-1.50898">
        <ele>72</ele>
        <time>2022-02-27T12:16:37Z</time>
      </trkpt>
      <trkpt lat="47.27862" lon="-1.50901">
        <ele>73</ele>
        <time>2022-02-27T12:16:39Z</time>
      </trkpt>
      <trkpt lat="47.27851" lon="-1.50904">
        <ele>72</ele>
        <time>2022-02-27T12:16:41Z</time>
      </trkpt>
      <trkpt lat="47.2784" lon="-1.50906">
        <ele>73</ele>
        <time>2022-02-27T12:16:43Z</time>
      </trkpt>
      <trkpt lat="47.27829" lon="-1.5091">
        <ele>73</ele>
        <time>2022-02-27T12:16:45Z</time>
      </trkpt>
      <trkpt lat="47.27818" lon="-1.50913">
        <ele>73</ele>
        <time>2022-02-27T12:16:47Z</time>
      </trkpt>
      <trkpt lat="47.27807" lon="-1.50917">
        <ele>73</ele>
        <time>2022-02-27T12:16:49Z</time>
      </trkpt>
      <trkpt lat="47.27796" lon="-1.50921">
        <ele>73</ele>
        <time>2022-02-27T12:16:51Z</time>
      </trkpt>
      <trkpt lat="47.27785" lon="-1.50924">
        <ele>73</ele>
        <time>2022-02-27T12:16:53Z</time>
      </trkpt>
      <trkpt lat="47.27773" lon="-1.50928">
        <ele>72</ele>
        <time>2022-02-27T12:16:55Z</time>
      </trkpt>
      <trkpt lat="47.27762" lon="-1.50931">
        <ele>72</ele>
        <time>2022-02-27T12:16:57Z</time>
      </trkpt>
      <trkpt lat="47.2775" lon="-1.50934">
        <ele>72</ele>
        <time>2022-02-27T12:16:59Z</time>
      </trkpt>
      <trkpt lat="47.27738" lon="-1.50937">
        <ele>72</ele>
        <time>2022-02-27T12:17:01Z</time>
      </trkpt>
      <trkpt lat="47.27727" lon="-1.50941">
        <ele>72</ele>
        <time>2022-02-27T12:17:03Z</time>
      </trkpt>
      <trkpt lat="47.27715" lon="-1.50944">
        <ele>72</ele>
        <time>2022-02-27T12:17:05Z</time>
      </trkpt>
      <trkpt lat="47.27704" lon="-1.50948">
        <ele>72</ele>
        <time>2022-02-27T12:17:07Z</time>
      </trkpt>
      <trkpt lat="47.27693" lon="-1.50951">
        <ele>71</ele>
        <time>2022-02-27T12:17:09Z</time>
      </trkpt>
      <trkpt lat="47.27682" lon="-1.50952">
        <ele>72</ele>
        <time>2022-02-27T12:17:11Z</time>
      </trkpt>
      <trkpt lat="47.27671" lon="-1.50955">
        <ele>72</ele>
        <time>2022-02-27T12:17:13Z</time>
      </trkpt>
      <trkpt lat="47.27659" lon="-1.50956">
        <ele>73</ele>
        <time>2022-02-27T12:17:15Z</time>
      </trkpt>
      <trkpt lat="47.27648" lon="-1.50956">
        <ele>73</ele>
        <time>2022-02-27T12:17:17Z</time>
      </trkpt>
      <trkpt lat="47.27635" lon="-1.50956">
        <ele>73</ele>
        <time>2022-02-27T12:17:19Z</time>
      </trkpt>
      <trkpt lat="47.27624" lon="-1.50956">
        <ele>72</ele>
        <time>2022-02-27T12:17:21Z</time>
      </trkpt>
      <trkpt lat="47.27613" lon="-1.50957">
        <ele>72</ele>
        <time>2022-02-27T12:17:23Z</time>
      </trkpt>
      <trkpt lat="47.27601" lon="-1.50957">
        <ele>73</ele>
        <time>2022-02-27T12:17:25Z</time>
      </trkpt>
      <trkpt lat="47.2759" lon="-1.50957">
        <ele>73</ele>
        <time>2022-02-27T12:17:27Z</time>
      </trkpt>
      <trkpt lat="47.27578" lon="-1.50958">
        <ele>73</ele>
        <time>2022-02-27T12:17:29Z</time>
      </trkpt>
      <trkpt lat="47.27568" lon="-1.50958">
        <ele>73</ele>
        <time>2022-02-27T12:17:31Z</time>
      </trkpt>
      <trkpt lat="47.27558" lon="-1.50958">
        <ele>74</ele>
        <time>2022-02-27T12:17:33Z</time>
      </trkpt>
      <trkpt lat="47.27548" lon="-1.50962">
        <ele>74</ele>
        <time>2022-02-27T12:17:35Z</time>
      </trkpt>
      <trkpt lat="47.27538" lon="-1.50967">
        <ele>73</ele>
        <time>2022-02-27T12:17:37Z</time>
      </trkpt>
      <trkpt lat="47.27526" lon="-1.50969">
        <ele>73</ele>
        <time>2022-02-27T12:17:39Z</time>
      </trkpt>
      <trkpt lat="47.27514" lon="-1.50971">
        <ele>73</ele>
        <time>2022-02-27T12:17:41Z</time>
      </trkpt>
      <trkpt lat="47.27502" lon="-1.50975">
        <ele>73</ele>
        <time>2022-02-27T12:17:43Z</time>
      </trkpt>
      <trkpt lat="47.2749" lon="-1.50976">
        <ele>73</ele>
        <time>2022-02-27T12:17:45Z</time>
      </trkpt>
      <trkpt lat="47.27478" lon="-1.50973">
        <ele>73</ele>
        <time>2022-02-27T12:17:47Z</time>
      </trkpt>
      <trkpt lat="47.27467" lon="-1.5097">
        <ele>73</ele>
        <time>2022-02-27T12:17:49Z</time>
      </trkpt>
      <trkpt lat="47.27455" lon="-1.50971">
        <ele>73</ele>
        <time>2022-02-27T12:17:51Z</time>
      </trkpt>
      <trkpt lat="47.27443" lon="-1.50972">
        <ele>73</ele>
        <time>2022-02-27T12:17:53Z</time>
      </trkpt>
      <trkpt lat="47.27433" lon="-1.50972">
        <ele>73</ele>
        <time>2022-02-27T12:17:55Z</time>
      </trkpt>
      <trkpt lat="47.27421" lon="-1.50972">
        <ele>74</ele>
        <time>2022-02-27T12:17:57Z</time>
      </trkpt>
      <trkpt lat="47.27407" lon="-1.50974">
        <ele>74</ele>
        <time>2022-02-27T12:17:59Z</time>
      </trkpt>
      <trkpt lat="47.27395" lon="-1.50975">
        <ele>74</ele>
        <time>2022-02-27T12:18:01Z</time>
      </trkpt>
      <trkpt lat="47.27382" lon="-1.50976">
        <ele>73</ele>
        <time>2022-02-27T12:18:03Z</time>
      </trkpt>
      <trkpt lat="47.27371" lon="-1.50976">
        <ele>73</ele>
        <time>2022-02-27T12:18:05Z</time>
      </trkpt>
      <trkpt lat="47.27358" lon="-1.50977">
        <ele>73</ele>
        <time>2022-02-27T12:18:07Z</time>
      </trkpt>
      <trkpt lat="47.27347" lon="-1.50976">
        <ele>73</ele>
        <time>2022-02-27T12:18:09Z</time>
      </trkpt>
      <trkpt lat="47.27334" lon="-1.50977">
        <ele>73</ele>
        <time>2022-02-27T12:18:11Z</time>
      </trkpt>
      <trkpt lat="47.27321" lon="-1.50977">
        <ele>72</ele>
        <time>2022-02-27T12:18:13Z</time>
      </trkpt>
      <trkpt lat="47.27309" lon="-1.50977">
        <ele>73</ele>
        <time>2022-02-27T12:18:15Z</time>
      </trkpt>
      <trkpt lat="47.27297" lon="-1.50977">
        <ele>72</ele>
        <time>2022-02-27T12:18:17Z</time>
      </trkpt>
      <trkpt lat="47.27286" lon="-1.50977">
        <ele>72</ele>
        <time>2022-02-27T12:18:19Z</time>
      </trkpt>
      <trkpt lat="47.27275" lon="-1.50978">
        <ele>72</ele>
        <time>2022-02-27T12:18:21Z</time>
      </trkpt>
      <trkpt lat="47.27264" lon="-1.50979">
        <ele>72</ele>
        <time>2022-02-27T12:18:23Z</time>
      </trkpt>
      <trkpt lat="47.27251" lon="-1.50981">
        <ele>72</ele>
        <time>2022-02-27T12:18:25Z</time>
      </trkpt>
      <trkpt lat="47.2724" lon="-1.50984">
        <ele>72</ele>
        <time>2022-02-27T12:18:27Z</time>
      </trkpt>
      <trkpt lat="47.27228" lon="-1.50989">
        <ele>71</ele>
        <time>2022-02-27T12:18:29Z</time>
      </trkpt>
      <trkpt lat="47.27216" lon="-1.50995">
        <ele>71</ele>
        <time>2022-02-27T12:18:31Z</time>
      </trkpt>
      <trkpt lat="47.27205" lon="-1.51001">
        <ele>71</ele>
        <time>2022-02-27T12:18:33Z</time>
      </trkpt>
      <trkpt lat="47.27193" lon="-1.51009">
        <ele>71</ele>
        <time>2022-02-27T12:18:35Z</time>
      </trkpt>
      <trkpt lat="47.27182" lon="-1.51016">
        <ele>71</ele>
        <time>2022-02-27T12:18:37Z</time>
      </trkpt>
      <trkpt lat="47.27171" lon="-1.51023">
        <ele>71</ele>
        <time>2022-02-27T12:18:39Z</time>
      </trkpt>
      <trkpt lat="47.2716" lon="-1.51031">
        <ele>71</ele>
        <time>2022-02-27T12:18:41Z</time>
      </trkpt>
      <trkpt lat="47.27149" lon="-1.51038">
        <ele>71</ele>
        <time>2022-02-27T12:18:43Z</time>
      </trkpt>
      <trkpt lat="47.27138" lon="-1.51046">
        <ele>71</ele>
        <time>2022-02-27T12:18:45Z</time>
      </trkpt>
      <trkpt lat="47.27127" lon="-1.51053">
        <ele>71</ele>
        <time>2022-02-27T12:18:47Z</time>
      </trkpt>
      <trkpt lat="47.27117" lon="-1.5106">
        <ele>71</ele>
        <time>2022-02-27T12:18:49Z</time>
      </trkpt>
      <trkpt lat="47.27106" lon="-1.51067">
        <ele>71</ele>
        <time>2022-02-27T12:18:51Z</time>
      </trkpt>
      <trkpt lat="47.27094" lon="-1.51074">
        <ele>71</ele>
        <time>2022-02-27T12:18:53Z</time>
      </trkpt>
      <trkpt lat="47.27082" lon="-1.51082">
        <ele>71</ele>
        <time>2022-02-27T12:18:55Z</time>
      </trkpt>
      <trkpt lat="47.27071" lon="-1.51089">
        <ele>72</ele>
        <time>2022-02-27T12:18:57Z</time>
      </trkpt>
      <trkpt lat="47.27061" lon="-1.51097">
        <ele>71</ele>
        <time>2022-02-27T12:18:59Z</time>
      </trkpt>
      <trkpt lat="47.2705" lon="-1.51104">
        <ele>72</ele>
        <time>2022-02-27T12:19:01Z</time>
      </trkpt>
      <trkpt lat="47.27039" lon="-1.51111">
        <ele>72</ele>
        <time>2022-02-27T12:19:03Z</time>
      </trkpt>
      <trkpt lat="47.27029" lon="-1.51117">
        <ele>72</ele>
        <time>2022-02-27T12:19:05Z</time>
      </trkpt>
      <trkpt lat="47.27019" lon="-1.51124">
        <ele>72</ele>
        <time>2022-02-27T12:19:07Z</time>
      </trkpt>
      <trkpt lat="47.27009" lon="-1.51131">
        <ele>71</ele>
        <time>2022-02-27T12:19:09Z</time>
      </trkpt>
      <trkpt lat="47.26999" lon="-1.51139">
        <ele>71</ele>
        <time>2022-02-27T12:19:11Z</time>
      </trkpt>
      <trkpt lat="47.26988" lon="-1.51146">
        <ele>71</ele>
        <time>2022-02-27T12:19:13Z</time>
      </trkpt>
      <trkpt lat="47.26978" lon="-1.51152">
        <ele>71</ele>
        <time>2022-02-27T12:19:15Z</time>
      </trkpt>
      <trkpt lat="47.26969" lon="-1.5116">
        <ele>72</ele>
        <time>2022-02-27T12:19:17Z</time>
      </trkpt>
      <trkpt lat="47.2696" lon="-1.51166">
        <ele>72</ele>
        <time>2022-02-27T12:19:19Z</time>
      </trkpt>
      <trkpt lat="47.26952" lon="-1.51172">
        <ele>72</ele>
        <time>2022-02-27T12:19:21Z</time>
      </trkpt>
      <trkpt lat="47.26943" lon="-1.51178">
        <ele>72</ele>
        <time>2022-02-27T12:19:23Z</time>
      </trkpt>
      <trkpt lat="47.26933" lon="-1.51185">
        <ele>72</ele>
        <time>2022-02-27T12:19:25Z</time>
      </trkpt>
      <trkpt lat="47.26922" lon="-1.51192">
        <ele>72</ele>
        <time>2022-02-27T12:19:27Z</time>
      </trkpt>
      <trkpt lat="47.26913" lon="-1.51199">
        <ele>72</ele>
        <time>2022-02-27T12:19:29Z</time>
      </trkpt>
      <trkpt lat="47.26903" lon="-1.51206">
        <ele>72</ele>
        <time>2022-02-27T12:19:31Z</time>
      </trkpt>
      <trkpt lat="47.26893" lon="-1.51213">
        <ele>72</ele>
        <time>2022-02-27T12:19:33Z</time>
      </trkpt>
      <trkpt lat="47.26881" lon="-1.5122">
        <ele>72</ele>
        <time>2022-02-27T12:19:35Z</time>
      </trkpt>
      <trkpt lat="47.26871" lon="-1.51226">
        <ele>72</ele>
        <time>2022-02-27T12:19:37Z</time>
      </trkpt>
      <trkpt lat="47.26861" lon="-1.51232">
        <ele>72</ele>
        <time>2022-02-27T12:19:39Z</time>
      </trkpt>
      <trkpt lat="47.2685" lon="-1.51239">
        <ele>71</ele>
        <time>2022-02-27T12:19:41Z</time>
      </trkpt>
      <trkpt lat="47.2684" lon="-1.51245">
        <ele>72</ele>
        <time>2022-02-27T12:19:43Z</time>
      </trkpt>
      <trkpt lat="47.2683" lon="-1.51252">
        <ele>71</ele>
        <time>2022-02-27T12:19:45Z</time>
      </trkpt>
      <trkpt lat="47.26819" lon="-1.51259">
        <ele>71</ele>
        <time>2022-02-27T12:19:47Z</time>
      </trkpt>
      <trkpt lat="47.26809" lon="-1.51265">
        <ele>71</ele>
        <time>2022-02-27T12:19:49Z</time>
      </trkpt>
      <trkpt lat="47.26799" lon="-1.5127">
        <ele>72</ele>
        <time>2022-02-27T12:19:51Z</time>
      </trkpt>
      <trkpt lat="47.2679" lon="-1.51276">
        <ele>72</ele>
        <time>2022-02-27T12:19:53Z</time>
      </trkpt>
      <trkpt lat="47.26781" lon="-1.51282">
        <ele>72</ele>
        <time>2022-02-27T12:19:55Z</time>
      </trkpt>
      <trkpt lat="47.26771" lon="-1.51288">
        <ele>72</ele>
        <time>2022-02-27T12:19:57Z</time>
      </trkpt>
      <trkpt lat="47.26761" lon="-1.51295">
        <ele>73</ele>
        <time>2022-02-27T12:19:59Z</time>
      </trkpt>
      <trkpt lat="47.26751" lon="-1.51302">
        <ele>72</ele>
        <time>2022-02-27T12:20:01Z</time>
      </trkpt>
      <trkpt lat="47.26741" lon="-1.51309">
        <ele>73</ele>
        <time>2022-02-27T12:20:03Z</time>
      </trkpt>
      <trkpt lat="47.26731" lon="-1.51316">
        <ele>73</ele>
        <time>2022-02-27T12:20:05Z</time>
      </trkpt>
      <trkpt lat="47.26721" lon="-1.51323">
        <ele>73</ele>
        <time>2022-02-27T12:20:07Z</time>
      </trkpt>
      <trkpt lat="47.26711" lon="-1.51329">
        <ele>73</ele>
        <time>2022-02-27T12:20:09Z</time>
      </trkpt>
      <trkpt lat="47.26701" lon="-1.51335">
        <ele>73</ele>
        <time>2022-02-27T12:20:11Z</time>
      </trkpt>
      <trkpt lat="47.26691" lon="-1.51343">
        <ele>72</ele>
        <time>2022-02-27T12:20:13Z</time>
      </trkpt>
      <trkpt lat="47.26681" lon="-1.5135">
        <ele>72</ele>
        <time>2022-02-27T12:20:15Z</time>
      </trkpt>
      <trkpt lat="47.26671" lon="-1.51356">
        <ele>72</ele>
        <time>2022-02-27T12:20:17Z</time>
      </trkpt>
      <trkpt lat="47.26661" lon="-1.51363">
        <ele>72</ele>
        <time>2022-02-27T12:20:19Z</time>
      </trkpt>
      <trkpt lat="47.26652" lon="-1.51372">
        <ele>71</ele>
        <time>2022-02-27T12:20:21Z</time>
      </trkpt>
      <trkpt lat="47.26642" lon="-1.51378">
        <ele>71</ele>
        <time>2022-02-27T12:20:23Z</time>
      </trkpt>
      <trkpt lat="47.26632" lon="-1.51385">
        <ele>71</ele>
        <time>2022-02-27T12:20:25Z</time>
      </trkpt>
      <trkpt lat="47.26621" lon="-1.51391">
        <ele>71</ele>
        <time>2022-02-27T12:20:27Z</time>
      </trkpt>
      <trkpt lat="47.26611" lon="-1.51398">
        <ele>72</ele>
        <time>2022-02-27T12:20:29Z</time>
      </trkpt>
      <trkpt lat="47.26601" lon="-1.51405">
        <ele>72</ele>
        <time>2022-02-27T12:20:31Z</time>
      </trkpt>
      <trkpt lat="47.2659" lon="-1.51412">
        <ele>72</ele>
        <time>2022-02-27T12:20:33Z</time>
      </trkpt>
      <trkpt lat="47.26581" lon="-1.51418">
        <ele>72</ele>
        <time>2022-02-27T12:20:35Z</time>
      </trkpt>
      <trkpt lat="47.26571" lon="-1.51425">
        <ele>72</ele>
        <time>2022-02-27T12:20:37Z</time>
      </trkpt>
      <trkpt lat="47.26561" lon="-1.51433">
        <ele>73</ele>
        <time>2022-02-27T12:20:39Z</time>
      </trkpt>
      <trkpt lat="47.26551" lon="-1.51439">
        <ele>73</ele>
        <time>2022-02-27T12:20:41Z</time>
      </trkpt>
      <trkpt lat="47.26542" lon="-1.51445">
        <ele>73</ele>
        <time>2022-02-27T12:20:43Z</time>
      </trkpt>
      <trkpt lat="47.26532" lon="-1.51452">
        <ele>74</ele>
        <time>2022-02-27T12:20:45Z</time>
      </trkpt>
      <trkpt lat="47.26523" lon="-1.51459">
        <ele>74</ele>
        <time>2022-02-27T12:20:47Z</time>
      </trkpt>
      <trkpt lat="47.26513" lon="-1.51467">
        <ele>74</ele>
        <time>2022-02-27T12:20:49Z</time>
      </trkpt>
      <trkpt lat="47.26503" lon="-1.51473">
        <ele>75</ele>
        <time>2022-02-27T12:20:51Z</time>
      </trkpt>
      <trkpt lat="47.26493" lon="-1.5148">
        <ele>74</ele>
        <time>2022-02-27T12:20:53Z</time>
      </trkpt>
      <trkpt lat="47.26483" lon="-1.51487">
        <ele>74</ele>
        <time>2022-02-27T12:20:55Z</time>
      </trkpt>
      <trkpt lat="47.26472" lon="-1.51495">
        <ele>74</ele>
        <time>2022-02-27T12:20:57Z</time>
      </trkpt>
      <trkpt lat="47.26462" lon="-1.51502">
        <ele>74</ele>
        <time>2022-02-27T12:20:59Z</time>
      </trkpt>
      <trkpt lat="47.26451" lon="-1.5151">
        <ele>73</ele>
        <time>2022-02-27T12:21:01Z</time>
      </trkpt>
      <trkpt lat="47.2644" lon="-1.51518">
        <ele>72</ele>
        <time>2022-02-27T12:21:03Z</time>
      </trkpt>
      <trkpt lat="47.26429" lon="-1.51526">
        <ele>72</ele>
        <time>2022-02-27T12:21:05Z</time>
      </trkpt>
      <trkpt lat="47.26418" lon="-1.51533">
        <ele>72</ele>
        <time>2022-02-27T12:21:07Z</time>
      </trkpt>
      <trkpt lat="47.26407" lon="-1.51541">
        <ele>72</ele>
        <time>2022-02-27T12:21:09Z</time>
      </trkpt>
      <trkpt lat="47.26397" lon="-1.51548">
        <ele>72</ele>
        <time>2022-02-27T12:21:11Z</time>
      </trkpt>
      <trkpt lat="47.26387" lon="-1.51555">
        <ele>72</ele>
        <time>2022-02-27T12:21:13Z</time>
      </trkpt>
      <trkpt lat="47.26376" lon="-1.51561">
        <ele>72</ele>
        <time>2022-02-27T12:21:15Z</time>
      </trkpt>
      <trkpt lat="47.26366" lon="-1.51568">
        <ele>72</ele>
        <time>2022-02-27T12:21:17Z</time>
      </trkpt>
      <trkpt lat="47.26356" lon="-1.51576">
        <ele>71</ele>
        <time>2022-02-27T12:21:19Z</time>
      </trkpt>
      <trkpt lat="47.26347" lon="-1.51584">
        <ele>71</ele>
        <time>2022-02-27T12:21:21Z</time>
      </trkpt>
      <trkpt lat="47.26338" lon="-1.51595">
        <ele>71</ele>
        <time>2022-02-27T12:21:23Z</time>
      </trkpt>
      <trkpt lat="47.26328" lon="-1.51603">
        <ele>70</ele>
        <time>2022-02-27T12:21:25Z</time>
      </trkpt>
      <trkpt lat="47.26317" lon="-1.51612">
        <ele>70</ele>
        <time>2022-02-27T12:21:27Z</time>
      </trkpt>
      <trkpt lat="47.26306" lon="-1.51619">
        <ele>71</ele>
        <time>2022-02-27T12:21:29Z</time>
      </trkpt>
      <trkpt lat="47.26294" lon="-1.51626">
        <ele>70</ele>
        <time>2022-02-27T12:21:31Z</time>
      </trkpt>
      <trkpt lat="47.26284" lon="-1.51634">
        <ele>70</ele>
        <time>2022-02-27T12:21:33Z</time>
      </trkpt>
      <trkpt lat="47.26274" lon="-1.5164">
        <ele>70</ele>
        <time>2022-02-27T12:21:35Z</time>
      </trkpt>
      <trkpt lat="47.26263" lon="-1.51646">
        <ele>70</ele>
        <time>2022-02-27T12:21:37Z</time>
      </trkpt>
      <trkpt lat="47.26251" lon="-1.51651">
        <ele>70</ele>
        <time>2022-02-27T12:21:39Z</time>
      </trkpt>
      <trkpt lat="47.26241" lon="-1.51657">
        <ele>70</ele>
        <time>2022-02-27T12:21:41Z</time>
      </trkpt>
      <trkpt lat="47.26231" lon="-1.51661">
        <ele>70</ele>
        <time>2022-02-27T12:21:43Z</time>
      </trkpt>
      <trkpt lat="47.26221" lon="-1.51668">
        <ele>71</ele>
        <time>2022-02-27T12:21:45Z</time>
      </trkpt>
      <trkpt lat="47.26211" lon="-1.51676">
        <ele>71</ele>
        <time>2022-02-27T12:21:47Z</time>
      </trkpt>
      <trkpt lat="47.26201" lon="-1.51682">
        <ele>73</ele>
        <time>2022-02-27T12:21:49Z</time>
      </trkpt>
      <trkpt lat="47.26191" lon="-1.51689">
        <ele>73</ele>
        <time>2022-02-27T12:21:51Z</time>
      </trkpt>
      <trkpt lat="47.26182" lon="-1.51694">
        <ele>74</ele>
        <time>2022-02-27T12:21:53Z</time>
      </trkpt>
      <trkpt lat="47.26173" lon="-1.517">
        <ele>74</ele>
        <time>2022-02-27T12:21:55Z</time>
      </trkpt>
      <trkpt lat="47.26164" lon="-1.51708">
        <ele>75</ele>
        <time>2022-02-27T12:21:57Z</time>
      </trkpt>
      <trkpt lat="47.26155" lon="-1.51715">
        <ele>75</ele>
        <time>2022-02-27T12:21:59Z</time>
      </trkpt>
      <trkpt lat="47.26146" lon="-1.51721">
        <ele>75</ele>
        <time>2022-02-27T12:22:01Z</time>
      </trkpt>
      <trkpt lat="47.26137" lon="-1.51729">
        <ele>74</ele>
        <time>2022-02-27T12:22:03Z</time>
      </trkpt>
      <trkpt lat="47.26128" lon="-1.51736">
        <ele>73</ele>
        <time>2022-02-27T12:22:05Z</time>
      </trkpt>
      <trkpt lat="47.26119" lon="-1.51742">
        <ele>74</ele>
        <time>2022-02-27T12:22:07Z</time>
      </trkpt>
      <trkpt lat="47.26109" lon="-1.51749">
        <ele>74</ele>
        <time>2022-02-27T12:22:09Z</time>
      </trkpt>
      <trkpt lat="47.26099" lon="-1.51755">
        <ele>74</ele>
        <time>2022-02-27T12:22:11Z</time>
      </trkpt>
      <trkpt lat="47.26088" lon="-1.5176">
        <ele>74</ele>
        <time>2022-02-27T12:22:13Z</time>
      </trkpt>
      <trkpt lat="47.26079" lon="-1.51767">
        <ele>75</ele>
        <time>2022-02-27T12:22:15Z</time>
      </trkpt>
      <trkpt lat="47.2607" lon="-1.51775">
        <ele>75</ele>
        <time>2022-02-27T12:22:17Z</time>
      </trkpt>
      <trkpt lat="47.26062" lon="-1.51783">
        <ele>76</ele>
        <time>2022-02-27T12:22:19Z</time>
      </trkpt>
      <trkpt lat="47.26053" lon="-1.51792">
        <ele>76</ele>
        <time>2022-02-27T12:22:21Z</time>
      </trkpt>
      <trkpt lat="47.26044" lon="-1.518">
        <ele>76</ele>
        <time>2022-02-27T12:22:23Z</time>
      </trkpt>
      <trkpt lat="47.26034" lon="-1.51808">
        <ele>76</ele>
        <time>2022-02-27T12:22:25Z</time>
      </trkpt>
      <trkpt lat="47.26026" lon="-1.51815">
        <ele>76</ele>
        <time>2022-02-27T12:22:27Z</time>
      </trkpt>
      <trkpt lat="47.26017" lon="-1.51822">
        <ele>77</ele>
        <time>2022-02-27T12:22:29Z</time>
      </trkpt>
      <trkpt lat="47.26008" lon="-1.5183">
        <ele>77</ele>
        <time>2022-02-27T12:22:31Z</time>
      </trkpt>
      <trkpt lat="47.26" lon="-1.51838">
        <ele>77</ele>
        <time>2022-02-27T12:22:33Z</time>
      </trkpt>
      <trkpt lat="47.25991" lon="-1.51846">
        <ele>77</ele>
        <time>2022-02-27T12:22:35Z</time>
      </trkpt>
      <trkpt lat="47.25982" lon="-1.51853">
        <ele>77</ele>
        <time>2022-02-27T12:22:37Z</time>
      </trkpt>
      <trkpt lat="47.25975" lon="-1.51862">
        <ele>78</ele>
        <time>2022-02-27T12:22:39Z</time>
      </trkpt>
      <trkpt lat="47.25967" lon="-1.51871">
        <ele>78</ele>
        <time>2022-02-27T12:22:41Z</time>
      </trkpt>
      <trkpt lat="47.25959" lon="-1.51879">
        <ele>78</ele>
        <time>2022-02-27T12:22:43Z</time>
      </trkpt>
      <trkpt lat="47.25951" lon="-1.51887">
        <ele>78</ele>
        <time>2022-02-27T12:22:45Z</time>
      </trkpt>
      <trkpt lat="47.25942" lon="-1.51896">
        <ele>78</ele>
        <time>2022-02-27T12:22:47Z</time>
      </trkpt>
      <trkpt lat="47.25934" lon="-1.51903">
        <ele>79</ele>
        <time>2022-02-27T12:22:49Z</time>
      </trkpt>
      <trkpt lat="47.25925" lon="-1.51911">
        <ele>78</ele>
        <time>2022-02-27T12:22:51Z</time>
      </trkpt>
      <trkpt lat="47.25916" lon="-1.51919">
        <ele>79</ele>
        <time>2022-02-27T12:22:53Z</time>
      </trkpt>
      <trkpt lat="47.25908" lon="-1.51928">
        <ele>79</ele>
        <time>2022-02-27T12:22:55Z</time>
      </trkpt>
      <trkpt lat="47.259" lon="-1.51936">
        <ele>79</ele>
        <time>2022-02-27T12:22:57Z</time>
      </trkpt>
      <trkpt lat="47.25891" lon="-1.51944">
        <ele>79</ele>
        <time>2022-02-27T12:22:59Z</time>
      </trkpt>
      <trkpt lat="47.25884" lon="-1.51953">
        <ele>78</ele>
        <time>2022-02-27T12:23:01Z</time>
      </trkpt>
      <trkpt lat="47.25877" lon="-1.51965">
        <ele>79</ele>
        <time>2022-02-27T12:23:05Z</time>
      </trkpt>
      <trkpt lat="47.25875" lon="-1.51983">
        <ele>79</ele>
        <time>2022-02-27T12:23:08Z</time>
      </trkpt>
      <trkpt lat="47.25876" lon="-1.51998">
        <ele>79</ele>
        <time>2022-02-27T12:23:10Z</time>
      </trkpt>
      <trkpt lat="47.25878" lon="-1.52012">
        <ele>80</ele>
        <time>2022-02-27T12:23:12Z</time>
      </trkpt>
      <trkpt lat="47.25879" lon="-1.52026">
        <ele>80</ele>
        <time>2022-02-27T12:23:14Z</time>
      </trkpt>
      <trkpt lat="47.25881" lon="-1.52043">
        <ele>80</ele>
        <time>2022-02-27T12:23:16Z</time>
      </trkpt>
      <trkpt lat="47.25883" lon="-1.5207">
        <ele>79</ele>
        <time>2022-02-27T12:23:19Z</time>
      </trkpt>
      <trkpt lat="47.25884" lon="-1.52086">
        <ele>78</ele>
        <time>2022-02-27T12:23:21Z</time>
      </trkpt>
      <trkpt lat="47.25886" lon="-1.52105">
        <ele>78</ele>
        <time>2022-02-27T12:23:23Z</time>
      </trkpt>
      <trkpt lat="47.25886" lon="-1.52123">
        <ele>78</ele>
        <time>2022-02-27T12:23:25Z</time>
      </trkpt>
      <trkpt lat="47.25887" lon="-1.52141">
        <ele>78</ele>
        <time>2022-02-27T12:23:27Z</time>
      </trkpt>
      <trkpt lat="47.25888" lon="-1.52161">
        <ele>77</ele>
        <time>2022-02-27T12:23:29Z</time>
      </trkpt>
      <trkpt lat="47.25889" lon="-1.5218">
        <ele>76</ele>
        <time>2022-02-27T12:23:31Z</time>
      </trkpt>
      <trkpt lat="47.2589" lon="-1.52201">
        <ele>75</ele>
        <time>2022-02-27T12:23:33Z</time>
      </trkpt>
      <trkpt lat="47.25891" lon="-1.52223">
        <ele>74</ele>
        <time>2022-02-27T12:23:35Z</time>
      </trkpt>
      <trkpt lat="47.25892" lon="-1.52244">
        <ele>74</ele>
        <time>2022-02-27T12:23:37Z</time>
      </trkpt>
      <trkpt lat="47.25893" lon="-1.52265">
        <ele>75</ele>
        <time>2022-02-27T12:23:39Z</time>
      </trkpt>
      <trkpt lat="47.25893" lon="-1.52287">
        <ele>74</ele>
        <time>2022-02-27T12:23:41Z</time>
      </trkpt>
      <trkpt lat="47.25894" lon="-1.52309">
        <ele>74</ele>
        <time>2022-02-27T12:23:43Z</time>
      </trkpt>
      <trkpt lat="47.25895" lon="-1.52332">
        <ele>73</ele>
        <time>2022-02-27T12:23:45Z</time>
      </trkpt>
      <trkpt lat="47.25895" lon="-1.52354">
        <ele>73</ele>
        <time>2022-02-27T12:23:47Z</time>
      </trkpt>
      <trkpt lat="47.25894" lon="-1.52376">
        <ele>73</ele>
        <time>2022-02-27T12:23:49Z</time>
      </trkpt>
      <trkpt lat="47.25894" lon="-1.52399">
        <ele>72</ele>
        <time>2022-02-27T12:23:51Z</time>
      </trkpt>
      <trkpt lat="47.25894" lon="-1.52421">
        <ele>71</ele>
        <time>2022-02-27T12:23:53Z</time>
      </trkpt>
      <trkpt lat="47.25894" lon="-1.52442">
        <ele>69</ele>
        <time>2022-02-27T12:23:55Z</time>
      </trkpt>
      <trkpt lat="47.25895" lon="-1.52463">
        <ele>69</ele>
        <time>2022-02-27T12:23:57Z</time>
      </trkpt>
      <trkpt lat="47.25895" lon="-1.52483">
        <ele>70</ele>
        <time>2022-02-27T12:23:59Z</time>
      </trkpt>
      <trkpt lat="47.25896" lon="-1.52504">
        <ele>70</ele>
        <time>2022-02-27T12:24:01Z</time>
      </trkpt>
      <trkpt lat="47.25897" lon="-1.52526">
        <ele>69</ele>
        <time>2022-02-27T12:24:03Z</time>
      </trkpt>
      <trkpt lat="47.25897" lon="-1.52549">
        <ele>68</ele>
        <time>2022-02-27T12:24:05Z</time>
      </trkpt>
      <trkpt lat="47.25896" lon="-1.52573">
        <ele>68</ele>
        <time>2022-02-27T12:24:07Z</time>
      </trkpt>
      <trkpt lat="47.25896" lon="-1.52595">
        <ele>68</ele>
        <time>2022-02-27T12:24:09Z</time>
      </trkpt>
      <trkpt lat="47.25897" lon="-1.52616">
        <ele>68</ele>
        <time>2022-02-27T12:24:11Z</time>
      </trkpt>
      <trkpt lat="47.25897" lon="-1.52638">
        <ele>68</ele>
        <time>2022-02-27T12:24:13Z</time>
      </trkpt>
      <trkpt lat="47.25897" lon="-1.5266">
        <ele>68</ele>
        <time>2022-02-27T12:24:15Z</time>
      </trkpt>
      <trkpt lat="47.25897" lon="-1.52682">
        <ele>68</ele>
        <time>2022-02-27T12:24:17Z</time>
      </trkpt>
      <trkpt lat="47.25897" lon="-1.52703">
        <ele>67</ele>
        <time>2022-02-27T12:24:19Z</time>
      </trkpt>
      <trkpt lat="47.25898" lon="-1.52724">
        <ele>67</ele>
        <time>2022-02-27T12:24:21Z</time>
      </trkpt>
      <trkpt lat="47.25898" lon="-1.52743">
        <ele>67</ele>
        <time>2022-02-27T12:24:23Z</time>
      </trkpt>
      <trkpt lat="47.25899" lon="-1.5276">
        <ele>67</ele>
        <time>2022-02-27T12:24:25Z</time>
      </trkpt>
      <trkpt lat="47.25904" lon="-1.52776">
        <ele>67</ele>
        <time>2022-02-27T12:24:27Z</time>
      </trkpt>
      <trkpt lat="47.259" lon="-1.52792">
        <ele>66</ele>
        <time>2022-02-27T12:24:29Z</time>
      </trkpt>
      <trkpt lat="47.25888" lon="-1.52798">
        <ele>65</ele>
        <time>2022-02-27T12:24:31Z</time>
      </trkpt>
      <trkpt lat="47.25875" lon="-1.52799">
        <ele>65</ele>
        <time>2022-02-27T12:24:33Z</time>
      </trkpt>
      <trkpt lat="47.25862" lon="-1.52804">
        <ele>65</ele>
        <time>2022-02-27T12:24:35Z</time>
      </trkpt>
      <trkpt lat="47.25851" lon="-1.5281">
        <ele>65</ele>
        <time>2022-02-27T12:24:37Z</time>
      </trkpt>
      <trkpt lat="47.25839" lon="-1.52818">
        <ele>66</ele>
        <time>2022-02-27T12:24:39Z</time>
      </trkpt>
      <trkpt lat="47.25828" lon="-1.52825">
        <ele>65</ele>
        <time>2022-02-27T12:24:41Z</time>
      </trkpt>
      <trkpt lat="47.25816" lon="-1.52833">
        <ele>65</ele>
        <time>2022-02-27T12:24:43Z</time>
      </trkpt>
      <trkpt lat="47.25804" lon="-1.52842">
        <ele>65</ele>
        <time>2022-02-27T12:24:45Z</time>
      </trkpt>
      <trkpt lat="47.25792" lon="-1.52852">
        <ele>64</ele>
        <time>2022-02-27T12:24:47Z</time>
      </trkpt>
      <trkpt lat="47.25779" lon="-1.52863">
        <ele>63</ele>
        <time>2022-02-27T12:24:49Z</time>
      </trkpt>
      <trkpt lat="47.25765" lon="-1.52874">
        <ele>63</ele>
        <time>2022-02-27T12:24:51Z</time>
      </trkpt>
      <trkpt lat="47.25752" lon="-1.52885">
        <ele>63</ele>
        <time>2022-02-27T12:24:53Z</time>
      </trkpt>
      <trkpt lat="47.2574" lon="-1.52895">
        <ele>63</ele>
        <time>2022-02-27T12:24:55Z</time>
      </trkpt>
      <trkpt lat="47.25729" lon="-1.52906">
        <ele>62</ele>
        <time>2022-02-27T12:24:57Z</time>
      </trkpt>
      <trkpt lat="47.25718" lon="-1.52916">
        <ele>62</ele>
        <time>2022-02-27T12:24:59Z</time>
      </trkpt>
      <trkpt lat="47.25706" lon="-1.52925">
        <ele>62</ele>
        <time>2022-02-27T12:25:01Z</time>
      </trkpt>
      <trkpt lat="47.25695" lon="-1.52934">
        <ele>62</ele>
        <time>2022-02-27T12:25:03Z</time>
      </trkpt>
      <trkpt lat="47.25685" lon="-1.52943">
        <ele>62</ele>
        <time>2022-02-27T12:25:05Z</time>
      </trkpt>
      <trkpt lat="47.25675" lon="-1.52951">
        <ele>63</ele>
        <time>2022-02-27T12:25:07Z</time>
      </trkpt>
      <trkpt lat="47.25665" lon="-1.52958">
        <ele>63</ele>
        <time>2022-02-27T12:25:09Z</time>
      </trkpt>
      <trkpt lat="47.25655" lon="-1.52964">
        <ele>63</ele>
        <time>2022-02-27T12:25:11Z</time>
      </trkpt>
      <trkpt lat="47.25646" lon="-1.5297">
        <ele>64</ele>
        <time>2022-02-27T12:25:13Z</time>
      </trkpt>
      <trkpt lat="47.25636" lon="-1.52975">
        <ele>64</ele>
        <time>2022-02-27T12:25:15Z</time>
      </trkpt>
      <trkpt lat="47.25627" lon="-1.5298">
        <ele>65</ele>
        <time>2022-02-27T12:25:17Z</time>
      </trkpt>
      <trkpt lat="47.25618" lon="-1.52984">
        <ele>65</ele>
        <time>2022-02-27T12:25:19Z</time>
      </trkpt>
      <trkpt lat="47.25609" lon="-1.52988">
        <ele>66</ele>
        <time>2022-02-27T12:25:21Z</time>
      </trkpt>
      <trkpt lat="47.25598" lon="-1.52994">
        <ele>67</ele>
        <time>2022-02-27T12:25:24Z</time>
      </trkpt>
      <trkpt lat="47.2559" lon="-1.53004">
        <ele>68</ele>
        <time>2022-02-27T12:25:27Z</time>
      </trkpt>
      <trkpt lat="47.25579" lon="-1.53006">
        <ele>68</ele>
        <time>2022-02-27T12:25:29Z</time>
      </trkpt>
      <trkpt lat="47.2557" lon="-1.53009">
        <ele>68</ele>
        <time>2022-02-27T12:25:31Z</time>
      </trkpt>
      <trkpt lat="47.2556" lon="-1.53011">
        <ele>69</ele>
        <time>2022-02-27T12:25:33Z</time>
      </trkpt>
      <trkpt lat="47.2555" lon="-1.53013">
        <ele>69</ele>
        <time>2022-02-27T12:25:35Z</time>
      </trkpt>
      <trkpt lat="47.25541" lon="-1.53014">
        <ele>69</ele>
        <time>2022-02-27T12:25:37Z</time>
      </trkpt>
      <trkpt lat="47.25529" lon="-1.53016">
        <ele>71</ele>
        <time>2022-02-27T12:25:40Z</time>
      </trkpt>
      <trkpt lat="47.25517" lon="-1.53016">
        <ele>71</ele>
        <time>2022-02-27T12:25:46Z</time>
      </trkpt>
      <trkpt lat="47.25507" lon="-1.53014">
        <ele>70</ele>
        <time>2022-02-27T12:25:48Z</time>
      </trkpt>
      <trkpt lat="47.25498" lon="-1.53015">
        <ele>70</ele>
        <time>2022-02-27T12:25:50Z</time>
      </trkpt>
      <trkpt lat="47.25488" lon="-1.53017">
        <ele>70</ele>
        <time>2022-02-27T12:25:52Z</time>
      </trkpt>
      <trkpt lat="47.25478" lon="-1.53015">
        <ele>70</ele>
        <time>2022-02-27T12:25:54Z</time>
      </trkpt>
      <trkpt lat="47.25468" lon="-1.53011">
        <ele>71</ele>
        <time>2022-02-27T12:25:56Z</time>
      </trkpt>
      <trkpt lat="47.25458" lon="-1.53007">
        <ele>72</ele>
        <time>2022-02-27T12:25:58Z</time>
      </trkpt>
      <trkpt lat="47.25448" lon="-1.53004">
        <ele>72</ele>
        <time>2022-02-27T12:26:00Z</time>
      </trkpt>
      <trkpt lat="47.25439" lon="-1.53001">
        <ele>72</ele>
        <time>2022-02-27T12:26:02Z</time>
      </trkpt>
      <trkpt lat="47.25429" lon="-1.53">
        <ele>72</ele>
        <time>2022-02-27T12:26:04Z</time>
      </trkpt>
      <trkpt lat="47.25419" lon="-1.52999">
        <ele>72</ele>
        <time>2022-02-27T12:26:06Z</time>
      </trkpt>
      <trkpt lat="47.25409" lon="-1.52996">
        <ele>72</ele>
        <time>2022-02-27T12:26:08Z</time>
      </trkpt>
      <trkpt lat="47.25399" lon="-1.52994">
        <ele>73</ele>
        <time>2022-02-27T12:26:10Z</time>
      </trkpt>
      <trkpt lat="47.25389" lon="-1.52995">
        <ele>73</ele>
        <time>2022-02-27T12:26:12Z</time>
      </trkpt>
      <trkpt lat="47.25378" lon="-1.52996">
        <ele>73</ele>
        <time>2022-02-27T12:26:14Z</time>
      </trkpt>
      <trkpt lat="47.25368" lon="-1.52993">
        <ele>73</ele>
        <time>2022-02-27T12:26:16Z</time>
      </trkpt>
      <trkpt lat="47.25358" lon="-1.52989">
        <ele>74</ele>
        <time>2022-02-27T12:26:18Z</time>
      </trkpt>
      <trkpt lat="47.25347" lon="-1.52986">
        <ele>74</ele>
        <time>2022-02-27T12:26:20Z</time>
      </trkpt>
      <trkpt lat="47.25337" lon="-1.52983">
        <ele>74</ele>
        <time>2022-02-27T12:26:22Z</time>
      </trkpt>
      <trkpt lat="47.25328" lon="-1.52979">
        <ele>74</ele>
        <time>2022-02-27T12:26:24Z</time>
      </trkpt>
      <trkpt lat="47.25322" lon="-1.52968">
        <ele>74</ele>
        <time>2022-02-27T12:26:26Z</time>
      </trkpt>
      <trkpt lat="47.25316" lon="-1.52953">
        <ele>75</ele>
        <time>2022-02-27T12:26:29Z</time>
      </trkpt>
      <trkpt lat="47.2531" lon="-1.52942">
        <ele>75</ele>
        <time>2022-02-27T12:26:31Z</time>
      </trkpt>
      <trkpt lat="47.25304" lon="-1.52929">
        <ele>75</ele>
        <time>2022-02-27T12:26:33Z</time>
      </trkpt>
      <trkpt lat="47.25297" lon="-1.52914">
        <ele>75</ele>
        <time>2022-02-27T12:26:35Z</time>
      </trkpt>
      <trkpt lat="47.25292" lon="-1.52898">
        <ele>74</ele>
        <time>2022-02-27T12:26:37Z</time>
      </trkpt>
      <trkpt lat="47.25286" lon="-1.52884">
        <ele>74</ele>
        <time>2022-02-27T12:26:39Z</time>
      </trkpt>
      <trkpt lat="47.2528" lon="-1.52869">
        <ele>74</ele>
        <time>2022-02-27T12:26:41Z</time>
      </trkpt>
      <trkpt lat="47.25275" lon="-1.52855">
        <ele>73</ele>
        <time>2022-02-27T12:26:43Z</time>
      </trkpt>
      <trkpt lat="47.25268" lon="-1.5284">
        <ele>73</ele>
        <time>2022-02-27T12:26:45Z</time>
      </trkpt>
      <trkpt lat="47.25261" lon="-1.52826">
        <ele>73</ele>
        <time>2022-02-27T12:26:47Z</time>
      </trkpt>
      <trkpt lat="47.25254" lon="-1.52813">
        <ele>73</ele>
        <time>2022-02-27T12:26:49Z</time>
      </trkpt>
      <trkpt lat="47.25247" lon="-1.52799">
        <ele>73</ele>
        <time>2022-02-27T12:26:51Z</time>
      </trkpt>
      <trkpt lat="47.2524" lon="-1.52785">
        <ele>73</ele>
        <time>2022-02-27T12:26:53Z</time>
      </trkpt>
      <trkpt lat="47.25232" lon="-1.52771">
        <ele>73</ele>
        <time>2022-02-27T12:26:55Z</time>
      </trkpt>
      <trkpt lat="47.25226" lon="-1.52759">
        <ele>73</ele>
        <time>2022-02-27T12:26:57Z</time>
      </trkpt>
      <trkpt lat="47.25218" lon="-1.52746">
        <ele>73</ele>
        <time>2022-02-27T12:26:59Z</time>
      </trkpt>
      <trkpt lat="47.25211" lon="-1.52733">
        <ele>73</ele>
        <time>2022-02-27T12:27:01Z</time>
      </trkpt>
      <trkpt lat="47.25204" lon="-1.52719">
        <ele>73</ele>
        <time>2022-02-27T12:27:03Z</time>
      </trkpt>
      <trkpt lat="47.25196" lon="-1.52707">
        <ele>72</ele>
        <time>2022-02-27T12:27:05Z</time>
      </trkpt>
      <trkpt lat="47.25188" lon="-1.52695">
        <ele>72</ele>
        <time>2022-02-27T12:27:07Z</time>
      </trkpt>
      <trkpt lat="47.25181" lon="-1.52682">
        <ele>72</ele>
        <time>2022-02-27T12:27:09Z</time>
      </trkpt>
      <trkpt lat="47.25174" lon="-1.52669">
        <ele>73</ele>
        <time>2022-02-27T12:27:11Z</time>
      </trkpt>
      <trkpt lat="47.25167" lon="-1.52657">
        <ele>73</ele>
        <time>2022-02-27T12:27:13Z</time>
      </trkpt>
      <trkpt lat="47.25159" lon="-1.52644">
        <ele>73</ele>
        <time>2022-02-27T12:27:15Z</time>
      </trkpt>
      <trkpt lat="47.25151" lon="-1.52632">
        <ele>73</ele>
        <time>2022-02-27T12:27:17Z</time>
      </trkpt>
      <trkpt lat="47.25144" lon="-1.5262">
        <ele>73</ele>
        <time>2022-02-27T12:27:19Z</time>
      </trkpt>
      <trkpt lat="47.25136" lon="-1.52608">
        <ele>73</ele>
        <time>2022-02-27T12:27:21Z</time>
      </trkpt>
      <trkpt lat="47.2513" lon="-1.52595">
        <ele>73</ele>
        <time>2022-02-27T12:27:23Z</time>
      </trkpt>
      <trkpt lat="47.25121" lon="-1.52582">
        <ele>73</ele>
        <time>2022-02-27T12:27:25Z</time>
      </trkpt>
      <trkpt lat="47.25115" lon="-1.5257">
        <ele>74</ele>
        <time>2022-02-27T12:27:27Z</time>
      </trkpt>
      <trkpt lat="47.25107" lon="-1.52557">
        <ele>74</ele>
        <time>2022-02-27T12:27:29Z</time>
      </trkpt>
      <trkpt lat="47.25099" lon="-1.52545">
        <ele>74</ele>
        <time>2022-02-27T12:27:31Z</time>
      </trkpt>
      <trkpt lat="47.25091" lon="-1.52533">
        <ele>74</ele>
        <time>2022-02-27T12:27:33Z</time>
      </trkpt>
      <trkpt lat="47.25084" lon="-1.52521">
        <ele>74</ele>
        <time>2022-02-27T12:27:35Z</time>
      </trkpt>
      <trkpt lat="47.25078" lon="-1.5251">
        <ele>74</ele>
        <time>2022-02-27T12:27:37Z</time>
      </trkpt>
      <trkpt lat="47.25071" lon="-1.525">
        <ele>74</ele>
        <time>2022-02-27T12:27:40Z</time>
      </trkpt>
      <trkpt lat="47.25065" lon="-1.5249">
        <ele>74</ele>
        <time>2022-02-27T12:27:42Z</time>
      </trkpt>
      <trkpt lat="47.25058" lon="-1.5248">
        <ele>74</ele>
        <time>2022-02-27T12:27:44Z</time>
      </trkpt>
      <trkpt lat="47.25051" lon="-1.52471">
        <ele>74</ele>
        <time>2022-02-27T12:27:46Z</time>
      </trkpt>
      <trkpt lat="47.25044" lon="-1.52459">
        <ele>74</ele>
        <time>2022-02-27T12:27:49Z</time>
      </trkpt>
      <trkpt lat="47.25037" lon="-1.5245">
        <ele>76</ele>
        <time>2022-02-27T12:27:51Z</time>
      </trkpt>
      <trkpt lat="47.2503" lon="-1.52438">
        <ele>76</ele>
        <time>2022-02-27T12:27:53Z</time>
      </trkpt>
      <trkpt lat="47.25022" lon="-1.52425">
        <ele>76</ele>
        <time>2022-02-27T12:27:55Z</time>
      </trkpt>
      <trkpt lat="47.25014" lon="-1.52412">
        <ele>76</ele>
        <time>2022-02-27T12:27:57Z</time>
      </trkpt>
      <trkpt lat="47.25007" lon="-1.524">
        <ele>76</ele>
        <time>2022-02-27T12:27:59Z</time>
      </trkpt>
      <trkpt lat="47.24999" lon="-1.52388">
        <ele>76</ele>
        <time>2022-02-27T12:28:01Z</time>
      </trkpt>
      <trkpt lat="47.24992" lon="-1.52376">
        <ele>75</ele>
        <time>2022-02-27T12:28:03Z</time>
      </trkpt>
      <trkpt lat="47.24985" lon="-1.52363">
        <ele>75</ele>
        <time>2022-02-27T12:28:05Z</time>
      </trkpt>
      <trkpt lat="47.24977" lon="-1.52351">
        <ele>75</ele>
        <time>2022-02-27T12:28:07Z</time>
      </trkpt>
      <trkpt lat="47.24969" lon="-1.52338">
        <ele>75</ele>
        <time>2022-02-27T12:28:09Z</time>
      </trkpt>
      <trkpt lat="47.24962" lon="-1.52325">
        <ele>75</ele>
        <time>2022-02-27T12:28:11Z</time>
      </trkpt>
      <trkpt lat="47.24954" lon="-1.52312">
        <ele>74</ele>
        <time>2022-02-27T12:28:13Z</time>
      </trkpt>
      <trkpt lat="47.24946" lon="-1.52298">
        <ele>74</ele>
        <time>2022-02-27T12:28:15Z</time>
      </trkpt>
      <trkpt lat="47.24938" lon="-1.52285">
        <ele>74</ele>
        <time>2022-02-27T12:28:17Z</time>
      </trkpt>
      <trkpt lat="47.24931" lon="-1.52271">
        <ele>74</ele>
        <time>2022-02-27T12:28:19Z</time>
      </trkpt>
      <trkpt lat="47.24923" lon="-1.52258">
        <ele>75</ele>
        <time>2022-02-27T12:28:21Z</time>
      </trkpt>
      <trkpt lat="47.24916" lon="-1.52245">
        <ele>75</ele>
        <time>2022-02-27T12:28:23Z</time>
      </trkpt>
      <trkpt lat="47.24907" lon="-1.52232">
        <ele>75</ele>
        <time>2022-02-27T12:28:25Z</time>
      </trkpt>
      <trkpt lat="47.24899" lon="-1.52219">
        <ele>76</ele>
        <time>2022-02-27T12:28:27Z</time>
      </trkpt>
      <trkpt lat="47.24891" lon="-1.52206">
        <ele>76</ele>
        <time>2022-02-27T12:28:29Z</time>
      </trkpt>
      <trkpt lat="47.24883" lon="-1.52194">
        <ele>76</ele>
        <time>2022-02-27T12:28:31Z</time>
      </trkpt>
      <trkpt lat="47.24875" lon="-1.52182">
        <ele>76</ele>
        <time>2022-02-27T12:28:33Z</time>
      </trkpt>
      <trkpt lat="47.2487" lon="-1.52167">
        <ele>76</ele>
        <time>2022-02-27T12:28:35Z</time>
      </trkpt>
      <trkpt lat="47.24866" lon="-1.52152">
        <ele>76</ele>
        <time>2022-02-27T12:28:37Z</time>
      </trkpt>
      <trkpt lat="47.24862" lon="-1.52139">
        <ele>76</ele>
        <time>2022-02-27T12:28:39Z</time>
      </trkpt>
      <trkpt lat="47.24852" lon="-1.52146">
        <ele>75</ele>
        <time>2022-02-27T12:28:42Z</time>
      </trkpt>
      <trkpt lat="47.24844" lon="-1.52157">
        <ele>74</ele>
        <time>2022-02-27T12:28:44Z</time>
      </trkpt>
      <trkpt lat="47.24835" lon="-1.52168">
        <ele>73</ele>
        <time>2022-02-27T12:28:46Z</time>
      </trkpt>
      <trkpt lat="47.24826" lon="-1.5218">
        <ele>73</ele>
        <time>2022-02-27T12:28:48Z</time>
      </trkpt>
      <trkpt lat="47.24816" lon="-1.52194">
        <ele>73</ele>
        <time>2022-02-27T12:28:50Z</time>
      </trkpt>
      <trkpt lat="47.24803" lon="-1.52202">
        <ele>73</ele>
        <time>2022-02-27T12:28:52Z</time>
      </trkpt>
      <trkpt lat="47.24791" lon="-1.5221">
        <ele>72</ele>
        <time>2022-02-27T12:28:54Z</time>
      </trkpt>
      <trkpt lat="47.24782" lon="-1.52221">
        <ele>73</ele>
        <time>2022-02-27T12:28:56Z</time>
      </trkpt>
      <trkpt lat="47.24772" lon="-1.52232">
        <ele>73</ele>
        <time>2022-02-27T12:28:58Z</time>
      </trkpt>
      <trkpt lat="47.24763" lon="-1.52243">
        <ele>74</ele>
        <time>2022-02-27T12:29:00Z</time>
      </trkpt>
      <trkpt lat="47.24754" lon="-1.52255">
        <ele>74</ele>
        <time>2022-02-27T12:29:02Z</time>
      </trkpt>
      <trkpt lat="47.24745" lon="-1.52266">
        <ele>74</ele>
        <time>2022-02-27T12:29:04Z</time>
      </trkpt>
      <trkpt lat="47.24735" lon="-1.52277">
        <ele>73</ele>
        <time>2022-02-27T12:29:06Z</time>
      </trkpt>
      <trkpt lat="47.24725" lon="-1.52288">
        <ele>74</ele>
        <time>2022-02-27T12:29:08Z</time>
      </trkpt>
      <trkpt lat="47.24715" lon="-1.52299">
        <ele>74</ele>
        <time>2022-02-27T12:29:10Z</time>
      </trkpt>
      <trkpt lat="47.24705" lon="-1.5231">
        <ele>73</ele>
        <time>2022-02-27T12:29:12Z</time>
      </trkpt>
      <trkpt lat="47.24695" lon="-1.52321">
        <ele>74</ele>
        <time>2022-02-27T12:29:14Z</time>
      </trkpt>
      <trkpt lat="47.24686" lon="-1.52332">
        <ele>74</ele>
        <time>2022-02-27T12:29:16Z</time>
      </trkpt>
      <trkpt lat="47.24676" lon="-1.52343">
        <ele>73</ele>
        <time>2022-02-27T12:29:18Z</time>
      </trkpt>
      <trkpt lat="47.24667" lon="-1.52354">
        <ele>73</ele>
        <time>2022-02-27T12:29:20Z</time>
      </trkpt>
      <trkpt lat="47.24658" lon="-1.52365">
        <ele>73</ele>
        <time>2022-02-27T12:29:22Z</time>
      </trkpt>
      <trkpt lat="47.24649" lon="-1.52376">
        <ele>74</ele>
        <time>2022-02-27T12:29:24Z</time>
      </trkpt>
      <trkpt lat="47.2464" lon="-1.52387">
        <ele>74</ele>
        <time>2022-02-27T12:29:26Z</time>
      </trkpt>
      <trkpt lat="47.2463" lon="-1.52398">
        <ele>74</ele>
        <time>2022-02-27T12:29:28Z</time>
      </trkpt>
      <trkpt lat="47.24621" lon="-1.52408">
        <ele>74</ele>
        <time>2022-02-27T12:29:30Z</time>
      </trkpt>
      <trkpt lat="47.24611" lon="-1.5242">
        <ele>75</ele>
        <time>2022-02-27T12:29:32Z</time>
      </trkpt>
      <trkpt lat="47.24601" lon="-1.5243">
        <ele>75</ele>
        <time>2022-02-27T12:29:34Z</time>
      </trkpt>
      <trkpt lat="47.24592" lon="-1.5244">
        <ele>76</ele>
        <time>2022-02-27T12:29:36Z</time>
      </trkpt>
      <trkpt lat="47.24582" lon="-1.52451">
        <ele>76</ele>
        <time>2022-02-27T12:29:38Z</time>
      </trkpt>
      <trkpt lat="47.24572" lon="-1.52462">
        <ele>76</ele>
        <time>2022-02-27T12:29:40Z</time>
      </trkpt>
      <trkpt lat="47.24563" lon="-1.52473">
        <ele>76</ele>
        <time>2022-02-27T12:29:42Z</time>
      </trkpt>
      <trkpt lat="47.24553" lon="-1.52485">
        <ele>76</ele>
        <time>2022-02-27T12:29:44Z</time>
      </trkpt>
      <trkpt lat="47.24543" lon="-1.52497">
        <ele>76</ele>
        <time>2022-02-27T12:29:46Z</time>
      </trkpt>
      <trkpt lat="47.24533" lon="-1.52508">
        <ele>75</ele>
        <time>2022-02-27T12:29:48Z</time>
      </trkpt>
      <trkpt lat="47.24523" lon="-1.52519">
        <ele>74</ele>
        <time>2022-02-27T12:29:50Z</time>
      </trkpt>
      <trkpt lat="47.24515" lon="-1.5253">
        <ele>74</ele>
        <time>2022-02-27T12:29:52Z</time>
      </trkpt>
      <trkpt lat="47.24506" lon="-1.5254">
        <ele>74</ele>
        <time>2022-02-27T12:29:54Z</time>
      </trkpt>
      <trkpt lat="47.24498" lon="-1.52551">
        <ele>74</ele>
        <time>2022-02-27T12:29:56Z</time>
      </trkpt>
      <trkpt lat="47.24488" lon="-1.52563">
        <ele>74</ele>
        <time>2022-02-27T12:29:58Z</time>
      </trkpt>
      <trkpt lat="47.24478" lon="-1.52574">
        <ele>74</ele>
        <time>2022-02-27T12:30:00Z</time>
      </trkpt>
      <trkpt lat="47.24469" lon="-1.52584">
        <ele>74</ele>
        <time>2022-02-27T12:30:02Z</time>
      </trkpt>
      <trkpt lat="47.2446" lon="-1.52594">
        <ele>74</ele>
        <time>2022-02-27T12:30:04Z</time>
      </trkpt>
      <trkpt lat="47.24451" lon="-1.52604">
        <ele>74</ele>
        <time>2022-02-27T12:30:06Z</time>
      </trkpt>
      <trkpt lat="47.24441" lon="-1.52613">
        <ele>75</ele>
        <time>2022-02-27T12:30:08Z</time>
      </trkpt>
      <trkpt lat="47.24432" lon="-1.52625">
        <ele>74</ele>
        <time>2022-02-27T12:30:10Z</time>
      </trkpt>
      <trkpt lat="47.24422" lon="-1.52636">
        <ele>74</ele>
        <time>2022-02-27T12:30:12Z</time>
      </trkpt>
      <trkpt lat="47.24413" lon="-1.52646">
        <ele>73</ele>
        <time>2022-02-27T12:30:14Z</time>
      </trkpt>
      <trkpt lat="47.24404" lon="-1.52656">
        <ele>73</ele>
        <time>2022-02-27T12:30:16Z</time>
      </trkpt>
      <trkpt lat="47.24394" lon="-1.52666">
        <ele>73</ele>
        <time>2022-02-27T12:30:18Z</time>
      </trkpt>
      <trkpt lat="47.24385" lon="-1.52676">
        <ele>74</ele>
        <time>2022-02-27T12:30:20Z</time>
      </trkpt>
      <trkpt lat="47.24376" lon="-1.52686">
        <ele>73</ele>
        <time>2022-02-27T12:30:22Z</time>
      </trkpt>
      <trkpt lat="47.24367" lon="-1.52696">
        <ele>73</ele>
        <time>2022-02-27T12:30:24Z</time>
      </trkpt>
      <trkpt lat="47.24358" lon="-1.52706">
        <ele>73</ele>
        <time>2022-02-27T12:30:26Z</time>
      </trkpt>
      <trkpt lat="47.2435" lon="-1.52717">
        <ele>73</ele>
        <time>2022-02-27T12:30:28Z</time>
      </trkpt>
      <trkpt lat="47.24341" lon="-1.52727">
        <ele>73</ele>
        <time>2022-02-27T12:30:30Z</time>
      </trkpt>
      <trkpt lat="47.24332" lon="-1.52737">
        <ele>73</ele>
        <time>2022-02-27T12:30:32Z</time>
      </trkpt>
      <trkpt lat="47.24323" lon="-1.52747">
        <ele>73</ele>
        <time>2022-02-27T12:30:34Z</time>
      </trkpt>
      <trkpt lat="47.24314" lon="-1.52757">
        <ele>73</ele>
        <time>2022-02-27T12:30:36Z</time>
      </trkpt>
      <trkpt lat="47.24306" lon="-1.52767">
        <ele>73</ele>
        <time>2022-02-27T12:30:38Z</time>
      </trkpt>
      <trkpt lat="47.24298" lon="-1.52777">
        <ele>73</ele>
        <time>2022-02-27T12:30:40Z</time>
      </trkpt>
      <trkpt lat="47.2429" lon="-1.52788">
        <ele>73</ele>
        <time>2022-02-27T12:30:42Z</time>
      </trkpt>
      <trkpt lat="47.2428" lon="-1.528">
        <ele>72</ele>
        <time>2022-02-27T12:30:44Z</time>
      </trkpt>
      <trkpt lat="47.2427" lon="-1.52811">
        <ele>72</ele>
        <time>2022-02-27T12:30:46Z</time>
      </trkpt>
      <trkpt lat="47.24262" lon="-1.52823">
        <ele>71</ele>
        <time>2022-02-27T12:30:48Z</time>
      </trkpt>
      <trkpt lat="47.24252" lon="-1.52834">
        <ele>71</ele>
        <time>2022-02-27T12:30:50Z</time>
      </trkpt>
      <trkpt lat="47.24241" lon="-1.52841">
        <ele>71</ele>
        <time>2022-02-27T12:30:52Z</time>
      </trkpt>
      <trkpt lat="47.24231" lon="-1.5285">
        <ele>72</ele>
        <time>2022-02-27T12:30:54Z</time>
      </trkpt>
      <trkpt lat="47.24221" lon="-1.52859">
        <ele>72</ele>
        <time>2022-02-27T12:30:56Z</time>
      </trkpt>
      <trkpt lat="47.24212" lon="-1.52869">
        <ele>71</ele>
        <time>2022-02-27T12:30:58Z</time>
      </trkpt>
      <trkpt lat="47.24203" lon="-1.52879">
        <ele>71</ele>
        <time>2022-02-27T12:31:00Z</time>
      </trkpt>
      <trkpt lat="47.24193" lon="-1.52891">
        <ele>71</ele>
        <time>2022-02-27T12:31:02Z</time>
      </trkpt>
      <trkpt lat="47.24184" lon="-1.52902">
        <ele>71</ele>
        <time>2022-02-27T12:31:04Z</time>
      </trkpt>
      <trkpt lat="47.24176" lon="-1.52911">
        <ele>71</ele>
        <time>2022-02-27T12:31:06Z</time>
      </trkpt>
      <trkpt lat="47.24167" lon="-1.52922">
        <ele>71</ele>
        <time>2022-02-27T12:31:08Z</time>
      </trkpt>
      <trkpt lat="47.24157" lon="-1.52932">
        <ele>71</ele>
        <time>2022-02-27T12:31:10Z</time>
      </trkpt>
      <trkpt lat="47.24148" lon="-1.52943">
        <ele>71</ele>
        <time>2022-02-27T12:31:12Z</time>
      </trkpt>
      <trkpt lat="47.24139" lon="-1.52953">
        <ele>71</ele>
        <time>2022-02-27T12:31:14Z</time>
      </trkpt>
      <trkpt lat="47.2413" lon="-1.52964">
        <ele>71</ele>
        <time>2022-02-27T12:31:16Z</time>
      </trkpt>
      <trkpt lat="47.24122" lon="-1.52974">
        <ele>71</ele>
        <time>2022-02-27T12:31:18Z</time>
      </trkpt>
      <trkpt lat="47.24113" lon="-1.52984">
        <ele>71</ele>
        <time>2022-02-27T12:31:20Z</time>
      </trkpt>
      <trkpt lat="47.24104" lon="-1.52996">
        <ele>71</ele>
        <time>2022-02-27T12:31:22Z</time>
      </trkpt>
      <trkpt lat="47.24094" lon="-1.53007">
        <ele>70</ele>
        <time>2022-02-27T12:31:24Z</time>
      </trkpt>
      <trkpt lat="47.24085" lon="-1.53017">
        <ele>70</ele>
        <time>2022-02-27T12:31:26Z</time>
      </trkpt>
      <trkpt lat="47.24076" lon="-1.53028">
        <ele>70</ele>
        <time>2022-02-27T12:31:28Z</time>
      </trkpt>
      <trkpt lat="47.24068" lon="-1.53041">
        <ele>69</ele>
        <time>2022-02-27T12:31:30Z</time>
      </trkpt>
      <trkpt lat="47.24057" lon="-1.53049">
        <ele>70</ele>
        <time>2022-02-27T12:31:32Z</time>
      </trkpt>
      <trkpt lat="47.24046" lon="-1.53058">
        <ele>70</ele>
        <time>2022-02-27T12:31:34Z</time>
      </trkpt>
      <trkpt lat="47.24035" lon="-1.53068">
        <ele>70</ele>
        <time>2022-02-27T12:31:36Z</time>
      </trkpt>
      <trkpt lat="47.24024" lon="-1.53078">
        <ele>70</ele>
        <time>2022-02-27T12:31:38Z</time>
      </trkpt>
      <trkpt lat="47.24014" lon="-1.53086">
        <ele>70</ele>
        <time>2022-02-27T12:31:40Z</time>
      </trkpt>
      <trkpt lat="47.24003" lon="-1.53095">
        <ele>71</ele>
        <time>2022-02-27T12:31:42Z</time>
      </trkpt>
      <trkpt lat="47.23993" lon="-1.53103">
        <ele>70</ele>
        <time>2022-02-27T12:31:44Z</time>
      </trkpt>
      <trkpt lat="47.23982" lon="-1.5311">
        <ele>71</ele>
        <time>2022-02-27T12:31:46Z</time>
      </trkpt>
      <trkpt lat="47.23972" lon="-1.53118">
        <ele>71</ele>
        <time>2022-02-27T12:31:48Z</time>
      </trkpt>
      <trkpt lat="47.23961" lon="-1.53126">
        <ele>71</ele>
        <time>2022-02-27T12:31:50Z</time>
      </trkpt>
      <trkpt lat="47.2395" lon="-1.53134">
        <ele>71</ele>
        <time>2022-02-27T12:31:52Z</time>
      </trkpt>
      <trkpt lat="47.23939" lon="-1.53141">
        <ele>71</ele>
        <time>2022-02-27T12:31:54Z</time>
      </trkpt>
      <trkpt lat="47.23928" lon="-1.53149">
        <ele>71</ele>
        <time>2022-02-27T12:31:56Z</time>
      </trkpt>
      <trkpt lat="47.23917" lon="-1.53156">
        <ele>72</ele>
        <time>2022-02-27T12:31:58Z</time>
      </trkpt>
      <trkpt lat="47.23907" lon="-1.53164">
        <ele>72</ele>
        <time>2022-02-27T12:32:00Z</time>
      </trkpt>
      <trkpt lat="47.23897" lon="-1.53173">
        <ele>72</ele>
        <time>2022-02-27T12:32:02Z</time>
      </trkpt>
      <trkpt lat="47.23886" lon="-1.53183">
        <ele>71</ele>
        <time>2022-02-27T12:32:04Z</time>
      </trkpt>
      <trkpt lat="47.23875" lon="-1.5319">
        <ele>72</ele>
        <time>2022-02-27T12:32:06Z</time>
      </trkpt>
      <trkpt lat="47.23864" lon="-1.53198">
        <ele>72</ele>
        <time>2022-02-27T12:32:08Z</time>
      </trkpt>
      <trkpt lat="47.23853" lon="-1.53205">
        <ele>72</ele>
        <time>2022-02-27T12:32:10Z</time>
      </trkpt>
      <trkpt lat="47.23843" lon="-1.53212">
        <ele>72</ele>
        <time>2022-02-27T12:32:12Z</time>
      </trkpt>
      <trkpt lat="47.23832" lon="-1.5322">
        <ele>72</ele>
        <time>2022-02-27T12:32:14Z</time>
      </trkpt>
      <trkpt lat="47.23821" lon="-1.53226">
        <ele>73</ele>
        <time>2022-02-27T12:32:16Z</time>
      </trkpt>
      <trkpt lat="47.23811" lon="-1.53232">
        <ele>73</ele>
        <time>2022-02-27T12:32:18Z</time>
      </trkpt>
      <trkpt lat="47.23801" lon="-1.53239">
        <ele>74</ele>
        <time>2022-02-27T12:32:20Z</time>
      </trkpt>
      <trkpt lat="47.23792" lon="-1.53251">
        <ele>74</ele>
        <time>2022-02-27T12:32:22Z</time>
      </trkpt>
      <trkpt lat="47.23781" lon="-1.53259">
        <ele>73</ele>
        <time>2022-02-27T12:32:24Z</time>
      </trkpt>
      <trkpt lat="47.23771" lon="-1.53268">
        <ele>72</ele>
        <time>2022-02-27T12:32:26Z</time>
      </trkpt>
      <trkpt lat="47.23761" lon="-1.53277">
        <ele>72</ele>
        <time>2022-02-27T12:32:28Z</time>
      </trkpt>
      <trkpt lat="47.2375" lon="-1.53286">
        <ele>72</ele>
        <time>2022-02-27T12:32:30Z</time>
      </trkpt>
      <trkpt lat="47.23739" lon="-1.53295">
        <ele>73</ele>
        <time>2022-02-27T12:32:32Z</time>
      </trkpt>
      <trkpt lat="47.23729" lon="-1.53303">
        <ele>74</ele>
        <time>2022-02-27T12:32:34Z</time>
      </trkpt>
      <trkpt lat="47.23718" lon="-1.53312">
        <ele>74</ele>
        <time>2022-02-27T12:32:36Z</time>
      </trkpt>
      <trkpt lat="47.23708" lon="-1.53322">
        <ele>74</ele>
        <time>2022-02-27T12:32:38Z</time>
      </trkpt>
      <trkpt lat="47.23699" lon="-1.53333">
        <ele>73</ele>
        <time>2022-02-27T12:32:40Z</time>
      </trkpt>
      <trkpt lat="47.23689" lon="-1.53342">
        <ele>73</ele>
        <time>2022-02-27T12:32:42Z</time>
      </trkpt>
      <trkpt lat="47.23679" lon="-1.5335">
        <ele>72</ele>
        <time>2022-02-27T12:32:44Z</time>
      </trkpt>
      <trkpt lat="47.23669" lon="-1.53359">
        <ele>72</ele>
        <time>2022-02-27T12:32:46Z</time>
      </trkpt>
      <trkpt lat="47.23658" lon="-1.53367">
        <ele>72</ele>
        <time>2022-02-27T12:32:48Z</time>
      </trkpt>
      <trkpt lat="47.23648" lon="-1.53376">
        <ele>73</ele>
        <time>2022-02-27T12:32:50Z</time>
      </trkpt>
      <trkpt lat="47.2364" lon="-1.53384">
        <ele>74</ele>
        <time>2022-02-27T12:32:52Z</time>
      </trkpt>
      <trkpt lat="47.23632" lon="-1.53391">
        <ele>75</ele>
        <time>2022-02-27T12:32:54Z</time>
      </trkpt>
      <trkpt lat="47.23622" lon="-1.53402">
        <ele>76</ele>
        <time>2022-02-27T12:32:56Z</time>
      </trkpt>
      <trkpt lat="47.2361" lon="-1.5341">
        <ele>76</ele>
        <time>2022-02-27T12:32:58Z</time>
      </trkpt>
      <trkpt lat="47.236" lon="-1.53419">
        <ele>76</ele>
        <time>2022-02-27T12:33:00Z</time>
      </trkpt>
      <trkpt lat="47.23591" lon="-1.53428">
        <ele>76</ele>
        <time>2022-02-27T12:33:02Z</time>
      </trkpt>
      <trkpt lat="47.23581" lon="-1.53436">
        <ele>76</ele>
        <time>2022-02-27T12:33:04Z</time>
      </trkpt>
      <trkpt lat="47.23571" lon="-1.53444">
        <ele>76</ele>
        <time>2022-02-27T12:33:06Z</time>
      </trkpt>
      <trkpt lat="47.23561" lon="-1.53452">
        <ele>76</ele>
        <time>2022-02-27T12:33:08Z</time>
      </trkpt>
      <trkpt lat="47.2355" lon="-1.5346">
        <ele>76</ele>
        <time>2022-02-27T12:33:10Z</time>
      </trkpt>
      <trkpt lat="47.2354" lon="-1.53469">
        <ele>76</ele>
        <time>2022-02-27T12:33:12Z</time>
      </trkpt>
      <trkpt lat="47.2353" lon="-1.53477">
        <ele>76</ele>
        <time>2022-02-27T12:33:14Z</time>
      </trkpt>
      <trkpt lat="47.2352" lon="-1.53486">
        <ele>76</ele>
        <time>2022-02-27T12:33:16Z</time>
      </trkpt>
      <trkpt lat="47.23511" lon="-1.53495">
        <ele>76</ele>
        <time>2022-02-27T12:33:18Z</time>
      </trkpt>
      <trkpt lat="47.23502" lon="-1.53504">
        <ele>76</ele>
        <time>2022-02-27T12:33:20Z</time>
      </trkpt>
      <trkpt lat="47.23493" lon="-1.53513">
        <ele>77</ele>
        <time>2022-02-27T12:33:22Z</time>
      </trkpt>
      <trkpt lat="47.23483" lon="-1.53523">
        <ele>77</ele>
        <time>2022-02-27T12:33:24Z</time>
      </trkpt>
      <trkpt lat="47.23474" lon="-1.53531">
        <ele>77</ele>
        <time>2022-02-27T12:33:26Z</time>
      </trkpt>
      <trkpt lat="47.23465" lon="-1.53538">
        <ele>78</ele>
        <time>2022-02-27T12:33:28Z</time>
      </trkpt>
      <trkpt lat="47.23455" lon="-1.53545">
        <ele>77</ele>
        <time>2022-02-27T12:33:30Z</time>
      </trkpt>
      <trkpt lat="47.23448" lon="-1.53553">
        <ele>77</ele>
        <time>2022-02-27T12:33:32Z</time>
      </trkpt>
      <trkpt lat="47.23439" lon="-1.5356">
        <ele>76</ele>
        <time>2022-02-27T12:33:34Z</time>
      </trkpt>
      <trkpt lat="47.23428" lon="-1.53569">
        <ele>76</ele>
        <time>2022-02-27T12:33:37Z</time>
      </trkpt>
      <trkpt lat="47.2342" lon="-1.53576">
        <ele>76</ele>
        <time>2022-02-27T12:33:40Z</time>
      </trkpt>
      <trkpt lat="47.23413" lon="-1.53583">
        <ele>76</ele>
        <time>2022-02-27T12:33:53Z</time>
      </trkpt>
      <trkpt lat="47.23404" lon="-1.53591">
        <ele>76</ele>
        <time>2022-02-27T12:33:59Z</time>
      </trkpt>
      <trkpt lat="47.23396" lon="-1.536">
        <ele>77</ele>
        <time>2022-02-27T12:34:01Z</time>
      </trkpt>
      <trkpt lat="47.23386" lon="-1.53608">
        <ele>76</ele>
        <time>2022-02-27T12:34:03Z</time>
      </trkpt>
      <trkpt lat="47.23376" lon="-1.53614">
        <ele>76</ele>
        <time>2022-02-27T12:34:05Z</time>
      </trkpt>
      <trkpt lat="47.23365" lon="-1.53621">
        <ele>76</ele>
        <time>2022-02-27T12:34:07Z</time>
      </trkpt>
      <trkpt lat="47.23355" lon="-1.53629">
        <ele>76</ele>
        <time>2022-02-27T12:34:09Z</time>
      </trkpt>
      <trkpt lat="47.23345" lon="-1.53638">
        <ele>76</ele>
        <time>2022-02-27T12:34:11Z</time>
      </trkpt>
      <trkpt lat="47.23336" lon="-1.53647">
        <ele>76</ele>
        <time>2022-02-27T12:34:13Z</time>
      </trkpt>
      <trkpt lat="47.23327" lon="-1.53656">
        <ele>76</ele>
        <time>2022-02-27T12:34:15Z</time>
      </trkpt>
      <trkpt lat="47.23318" lon="-1.53664">
        <ele>76</ele>
        <time>2022-02-27T12:34:17Z</time>
      </trkpt>
      <trkpt lat="47.23309" lon="-1.53672">
        <ele>76</ele>
        <time>2022-02-27T12:34:19Z</time>
      </trkpt>
      <trkpt lat="47.23299" lon="-1.5368">
        <ele>76</ele>
        <time>2022-02-27T12:34:21Z</time>
      </trkpt>
      <trkpt lat="47.2329" lon="-1.5369">
        <ele>76</ele>
        <time>2022-02-27T12:34:23Z</time>
      </trkpt>
      <trkpt lat="47.23281" lon="-1.53701">
        <ele>76</ele>
        <time>2022-02-27T12:34:25Z</time>
      </trkpt>
      <trkpt lat="47.23271" lon="-1.5371">
        <ele>76</ele>
        <time>2022-02-27T12:34:27Z</time>
      </trkpt>
      <trkpt lat="47.2326" lon="-1.53718">
        <ele>77</ele>
        <time>2022-02-27T12:34:29Z</time>
      </trkpt>
      <trkpt lat="47.2325" lon="-1.53728">
        <ele>76</ele>
        <time>2022-02-27T12:34:31Z</time>
      </trkpt>
      <trkpt lat="47.2324" lon="-1.53738">
        <ele>77</ele>
        <time>2022-02-27T12:34:33Z</time>
      </trkpt>
      <trkpt lat="47.23229" lon="-1.53747">
        <ele>76</ele>
        <time>2022-02-27T12:34:35Z</time>
      </trkpt>
      <trkpt lat="47.23219" lon="-1.53758">
        <ele>76</ele>
        <time>2022-02-27T12:34:37Z</time>
      </trkpt>
      <trkpt lat="47.23209" lon="-1.53769">
        <ele>76</ele>
        <time>2022-02-27T12:34:39Z</time>
      </trkpt>
      <trkpt lat="47.23199" lon="-1.53779">
        <ele>75</ele>
        <time>2022-02-27T12:34:41Z</time>
      </trkpt>
      <trkpt lat="47.2319" lon="-1.53789">
        <ele>75</ele>
        <time>2022-02-27T12:34:43Z</time>
      </trkpt>
      <trkpt lat="47.23181" lon="-1.538">
        <ele>74</ele>
        <time>2022-02-27T12:34:45Z</time>
      </trkpt>
      <trkpt lat="47.23173" lon="-1.53808">
        <ele>74</ele>
        <time>2022-02-27T12:34:47Z</time>
      </trkpt>
      <trkpt lat="47.23165" lon="-1.53816">
        <ele>74</ele>
        <time>2022-02-27T12:34:49Z</time>
      </trkpt>
      <trkpt lat="47.23157" lon="-1.53823">
        <ele>75</ele>
        <time>2022-02-27T12:34:52Z</time>
      </trkpt>
      <trkpt lat="47.23149" lon="-1.53833">
        <ele>76</ele>
        <time>2022-02-27T12:34:55Z</time>
      </trkpt>
      <trkpt lat="47.2314" lon="-1.53841">
        <ele>76</ele>
        <time>2022-02-27T12:34:57Z</time>
      </trkpt>
      <trkpt lat="47.2313" lon="-1.53851">
        <ele>76</ele>
        <time>2022-02-27T12:34:59Z</time>
      </trkpt>
      <trkpt lat="47.23119" lon="-1.53861">
        <ele>75</ele>
        <time>2022-02-27T12:35:01Z</time>
      </trkpt>
      <trkpt lat="47.23108" lon="-1.53871">
        <ele>75</ele>
        <time>2022-02-27T12:35:03Z</time>
      </trkpt>
      <trkpt lat="47.23097" lon="-1.53881">
        <ele>74</ele>
        <time>2022-02-27T12:35:05Z</time>
      </trkpt>
      <trkpt lat="47.23087" lon="-1.53892">
        <ele>74</ele>
        <time>2022-02-27T12:35:07Z</time>
      </trkpt>
      <trkpt lat="47.23077" lon="-1.53902">
        <ele>73</ele>
        <time>2022-02-27T12:35:09Z</time>
      </trkpt>
      <trkpt lat="47.23066" lon="-1.53914">
        <ele>73</ele>
        <time>2022-02-27T12:35:11Z</time>
      </trkpt>
      <trkpt lat="47.23056" lon="-1.53924">
        <ele>73</ele>
        <time>2022-02-27T12:35:13Z</time>
      </trkpt>
      <trkpt lat="47.23045" lon="-1.53934">
        <ele>73</ele>
        <time>2022-02-27T12:35:15Z</time>
      </trkpt>
      <trkpt lat="47.23035" lon="-1.53946">
        <ele>72</ele>
        <time>2022-02-27T12:35:17Z</time>
      </trkpt>
      <trkpt lat="47.23024" lon="-1.53957">
        <ele>72</ele>
        <time>2022-02-27T12:35:19Z</time>
      </trkpt>
      <trkpt lat="47.23013" lon="-1.53967">
        <ele>73</ele>
        <time>2022-02-27T12:35:21Z</time>
      </trkpt>
      <trkpt lat="47.23003" lon="-1.53977">
        <ele>73</ele>
        <time>2022-02-27T12:35:23Z</time>
      </trkpt>
      <trkpt lat="47.22994" lon="-1.53987">
        <ele>73</ele>
        <time>2022-02-27T12:35:25Z</time>
      </trkpt>
      <trkpt lat="47.22982" lon="-1.53998">
        <ele>72</ele>
        <time>2022-02-27T12:35:27Z</time>
      </trkpt>
      <trkpt lat="47.22971" lon="-1.54008">
        <ele>72</ele>
        <time>2022-02-27T12:35:29Z</time>
      </trkpt>
      <trkpt lat="47.22961" lon="-1.54019">
        <ele>72</ele>
        <time>2022-02-27T12:35:31Z</time>
      </trkpt>
      <trkpt lat="47.2295" lon="-1.54029">
        <ele>72</ele>
        <time>2022-02-27T12:35:33Z</time>
      </trkpt>
      <trkpt lat="47.2294" lon="-1.5404">
        <ele>72</ele>
        <time>2022-02-27T12:35:35Z</time>
      </trkpt>
      <trkpt lat="47.2293" lon="-1.54049">
        <ele>72</ele>
        <time>2022-02-27T12:35:37Z</time>
      </trkpt>
      <trkpt lat="47.2292" lon="-1.54059">
        <ele>72</ele>
        <time>2022-02-27T12:35:39Z</time>
      </trkpt>
      <trkpt lat="47.2291" lon="-1.5407">
        <ele>72</ele>
        <time>2022-02-27T12:35:41Z</time>
      </trkpt>
      <trkpt lat="47.229" lon="-1.5408">
        <ele>72</ele>
        <time>2022-02-27T12:35:43Z</time>
      </trkpt>
      <trkpt lat="47.2289" lon="-1.5409">
        <ele>71</ele>
        <time>2022-02-27T12:35:45Z</time>
      </trkpt>
      <trkpt lat="47.22879" lon="-1.54101">
        <ele>70</ele>
        <time>2022-02-27T12:35:47Z</time>
      </trkpt>
      <trkpt lat="47.22869" lon="-1.54113">
        <ele>69</ele>
        <time>2022-02-27T12:35:49Z</time>
      </trkpt>
      <trkpt lat="47.22859" lon="-1.54123">
        <ele>69</ele>
        <time>2022-02-27T12:35:51Z</time>
      </trkpt>
      <trkpt lat="47.22849" lon="-1.54133">
        <ele>69</ele>
        <time>2022-02-27T12:35:53Z</time>
      </trkpt>
      <trkpt lat="47.22839" lon="-1.54142">
        <ele>69</ele>
        <time>2022-02-27T12:35:55Z</time>
      </trkpt>
      <trkpt lat="47.22829" lon="-1.54151">
        <ele>70</ele>
        <time>2022-02-27T12:35:57Z</time>
      </trkpt>
      <trkpt lat="47.22819" lon="-1.54161">
        <ele>70</ele>
        <time>2022-02-27T12:35:59Z</time>
      </trkpt>
      <trkpt lat="47.2281" lon="-1.5417">
        <ele>70</ele>
        <time>2022-02-27T12:36:01Z</time>
      </trkpt>
      <trkpt lat="47.22799" lon="-1.5418">
        <ele>70</ele>
        <time>2022-02-27T12:36:03Z</time>
      </trkpt>
      <trkpt lat="47.2279" lon="-1.5419">
        <ele>70</ele>
        <time>2022-02-27T12:36:05Z</time>
      </trkpt>
      <trkpt lat="47.22781" lon="-1.542">
        <ele>70</ele>
        <time>2022-02-27T12:36:07Z</time>
      </trkpt>
      <trkpt lat="47.22772" lon="-1.54209">
        <ele>70</ele>
        <time>2022-02-27T12:36:09Z</time>
      </trkpt>
      <trkpt lat="47.22762" lon="-1.54217">
        <ele>69</ele>
        <time>2022-02-27T12:36:11Z</time>
      </trkpt>
      <trkpt lat="47.22754" lon="-1.54225">
        <ele>70</ele>
        <time>2022-02-27T12:36:13Z</time>
      </trkpt>
      <trkpt lat="47.22744" lon="-1.54238">
        <ele>70</ele>
        <time>2022-02-27T12:36:16Z</time>
      </trkpt>
      <trkpt lat="47.22736" lon="-1.54246">
        <ele>71</ele>
        <time>2022-02-27T12:36:18Z</time>
      </trkpt>
      <trkpt lat="47.22727" lon="-1.54256">
        <ele>71</ele>
        <time>2022-02-27T12:36:20Z</time>
      </trkpt>
      <trkpt lat="47.22718" lon="-1.54265">
        <ele>72</ele>
        <time>2022-02-27T12:36:22Z</time>
      </trkpt>
      <trkpt lat="47.22706" lon="-1.54272">
        <ele>71</ele>
        <time>2022-02-27T12:36:24Z</time>
      </trkpt>
      <trkpt lat="47.22694" lon="-1.54279">
        <ele>71</ele>
        <time>2022-02-27T12:36:26Z</time>
      </trkpt>
      <trkpt lat="47.22683" lon="-1.54288">
        <ele>71</ele>
        <time>2022-02-27T12:36:28Z</time>
      </trkpt>
      <trkpt lat="47.22671" lon="-1.54296">
        <ele>70</ele>
        <time>2022-02-27T12:36:30Z</time>
      </trkpt>
      <trkpt lat="47.2266" lon="-1.54305">
        <ele>70</ele>
        <time>2022-02-27T12:36:32Z</time>
      </trkpt>
      <trkpt lat="47.22649" lon="-1.54314">
        <ele>70</ele>
        <time>2022-02-27T12:36:34Z</time>
      </trkpt>
      <trkpt lat="47.22637" lon="-1.54323">
        <ele>70</ele>
        <time>2022-02-27T12:36:36Z</time>
      </trkpt>
      <trkpt lat="47.22626" lon="-1.54333">
        <ele>69</ele>
        <time>2022-02-27T12:36:38Z</time>
      </trkpt>
      <trkpt lat="47.22614" lon="-1.54342">
        <ele>69</ele>
        <time>2022-02-27T12:36:40Z</time>
      </trkpt>
      <trkpt lat="47.22602" lon="-1.54351">
        <ele>69</ele>
        <time>2022-02-27T12:36:42Z</time>
      </trkpt>
      <trkpt lat="47.2259" lon="-1.54361">
        <ele>68</ele>
        <time>2022-02-27T12:36:44Z</time>
      </trkpt>
      <trkpt lat="47.22579" lon="-1.54369">
        <ele>68</ele>
        <time>2022-02-27T12:36:46Z</time>
      </trkpt>
      <trkpt lat="47.22568" lon="-1.54378">
        <ele>68</ele>
        <time>2022-02-27T12:36:48Z</time>
      </trkpt>
      <trkpt lat="47.22556" lon="-1.54387">
        <ele>68</ele>
        <time>2022-02-27T12:36:50Z</time>
      </trkpt>
      <trkpt lat="47.22546" lon="-1.54396">
        <ele>68</ele>
        <time>2022-02-27T12:36:52Z</time>
      </trkpt>
      <trkpt lat="47.22535" lon="-1.54405">
        <ele>68</ele>
        <time>2022-02-27T12:36:54Z</time>
      </trkpt>
      <trkpt lat="47.22525" lon="-1.54414">
        <ele>68</ele>
        <time>2022-02-27T12:36:56Z</time>
      </trkpt>
      <trkpt lat="47.22514" lon="-1.54422">
        <ele>68</ele>
        <time>2022-02-27T12:36:58Z</time>
      </trkpt>
      <trkpt lat="47.22502" lon="-1.54431">
        <ele>68</ele>
        <time>2022-02-27T12:37:00Z</time>
      </trkpt>
      <trkpt lat="47.22491" lon="-1.5444">
        <ele>67</ele>
        <time>2022-02-27T12:37:02Z</time>
      </trkpt>
      <trkpt lat="47.2248" lon="-1.54448">
        <ele>67</ele>
        <time>2022-02-27T12:37:04Z</time>
      </trkpt>
      <trkpt lat="47.22469" lon="-1.54457">
        <ele>67</ele>
        <time>2022-02-27T12:37:06Z</time>
      </trkpt>
      <trkpt lat="47.22458" lon="-1.54466">
        <ele>67</ele>
        <time>2022-02-27T12:37:08Z</time>
      </trkpt>
      <trkpt lat="47.22447" lon="-1.54474">
        <ele>68</ele>
        <time>2022-02-27T12:37:10Z</time>
      </trkpt>
      <trkpt lat="47.22437" lon="-1.54483">
        <ele>68</ele>
        <time>2022-02-27T12:37:12Z</time>
      </trkpt>
      <trkpt lat="47.22426" lon="-1.54492">
        <ele>67</ele>
        <time>2022-02-27T12:37:14Z</time>
      </trkpt>
      <trkpt lat="47.22416" lon="-1.54502">
        <ele>67</ele>
        <time>2022-02-27T12:37:16Z</time>
      </trkpt>
      <trkpt lat="47.22405" lon="-1.5451">
        <ele>67</ele>
        <time>2022-02-27T12:37:18Z</time>
      </trkpt>
      <trkpt lat="47.22393" lon="-1.54519">
        <ele>67</ele>
        <time>2022-02-27T12:37:20Z</time>
      </trkpt>
      <trkpt lat="47.22381" lon="-1.54528">
        <ele>67</ele>
        <time>2022-02-27T12:37:22Z</time>
      </trkpt>
      <trkpt lat="47.22367" lon="-1.54535">
        <ele>67</ele>
        <time>2022-02-27T12:37:24Z</time>
      </trkpt>
      <trkpt lat="47.22355" lon="-1.54543">
        <ele>67</ele>
        <time>2022-02-27T12:37:26Z</time>
      </trkpt>
      <trkpt lat="47.22343" lon="-1.54552">
        <ele>67</ele>
        <time>2022-02-27T12:37:28Z</time>
      </trkpt>
      <trkpt lat="47.22331" lon="-1.54561">
        <ele>68</ele>
        <time>2022-02-27T12:37:30Z</time>
      </trkpt>
      <trkpt lat="47.2232" lon="-1.5457">
        <ele>68</ele>
        <time>2022-02-27T12:37:32Z</time>
      </trkpt>
      <trkpt lat="47.22309" lon="-1.5458">
        <ele>68</ele>
        <time>2022-02-27T12:37:34Z</time>
      </trkpt>
      <trkpt lat="47.22299" lon="-1.54589">
        <ele>68</ele>
        <time>2022-02-27T12:37:36Z</time>
      </trkpt>
      <trkpt lat="47.22289" lon="-1.54598">
        <ele>67</ele>
        <time>2022-02-27T12:37:38Z</time>
      </trkpt>
      <trkpt lat="47.22278" lon="-1.54607">
        <ele>67</ele>
        <time>2022-02-27T12:37:40Z</time>
      </trkpt>
      <trkpt lat="47.22268" lon="-1.54616">
        <ele>67</ele>
        <time>2022-02-27T12:37:42Z</time>
      </trkpt>
      <trkpt lat="47.22259" lon="-1.54627">
        <ele>66</ele>
        <time>2022-02-27T12:37:44Z</time>
      </trkpt>
      <trkpt lat="47.22251" lon="-1.5464">
        <ele>66</ele>
        <time>2022-02-27T12:37:46Z</time>
      </trkpt>
      <trkpt lat="47.22243" lon="-1.54653">
        <ele>66</ele>
        <time>2022-02-27T12:37:48Z</time>
      </trkpt>
      <trkpt lat="47.22234" lon="-1.54667">
        <ele>66</ele>
        <time>2022-02-27T12:37:50Z</time>
      </trkpt>
      <trkpt lat="47.22224" lon="-1.54679">
        <ele>66</ele>
        <time>2022-02-27T12:37:52Z</time>
      </trkpt>
      <trkpt lat="47.22214" lon="-1.54694">
        <ele>65</ele>
        <time>2022-02-27T12:37:54Z</time>
      </trkpt>
      <trkpt lat="47.22204" lon="-1.54709">
        <ele>65</ele>
        <time>2022-02-27T12:37:56Z</time>
      </trkpt>
      <trkpt lat="47.22194" lon="-1.54723">
        <ele>64</ele>
        <time>2022-02-27T12:37:58Z</time>
      </trkpt>
      <trkpt lat="47.22184" lon="-1.54737">
        <ele>64</ele>
        <time>2022-02-27T12:38:00Z</time>
      </trkpt>
      <trkpt lat="47.22173" lon="-1.54749">
        <ele>63</ele>
        <time>2022-02-27T12:38:02Z</time>
      </trkpt>
      <trkpt lat="47.22162" lon="-1.54761">
        <ele>62</ele>
        <time>2022-02-27T12:38:04Z</time>
      </trkpt>
      <trkpt lat="47.22152" lon="-1.54773">
        <ele>62</ele>
        <time>2022-02-27T12:38:06Z</time>
      </trkpt>
      <trkpt lat="47.22142" lon="-1.54784">
        <ele>63</ele>
        <time>2022-02-27T12:38:08Z</time>
      </trkpt>
      <trkpt lat="47.22132" lon="-1.54796">
        <ele>64</ele>
        <time>2022-02-27T12:38:10Z</time>
      </trkpt>
      <trkpt lat="47.22122" lon="-1.54807">
        <ele>65</ele>
        <time>2022-02-27T12:38:12Z</time>
      </trkpt>
      <trkpt lat="47.22111" lon="-1.54818">
        <ele>67</ele>
        <time>2022-02-27T12:38:14Z</time>
      </trkpt>
      <trkpt lat="47.22101" lon="-1.54829">
        <ele>67</ele>
        <time>2022-02-27T12:38:16Z</time>
      </trkpt>
      <trkpt lat="47.22091" lon="-1.54841">
        <ele>68</ele>
        <time>2022-02-27T12:38:18Z</time>
      </trkpt>
      <trkpt lat="47.2208" lon="-1.54852">
        <ele>69</ele>
        <time>2022-02-27T12:38:20Z</time>
      </trkpt>
      <trkpt lat="47.22069" lon="-1.54863">
        <ele>69</ele>
        <time>2022-02-27T12:38:22Z</time>
      </trkpt>
      <trkpt lat="47.22059" lon="-1.54876">
        <ele>70</ele>
        <time>2022-02-27T12:38:24Z</time>
      </trkpt>
      <trkpt lat="47.22049" lon="-1.54886">
        <ele>71</ele>
        <time>2022-02-27T12:38:26Z</time>
      </trkpt>
      <trkpt lat="47.2204" lon="-1.54897">
        <ele>72</ele>
        <time>2022-02-27T12:38:28Z</time>
      </trkpt>
      <trkpt lat="47.2203" lon="-1.54907">
        <ele>72</ele>
        <time>2022-02-27T12:38:30Z</time>
      </trkpt>
      <trkpt lat="47.22021" lon="-1.54916">
        <ele>72</ele>
        <time>2022-02-27T12:38:32Z</time>
      </trkpt>
      <trkpt lat="47.22014" lon="-1.54924">
        <ele>72</ele>
        <time>2022-02-27T12:38:34Z</time>
      </trkpt>
      <trkpt lat="47.22005" lon="-1.54933">
        <ele>73</ele>
        <time>2022-02-27T12:38:38Z</time>
      </trkpt>
      <trkpt lat="47.21996" lon="-1.54942">
        <ele>75</ele>
        <time>2022-02-27T12:38:44Z</time>
      </trkpt>
      <trkpt lat="47.21988" lon="-1.54956">
        <ele>74</ele>
        <time>2022-02-27T12:38:47Z</time>
      </trkpt>
      <trkpt lat="47.21982" lon="-1.5497">
        <ele>72</ele>
        <time>2022-02-27T12:38:49Z</time>
      </trkpt>
      <trkpt lat="47.21976" lon="-1.54984">
        <ele>70</ele>
        <time>2022-02-27T12:38:51Z</time>
      </trkpt>
      <trkpt lat="47.21968" lon="-1.54997">
        <ele>69</ele>
        <time>2022-02-27T12:38:53Z</time>
      </trkpt>
      <trkpt lat="47.21961" lon="-1.5501">
        <ele>69</ele>
        <time>2022-02-27T12:38:55Z</time>
      </trkpt>
      <trkpt lat="47.21951" lon="-1.55018">
        <ele>68</ele>
        <time>2022-02-27T12:38:57Z</time>
      </trkpt>
      <trkpt lat="47.21942" lon="-1.5502">
        <ele>68</ele>
        <time>2022-02-27T12:38:59Z</time>
      </trkpt>
      <trkpt lat="47.21932" lon="-1.55019">
        <ele>68</ele>
        <time>2022-02-27T12:39:01Z</time>
      </trkpt>
      <trkpt lat="47.2192" lon="-1.55018">
        <ele>68</ele>
        <time>2022-02-27T12:39:04Z</time>
      </trkpt>
      <trkpt lat="47.2191" lon="-1.55032">
        <ele>66</ele>
        <time>2022-02-27T12:39:07Z</time>
      </trkpt>
      <trkpt lat="47.21902" lon="-1.55041">
        <ele>66</ele>
        <time>2022-02-27T12:39:09Z</time>
      </trkpt>
      <trkpt lat="47.21893" lon="-1.55049">
        <ele>65</ele>
        <time>2022-02-27T12:39:11Z</time>
      </trkpt>
      <trkpt lat="47.21883" lon="-1.55059">
        <ele>65</ele>
        <time>2022-02-27T12:39:13Z</time>
      </trkpt>
      <trkpt lat="47.21874" lon="-1.5507">
        <ele>66</ele>
        <time>2022-02-27T12:39:15Z</time>
      </trkpt>
      <trkpt lat="47.21864" lon="-1.55081">
        <ele>66</ele>
        <time>2022-02-27T12:39:17Z</time>
      </trkpt>
      <trkpt lat="47.21856" lon="-1.55094">
        <ele>65</ele>
        <time>2022-02-27T12:39:19Z</time>
      </trkpt>
      <trkpt lat="47.21848" lon="-1.55104">
        <ele>65</ele>
        <time>2022-02-27T12:39:21Z</time>
      </trkpt>
      <trkpt lat="47.21841" lon="-1.55117">
        <ele>64</ele>
        <time>2022-02-27T12:39:23Z</time>
      </trkpt>
      <trkpt lat="47.21837" lon="-1.55133">
        <ele>63</ele>
        <time>2022-02-27T12:39:25Z</time>
      </trkpt>
      <trkpt lat="47.21834" lon="-1.55149">
        <ele>63</ele>
        <time>2022-02-27T12:39:27Z</time>
      </trkpt>
      <trkpt lat="47.21825" lon="-1.5516">
        <ele>62</ele>
        <time>2022-02-27T12:39:29Z</time>
      </trkpt>
      <trkpt lat="47.21817" lon="-1.55172">
        <ele>63</ele>
        <time>2022-02-27T12:39:31Z</time>
      </trkpt>
      <trkpt lat="47.21814" lon="-1.55188">
        <ele>63</ele>
        <time>2022-02-27T12:39:33Z</time>
      </trkpt>
      <trkpt lat="47.21811" lon="-1.55205">
        <ele>63</ele>
        <time>2022-02-27T12:39:35Z</time>
      </trkpt>
      <trkpt lat="47.21809" lon="-1.5522">
        <ele>63</ele>
        <time>2022-02-27T12:39:37Z</time>
      </trkpt>
      <trkpt lat="47.21809" lon="-1.55234">
        <ele>63</ele>
        <time>2022-02-27T12:39:39Z</time>
      </trkpt>
      <trkpt lat="47.21808" lon="-1.55249">
        <ele>63</ele>
        <time>2022-02-27T12:39:42Z</time>
      </trkpt>
      <trkpt lat="47.21808" lon="-1.55263">
        <ele>63</ele>
        <time>2022-02-27T12:39:46Z</time>
      </trkpt>
      <trkpt lat="47.21804" lon="-1.55275">
        <ele>64</ele>
        <time>2022-02-27T12:40:08Z</time>
      </trkpt>
      <trkpt lat="47.218" lon="-1.55294">
        <ele>65</ele>
        <time>2022-02-27T12:40:11Z</time>
      </trkpt>
      <trkpt lat="47.21797" lon="-1.55317">
        <ele>66</ele>
        <time>2022-02-27T12:40:13Z</time>
      </trkpt>
      <trkpt lat="47.21793" lon="-1.55341">
        <ele>65</ele>
        <time>2022-02-27T12:40:15Z</time>
      </trkpt>
      <trkpt lat="47.21791" lon="-1.55361">
        <ele>65</ele>
        <time>2022-02-27T12:40:17Z</time>
      </trkpt>
      <trkpt lat="47.21789" lon="-1.55381">
        <ele>63</ele>
        <time>2022-02-27T12:40:19Z</time>
      </trkpt>
      <trkpt lat="47.21786" lon="-1.55403">
        <ele>62</ele>
        <time>2022-02-27T12:40:21Z</time>
      </trkpt>
      <trkpt lat="47.21783" lon="-1.55426">
        <ele>61</ele>
        <time>2022-02-27T12:40:23Z</time>
      </trkpt>
      <trkpt lat="47.2178" lon="-1.55448">
        <ele>58</ele>
        <time>2022-02-27T12:40:25Z</time>
      </trkpt>
      <trkpt lat="47.21778" lon="-1.55469">
        <ele>57</ele>
        <time>2022-02-27T12:40:27Z</time>
      </trkpt>
      <trkpt lat="47.21776" lon="-1.55491">
        <ele>56</ele>
        <time>2022-02-27T12:40:29Z</time>
      </trkpt>
      <trkpt lat="47.21776" lon="-1.55512">
        <ele>56</ele>
        <time>2022-02-27T12:40:31Z</time>
      </trkpt>
      <trkpt lat="47.21775" lon="-1.55535">
        <ele>56</ele>
        <time>2022-02-27T12:40:33Z</time>
      </trkpt>
      <trkpt lat="47.21775" lon="-1.55557">
        <ele>56</ele>
        <time>2022-02-27T12:40:35Z</time>
      </trkpt>
      <trkpt lat="47.21775" lon="-1.55579">
        <ele>55</ele>
        <time>2022-02-27T12:40:37Z</time>
      </trkpt>
      <trkpt lat="47.21775" lon="-1.556">
        <ele>55</ele>
        <time>2022-02-27T12:40:39Z</time>
      </trkpt>
      <trkpt lat="47.21776" lon="-1.5562">
        <ele>55</ele>
        <time>2022-02-27T12:40:41Z</time>
      </trkpt>
      <trkpt lat="47.21776" lon="-1.55639">
        <ele>55</ele>
        <time>2022-02-27T12:40:43Z</time>
      </trkpt>
      <trkpt lat="47.21778" lon="-1.55659">
        <ele>54</ele>
        <time>2022-02-27T12:40:45Z</time>
      </trkpt>
      <trkpt lat="47.21779" lon="-1.55678">
        <ele>55</ele>
        <time>2022-02-27T12:40:47Z</time>
      </trkpt>
      <trkpt lat="47.21779" lon="-1.55694">
        <ele>54</ele>
        <time>2022-02-27T12:40:49Z</time>
      </trkpt>
      <trkpt lat="47.21781" lon="-1.55707">
        <ele>55</ele>
        <time>2022-02-27T12:40:51Z</time>
      </trkpt>
      <trkpt lat="47.21775" lon="-1.55718">
        <ele>55</ele>
        <time>2022-02-27T12:40:53Z</time>
      </trkpt>
      <trkpt lat="47.21764" lon="-1.55719">
        <ele>56</ele>
        <time>2022-02-27T12:40:55Z</time>
      </trkpt>
      <trkpt lat="47.21754" lon="-1.55719">
        <ele>55</ele>
        <time>2022-02-27T12:40:57Z</time>
      </trkpt>
      <trkpt lat="47.21744" lon="-1.55711">
        <ele>56</ele>
        <time>2022-02-27T12:40:59Z</time>
      </trkpt>
      <trkpt lat="47.21733" lon="-1.55703">
        <ele>56</ele>
        <time>2022-02-27T12:41:01Z</time>
      </trkpt>
      <trkpt lat="47.2172" lon="-1.557">
        <ele>57</ele>
        <time>2022-02-27T12:41:03Z</time>
      </trkpt>
      <trkpt lat="47.21706" lon="-1.55695">
        <ele>57</ele>
        <time>2022-02-27T12:41:05Z</time>
      </trkpt>
      <trkpt lat="47.21693" lon="-1.5569">
        <ele>57</ele>
        <time>2022-02-27T12:41:07Z</time>
      </trkpt>
      <trkpt lat="47.21678" lon="-1.55685">
        <ele>58</ele>
        <time>2022-02-27T12:41:09Z</time>
      </trkpt>
      <trkpt lat="47.21665" lon="-1.5568">
        <ele>59</ele>
        <time>2022-02-27T12:41:11Z</time>
      </trkpt>
      <trkpt lat="47.21652" lon="-1.55675">
        <ele>59</ele>
        <time>2022-02-27T12:41:13Z</time>
      </trkpt>
      <trkpt lat="47.2164" lon="-1.55671">
        <ele>59</ele>
        <time>2022-02-27T12:41:15Z</time>
      </trkpt>
      <trkpt lat="47.21628" lon="-1.55666">
        <ele>59</ele>
        <time>2022-02-27T12:41:17Z</time>
      </trkpt>
      <trkpt lat="47.21616" lon="-1.55662">
        <ele>59</ele>
        <time>2022-02-27T12:41:19Z</time>
      </trkpt>
      <trkpt lat="47.21604" lon="-1.55658">
        <ele>59</ele>
        <time>2022-02-27T12:41:21Z</time>
      </trkpt>
      <trkpt lat="47.21592" lon="-1.55653">
        <ele>58</ele>
        <time>2022-02-27T12:41:23Z</time>
      </trkpt>
      <trkpt lat="47.21579" lon="-1.55647">
        <ele>58</ele>
        <time>2022-02-27T12:41:25Z</time>
      </trkpt>
      <trkpt lat="47.21565" lon="-1.55642">
        <ele>58</ele>
        <time>2022-02-27T12:41:27Z</time>
      </trkpt>
      <trkpt lat="47.21551" lon="-1.55636">
        <ele>58</ele>
        <time>2022-02-27T12:41:29Z</time>
      </trkpt>
      <trkpt lat="47.21538" lon="-1.55631">
        <ele>58</ele>
        <time>2022-02-27T12:41:31Z</time>
      </trkpt>
      <trkpt lat="47.21525" lon="-1.55625">
        <ele>58</ele>
        <time>2022-02-27T12:41:33Z</time>
      </trkpt>
      <trkpt lat="47.21512" lon="-1.55619">
        <ele>58</ele>
        <time>2022-02-27T12:41:35Z</time>
      </trkpt>
      <trkpt lat="47.215" lon="-1.55613">
        <ele>59</ele>
        <time>2022-02-27T12:41:37Z</time>
      </trkpt>
      <trkpt lat="47.21488" lon="-1.55604">
        <ele>59</ele>
        <time>2022-02-27T12:41:39Z</time>
      </trkpt>
      <trkpt lat="47.21476" lon="-1.55594">
        <ele>60</ele>
        <time>2022-02-27T12:41:41Z</time>
      </trkpt>
      <trkpt lat="47.21463" lon="-1.55583">
        <ele>60</ele>
        <time>2022-02-27T12:41:43Z</time>
      </trkpt>
      <trkpt lat="47.21451" lon="-1.55573">
        <ele>59</ele>
        <time>2022-02-27T12:41:45Z</time>
      </trkpt>
      <trkpt lat="47.21439" lon="-1.55562">
        <ele>58</ele>
        <time>2022-02-27T12:41:47Z</time>
      </trkpt>
      <trkpt lat="47.21428" lon="-1.55552">
        <ele>58</ele>
        <time>2022-02-27T12:41:49Z</time>
      </trkpt>
      <trkpt lat="47.21416" lon="-1.55542">
        <ele>58</ele>
        <time>2022-02-27T12:41:51Z</time>
      </trkpt>
      <trkpt lat="47.21404" lon="-1.5553">
        <ele>57</ele>
        <time>2022-02-27T12:41:53Z</time>
      </trkpt>
      <trkpt lat="47.21392" lon="-1.55517">
        <ele>57</ele>
        <time>2022-02-27T12:41:55Z</time>
      </trkpt>
      <trkpt lat="47.21382" lon="-1.55505">
        <ele>57</ele>
        <time>2022-02-27T12:41:57Z</time>
      </trkpt>
      <trkpt lat="47.21374" lon="-1.55494">
        <ele>57</ele>
        <time>2022-02-27T12:41:59Z</time>
      </trkpt>
      <trkpt lat="47.21367" lon="-1.55485">
        <ele>57</ele>
        <time>2022-02-27T12:42:01Z</time>
      </trkpt>
      <trkpt lat="47.21359" lon="-1.55476">
        <ele>57</ele>
        <time>2022-02-27T12:42:05Z</time>
      </trkpt>
      <trkpt lat="47.21351" lon="-1.55469">
        <ele>57</ele>
        <time>2022-02-27T12:42:07Z</time>
      </trkpt>
      <trkpt lat="47.2134" lon="-1.5546">
        <ele>57</ele>
        <time>2022-02-27T12:42:09Z</time>
      </trkpt>
      <trkpt lat="47.21329" lon="-1.55451">
        <ele>57</ele>
        <time>2022-02-27T12:42:11Z</time>
      </trkpt>
      <trkpt lat="47.21318" lon="-1.55442">
        <ele>57</ele>
        <time>2022-02-27T12:42:13Z</time>
      </trkpt>
      <trkpt lat="47.21308" lon="-1.55434">
        <ele>57</ele>
        <time>2022-02-27T12:42:15Z</time>
      </trkpt>
      <trkpt lat="47.21298" lon="-1.55425">
        <ele>57</ele>
        <time>2022-02-27T12:42:17Z</time>
      </trkpt>
      <trkpt lat="47.2129" lon="-1.55417">
        <ele>56</ele>
        <time>2022-02-27T12:42:19Z</time>
      </trkpt>
      <trkpt lat="47.2128" lon="-1.55414">
        <ele>57</ele>
        <time>2022-02-27T12:42:21Z</time>
      </trkpt>
      <trkpt lat="47.21268" lon="-1.55411">
        <ele>58</ele>
        <time>2022-02-27T12:42:24Z</time>
      </trkpt>
      <trkpt lat="47.21258" lon="-1.55424">
        <ele>58</ele>
        <time>2022-02-27T12:42:27Z</time>
      </trkpt>
      <trkpt lat="47.21247" lon="-1.55435">
        <ele>58</ele>
        <time>2022-02-27T12:42:29Z</time>
      </trkpt>
      <trkpt lat="47.21237" lon="-1.55449">
        <ele>57</ele>
        <time>2022-02-27T12:42:31Z</time>
      </trkpt>
      <trkpt lat="47.21227" lon="-1.55465">
        <ele>56</ele>
        <time>2022-02-27T12:42:33Z</time>
      </trkpt>
      <trkpt lat="47.21219" lon="-1.55482">
        <ele>55</ele>
        <time>2022-02-27T12:42:35Z</time>
      </trkpt>
      <trkpt lat="47.21212" lon="-1.55499">
        <ele>55</ele>
        <time>2022-02-27T12:42:37Z</time>
      </trkpt>
      <trkpt lat="47.21208" lon="-1.55518">
        <ele>55</ele>
        <time>2022-02-27T12:42:39Z</time>
      </trkpt>
      <trkpt lat="47.21203" lon="-1.55536">
        <ele>54</ele>
        <time>2022-02-27T12:42:41Z</time>
      </trkpt>
      <trkpt lat="47.21197" lon="-1.55554">
        <ele>54</ele>
        <time>2022-02-27T12:42:43Z</time>
      </trkpt>
      <trkpt lat="47.21192" lon="-1.55571">
        <ele>54</ele>
        <time>2022-02-27T12:42:45Z</time>
      </trkpt>
      <trkpt lat="47.21187" lon="-1.55587">
        <ele>54</ele>
        <time>2022-02-27T12:42:47Z</time>
      </trkpt>
      <trkpt lat="47.21182" lon="-1.55602">
        <ele>54</ele>
        <time>2022-02-27T12:42:49Z</time>
      </trkpt>
      <trkpt lat="47.21177" lon="-1.55617">
        <ele>53</ele>
        <time>2022-02-27T12:42:51Z</time>
      </trkpt>
      <trkpt lat="47.21172" lon="-1.55633">
        <ele>53</ele>
        <time>2022-02-27T12:42:53Z</time>
      </trkpt>
      <trkpt lat="47.21169" lon="-1.55648">
        <ele>53</ele>
        <time>2022-02-27T12:42:55Z</time>
      </trkpt>
      <trkpt lat="47.21168" lon="-1.55666">
        <ele>52</ele>
        <time>2022-02-27T12:42:57Z</time>
      </trkpt>
      <trkpt lat="47.21172" lon="-1.55683">
        <ele>52</ele>
        <time>2022-02-27T12:42:59Z</time>
      </trkpt>
      <trkpt lat="47.21172" lon="-1.55701">
        <ele>52</ele>
        <time>2022-02-27T12:43:01Z</time>
      </trkpt>
      <trkpt lat="47.21168" lon="-1.55719">
        <ele>51</ele>
        <time>2022-02-27T12:43:03Z</time>
      </trkpt>
      <trkpt lat="47.21162" lon="-1.55735">
        <ele>51</ele>
        <time>2022-02-27T12:43:05Z</time>
      </trkpt>
      <trkpt lat="47.21156" lon="-1.55751">
        <ele>51</ele>
        <time>2022-02-27T12:43:07Z</time>
      </trkpt>
      <trkpt lat="47.2115" lon="-1.55767">
        <ele>51</ele>
        <time>2022-02-27T12:43:09Z</time>
      </trkpt>
      <trkpt lat="47.21145" lon="-1.55784">
        <ele>51</ele>
        <time>2022-02-27T12:43:11Z</time>
      </trkpt>
      <trkpt lat="47.21142" lon="-1.55801">
        <ele>52</ele>
        <time>2022-02-27T12:43:13Z</time>
      </trkpt>
      <trkpt lat="47.21139" lon="-1.55819">
        <ele>51</ele>
        <time>2022-02-27T12:43:15Z</time>
      </trkpt>
      <trkpt lat="47.21138" lon="-1.55837">
        <ele>51</ele>
        <time>2022-02-27T12:43:17Z</time>
      </trkpt>
      <trkpt lat="47.21138" lon="-1.55856">
        <ele>51</ele>
        <time>2022-02-27T12:43:19Z</time>
      </trkpt>
      <trkpt lat="47.21143" lon="-1.55874">
        <ele>51</ele>
        <time>2022-02-27T12:43:21Z</time>
      </trkpt>
      <trkpt lat="47.21145" lon="-1.55892">
        <ele>51</ele>
        <time>2022-02-27T12:43:23Z</time>
      </trkpt>
      <trkpt lat="47.21139" lon="-1.55908">
        <ele>51</ele>
        <time>2022-02-27T12:43:25Z</time>
      </trkpt>
      <trkpt lat="47.21128" lon="-1.55917">
        <ele>51</ele>
        <time>2022-02-27T12:43:27Z</time>
      </trkpt>
      <trkpt lat="47.21115" lon="-1.55924">
        <ele>52</ele>
        <time>2022-02-27T12:43:29Z</time>
      </trkpt>
      <trkpt lat="47.21103" lon="-1.55933">
        <ele>52</ele>
        <time>2022-02-27T12:43:31Z</time>
      </trkpt>
      <trkpt lat="47.21092" lon="-1.55944">
        <ele>52</ele>
        <time>2022-02-27T12:43:33Z</time>
      </trkpt>
      <trkpt lat="47.21082" lon="-1.55956">
        <ele>52</ele>
        <time>2022-02-27T12:43:35Z</time>
      </trkpt>
      <trkpt lat="47.21073" lon="-1.55969">
        <ele>52</ele>
        <time>2022-02-27T12:43:37Z</time>
      </trkpt>
      <trkpt lat="47.21065" lon="-1.55984">
        <ele>52</ele>
        <time>2022-02-27T12:43:39Z</time>
      </trkpt>
      <trkpt lat="47.21059" lon="-1.55999">
        <ele>53</ele>
        <time>2022-02-27T12:43:41Z</time>
      </trkpt>
      <trkpt lat="47.21054" lon="-1.56014">
        <ele>53</ele>
        <time>2022-02-27T12:43:43Z</time>
      </trkpt>
      <trkpt lat="47.21047" lon="-1.56028">
        <ele>52</ele>
        <time>2022-02-27T12:43:45Z</time>
      </trkpt>
      <trkpt lat="47.21041" lon="-1.56044">
        <ele>52</ele>
        <time>2022-02-27T12:43:47Z</time>
      </trkpt>
      <trkpt lat="47.21034" lon="-1.56061">
        <ele>52</ele>
        <time>2022-02-27T12:43:49Z</time>
      </trkpt>
      <trkpt lat="47.21028" lon="-1.56076">
        <ele>52</ele>
        <time>2022-02-27T12:43:51Z</time>
      </trkpt>
      <trkpt lat="47.21022" lon="-1.56092">
        <ele>52</ele>
        <time>2022-02-27T12:43:53Z</time>
      </trkpt>
      <trkpt lat="47.21016" lon="-1.56107">
        <ele>52</ele>
        <time>2022-02-27T12:43:55Z</time>
      </trkpt>
      <trkpt lat="47.21011" lon="-1.5612">
        <ele>52</ele>
        <time>2022-02-27T12:43:57Z</time>
      </trkpt>
      <trkpt lat="47.21004" lon="-1.56132">
        <ele>52</ele>
        <time>2022-02-27T12:43:59Z</time>
      </trkpt>
      <trkpt lat="47.20999" lon="-1.56145">
        <ele>52</ele>
        <time>2022-02-27T12:44:01Z</time>
      </trkpt>
      <trkpt lat="47.20994" lon="-1.56166">
        <ele>52</ele>
        <time>2022-02-27T12:44:05Z</time>
      </trkpt>
      <trkpt lat="47.20977" lon="-1.56171">
        <ele>52</ele>
        <time>2022-02-27T12:44:09Z</time>
      </trkpt>
      <trkpt lat="47.20961" lon="-1.56167">
        <ele>54</ele>
        <time>2022-02-27T12:44:12Z</time>
      </trkpt>
      <trkpt lat="47.2095" lon="-1.56165">
        <ele>56</ele>
        <time>2022-02-27T12:44:14Z</time>
      </trkpt>
      <trkpt lat="47.20939" lon="-1.56162">
        <ele>57</ele>
        <time>2022-02-27T12:44:16Z</time>
      </trkpt>
      <trkpt lat="47.20928" lon="-1.56159">
        <ele>58</ele>
        <time>2022-02-27T12:44:18Z</time>
      </trkpt>
      <trkpt lat="47.20917" lon="-1.56157">
        <ele>58</ele>
        <time>2022-02-27T12:44:20Z</time>
      </trkpt>
      <trkpt lat="47.20906" lon="-1.56155">
        <ele>58</ele>
        <time>2022-02-27T12:44:22Z</time>
      </trkpt>
      <trkpt lat="47.20895" lon="-1.56151">
        <ele>59</ele>
        <time>2022-02-27T12:44:24Z</time>
      </trkpt>
      <trkpt lat="47.20884" lon="-1.56149">
        <ele>59</ele>
        <time>2022-02-27T12:44:26Z</time>
      </trkpt>
      <trkpt lat="47.20873" lon="-1.56147">
        <ele>58</ele>
        <time>2022-02-27T12:44:28Z</time>
      </trkpt>
      <trkpt lat="47.20861" lon="-1.56143">
        <ele>58</ele>
        <time>2022-02-27T12:44:30Z</time>
      </trkpt>
      <trkpt lat="47.20851" lon="-1.56142">
        <ele>57</ele>
        <time>2022-02-27T12:44:32Z</time>
      </trkpt>
      <trkpt lat="47.20842" lon="-1.56139">
        <ele>56</ele>
        <time>2022-02-27T12:44:34Z</time>
      </trkpt>
      <trkpt lat="47.20833" lon="-1.56139">
        <ele>57</ele>
        <time>2022-02-27T12:44:36Z</time>
      </trkpt>
      <trkpt lat="47.20831" lon="-1.56159">
        <ele>56</ele>
        <time>2022-02-27T12:44:39Z</time>
      </trkpt>
      <trkpt lat="47.20832" lon="-1.56178">
        <ele>56</ele>
        <time>2022-02-27T12:44:41Z</time>
      </trkpt>
      <trkpt lat="47.20832" lon="-1.56199">
        <ele>55</ele>
        <time>2022-02-27T12:44:43Z</time>
      </trkpt>
      <trkpt lat="47.20832" lon="-1.56219">
        <ele>54</ele>
        <time>2022-02-27T12:44:45Z</time>
      </trkpt>
      <trkpt lat="47.20831" lon="-1.56238">
        <ele>54</ele>
        <time>2022-02-27T12:44:47Z</time>
      </trkpt>
      <trkpt lat="47.20831" lon="-1.56258">
        <ele>54</ele>
        <time>2022-02-27T12:44:49Z</time>
      </trkpt>
      <trkpt lat="47.20831" lon="-1.56277">
        <ele>54</ele>
        <time>2022-02-27T12:44:51Z</time>
      </trkpt>
      <trkpt lat="47.2083" lon="-1.56295">
        <ele>53</ele>
        <time>2022-02-27T12:44:53Z</time>
      </trkpt>
      <trkpt lat="47.20827" lon="-1.56313">
        <ele>53</ele>
        <time>2022-02-27T12:44:55Z</time>
      </trkpt>
      <trkpt lat="47.20823" lon="-1.56329">
        <ele>53</ele>
        <time>2022-02-27T12:44:57Z</time>
      </trkpt>
      <trkpt lat="47.20819" lon="-1.56346">
        <ele>53</ele>
        <time>2022-02-27T12:44:59Z</time>
      </trkpt>
      <trkpt lat="47.20815" lon="-1.56364">
        <ele>53</ele>
        <time>2022-02-27T12:45:01Z</time>
      </trkpt>
      <trkpt lat="47.20811" lon="-1.56381">
        <ele>53</ele>
        <time>2022-02-27T12:45:03Z</time>
      </trkpt>
      <trkpt lat="47.20807" lon="-1.56398">
        <ele>52</ele>
        <time>2022-02-27T12:45:05Z</time>
      </trkpt>
      <trkpt lat="47.20803" lon="-1.56415">
        <ele>52</ele>
        <time>2022-02-27T12:45:07Z</time>
      </trkpt>
      <trkpt lat="47.20797" lon="-1.5643">
        <ele>52</ele>
        <time>2022-02-27T12:45:09Z</time>
      </trkpt>
      <trkpt lat="47.20793" lon="-1.56445">
        <ele>52</ele>
        <time>2022-02-27T12:45:11Z</time>
      </trkpt>
      <trkpt lat="47.20789" lon="-1.56459">
        <ele>53</ele>
        <time>2022-02-27T12:45:13Z</time>
      </trkpt>
      <trkpt lat="47.20784" lon="-1.56473">
        <ele>53</ele>
        <time>2022-02-27T12:45:15Z</time>
      </trkpt>
      <trkpt lat="47.2078" lon="-1.56489">
        <ele>53</ele>
        <time>2022-02-27T12:45:17Z</time>
      </trkpt>
      <trkpt lat="47.20777" lon="-1.56504">
        <ele>54</ele>
        <time>2022-02-27T12:45:19Z</time>
      </trkpt>
      <trkpt lat="47.2077" lon="-1.56515">
        <ele>53</ele>
        <time>2022-02-27T12:45:21Z</time>
      </trkpt>
      <trkpt lat="47.20761" lon="-1.56509">
        <ele>54</ele>
        <time>2022-02-27T12:45:23Z</time>
      </trkpt>
      <trkpt lat="47.20753" lon="-1.565">
        <ele>54</ele>
        <time>2022-02-27T12:45:25Z</time>
      </trkpt>
      <trkpt lat="47.20745" lon="-1.56493">
        <ele>54</ele>
        <time>2022-02-27T12:45:27Z</time>
      </trkpt>
      <trkpt lat="47.20736" lon="-1.56489">
        <ele>54</ele>
        <time>2022-02-27T12:45:30Z</time>
      </trkpt>
      <trkpt lat="47.20727" lon="-1.56502">
        <ele>55</ele>
        <time>2022-02-27T12:45:34Z</time>
      </trkpt>
      <trkpt lat="47.20715" lon="-1.56498">
        <ele>55</ele>
        <time>2022-02-27T12:45:36Z</time>
      </trkpt>
      <trkpt lat="47.20705" lon="-1.56487">
        <ele>55</ele>
        <time>2022-02-27T12:45:38Z</time>
      </trkpt>
      <trkpt lat="47.20694" lon="-1.56476">
        <ele>55</ele>
        <time>2022-02-27T12:45:40Z</time>
      </trkpt>
      <trkpt lat="47.20682" lon="-1.56467">
        <ele>55</ele>
        <time>2022-02-27T12:45:42Z</time>
      </trkpt>
      <trkpt lat="47.20671" lon="-1.56457">
        <ele>55</ele>
        <time>2022-02-27T12:45:44Z</time>
      </trkpt>
      <trkpt lat="47.2066" lon="-1.56446">
        <ele>55</ele>
        <time>2022-02-27T12:45:46Z</time>
      </trkpt>
      <trkpt lat="47.2065" lon="-1.56437">
        <ele>55</ele>
        <time>2022-02-27T12:45:48Z</time>
      </trkpt>
      <trkpt lat="47.2064" lon="-1.56428">
        <ele>55</ele>
        <time>2022-02-27T12:45:50Z</time>
      </trkpt>
      <trkpt lat="47.20632" lon="-1.56418">
        <ele>56</ele>
        <time>2022-02-27T12:45:52Z</time>
      </trkpt>
      <trkpt lat="47.20622" lon="-1.56406">
        <ele>58</ele>
        <time>2022-02-27T12:45:54Z</time>
      </trkpt>
      <trkpt lat="47.20612" lon="-1.56397">
        <ele>59</ele>
        <time>2022-02-27T12:45:56Z</time>
      </trkpt>
      <trkpt lat="47.206" lon="-1.56388">
        <ele>60</ele>
        <time>2022-02-27T12:45:58Z</time>
      </trkpt>
      <trkpt lat="47.20588" lon="-1.5638">
        <ele>61</ele>
        <time>2022-02-27T12:46:00Z</time>
      </trkpt>
      <trkpt lat="47.20577" lon="-1.56372">
        <ele>61</ele>
        <time>2022-02-27T12:46:02Z</time>
      </trkpt>
      <trkpt lat="47.20567" lon="-1.56363">
        <ele>61</ele>
        <time>2022-02-27T12:46:04Z</time>
      </trkpt>
      <trkpt lat="47.20557" lon="-1.56353">
        <ele>61</ele>
        <time>2022-02-27T12:46:06Z</time>
      </trkpt>
      <trkpt lat="47.20548" lon="-1.56344">
        <ele>61</ele>
        <time>2022-02-27T12:46:08Z</time>
      </trkpt>
      <trkpt lat="47.20539" lon="-1.56337">
        <ele>62</ele>
        <time>2022-02-27T12:46:10Z</time>
      </trkpt>
      <trkpt lat="47.20528" lon="-1.5633">
        <ele>66</ele>
        <time>2022-02-27T12:46:12Z</time>
      </trkpt>
      <trkpt lat="47.20518" lon="-1.5632">
        <ele>67</ele>
        <time>2022-02-27T12:46:14Z</time>
      </trkpt>
      <trkpt lat="47.20508" lon="-1.56311">
        <ele>67</ele>
        <time>2022-02-27T12:46:16Z</time>
      </trkpt>
      <trkpt lat="47.20498" lon="-1.56303">
        <ele>67</ele>
        <time>2022-02-27T12:46:18Z</time>
      </trkpt>
      <trkpt lat="47.2049" lon="-1.56292">
        <ele>67</ele>
        <time>2022-02-27T12:46:21Z</time>
      </trkpt>
      <trkpt lat="47.20484" lon="-1.56283">
        <ele>67</ele>
        <time>2022-02-27T12:46:23Z</time>
      </trkpt>
      <trkpt lat="47.20473" lon="-1.56275">
        <ele>67</ele>
        <time>2022-02-27T12:46:25Z</time>
      </trkpt>
      <trkpt lat="47.20461" lon="-1.56272">
        <ele>69</ele>
        <time>2022-02-27T12:46:28Z</time>
      </trkpt>
      <trkpt lat="47.20447" lon="-1.56267">
        <ele>68</ele>
        <time>2022-02-27T12:46:31Z</time>
      </trkpt>
      <trkpt lat="47.20435" lon="-1.56254">
        <ele>69</ele>
        <time>2022-02-27T12:46:33Z</time>
      </trkpt>
      <trkpt lat="47.20428" lon="-1.56239">
        <ele>70</ele>
        <time>2022-02-27T12:46:35Z</time>
      </trkpt>
      <trkpt lat="47.20418" lon="-1.56229">
        <ele>69</ele>
        <time>2022-02-27T12:46:37Z</time>
      </trkpt>
      <trkpt lat="47.20407" lon="-1.5622">
        <ele>67</ele>
        <time>2022-02-27T12:46:39Z</time>
      </trkpt>
      <trkpt lat="47.20395" lon="-1.56211">
        <ele>65</ele>
        <time>2022-02-27T12:46:41Z</time>
      </trkpt>
      <trkpt lat="47.20385" lon="-1.56202">
        <ele>64</ele>
        <time>2022-02-27T12:46:43Z</time>
      </trkpt>
      <trkpt lat="47.20378" lon="-1.56189">
        <ele>62</ele>
        <time>2022-02-27T12:46:45Z</time>
      </trkpt>
      <trkpt lat="47.20378" lon="-1.56171">
        <ele>61</ele>
        <time>2022-02-27T12:46:47Z</time>
      </trkpt>
      <trkpt lat="47.20379" lon="-1.56153">
        <ele>61</ele>
        <time>2022-02-27T12:46:49Z</time>
      </trkpt>
      <trkpt lat="47.20381" lon="-1.56137">
        <ele>60</ele>
        <time>2022-02-27T12:46:51Z</time>
      </trkpt>
      <trkpt lat="47.20383" lon="-1.56119">
        <ele>60</ele>
        <time>2022-02-27T12:46:53Z</time>
      </trkpt>
      <trkpt lat="47.20385" lon="-1.56102">
        <ele>60</ele>
        <time>2022-02-27T12:46:55Z</time>
      </trkpt>
      <trkpt lat="47.20387" lon="-1.56085">
        <ele>60</ele>
        <time>2022-02-27T12:46:57Z</time>
      </trkpt>
      <trkpt lat="47.20389" lon="-1.56069">
        <ele>60</ele>
        <time>2022-02-27T12:46:59Z</time>
      </trkpt>
      <trkpt lat="47.20391" lon="-1.56053">
        <ele>60</ele>
        <time>2022-02-27T12:47:01Z</time>
      </trkpt>
      <trkpt lat="47.20391" lon="-1.56035">
        <ele>60</ele>
        <time>2022-02-27T12:47:03Z</time>
      </trkpt>
      <trkpt lat="47.20391" lon="-1.56018">
        <ele>60</ele>
        <time>2022-02-27T12:47:05Z</time>
      </trkpt>
      <trkpt lat="47.20393" lon="-1.56001">
        <ele>60</ele>
        <time>2022-02-27T12:47:07Z</time>
      </trkpt>
      <trkpt lat="47.20394" lon="-1.55985">
        <ele>61</ele>
        <time>2022-02-27T12:47:09Z</time>
      </trkpt>
      <trkpt lat="47.20395" lon="-1.55969">
        <ele>61</ele>
        <time>2022-02-27T12:47:11Z</time>
      </trkpt>
      <trkpt lat="47.20397" lon="-1.55951">
        <ele>61</ele>
        <time>2022-02-27T12:47:13Z</time>
      </trkpt>
      <trkpt lat="47.20399" lon="-1.55934">
        <ele>61</ele>
        <time>2022-02-27T12:47:15Z</time>
      </trkpt>
      <trkpt lat="47.204" lon="-1.55917">
        <ele>61</ele>
        <time>2022-02-27T12:47:17Z</time>
      </trkpt>
      <trkpt lat="47.20402" lon="-1.55901">
        <ele>61</ele>
        <time>2022-02-27T12:47:19Z</time>
      </trkpt>
      <trkpt lat="47.20404" lon="-1.55884">
        <ele>61</ele>
        <time>2022-02-27T12:47:21Z</time>
      </trkpt>
      <trkpt lat="47.20406" lon="-1.55867">
        <ele>61</ele>
        <time>2022-02-27T12:47:23Z</time>
      </trkpt>
      <trkpt lat="47.20408" lon="-1.5585">
        <ele>61</ele>
        <time>2022-02-27T12:47:25Z</time>
      </trkpt>
      <trkpt lat="47.2041" lon="-1.55833">
        <ele>61</ele>
        <time>2022-02-27T12:47:27Z</time>
      </trkpt>
      <trkpt lat="47.20411" lon="-1.55816">
        <ele>61</ele>
        <time>2022-02-27T12:47:29Z</time>
      </trkpt>
      <trkpt lat="47.20413" lon="-1.55798">
        <ele>61</ele>
        <time>2022-02-27T12:47:31Z</time>
      </trkpt>
      <trkpt lat="47.20414" lon="-1.5578">
        <ele>61</ele>
        <time>2022-02-27T12:47:33Z</time>
      </trkpt>
      <trkpt lat="47.20416" lon="-1.55763">
        <ele>61</ele>
        <time>2022-02-27T12:47:35Z</time>
      </trkpt>
      <trkpt lat="47.20418" lon="-1.55745">
        <ele>61</ele>
        <time>2022-02-27T12:47:37Z</time>
      </trkpt>
      <trkpt lat="47.2042" lon="-1.55728">
        <ele>61</ele>
        <time>2022-02-27T12:47:39Z</time>
      </trkpt>
      <trkpt lat="47.20421" lon="-1.55711">
        <ele>62</ele>
        <time>2022-02-27T12:47:41Z</time>
      </trkpt>
      <trkpt lat="47.20423" lon="-1.55694">
        <ele>62</ele>
        <time>2022-02-27T12:47:43Z</time>
      </trkpt>
      <trkpt lat="47.20424" lon="-1.55677">
        <ele>62</ele>
        <time>2022-02-27T12:47:45Z</time>
      </trkpt>
      <trkpt lat="47.20427" lon="-1.5566">
        <ele>62</ele>
        <time>2022-02-27T12:47:47Z</time>
      </trkpt>
      <trkpt lat="47.20428" lon="-1.55643">
        <ele>62</ele>
        <time>2022-02-27T12:47:49Z</time>
      </trkpt>
      <trkpt lat="47.2043" lon="-1.55626">
        <ele>63</ele>
        <time>2022-02-27T12:47:51Z</time>
      </trkpt>
      <trkpt lat="47.20432" lon="-1.5561">
        <ele>63</ele>
        <time>2022-02-27T12:47:53Z</time>
      </trkpt>
      <trkpt lat="47.20434" lon="-1.55593">
        <ele>62</ele>
        <time>2022-02-27T12:47:55Z</time>
      </trkpt>
      <trkpt lat="47.20436" lon="-1.55576">
        <ele>62</ele>
        <time>2022-02-27T12:47:57Z</time>
      </trkpt>
      <trkpt lat="47.20437" lon="-1.55558">
        <ele>62</ele>
        <time>2022-02-27T12:47:59Z</time>
      </trkpt>
      <trkpt lat="47.20439" lon="-1.55541">
        <ele>62</ele>
        <time>2022-02-27T12:48:01Z</time>
      </trkpt>
      <trkpt lat="47.20441" lon="-1.55524">
        <ele>61</ele>
        <time>2022-02-27T12:48:03Z</time>
      </trkpt>
      <trkpt lat="47.20442" lon="-1.55508">
        <ele>62</ele>
        <time>2022-02-27T12:48:05Z</time>
      </trkpt>
      <trkpt lat="47.20443" lon="-1.5549">
        <ele>62</ele>
        <time>2022-02-27T12:48:07Z</time>
      </trkpt>
      <trkpt lat="47.20444" lon="-1.55474">
        <ele>62</ele>
        <time>2022-02-27T12:48:09Z</time>
      </trkpt>
      <trkpt lat="47.20445" lon="-1.55457">
        <ele>62</ele>
        <time>2022-02-27T12:48:11Z</time>
      </trkpt>
      <trkpt lat="47.20446" lon="-1.55442">
        <ele>62</ele>
        <time>2022-02-27T12:48:13Z</time>
      </trkpt>
      <trkpt lat="47.20445" lon="-1.55427">
        <ele>62</ele>
        <time>2022-02-27T12:48:15Z</time>
      </trkpt>
      <trkpt lat="47.20445" lon="-1.55412">
        <ele>62</ele>
        <time>2022-02-27T12:48:17Z</time>
      </trkpt>
      <trkpt lat="47.20446" lon="-1.55397">
        <ele>61</ele>
        <time>2022-02-27T12:48:19Z</time>
      </trkpt>
      <trkpt lat="47.20446" lon="-1.55383">
        <ele>61</ele>
        <time>2022-02-27T12:48:21Z</time>
      </trkpt>
      <trkpt lat="47.20446" lon="-1.55366">
        <ele>61</ele>
        <time>2022-02-27T12:48:24Z</time>
      </trkpt>
      <trkpt lat="47.20451" lon="-1.5535">
        <ele>61</ele>
        <time>2022-02-27T12:48:28Z</time>
      </trkpt>
      <trkpt lat="47.20455" lon="-1.55339">
        <ele>61</ele>
        <time>2022-02-27T12:48:31Z</time>
      </trkpt>
      <trkpt lat="47.20454" lon="-1.55323">
        <ele>61</ele>
        <time>2022-02-27T12:48:34Z</time>
      </trkpt>
      <trkpt lat="47.20445" lon="-1.55306">
        <ele>61</ele>
        <time>2022-02-27T12:48:37Z</time>
      </trkpt>
      <trkpt lat="47.20437" lon="-1.55295">
        <ele>62</ele>
        <time>2022-02-27T12:48:39Z</time>
      </trkpt>
      <trkpt lat="47.2043" lon="-1.55282">
        <ele>63</ele>
        <time>2022-02-27T12:48:41Z</time>
      </trkpt>
      <trkpt lat="47.20423" lon="-1.55267">
        <ele>63</ele>
        <time>2022-02-27T12:48:43Z</time>
      </trkpt>
      <trkpt lat="47.20417" lon="-1.55252">
        <ele>63</ele>
        <time>2022-02-27T12:48:45Z</time>
      </trkpt>
      <trkpt lat="47.20412" lon="-1.55238">
        <ele>63</ele>
        <time>2022-02-27T12:48:47Z</time>
      </trkpt>
      <trkpt lat="47.20407" lon="-1.55227">
        <ele>64</ele>
        <time>2022-02-27T12:48:49Z</time>
      </trkpt>
      <trkpt lat="47.20402" lon="-1.55213">
        <ele>64</ele>
        <time>2022-02-27T12:48:51Z</time>
      </trkpt>
      <trkpt lat="47.20396" lon="-1.552">
        <ele>64</ele>
        <time>2022-02-27T12:48:53Z</time>
      </trkpt>
      <trkpt lat="47.20389" lon="-1.55188">
        <ele>64</ele>
        <time>2022-02-27T12:48:55Z</time>
      </trkpt>
      <trkpt lat="47.20377" lon="-1.55184">
        <ele>64</ele>
        <time>2022-02-27T12:48:57Z</time>
      </trkpt>
      <trkpt lat="47.20367" lon="-1.55189">
        <ele>63</ele>
        <time>2022-02-27T12:48:59Z</time>
      </trkpt>
      <trkpt lat="47.20358" lon="-1.55201">
        <ele>61</ele>
        <time>2022-02-27T12:49:01Z</time>
      </trkpt>
      <trkpt lat="47.20347" lon="-1.55214">
        <ele>59</ele>
        <time>2022-02-27T12:49:03Z</time>
      </trkpt>
      <trkpt lat="47.20336" lon="-1.55227">
        <ele>57</ele>
        <time>2022-02-27T12:49:05Z</time>
      </trkpt>
      <trkpt lat="47.20327" lon="-1.55238">
        <ele>57</ele>
        <time>2022-02-27T12:49:07Z</time>
      </trkpt>
      <trkpt lat="47.20318" lon="-1.55249">
        <ele>57</ele>
        <time>2022-02-27T12:49:09Z</time>
      </trkpt>
      <trkpt lat="47.20312" lon="-1.55262">
        <ele>58</ele>
        <time>2022-02-27T12:49:11Z</time>
      </trkpt>
      <trkpt lat="47.20303" lon="-1.55274">
        <ele>60</ele>
        <time>2022-02-27T12:49:13Z</time>
      </trkpt>
      <trkpt lat="47.20294" lon="-1.55286">
        <ele>59</ele>
        <time>2022-02-27T12:49:15Z</time>
      </trkpt>
      <trkpt lat="47.20285" lon="-1.55297">
        <ele>59</ele>
        <time>2022-02-27T12:49:17Z</time>
      </trkpt>
      <trkpt lat="47.20276" lon="-1.55309">
        <ele>58</ele>
        <time>2022-02-27T12:49:19Z</time>
      </trkpt>
      <trkpt lat="47.20267" lon="-1.55321">
        <ele>58</ele>
        <time>2022-02-27T12:49:21Z</time>
      </trkpt>
      <trkpt lat="47.20259" lon="-1.55333">
        <ele>57</ele>
        <time>2022-02-27T12:49:23Z</time>
      </trkpt>
      <trkpt lat="47.2025" lon="-1.55347">
        <ele>57</ele>
        <time>2022-02-27T12:49:25Z</time>
      </trkpt>
      <trkpt lat="47.20242" lon="-1.55358">
        <ele>57</ele>
        <time>2022-02-27T12:49:27Z</time>
      </trkpt>
      <trkpt lat="47.20232" lon="-1.55369">
        <ele>57</ele>
        <time>2022-02-27T12:49:29Z</time>
      </trkpt>
      <trkpt lat="47.20223" lon="-1.55382">
        <ele>57</ele>
        <time>2022-02-27T12:49:31Z</time>
      </trkpt>
      <trkpt lat="47.20214" lon="-1.55393">
        <ele>57</ele>
        <time>2022-02-27T12:49:33Z</time>
      </trkpt>
      <trkpt lat="47.20205" lon="-1.55403">
        <ele>57</ele>
        <time>2022-02-27T12:49:35Z</time>
      </trkpt>
      <trkpt lat="47.20198" lon="-1.55413">
        <ele>58</ele>
        <time>2022-02-27T12:49:37Z</time>
      </trkpt>
      <trkpt lat="47.20191" lon="-1.55428">
        <ele>57</ele>
        <time>2022-02-27T12:49:40Z</time>
      </trkpt>
      <trkpt lat="47.20184" lon="-1.55442">
        <ele>57</ele>
        <time>2022-02-27T12:49:42Z</time>
      </trkpt>
      <trkpt lat="47.20179" lon="-1.55458">
        <ele>57</ele>
        <time>2022-02-27T12:49:44Z</time>
      </trkpt>
      <trkpt lat="47.20174" lon="-1.55475">
        <ele>57</ele>
        <time>2022-02-27T12:49:46Z</time>
      </trkpt>
      <trkpt lat="47.20172" lon="-1.55491">
        <ele>57</ele>
        <time>2022-02-27T12:49:48Z</time>
      </trkpt>
      <trkpt lat="47.20173" lon="-1.55508">
        <ele>56</ele>
        <time>2022-02-27T12:49:50Z</time>
      </trkpt>
      <trkpt lat="47.20179" lon="-1.55523">
        <ele>56</ele>
        <time>2022-02-27T12:49:52Z</time>
      </trkpt>
      <trkpt lat="47.20188" lon="-1.55533">
        <ele>55</ele>
        <time>2022-02-27T12:49:54Z</time>
      </trkpt>
      <trkpt lat="47.202" lon="-1.55538">
        <ele>54</ele>
        <time>2022-02-27T12:49:56Z</time>
      </trkpt>
      <trkpt lat="47.20211" lon="-1.55542">
        <ele>54</ele>
        <time>2022-02-27T12:49:58Z</time>
      </trkpt>
      <trkpt lat="47.20222" lon="-1.55547">
        <ele>54</ele>
        <time>2022-02-27T12:50:00Z</time>
      </trkpt>
      <trkpt lat="47.20233" lon="-1.55552">
        <ele>54</ele>
        <time>2022-02-27T12:50:02Z</time>
      </trkpt>
      <trkpt lat="47.20244" lon="-1.55558">
        <ele>54</ele>
        <time>2022-02-27T12:50:04Z</time>
      </trkpt>
      <trkpt lat="47.20255" lon="-1.55561">
        <ele>54</ele>
        <time>2022-02-27T12:50:06Z</time>
      </trkpt>
      <trkpt lat="47.20266" lon="-1.55564">
        <ele>55</ele>
        <time>2022-02-27T12:50:08Z</time>
      </trkpt>
      <trkpt lat="47.20277" lon="-1.55566">
        <ele>55</ele>
        <time>2022-02-27T12:50:10Z</time>
      </trkpt>
      <trkpt lat="47.20287" lon="-1.55572">
        <ele>55</ele>
        <time>2022-02-27T12:50:12Z</time>
      </trkpt>
      <trkpt lat="47.20294" lon="-1.55584">
        <ele>55</ele>
        <time>2022-02-27T12:50:14Z</time>
      </trkpt>
      <trkpt lat="47.20295" lon="-1.556">
        <ele>55</ele>
        <time>2022-02-27T12:50:16Z</time>
      </trkpt>
      <trkpt lat="47.20293" lon="-1.55616">
        <ele>55</ele>
        <time>2022-02-27T12:50:18Z</time>
      </trkpt>
      <trkpt lat="47.20291" lon="-1.55634">
        <ele>54</ele>
        <time>2022-02-27T12:50:20Z</time>
      </trkpt>
      <trkpt lat="47.20289" lon="-1.5565">
        <ele>54</ele>
        <time>2022-02-27T12:50:22Z</time>
      </trkpt>
      <trkpt lat="47.20288" lon="-1.55668">
        <ele>54</ele>
        <time>2022-02-27T12:50:24Z</time>
      </trkpt>
      <trkpt lat="47.20286" lon="-1.55685">
        <ele>54</ele>
        <time>2022-02-27T12:50:26Z</time>
      </trkpt>
      <trkpt lat="47.20284" lon="-1.55702">
        <ele>54</ele>
        <time>2022-02-27T12:50:28Z</time>
      </trkpt>
      <trkpt lat="47.20282" lon="-1.5572">
        <ele>54</ele>
        <time>2022-02-27T12:50:30Z</time>
      </trkpt>
      <trkpt lat="47.20281" lon="-1.55737">
        <ele>53</ele>
        <time>2022-02-27T12:50:32Z</time>
      </trkpt>
      <trkpt lat="47.20279" lon="-1.55755">
        <ele>53</ele>
        <time>2022-02-27T12:50:34Z</time>
      </trkpt>
      <trkpt lat="47.20277" lon="-1.55772">
        <ele>54</ele>
        <time>2022-02-27T12:50:36Z</time>
      </trkpt>
      <trkpt lat="47.20274" lon="-1.5579">
        <ele>54</ele>
        <time>2022-02-27T12:50:38Z</time>
      </trkpt>
      <trkpt lat="47.20272" lon="-1.55808">
        <ele>54</ele>
        <time>2022-02-27T12:50:40Z</time>
      </trkpt>
      <trkpt lat="47.2027" lon="-1.55826">
        <ele>54</ele>
        <time>2022-02-27T12:50:42Z</time>
      </trkpt>
      <trkpt lat="47.20269" lon="-1.55844">
        <ele>54</ele>
        <time>2022-02-27T12:50:44Z</time>
      </trkpt>
      <trkpt lat="47.20267" lon="-1.55861">
        <ele>54</ele>
        <time>2022-02-27T12:50:46Z</time>
      </trkpt>
      <trkpt lat="47.20265" lon="-1.55879">
        <ele>54</ele>
        <time>2022-02-27T12:50:48Z</time>
      </trkpt>
      <trkpt lat="47.20264" lon="-1.55896">
        <ele>54</ele>
        <time>2022-02-27T12:50:50Z</time>
      </trkpt>
      <trkpt lat="47.20262" lon="-1.55914">
        <ele>54</ele>
        <time>2022-02-27T12:50:52Z</time>
      </trkpt>
      <trkpt lat="47.2026" lon="-1.55931">
        <ele>54</ele>
        <time>2022-02-27T12:50:54Z</time>
      </trkpt>
      <trkpt lat="47.20259" lon="-1.55948">
        <ele>54</ele>
        <time>2022-02-27T12:50:56Z</time>
      </trkpt>
      <trkpt lat="47.20257" lon="-1.55965">
        <ele>54</ele>
        <time>2022-02-27T12:50:58Z</time>
      </trkpt>
      <trkpt lat="47.20254" lon="-1.55982">
        <ele>54</ele>
        <time>2022-02-27T12:51:00Z</time>
      </trkpt>
      <trkpt lat="47.20253" lon="-1.55998">
        <ele>55</ele>
        <time>2022-02-27T12:51:02Z</time>
      </trkpt>
      <trkpt lat="47.20251" lon="-1.56014">
        <ele>55</ele>
        <time>2022-02-27T12:51:04Z</time>
      </trkpt>
      <trkpt lat="47.20249" lon="-1.56031">
        <ele>55</ele>
        <time>2022-02-27T12:51:06Z</time>
      </trkpt>
      <trkpt lat="47.20247" lon="-1.56048">
        <ele>54</ele>
        <time>2022-02-27T12:51:08Z</time>
      </trkpt>
      <trkpt lat="47.20245" lon="-1.56065">
        <ele>54</ele>
        <time>2022-02-27T12:51:10Z</time>
      </trkpt>
      <trkpt lat="47.20243" lon="-1.56083">
        <ele>54</ele>
        <time>2022-02-27T12:51:12Z</time>
      </trkpt>
      <trkpt lat="47.20242" lon="-1.561">
        <ele>55</ele>
        <time>2022-02-27T12:51:14Z</time>
      </trkpt>
      <trkpt lat="47.2024" lon="-1.56117">
        <ele>54</ele>
        <time>2022-02-27T12:51:16Z</time>
      </trkpt>
      <trkpt lat="47.20236" lon="-1.56132">
        <ele>54</ele>
        <time>2022-02-27T12:51:18Z</time>
      </trkpt>
      <trkpt lat="47.2023" lon="-1.56146">
        <ele>55</ele>
        <time>2022-02-27T12:51:20Z</time>
      </trkpt>
      <trkpt lat="47.20221" lon="-1.56157">
        <ele>54</ele>
        <time>2022-02-27T12:51:22Z</time>
      </trkpt>
      <trkpt lat="47.20211" lon="-1.56165">
        <ele>54</ele>
        <time>2022-02-27T12:51:24Z</time>
      </trkpt>
      <trkpt lat="47.202" lon="-1.56171">
        <ele>54</ele>
        <time>2022-02-27T12:51:26Z</time>
      </trkpt>
      <trkpt lat="47.2019" lon="-1.56176">
        <ele>54</ele>
        <time>2022-02-27T12:51:28Z</time>
      </trkpt>
      <trkpt lat="47.20181" lon="-1.56183">
        <ele>55</ele>
        <time>2022-02-27T12:51:30Z</time>
      </trkpt>
      <trkpt lat="47.20174" lon="-1.56193">
        <ele>55</ele>
        <time>2022-02-27T12:51:32Z</time>
      </trkpt>
      <trkpt lat="47.20163" lon="-1.56194">
        <ele>54</ele>
        <time>2022-02-27T12:51:34Z</time>
      </trkpt>
      <trkpt lat="47.20155" lon="-1.56187">
        <ele>55</ele>
        <time>2022-02-27T12:51:36Z</time>
      </trkpt>
      <trkpt lat="47.20145" lon="-1.56182">
        <ele>56</ele>
        <time>2022-02-27T12:51:38Z</time>
      </trkpt>
      <trkpt lat="47.20134" lon="-1.56181">
        <ele>56</ele>
        <time>2022-02-27T12:51:40Z</time>
      </trkpt>
      <trkpt lat="47.20122" lon="-1.56181">
        <ele>56</ele>
        <time>2022-02-27T12:51:42Z</time>
      </trkpt>
      <trkpt lat="47.20111" lon="-1.56182">
        <ele>56</ele>
        <time>2022-02-27T12:51:44Z</time>
      </trkpt>
      <trkpt lat="47.201" lon="-1.56182">
        <ele>56</ele>
        <time>2022-02-27T12:51:46Z</time>
      </trkpt>
      <trkpt lat="47.20089" lon="-1.56182">
        <ele>56</ele>
        <time>2022-02-27T12:51:48Z</time>
      </trkpt>
      <trkpt lat="47.20078" lon="-1.56182">
        <ele>57</ele>
        <time>2022-02-27T12:51:50Z</time>
      </trkpt>
      <trkpt lat="47.20067" lon="-1.56182">
        <ele>56</ele>
        <time>2022-02-27T12:51:52Z</time>
      </trkpt>
      <trkpt lat="47.20057" lon="-1.56182">
        <ele>56</ele>
        <time>2022-02-27T12:51:54Z</time>
      </trkpt>
      <trkpt lat="47.20046" lon="-1.56182">
        <ele>56</ele>
        <time>2022-02-27T12:51:56Z</time>
      </trkpt>
      <trkpt lat="47.20035" lon="-1.56182">
        <ele>56</ele>
        <time>2022-02-27T12:51:58Z</time>
      </trkpt>
      <trkpt lat="47.20024" lon="-1.56183">
        <ele>56</ele>
        <time>2022-02-27T12:52:00Z</time>
      </trkpt>
      <trkpt lat="47.20014" lon="-1.56184">
        <ele>56</ele>
        <time>2022-02-27T12:52:02Z</time>
      </trkpt>
      <trkpt lat="47.20004" lon="-1.56187">
        <ele>56</ele>
        <time>2022-02-27T12:52:04Z</time>
      </trkpt>
      <trkpt lat="47.19996" lon="-1.56192">
        <ele>55</ele>
        <time>2022-02-27T12:52:06Z</time>
      </trkpt>
      <trkpt lat="47.19986" lon="-1.56194">
        <ele>55</ele>
        <time>2022-02-27T12:52:08Z</time>
      </trkpt>
      <trkpt lat="47.19977" lon="-1.5619">
        <ele>55</ele>
        <time>2022-02-27T12:52:10Z</time>
      </trkpt>
      <trkpt lat="47.19972" lon="-1.56178">
        <ele>56</ele>
        <time>2022-02-27T12:52:12Z</time>
      </trkpt>
      <trkpt lat="47.19961" lon="-1.56166">
        <ele>57</ele>
        <time>2022-02-27T12:52:15Z</time>
      </trkpt>
      <trkpt lat="47.19952" lon="-1.56167">
        <ele>57</ele>
        <time>2022-02-27T12:52:17Z</time>
      </trkpt>
      <trkpt lat="47.19943" lon="-1.56169">
        <ele>57</ele>
        <time>2022-02-27T12:52:19Z</time>
      </trkpt>
      <trkpt lat="47.19933" lon="-1.56171">
        <ele>58</ele>
        <time>2022-02-27T12:52:21Z</time>
      </trkpt>
      <trkpt lat="47.19924" lon="-1.56173">
        <ele>58</ele>
        <time>2022-02-27T12:52:23Z</time>
      </trkpt>
      <trkpt lat="47.19914" lon="-1.56174">
        <ele>59</ele>
        <time>2022-02-27T12:52:25Z</time>
      </trkpt>
      <trkpt lat="47.19901" lon="-1.56177">
        <ele>59</ele>
        <time>2022-02-27T12:52:28Z</time>
      </trkpt>
      <trkpt lat="47.19892" lon="-1.56178">
        <ele>59</ele>
        <time>2022-02-27T12:52:30Z</time>
      </trkpt>
      <trkpt lat="47.19883" lon="-1.56181">
        <ele>60</ele>
        <time>2022-02-27T12:52:32Z</time>
      </trkpt>
      <trkpt lat="47.19873" lon="-1.56182">
        <ele>60</ele>
        <time>2022-02-27T12:52:34Z</time>
      </trkpt>
      <trkpt lat="47.19864" lon="-1.56183">
        <ele>60</ele>
        <time>2022-02-27T12:52:36Z</time>
      </trkpt>
      <trkpt lat="47.19855" lon="-1.56185">
        <ele>60</ele>
        <time>2022-02-27T12:52:38Z</time>
      </trkpt>
      <trkpt lat="47.19846" lon="-1.56186">
        <ele>60</ele>
        <time>2022-02-27T12:52:40Z</time>
      </trkpt>
      <trkpt lat="47.19833" lon="-1.56189">
        <ele>60</ele>
        <time>2022-02-27T12:52:43Z</time>
      </trkpt>
      <trkpt lat="47.19824" lon="-1.56191">
        <ele>60</ele>
        <time>2022-02-27T12:52:45Z</time>
      </trkpt>
      <trkpt lat="47.19814" lon="-1.56193">
        <ele>61</ele>
        <time>2022-02-27T12:52:47Z</time>
      </trkpt>
      <trkpt lat="47.19801" lon="-1.56196">
        <ele>61</ele>
        <time>2022-02-27T12:52:50Z</time>
      </trkpt>
      <trkpt lat="47.19791" lon="-1.56198">
        <ele>61</ele>
        <time>2022-02-27T12:52:52Z</time>
      </trkpt>
      <trkpt lat="47.19781" lon="-1.56199">
        <ele>60</ele>
        <time>2022-02-27T12:52:54Z</time>
      </trkpt>
      <trkpt lat="47.19772" lon="-1.56201">
        <ele>60</ele>
        <time>2022-02-27T12:52:56Z</time>
      </trkpt>
      <trkpt lat="47.19762" lon="-1.56203">
        <ele>60</ele>
        <time>2022-02-27T12:52:58Z</time>
      </trkpt>
      <trkpt lat="47.19751" lon="-1.56205">
        <ele>60</ele>
        <time>2022-02-27T12:53:00Z</time>
      </trkpt>
      <trkpt lat="47.19741" lon="-1.56207">
        <ele>59</ele>
        <time>2022-02-27T12:53:02Z</time>
      </trkpt>
      <trkpt lat="47.1973" lon="-1.56209">
        <ele>59</ele>
        <time>2022-02-27T12:53:04Z</time>
      </trkpt>
      <trkpt lat="47.19719" lon="-1.56211">
        <ele>58</ele>
        <time>2022-02-27T12:53:06Z</time>
      </trkpt>
      <trkpt lat="47.19706" lon="-1.56213">
        <ele>58</ele>
        <time>2022-02-27T12:53:08Z</time>
      </trkpt>
      <trkpt lat="47.19693" lon="-1.56215">
        <ele>57</ele>
        <time>2022-02-27T12:53:10Z</time>
      </trkpt>
      <trkpt lat="47.1968" lon="-1.56218">
        <ele>56</ele>
        <time>2022-02-27T12:53:12Z</time>
      </trkpt>
      <trkpt lat="47.19667" lon="-1.56222">
        <ele>56</ele>
        <time>2022-02-27T12:53:14Z</time>
      </trkpt>
      <trkpt lat="47.19653" lon="-1.56227">
        <ele>55</ele>
        <time>2022-02-27T12:53:16Z</time>
      </trkpt>
      <trkpt lat="47.19639" lon="-1.56233">
        <ele>54</ele>
        <time>2022-02-27T12:53:18Z</time>
      </trkpt>
      <trkpt lat="47.19632" lon="-1.56251">
        <ele>54</ele>
        <time>2022-02-27T12:53:20Z</time>
      </trkpt>
      <trkpt lat="47.19631" lon="-1.5627">
        <ele>53</ele>
        <time>2022-02-27T12:53:22Z</time>
      </trkpt>
      <trkpt lat="47.19629" lon="-1.5629">
        <ele>53</ele>
        <time>2022-02-27T12:53:24Z</time>
      </trkpt>
      <trkpt lat="47.19628" lon="-1.56308">
        <ele>53</ele>
        <time>2022-02-27T12:53:26Z</time>
      </trkpt>
      <trkpt lat="47.19627" lon="-1.56327">
        <ele>52</ele>
        <time>2022-02-27T12:53:28Z</time>
      </trkpt>
      <trkpt lat="47.19627" lon="-1.56346">
        <ele>52</ele>
        <time>2022-02-27T12:53:30Z</time>
      </trkpt>
      <trkpt lat="47.19626" lon="-1.56364">
        <ele>52</ele>
        <time>2022-02-27T12:53:32Z</time>
      </trkpt>
      <trkpt lat="47.19627" lon="-1.56382">
        <ele>52</ele>
        <time>2022-02-27T12:53:34Z</time>
      </trkpt>
      <trkpt lat="47.19628" lon="-1.564">
        <ele>52</ele>
        <time>2022-02-27T12:53:36Z</time>
      </trkpt>
      <trkpt lat="47.19628" lon="-1.56418">
        <ele>52</ele>
        <time>2022-02-27T12:53:38Z</time>
      </trkpt>
      <trkpt lat="47.19629" lon="-1.56436">
        <ele>52</ele>
        <time>2022-02-27T12:53:40Z</time>
      </trkpt>
      <trkpt lat="47.1963" lon="-1.56454">
        <ele>51</ele>
        <time>2022-02-27T12:53:42Z</time>
      </trkpt>
      <trkpt lat="47.1963" lon="-1.56472">
        <ele>51</ele>
        <time>2022-02-27T12:53:44Z</time>
      </trkpt>
      <trkpt lat="47.1963" lon="-1.5649">
        <ele>51</ele>
        <time>2022-02-27T12:53:46Z</time>
      </trkpt>
      <trkpt lat="47.1963" lon="-1.56507">
        <ele>51</ele>
        <time>2022-02-27T12:53:48Z</time>
      </trkpt>
      <trkpt lat="47.1963" lon="-1.56525">
        <ele>51</ele>
        <time>2022-02-27T12:53:50Z</time>
      </trkpt>
      <trkpt lat="47.1963" lon="-1.56542">
        <ele>51</ele>
        <time>2022-02-27T12:53:52Z</time>
      </trkpt>
      <trkpt lat="47.19629" lon="-1.56559">
        <ele>52</ele>
        <time>2022-02-27T12:53:54Z</time>
      </trkpt>
      <trkpt lat="47.19629" lon="-1.56577">
        <ele>52</ele>
        <time>2022-02-27T12:53:56Z</time>
      </trkpt>
      <trkpt lat="47.19627" lon="-1.56595">
        <ele>52</ele>
        <time>2022-02-27T12:53:58Z</time>
      </trkpt>
      <trkpt lat="47.19627" lon="-1.56613">
        <ele>53</ele>
        <time>2022-02-27T12:54:00Z</time>
      </trkpt>
      <trkpt lat="47.19627" lon="-1.5663">
        <ele>53</ele>
        <time>2022-02-27T12:54:02Z</time>
      </trkpt>
      <trkpt lat="47.19627" lon="-1.56648">
        <ele>54</ele>
        <time>2022-02-27T12:54:04Z</time>
      </trkpt>
      <trkpt lat="47.19627" lon="-1.56665">
        <ele>54</ele>
        <time>2022-02-27T12:54:06Z</time>
      </trkpt>
      <trkpt lat="47.19627" lon="-1.56682">
        <ele>55</ele>
        <time>2022-02-27T12:54:08Z</time>
      </trkpt>
      <trkpt lat="47.19627" lon="-1.567">
        <ele>55</ele>
        <time>2022-02-27T12:54:10Z</time>
      </trkpt>
      <trkpt lat="47.19625" lon="-1.56717">
        <ele>55</ele>
        <time>2022-02-27T12:54:12Z</time>
      </trkpt>
      <trkpt lat="47.19624" lon="-1.56735">
        <ele>55</ele>
        <time>2022-02-27T12:54:14Z</time>
      </trkpt>
      <trkpt lat="47.19621" lon="-1.56761">
        <ele>55</ele>
        <time>2022-02-27T12:54:17Z</time>
      </trkpt>
      <trkpt lat="47.19619" lon="-1.56778">
        <ele>55</ele>
        <time>2022-02-27T12:54:19Z</time>
      </trkpt>
      <trkpt lat="47.19618" lon="-1.56795">
        <ele>55</ele>
        <time>2022-02-27T12:54:21Z</time>
      </trkpt>
      <trkpt lat="47.19616" lon="-1.56813">
        <ele>55</ele>
        <time>2022-02-27T12:54:23Z</time>
      </trkpt>
      <trkpt lat="47.19615" lon="-1.5683">
        <ele>55</ele>
        <time>2022-02-27T12:54:25Z</time>
      </trkpt>
      <trkpt lat="47.19615" lon="-1.56847">
        <ele>55</ele>
        <time>2022-02-27T12:54:27Z</time>
      </trkpt>
      <trkpt lat="47.19615" lon="-1.56865">
        <ele>55</ele>
        <time>2022-02-27T12:54:29Z</time>
      </trkpt>
      <trkpt lat="47.19613" lon="-1.56883">
        <ele>55</ele>
        <time>2022-02-27T12:54:31Z</time>
      </trkpt>
      <trkpt lat="47.19611" lon="-1.56901">
        <ele>55</ele>
        <time>2022-02-27T12:54:33Z</time>
      </trkpt>
      <trkpt lat="47.1961" lon="-1.56919">
        <ele>55</ele>
        <time>2022-02-27T12:54:35Z</time>
      </trkpt>
      <trkpt lat="47.19608" lon="-1.56936">
        <ele>54</ele>
        <time>2022-02-27T12:54:37Z</time>
      </trkpt>
      <trkpt lat="47.19607" lon="-1.56953">
        <ele>54</ele>
        <time>2022-02-27T12:54:39Z</time>
      </trkpt>
      <trkpt lat="47.19605" lon="-1.56971">
        <ele>53</ele>
        <time>2022-02-27T12:54:41Z</time>
      </trkpt>
      <trkpt lat="47.19604" lon="-1.56988">
        <ele>53</ele>
        <time>2022-02-27T12:54:43Z</time>
      </trkpt>
      <trkpt lat="47.19603" lon="-1.57006">
        <ele>53</ele>
        <time>2022-02-27T12:54:45Z</time>
      </trkpt>
      <trkpt lat="47.19601" lon="-1.57024">
        <ele>53</ele>
        <time>2022-02-27T12:54:47Z</time>
      </trkpt>
      <trkpt lat="47.196" lon="-1.57041">
        <ele>53</ele>
        <time>2022-02-27T12:54:49Z</time>
      </trkpt>
      <trkpt lat="47.19599" lon="-1.57059">
        <ele>54</ele>
        <time>2022-02-27T12:54:51Z</time>
      </trkpt>
      <trkpt lat="47.19598" lon="-1.57076">
        <ele>54</ele>
        <time>2022-02-27T12:54:53Z</time>
      </trkpt>
      <trkpt lat="47.19597" lon="-1.57093">
        <ele>54</ele>
        <time>2022-02-27T12:54:55Z</time>
      </trkpt>
      <trkpt lat="47.19596" lon="-1.57109">
        <ele>55</ele>
        <time>2022-02-27T12:54:57Z</time>
      </trkpt>
      <trkpt lat="47.19597" lon="-1.57125">
        <ele>55</ele>
        <time>2022-02-27T12:54:59Z</time>
      </trkpt>
      <trkpt lat="47.19595" lon="-1.57141">
        <ele>55</ele>
        <time>2022-02-27T12:55:01Z</time>
      </trkpt>
      <trkpt lat="47.19593" lon="-1.57157">
        <ele>56</ele>
        <time>2022-02-27T12:55:03Z</time>
      </trkpt>
      <trkpt lat="47.19591" lon="-1.57172">
        <ele>56</ele>
        <time>2022-02-27T12:55:05Z</time>
      </trkpt>
      <trkpt lat="47.19591" lon="-1.5719">
        <ele>56</ele>
        <time>2022-02-27T12:55:07Z</time>
      </trkpt>
      <trkpt lat="47.1959" lon="-1.57209">
        <ele>56</ele>
        <time>2022-02-27T12:55:09Z</time>
      </trkpt>
      <trkpt lat="47.19589" lon="-1.57226">
        <ele>56</ele>
        <time>2022-02-27T12:55:11Z</time>
      </trkpt>
      <trkpt lat="47.19587" lon="-1.57244">
        <ele>56</ele>
        <time>2022-02-27T12:55:13Z</time>
      </trkpt>
      <trkpt lat="47.19585" lon="-1.57262">
        <ele>55</ele>
        <time>2022-02-27T12:55:15Z</time>
      </trkpt>
      <trkpt lat="47.19584" lon="-1.57279">
        <ele>55</ele>
        <time>2022-02-27T12:55:17Z</time>
      </trkpt>
      <trkpt lat="47.19583" lon="-1.57295">
        <ele>55</ele>
        <time>2022-02-27T12:55:19Z</time>
      </trkpt>
      <trkpt lat="47.19582" lon="-1.57312">
        <ele>55</ele>
        <time>2022-02-27T12:55:21Z</time>
      </trkpt>
      <trkpt lat="47.1958" lon="-1.5733">
        <ele>54</ele>
        <time>2022-02-27T12:55:23Z</time>
      </trkpt>
      <trkpt lat="47.19577" lon="-1.57345">
        <ele>54</ele>
        <time>2022-02-27T12:55:25Z</time>
      </trkpt>
      <trkpt lat="47.19573" lon="-1.57361">
        <ele>54</ele>
        <time>2022-02-27T12:55:27Z</time>
      </trkpt>
      <trkpt lat="47.19571" lon="-1.57377">
        <ele>54</ele>
        <time>2022-02-27T12:55:29Z</time>
      </trkpt>
      <trkpt lat="47.19567" lon="-1.57393">
        <ele>54</ele>
        <time>2022-02-27T12:55:31Z</time>
      </trkpt>
      <trkpt lat="47.19564" lon="-1.57409">
        <ele>54</ele>
        <time>2022-02-27T12:55:33Z</time>
      </trkpt>
      <trkpt lat="47.1956" lon="-1.57426">
        <ele>55</ele>
        <time>2022-02-27T12:55:35Z</time>
      </trkpt>
      <trkpt lat="47.19557" lon="-1.57443">
        <ele>55</ele>
        <time>2022-02-27T12:55:37Z</time>
      </trkpt>
      <trkpt lat="47.19555" lon="-1.57459">
        <ele>55</ele>
        <time>2022-02-27T12:55:39Z</time>
      </trkpt>
      <trkpt lat="47.19551" lon="-1.57475">
        <ele>55</ele>
        <time>2022-02-27T12:55:41Z</time>
      </trkpt>
      <trkpt lat="47.19549" lon="-1.57492">
        <ele>55</ele>
        <time>2022-02-27T12:55:43Z</time>
      </trkpt>
      <trkpt lat="47.19545" lon="-1.57509">
        <ele>54</ele>
        <time>2022-02-27T12:55:45Z</time>
      </trkpt>
      <trkpt lat="47.19541" lon="-1.57526">
        <ele>55</ele>
        <time>2022-02-27T12:55:47Z</time>
      </trkpt>
      <trkpt lat="47.19538" lon="-1.57542">
        <ele>54</ele>
        <time>2022-02-27T12:55:49Z</time>
      </trkpt>
      <trkpt lat="47.19535" lon="-1.57559">
        <ele>54</ele>
        <time>2022-02-27T12:55:51Z</time>
      </trkpt>
      <trkpt lat="47.19533" lon="-1.57576">
        <ele>54</ele>
        <time>2022-02-27T12:55:53Z</time>
      </trkpt>
      <trkpt lat="47.19529" lon="-1.57592">
        <ele>54</ele>
        <time>2022-02-27T12:55:55Z</time>
      </trkpt>
      <trkpt lat="47.19525" lon="-1.57609">
        <ele>53</ele>
        <time>2022-02-27T12:55:57Z</time>
      </trkpt>
      <trkpt lat="47.19522" lon="-1.57625">
        <ele>53</ele>
        <time>2022-02-27T12:55:59Z</time>
      </trkpt>
      <trkpt lat="47.19518" lon="-1.57641">
        <ele>53</ele>
        <time>2022-02-27T12:56:01Z</time>
      </trkpt>
      <trkpt lat="47.19514" lon="-1.57658">
        <ele>53</ele>
        <time>2022-02-27T12:56:03Z</time>
      </trkpt>
      <trkpt lat="47.19511" lon="-1.57675">
        <ele>52</ele>
        <time>2022-02-27T12:56:05Z</time>
      </trkpt>
      <trkpt lat="47.19507" lon="-1.57692">
        <ele>52</ele>
        <time>2022-02-27T12:56:07Z</time>
      </trkpt>
      <trkpt lat="47.19503" lon="-1.57708">
        <ele>52</ele>
        <time>2022-02-27T12:56:09Z</time>
      </trkpt>
      <trkpt lat="47.195" lon="-1.57725">
        <ele>52</ele>
        <time>2022-02-27T12:56:11Z</time>
      </trkpt>
      <trkpt lat="47.19496" lon="-1.57741">
        <ele>52</ele>
        <time>2022-02-27T12:56:13Z</time>
      </trkpt>
      <trkpt lat="47.19493" lon="-1.57758">
        <ele>53</ele>
        <time>2022-02-27T12:56:15Z</time>
      </trkpt>
      <trkpt lat="47.19489" lon="-1.57775">
        <ele>53</ele>
        <time>2022-02-27T12:56:17Z</time>
      </trkpt>
      <trkpt lat="47.19486" lon="-1.57792">
        <ele>53</ele>
        <time>2022-02-27T12:56:19Z</time>
      </trkpt>
      <trkpt lat="47.19482" lon="-1.5781">
        <ele>53</ele>
        <time>2022-02-27T12:56:21Z</time>
      </trkpt>
      <trkpt lat="47.19479" lon="-1.57827">
        <ele>53</ele>
        <time>2022-02-27T12:56:23Z</time>
      </trkpt>
      <trkpt lat="47.19477" lon="-1.57844">
        <ele>53</ele>
        <time>2022-02-27T12:56:25Z</time>
      </trkpt>
      <trkpt lat="47.19476" lon="-1.57861">
        <ele>53</ele>
        <time>2022-02-27T12:56:27Z</time>
      </trkpt>
      <trkpt lat="47.19474" lon="-1.57878">
        <ele>53</ele>
        <time>2022-02-27T12:56:29Z</time>
      </trkpt>
      <trkpt lat="47.19471" lon="-1.57895">
        <ele>52</ele>
        <time>2022-02-27T12:56:31Z</time>
      </trkpt>
      <trkpt lat="47.19467" lon="-1.57912">
        <ele>52</ele>
        <time>2022-02-27T12:56:33Z</time>
      </trkpt>
      <trkpt lat="47.19466" lon="-1.57929">
        <ele>52</ele>
        <time>2022-02-27T12:56:35Z</time>
      </trkpt>
      <trkpt lat="47.19464" lon="-1.57947">
        <ele>53</ele>
        <time>2022-02-27T12:56:37Z</time>
      </trkpt>
      <trkpt lat="47.19463" lon="-1.57963">
        <ele>53</ele>
        <time>2022-02-27T12:56:39Z</time>
      </trkpt>
      <trkpt lat="47.19462" lon="-1.57979">
        <ele>53</ele>
        <time>2022-02-27T12:56:41Z</time>
      </trkpt>
      <trkpt lat="47.19461" lon="-1.57996">
        <ele>53</ele>
        <time>2022-02-27T12:56:43Z</time>
      </trkpt>
      <trkpt lat="47.1946" lon="-1.58012">
        <ele>53</ele>
        <time>2022-02-27T12:56:45Z</time>
      </trkpt>
      <trkpt lat="47.19457" lon="-1.58028">
        <ele>53</ele>
        <time>2022-02-27T12:56:47Z</time>
      </trkpt>
      <trkpt lat="47.19456" lon="-1.58044">
        <ele>53</ele>
        <time>2022-02-27T12:56:49Z</time>
      </trkpt>
      <trkpt lat="47.19454" lon="-1.58058">
        <ele>53</ele>
        <time>2022-02-27T12:56:51Z</time>
      </trkpt>
      <trkpt lat="47.19453" lon="-1.58072">
        <ele>53</ele>
        <time>2022-02-27T12:56:53Z</time>
      </trkpt>
      <trkpt lat="47.19451" lon="-1.58092">
        <ele>53</ele>
        <time>2022-02-27T12:56:56Z</time>
      </trkpt>
      <trkpt lat="47.19442" lon="-1.58103">
        <ele>52</ele>
        <time>2022-02-27T12:56:58Z</time>
      </trkpt>
      <trkpt lat="47.19432" lon="-1.58113">
        <ele>53</ele>
        <time>2022-02-27T12:57:00Z</time>
      </trkpt>
      <trkpt lat="47.19422" lon="-1.58123">
        <ele>52</ele>
        <time>2022-02-27T12:57:02Z</time>
      </trkpt>
      <trkpt lat="47.19413" lon="-1.58134">
        <ele>53</ele>
        <time>2022-02-27T12:57:04Z</time>
      </trkpt>
      <trkpt lat="47.19405" lon="-1.58146">
        <ele>53</ele>
        <time>2022-02-27T12:57:06Z</time>
      </trkpt>
      <trkpt lat="47.19398" lon="-1.58159">
        <ele>53</ele>
        <time>2022-02-27T12:57:08Z</time>
      </trkpt>
      <trkpt lat="47.19391" lon="-1.58172">
        <ele>53</ele>
        <time>2022-02-27T12:57:10Z</time>
      </trkpt>
      <trkpt lat="47.19385" lon="-1.58187">
        <ele>53</ele>
        <time>2022-02-27T12:57:12Z</time>
      </trkpt>
      <trkpt lat="47.19378" lon="-1.58203">
        <ele>53</ele>
        <time>2022-02-27T12:57:14Z</time>
      </trkpt>
      <trkpt lat="47.19372" lon="-1.58217">
        <ele>54</ele>
        <time>2022-02-27T12:57:16Z</time>
      </trkpt>
      <trkpt lat="47.19366" lon="-1.58232">
        <ele>54</ele>
        <time>2022-02-27T12:57:18Z</time>
      </trkpt>
      <trkpt lat="47.19361" lon="-1.58248">
        <ele>54</ele>
        <time>2022-02-27T12:57:20Z</time>
      </trkpt>
      <trkpt lat="47.19354" lon="-1.58263">
        <ele>54</ele>
        <time>2022-02-27T12:57:22Z</time>
      </trkpt>
      <trkpt lat="47.19347" lon="-1.58276">
        <ele>54</ele>
        <time>2022-02-27T12:57:24Z</time>
      </trkpt>
      <trkpt lat="47.19339" lon="-1.58286">
        <ele>53</ele>
        <time>2022-02-27T12:57:26Z</time>
      </trkpt>
      <trkpt lat="47.19329" lon="-1.58296">
        <ele>53</ele>
        <time>2022-02-27T12:57:28Z</time>
      </trkpt>
      <trkpt lat="47.1932" lon="-1.58305">
        <ele>54</ele>
        <time>2022-02-27T12:57:30Z</time>
      </trkpt>
      <trkpt lat="47.1931" lon="-1.58314">
        <ele>54</ele>
        <time>2022-02-27T12:57:32Z</time>
      </trkpt>
      <trkpt lat="47.193" lon="-1.58323">
        <ele>54</ele>
        <time>2022-02-27T12:57:34Z</time>
      </trkpt>
      <trkpt lat="47.1929" lon="-1.58331">
        <ele>54</ele>
        <time>2022-02-27T12:57:36Z</time>
      </trkpt>
      <trkpt lat="47.19281" lon="-1.58339">
        <ele>54</ele>
        <time>2022-02-27T12:57:38Z</time>
      </trkpt>
      <trkpt lat="47.19271" lon="-1.58349">
        <ele>54</ele>
        <time>2022-02-27T12:57:40Z</time>
      </trkpt>
      <trkpt lat="47.19262" lon="-1.58359">
        <ele>54</ele>
        <time>2022-02-27T12:57:42Z</time>
      </trkpt>
      <trkpt lat="47.19252" lon="-1.58369">
        <ele>54</ele>
        <time>2022-02-27T12:57:44Z</time>
      </trkpt>
      <trkpt lat="47.19242" lon="-1.58378">
        <ele>54</ele>
        <time>2022-02-27T12:57:46Z</time>
      </trkpt>
      <trkpt lat="47.19232" lon="-1.58387">
        <ele>54</ele>
        <time>2022-02-27T12:57:48Z</time>
      </trkpt>
      <trkpt lat="47.19222" lon="-1.58396">
        <ele>54</ele>
        <time>2022-02-27T12:57:50Z</time>
      </trkpt>
      <trkpt lat="47.19213" lon="-1.58406">
        <ele>55</ele>
        <time>2022-02-27T12:57:52Z</time>
      </trkpt>
      <trkpt lat="47.19203" lon="-1.58415">
        <ele>55</ele>
        <time>2022-02-27T12:57:54Z</time>
      </trkpt>
      <trkpt lat="47.19193" lon="-1.58424">
        <ele>55</ele>
        <time>2022-02-27T12:57:56Z</time>
      </trkpt>
      <trkpt lat="47.19183" lon="-1.58433">
        <ele>55</ele>
        <time>2022-02-27T12:57:58Z</time>
      </trkpt>
      <trkpt lat="47.19173" lon="-1.58441">
        <ele>55</ele>
        <time>2022-02-27T12:58:00Z</time>
      </trkpt>
      <trkpt lat="47.19164" lon="-1.5845">
        <ele>54</ele>
        <time>2022-02-27T12:58:02Z</time>
      </trkpt>
      <trkpt lat="47.19156" lon="-1.5846">
        <ele>55</ele>
        <time>2022-02-27T12:58:04Z</time>
      </trkpt>
      <trkpt lat="47.19148" lon="-1.58467">
        <ele>55</ele>
        <time>2022-02-27T12:58:06Z</time>
      </trkpt>
      <trkpt lat="47.1914" lon="-1.58474">
        <ele>55</ele>
        <time>2022-02-27T12:58:08Z</time>
      </trkpt>
      <trkpt lat="47.1913" lon="-1.58484">
        <ele>55</ele>
        <time>2022-02-27T12:58:10Z</time>
      </trkpt>
      <trkpt lat="47.19119" lon="-1.58493">
        <ele>54</ele>
        <time>2022-02-27T12:58:12Z</time>
      </trkpt>
      <trkpt lat="47.19109" lon="-1.58504">
        <ele>54</ele>
        <time>2022-02-27T12:58:14Z</time>
      </trkpt>
      <trkpt lat="47.191" lon="-1.58514">
        <ele>54</ele>
        <time>2022-02-27T12:58:16Z</time>
      </trkpt>
      <trkpt lat="47.1909" lon="-1.58524">
        <ele>53</ele>
        <time>2022-02-27T12:58:18Z</time>
      </trkpt>
      <trkpt lat="47.1908" lon="-1.58533">
        <ele>53</ele>
        <time>2022-02-27T12:58:20Z</time>
      </trkpt>
      <trkpt lat="47.1907" lon="-1.58542">
        <ele>53</ele>
        <time>2022-02-27T12:58:22Z</time>
      </trkpt>
      <trkpt lat="47.1906" lon="-1.58553">
        <ele>53</ele>
        <time>2022-02-27T12:58:24Z</time>
      </trkpt>
      <trkpt lat="47.19051" lon="-1.58564">
        <ele>53</ele>
        <time>2022-02-27T12:58:26Z</time>
      </trkpt>
      <trkpt lat="47.19042" lon="-1.58572">
        <ele>53</ele>
        <time>2022-02-27T12:58:28Z</time>
      </trkpt>
      <trkpt lat="47.19033" lon="-1.58582">
        <ele>53</ele>
        <time>2022-02-27T12:58:30Z</time>
      </trkpt>
      <trkpt lat="47.19024" lon="-1.58592">
        <ele>53</ele>
        <time>2022-02-27T12:58:32Z</time>
      </trkpt>
      <trkpt lat="47.19015" lon="-1.58602">
        <ele>53</ele>
        <time>2022-02-27T12:58:34Z</time>
      </trkpt>
      <trkpt lat="47.19005" lon="-1.58611">
        <ele>53</ele>
        <time>2022-02-27T12:58:36Z</time>
      </trkpt>
      <trkpt lat="47.18996" lon="-1.5862">
        <ele>53</ele>
        <time>2022-02-27T12:58:38Z</time>
      </trkpt>
      <trkpt lat="47.18987" lon="-1.58628">
        <ele>53</ele>
        <time>2022-02-27T12:58:40Z</time>
      </trkpt>
      <trkpt lat="47.18978" lon="-1.58637">
        <ele>53</ele>
        <time>2022-02-27T12:58:42Z</time>
      </trkpt>
      <trkpt lat="47.18969" lon="-1.58646">
        <ele>53</ele>
        <time>2022-02-27T12:58:44Z</time>
      </trkpt>
      <trkpt lat="47.18959" lon="-1.58656">
        <ele>54</ele>
        <time>2022-02-27T12:58:46Z</time>
      </trkpt>
      <trkpt lat="47.1895" lon="-1.58665">
        <ele>54</ele>
        <time>2022-02-27T12:58:48Z</time>
      </trkpt>
      <trkpt lat="47.18939" lon="-1.58674">
        <ele>53</ele>
        <time>2022-02-27T12:58:50Z</time>
      </trkpt>
      <trkpt lat="47.1893" lon="-1.58683">
        <ele>53</ele>
        <time>2022-02-27T12:58:52Z</time>
      </trkpt>
      <trkpt lat="47.18921" lon="-1.58692">
        <ele>54</ele>
        <time>2022-02-27T12:58:54Z</time>
      </trkpt>
      <trkpt lat="47.18911" lon="-1.58701">
        <ele>54</ele>
        <time>2022-02-27T12:58:56Z</time>
      </trkpt>
      <trkpt lat="47.18902" lon="-1.58709">
        <ele>54</ele>
        <time>2022-02-27T12:58:58Z</time>
      </trkpt>
      <trkpt lat="47.18892" lon="-1.58715">
        <ele>55</ele>
        <time>2022-02-27T12:59:00Z</time>
      </trkpt>
      <trkpt lat="47.18883" lon="-1.58721">
        <ele>54</ele>
        <time>2022-02-27T12:59:02Z</time>
      </trkpt>
      <trkpt lat="47.18873" lon="-1.58726">
        <ele>54</ele>
        <time>2022-02-27T12:59:04Z</time>
      </trkpt>
      <trkpt lat="47.18864" lon="-1.58731">
        <ele>54</ele>
        <time>2022-02-27T12:59:06Z</time>
      </trkpt>
      <trkpt lat="47.18855" lon="-1.58736">
        <ele>55</ele>
        <time>2022-02-27T12:59:08Z</time>
      </trkpt>
      <trkpt lat="47.18846" lon="-1.5874">
        <ele>55</ele>
        <time>2022-02-27T12:59:10Z</time>
      </trkpt>
      <trkpt lat="47.18837" lon="-1.58745">
        <ele>55</ele>
        <time>2022-02-27T12:59:12Z</time>
      </trkpt>
      <trkpt lat="47.1883" lon="-1.58758">
        <ele>54</ele>
        <time>2022-02-27T12:59:15Z</time>
      </trkpt>
      <trkpt lat="47.18828" lon="-1.58771">
        <ele>54</ele>
        <time>2022-02-27T12:59:17Z</time>
      </trkpt>
      <trkpt lat="47.18822" lon="-1.58783">
        <ele>54</ele>
        <time>2022-02-27T12:59:19Z</time>
      </trkpt>
      <trkpt lat="47.18815" lon="-1.58794">
        <ele>54</ele>
        <time>2022-02-27T12:59:21Z</time>
      </trkpt>
      <trkpt lat="47.18808" lon="-1.58804">
        <ele>54</ele>
        <time>2022-02-27T12:59:23Z</time>
      </trkpt>
      <trkpt lat="47.18798" lon="-1.5881">
        <ele>55</ele>
        <time>2022-02-27T12:59:25Z</time>
      </trkpt>
      <trkpt lat="47.1879" lon="-1.58815">
        <ele>55</ele>
        <time>2022-02-27T12:59:27Z</time>
      </trkpt>
      <trkpt lat="47.18784" lon="-1.58829">
        <ele>54</ele>
        <time>2022-02-27T12:59:29Z</time>
      </trkpt>
      <trkpt lat="47.18782" lon="-1.58843">
        <ele>54</ele>
        <time>2022-02-27T12:59:31Z</time>
      </trkpt>
      <trkpt lat="47.18778" lon="-1.58859">
        <ele>54</ele>
        <time>2022-02-27T12:59:33Z</time>
      </trkpt>
      <trkpt lat="47.18775" lon="-1.58874">
        <ele>54</ele>
        <time>2022-02-27T12:59:35Z</time>
      </trkpt>
      <trkpt lat="47.18773" lon="-1.5889">
        <ele>54</ele>
        <time>2022-02-27T12:59:37Z</time>
      </trkpt>
      <trkpt lat="47.18771" lon="-1.58906">
        <ele>54</ele>
        <time>2022-02-27T12:59:39Z</time>
      </trkpt>
      <trkpt lat="47.18769" lon="-1.58923">
        <ele>54</ele>
        <time>2022-02-27T12:59:41Z</time>
      </trkpt>
      <trkpt lat="47.18767" lon="-1.58939">
        <ele>54</ele>
        <time>2022-02-27T12:59:43Z</time>
      </trkpt>
      <trkpt lat="47.18765" lon="-1.58955">
        <ele>54</ele>
        <time>2022-02-27T12:59:45Z</time>
      </trkpt>
      <trkpt lat="47.18763" lon="-1.58972">
        <ele>55</ele>
        <time>2022-02-27T12:59:47Z</time>
      </trkpt>
      <trkpt lat="47.18761" lon="-1.58988">
        <ele>55</ele>
        <time>2022-02-27T12:59:49Z</time>
      </trkpt>
      <trkpt lat="47.1876" lon="-1.59004">
        <ele>55</ele>
        <time>2022-02-27T12:59:51Z</time>
      </trkpt>
      <trkpt lat="47.18758" lon="-1.59021">
        <ele>55</ele>
        <time>2022-02-27T12:59:53Z</time>
      </trkpt>
      <trkpt lat="47.18756" lon="-1.59038">
        <ele>55</ele>
        <time>2022-02-27T12:59:55Z</time>
      </trkpt>
      <trkpt lat="47.18754" lon="-1.59055">
        <ele>54</ele>
        <time>2022-02-27T12:59:57Z</time>
      </trkpt>
      <trkpt lat="47.18753" lon="-1.59071">
        <ele>54</ele>
        <time>2022-02-27T12:59:59Z</time>
      </trkpt>
      <trkpt lat="47.18751" lon="-1.59087">
        <ele>55</ele>
        <time>2022-02-27T13:00:01Z</time>
      </trkpt>
      <trkpt lat="47.18749" lon="-1.59104">
        <ele>55</ele>
        <time>2022-02-27T13:00:03Z</time>
      </trkpt>
      <trkpt lat="47.18747" lon="-1.59121">
        <ele>55</ele>
        <time>2022-02-27T13:00:05Z</time>
      </trkpt>
      <trkpt lat="47.18745" lon="-1.59137">
        <ele>54</ele>
        <time>2022-02-27T13:00:07Z</time>
      </trkpt>
      <trkpt lat="47.18743" lon="-1.59154">
        <ele>54</ele>
        <time>2022-02-27T13:00:09Z</time>
      </trkpt>
      <trkpt lat="47.18741" lon="-1.59171">
        <ele>54</ele>
        <time>2022-02-27T13:00:11Z</time>
      </trkpt>
      <trkpt lat="47.18739" lon="-1.59188">
        <ele>54</ele>
        <time>2022-02-27T13:00:13Z</time>
      </trkpt>
      <trkpt lat="47.18737" lon="-1.59204">
        <ele>54</ele>
        <time>2022-02-27T13:00:15Z</time>
      </trkpt>
      <trkpt lat="47.18736" lon="-1.59222">
        <ele>54</ele>
        <time>2022-02-27T13:00:17Z</time>
      </trkpt>
      <trkpt lat="47.18734" lon="-1.59239">
        <ele>54</ele>
        <time>2022-02-27T13:00:19Z</time>
      </trkpt>
      <trkpt lat="47.18732" lon="-1.59255">
        <ele>54</ele>
        <time>2022-02-27T13:00:21Z</time>
      </trkpt>
      <trkpt lat="47.1873" lon="-1.59272">
        <ele>54</ele>
        <time>2022-02-27T13:00:23Z</time>
      </trkpt>
      <trkpt lat="47.18728" lon="-1.59289">
        <ele>54</ele>
        <time>2022-02-27T13:00:25Z</time>
      </trkpt>
      <trkpt lat="47.18726" lon="-1.59306">
        <ele>54</ele>
        <time>2022-02-27T13:00:27Z</time>
      </trkpt>
      <trkpt lat="47.18725" lon="-1.59322">
        <ele>53</ele>
        <time>2022-02-27T13:00:29Z</time>
      </trkpt>
      <trkpt lat="47.18723" lon="-1.59339">
        <ele>53</ele>
        <time>2022-02-27T13:00:31Z</time>
      </trkpt>
      <trkpt lat="47.18721" lon="-1.59356">
        <ele>53</ele>
        <time>2022-02-27T13:00:33Z</time>
      </trkpt>
      <trkpt lat="47.1872" lon="-1.59373">
        <ele>53</ele>
        <time>2022-02-27T13:00:35Z</time>
      </trkpt>
      <trkpt lat="47.18718" lon="-1.59389">
        <ele>53</ele>
        <time>2022-02-27T13:00:37Z</time>
      </trkpt>
      <trkpt lat="47.18716" lon="-1.59405">
        <ele>53</ele>
        <time>2022-02-27T13:00:39Z</time>
      </trkpt>
      <trkpt lat="47.18714" lon="-1.59422">
        <ele>53</ele>
        <time>2022-02-27T13:00:41Z</time>
      </trkpt>
      <trkpt lat="47.18712" lon="-1.59439">
        <ele>53</ele>
        <time>2022-02-27T13:00:43Z</time>
      </trkpt>
      <trkpt lat="47.1871" lon="-1.59456">
        <ele>53</ele>
        <time>2022-02-27T13:00:45Z</time>
      </trkpt>
      <trkpt lat="47.18708" lon="-1.59474">
        <ele>53</ele>
        <time>2022-02-27T13:00:47Z</time>
      </trkpt>
      <trkpt lat="47.18707" lon="-1.5949">
        <ele>52</ele>
        <time>2022-02-27T13:00:49Z</time>
      </trkpt>
      <trkpt lat="47.18705" lon="-1.59507">
        <ele>52</ele>
        <time>2022-02-27T13:00:51Z</time>
      </trkpt>
      <trkpt lat="47.18703" lon="-1.59524">
        <ele>51</ele>
        <time>2022-02-27T13:00:53Z</time>
      </trkpt>
      <trkpt lat="47.18701" lon="-1.59541">
        <ele>51</ele>
        <time>2022-02-27T13:00:55Z</time>
      </trkpt>
      <trkpt lat="47.18699" lon="-1.59558">
        <ele>51</ele>
        <time>2022-02-27T13:00:57Z</time>
      </trkpt>
      <trkpt lat="47.18697" lon="-1.59575">
        <ele>50</ele>
        <time>2022-02-27T13:00:59Z</time>
      </trkpt>
      <trkpt lat="47.18696" lon="-1.59592">
        <ele>50</ele>
        <time>2022-02-27T13:01:01Z</time>
      </trkpt>
      <trkpt lat="47.18693" lon="-1.59609">
        <ele>50</ele>
        <time>2022-02-27T13:01:03Z</time>
      </trkpt>
      <trkpt lat="47.1869" lon="-1.59626">
        <ele>50</ele>
        <time>2022-02-27T13:01:05Z</time>
      </trkpt>
      <trkpt lat="47.18689" lon="-1.59643">
        <ele>50</ele>
        <time>2022-02-27T13:01:07Z</time>
      </trkpt>
      <trkpt lat="47.18686" lon="-1.59659">
        <ele>50</ele>
        <time>2022-02-27T13:01:09Z</time>
      </trkpt>
      <trkpt lat="47.18684" lon="-1.59676">
        <ele>50</ele>
        <time>2022-02-27T13:01:11Z</time>
      </trkpt>
      <trkpt lat="47.18681" lon="-1.59692">
        <ele>50</ele>
        <time>2022-02-27T13:01:13Z</time>
      </trkpt>
      <trkpt lat="47.1868" lon="-1.59708">
        <ele>50</ele>
        <time>2022-02-27T13:01:15Z</time>
      </trkpt>
      <trkpt lat="47.18679" lon="-1.59723">
        <ele>50</ele>
        <time>2022-02-27T13:01:17Z</time>
      </trkpt>
      <trkpt lat="47.18679" lon="-1.59737">
        <ele>50</ele>
        <time>2022-02-27T13:01:19Z</time>
      </trkpt>
      <trkpt lat="47.18678" lon="-1.59753">
        <ele>50</ele>
        <time>2022-02-27T13:01:21Z</time>
      </trkpt>
      <trkpt lat="47.18677" lon="-1.59773">
        <ele>50</ele>
        <time>2022-02-27T13:01:23Z</time>
      </trkpt>
      <trkpt lat="47.1868" lon="-1.59794">
        <ele>50</ele>
        <time>2022-02-27T13:01:25Z</time>
      </trkpt>
      <trkpt lat="47.18679" lon="-1.59814">
        <ele>50</ele>
        <time>2022-02-27T13:01:27Z</time>
      </trkpt>
      <trkpt lat="47.18672" lon="-1.59831">
        <ele>50</ele>
        <time>2022-02-27T13:01:29Z</time>
      </trkpt>
      <trkpt lat="47.18661" lon="-1.59842">
        <ele>50</ele>
        <time>2022-02-27T13:01:31Z</time>
      </trkpt>
      <trkpt lat="47.18648" lon="-1.59845">
        <ele>50</ele>
        <time>2022-02-27T13:01:33Z</time>
      </trkpt>
      <trkpt lat="47.18636" lon="-1.59841">
        <ele>50</ele>
        <time>2022-02-27T13:01:35Z</time>
      </trkpt>
      <trkpt lat="47.18626" lon="-1.59832">
        <ele>50</ele>
        <time>2022-02-27T13:01:37Z</time>
      </trkpt>
      <trkpt lat="47.18615" lon="-1.59832">
        <ele>51</ele>
        <time>2022-02-27T13:01:39Z</time>
      </trkpt>
      <trkpt lat="47.18612" lon="-1.59846">
        <ele>51</ele>
        <time>2022-02-27T13:01:41Z</time>
      </trkpt>
      <trkpt lat="47.18619" lon="-1.59861">
        <ele>51</ele>
        <time>2022-02-27T13:01:43Z</time>
      </trkpt>
      <trkpt lat="47.18619" lon="-1.59878">
        <ele>52</ele>
        <time>2022-02-27T13:01:45Z</time>
      </trkpt>
      <trkpt lat="47.18615" lon="-1.59895">
        <ele>52</ele>
        <time>2022-02-27T13:01:47Z</time>
      </trkpt>
      <trkpt lat="47.1861" lon="-1.59911">
        <ele>52</ele>
        <time>2022-02-27T13:01:49Z</time>
      </trkpt>
      <trkpt lat="47.18604" lon="-1.59927">
        <ele>52</ele>
        <time>2022-02-27T13:01:51Z</time>
      </trkpt>
      <trkpt lat="47.186" lon="-1.59942">
        <ele>53</ele>
        <time>2022-02-27T13:01:53Z</time>
      </trkpt>
      <trkpt lat="47.18596" lon="-1.59959">
        <ele>52</ele>
        <time>2022-02-27T13:01:55Z</time>
      </trkpt>
      <trkpt lat="47.18591" lon="-1.59974">
        <ele>53</ele>
        <time>2022-02-27T13:01:57Z</time>
      </trkpt>
      <trkpt lat="47.18586" lon="-1.5999">
        <ele>52</ele>
        <time>2022-02-27T13:01:59Z</time>
      </trkpt>
      <trkpt lat="47.18581" lon="-1.60006">
        <ele>52</ele>
        <time>2022-02-27T13:02:01Z</time>
      </trkpt>
      <trkpt lat="47.18576" lon="-1.60021">
        <ele>52</ele>
        <time>2022-02-27T13:02:03Z</time>
      </trkpt>
      <trkpt lat="47.1857" lon="-1.60037">
        <ele>52</ele>
        <time>2022-02-27T13:02:05Z</time>
      </trkpt>
      <trkpt lat="47.18564" lon="-1.60052">
        <ele>52</ele>
        <time>2022-02-27T13:02:07Z</time>
      </trkpt>
      <trkpt lat="47.18558" lon="-1.60067">
        <ele>52</ele>
        <time>2022-02-27T13:02:09Z</time>
      </trkpt>
      <trkpt lat="47.18552" lon="-1.60082">
        <ele>52</ele>
        <time>2022-02-27T13:02:11Z</time>
      </trkpt>
      <trkpt lat="47.18546" lon="-1.60096">
        <ele>52</ele>
        <time>2022-02-27T13:02:13Z</time>
      </trkpt>
      <trkpt lat="47.1854" lon="-1.60111">
        <ele>52</ele>
        <time>2022-02-27T13:02:15Z</time>
      </trkpt>
      <trkpt lat="47.18534" lon="-1.60125">
        <ele>52</ele>
        <time>2022-02-27T13:02:17Z</time>
      </trkpt>
      <trkpt lat="47.18527" lon="-1.6014">
        <ele>52</ele>
        <time>2022-02-27T13:02:19Z</time>
      </trkpt>
      <trkpt lat="47.1852" lon="-1.60155">
        <ele>52</ele>
        <time>2022-02-27T13:02:21Z</time>
      </trkpt>
      <trkpt lat="47.18513" lon="-1.60169">
        <ele>52</ele>
        <time>2022-02-27T13:02:23Z</time>
      </trkpt>
      <trkpt lat="47.18506" lon="-1.60183">
        <ele>52</ele>
        <time>2022-02-27T13:02:25Z</time>
      </trkpt>
      <trkpt lat="47.185" lon="-1.60198">
        <ele>53</ele>
        <time>2022-02-27T13:02:27Z</time>
      </trkpt>
      <trkpt lat="47.18493" lon="-1.60212">
        <ele>53</ele>
        <time>2022-02-27T13:02:29Z</time>
      </trkpt>
      <trkpt lat="47.18486" lon="-1.60226">
        <ele>53</ele>
        <time>2022-02-27T13:02:31Z</time>
      </trkpt>
      <trkpt lat="47.18479" lon="-1.60239">
        <ele>53</ele>
        <time>2022-02-27T13:02:33Z</time>
      </trkpt>
      <trkpt lat="47.18472" lon="-1.60253">
        <ele>53</ele>
        <time>2022-02-27T13:02:35Z</time>
      </trkpt>
      <trkpt lat="47.18464" lon="-1.60267">
        <ele>53</ele>
        <time>2022-02-27T13:02:37Z</time>
      </trkpt>
      <trkpt lat="47.18456" lon="-1.6028">
        <ele>53</ele>
        <time>2022-02-27T13:02:39Z</time>
      </trkpt>
      <trkpt lat="47.18449" lon="-1.60293">
        <ele>53</ele>
        <time>2022-02-27T13:02:41Z</time>
      </trkpt>
      <trkpt lat="47.18442" lon="-1.60306">
        <ele>53</ele>
        <time>2022-02-27T13:02:43Z</time>
      </trkpt>
      <trkpt lat="47.18434" lon="-1.60318">
        <ele>53</ele>
        <time>2022-02-27T13:02:45Z</time>
      </trkpt>
      <trkpt lat="47.18426" lon="-1.60331">
        <ele>53</ele>
        <time>2022-02-27T13:02:47Z</time>
      </trkpt>
      <trkpt lat="47.18417" lon="-1.60344">
        <ele>53</ele>
        <time>2022-02-27T13:02:49Z</time>
      </trkpt>
      <trkpt lat="47.18409" lon="-1.60356">
        <ele>53</ele>
        <time>2022-02-27T13:02:51Z</time>
      </trkpt>
      <trkpt lat="47.184" lon="-1.60368">
        <ele>53</ele>
        <time>2022-02-27T13:02:53Z</time>
      </trkpt>
      <trkpt lat="47.18391" lon="-1.6038">
        <ele>53</ele>
        <time>2022-02-27T13:02:55Z</time>
      </trkpt>
      <trkpt lat="47.18382" lon="-1.60392">
        <ele>53</ele>
        <time>2022-02-27T13:02:57Z</time>
      </trkpt>
      <trkpt lat="47.18373" lon="-1.60403">
        <ele>53</ele>
        <time>2022-02-27T13:02:59Z</time>
      </trkpt>
      <trkpt lat="47.18364" lon="-1.60415">
        <ele>53</ele>
        <time>2022-02-27T13:03:01Z</time>
      </trkpt>
      <trkpt lat="47.18355" lon="-1.60427">
        <ele>53</ele>
        <time>2022-02-27T13:03:03Z</time>
      </trkpt>
      <trkpt lat="47.18346" lon="-1.60438">
        <ele>54</ele>
        <time>2022-02-27T13:03:05Z</time>
      </trkpt>
      <trkpt lat="47.18336" lon="-1.6045">
        <ele>54</ele>
        <time>2022-02-27T13:03:07Z</time>
      </trkpt>
      <trkpt lat="47.18327" lon="-1.60462">
        <ele>55</ele>
        <time>2022-02-27T13:03:09Z</time>
      </trkpt>
      <trkpt lat="47.18318" lon="-1.60472">
        <ele>54</ele>
        <time>2022-02-27T13:03:11Z</time>
      </trkpt>
      <trkpt lat="47.18308" lon="-1.60483">
        <ele>55</ele>
        <time>2022-02-27T13:03:13Z</time>
      </trkpt>
      <trkpt lat="47.18299" lon="-1.60494">
        <ele>54</ele>
        <time>2022-02-27T13:03:15Z</time>
      </trkpt>
      <trkpt lat="47.18289" lon="-1.60504">
        <ele>55</ele>
        <time>2022-02-27T13:03:17Z</time>
      </trkpt>
      <trkpt lat="47.18279" lon="-1.60515">
        <ele>55</ele>
        <time>2022-02-27T13:03:19Z</time>
      </trkpt>
      <trkpt lat="47.1827" lon="-1.60525">
        <ele>55</ele>
        <time>2022-02-27T13:03:21Z</time>
      </trkpt>
      <trkpt lat="47.18259" lon="-1.60533">
        <ele>55</ele>
        <time>2022-02-27T13:03:23Z</time>
      </trkpt>
      <trkpt lat="47.18249" lon="-1.60541">
        <ele>55</ele>
        <time>2022-02-27T13:03:25Z</time>
      </trkpt>
      <trkpt lat="47.18239" lon="-1.60549">
        <ele>55</ele>
        <time>2022-02-27T13:03:27Z</time>
      </trkpt>
      <trkpt lat="47.18228" lon="-1.60557">
        <ele>55</ele>
        <time>2022-02-27T13:03:29Z</time>
      </trkpt>
      <trkpt lat="47.18218" lon="-1.60562">
        <ele>55</ele>
        <time>2022-02-27T13:03:31Z</time>
      </trkpt>
      <trkpt lat="47.18208" lon="-1.60568">
        <ele>55</ele>
        <time>2022-02-27T13:03:33Z</time>
      </trkpt>
      <trkpt lat="47.18199" lon="-1.60571">
        <ele>55</ele>
        <time>2022-02-27T13:03:35Z</time>
      </trkpt>
      <trkpt lat="47.1819" lon="-1.60574">
        <ele>54</ele>
        <time>2022-02-27T13:03:37Z</time>
      </trkpt>
      <trkpt lat="47.18184" lon="-1.60588">
        <ele>54</ele>
        <time>2022-02-27T13:03:40Z</time>
      </trkpt>
      <trkpt lat="47.18178" lon="-1.60599">
        <ele>54</ele>
        <time>2022-02-27T13:03:42Z</time>
      </trkpt>
      <trkpt lat="47.18168" lon="-1.60602">
        <ele>54</ele>
        <time>2022-02-27T13:03:44Z</time>
      </trkpt>
      <trkpt lat="47.18158" lon="-1.60604">
        <ele>54</ele>
        <time>2022-02-27T13:03:46Z</time>
      </trkpt>
      <trkpt lat="47.18148" lon="-1.60604">
        <ele>54</ele>
        <time>2022-02-27T13:03:48Z</time>
      </trkpt>
      <trkpt lat="47.18137" lon="-1.60603">
        <ele>55</ele>
        <time>2022-02-27T13:03:50Z</time>
      </trkpt>
      <trkpt lat="47.18128" lon="-1.60602">
        <ele>55</ele>
        <time>2022-02-27T13:03:52Z</time>
      </trkpt>
      <trkpt lat="47.18117" lon="-1.60599">
        <ele>55</ele>
        <time>2022-02-27T13:03:54Z</time>
      </trkpt>
      <trkpt lat="47.18107" lon="-1.60595">
        <ele>56</ele>
        <time>2022-02-27T13:03:56Z</time>
      </trkpt>
      <trkpt lat="47.18097" lon="-1.60591">
        <ele>56</ele>
        <time>2022-02-27T13:03:58Z</time>
      </trkpt>
      <trkpt lat="47.18087" lon="-1.60586">
        <ele>56</ele>
        <time>2022-02-27T13:04:00Z</time>
      </trkpt>
      <trkpt lat="47.18077" lon="-1.60581">
        <ele>56</ele>
        <time>2022-02-27T13:04:02Z</time>
      </trkpt>
      <trkpt lat="47.18068" lon="-1.60575">
        <ele>55</ele>
        <time>2022-02-27T13:04:04Z</time>
      </trkpt>
      <trkpt lat="47.18059" lon="-1.6057">
        <ele>56</ele>
        <time>2022-02-27T13:04:06Z</time>
      </trkpt>
      <trkpt lat="47.18049" lon="-1.60565">
        <ele>56</ele>
        <time>2022-02-27T13:04:08Z</time>
      </trkpt>
      <trkpt lat="47.18039" lon="-1.60559">
        <ele>56</ele>
        <time>2022-02-27T13:04:10Z</time>
      </trkpt>
      <trkpt lat="47.18029" lon="-1.60554">
        <ele>55</ele>
        <time>2022-02-27T13:04:12Z</time>
      </trkpt>
      <trkpt lat="47.18019" lon="-1.60552">
        <ele>55</ele>
        <time>2022-02-27T13:04:14Z</time>
      </trkpt>
      <trkpt lat="47.18009" lon="-1.60553">
        <ele>56</ele>
        <time>2022-02-27T13:04:16Z</time>
      </trkpt>
      <trkpt lat="47.17999" lon="-1.60555">
        <ele>56</ele>
        <time>2022-02-27T13:04:18Z</time>
      </trkpt>
      <trkpt lat="47.17984" lon="-1.60561">
        <ele>56</ele>
        <time>2022-02-27T13:04:21Z</time>
      </trkpt>
      <trkpt lat="47.17974" lon="-1.60565">
        <ele>57</ele>
        <time>2022-02-27T13:04:23Z</time>
      </trkpt>
      <trkpt lat="47.17965" lon="-1.60569">
        <ele>57</ele>
        <time>2022-02-27T13:04:25Z</time>
      </trkpt>
      <trkpt lat="47.17952" lon="-1.60573">
        <ele>57</ele>
        <time>2022-02-27T13:04:28Z</time>
      </trkpt>
      <trkpt lat="47.17943" lon="-1.60579">
        <ele>57</ele>
        <time>2022-02-27T13:04:30Z</time>
      </trkpt>
      <trkpt lat="47.17933" lon="-1.60584">
        <ele>57</ele>
        <time>2022-02-27T13:04:32Z</time>
      </trkpt>
      <trkpt lat="47.1792" lon="-1.60587">
        <ele>58</ele>
        <time>2022-02-27T13:04:35Z</time>
      </trkpt>
      <trkpt lat="47.17911" lon="-1.60586">
        <ele>58</ele>
        <time>2022-02-27T13:04:37Z</time>
      </trkpt>
      <trkpt lat="47.17902" lon="-1.60594">
        <ele>57</ele>
        <time>2022-02-27T13:04:39Z</time>
      </trkpt>
      <trkpt lat="47.17898" lon="-1.60611">
        <ele>57</ele>
        <time>2022-02-27T13:04:41Z</time>
      </trkpt>
      <trkpt lat="47.17894" lon="-1.60629">
        <ele>57</ele>
        <time>2022-02-27T13:04:43Z</time>
      </trkpt>
      <trkpt lat="47.17888" lon="-1.60645">
        <ele>56</ele>
        <time>2022-02-27T13:04:45Z</time>
      </trkpt>
      <trkpt lat="47.17882" lon="-1.60662">
        <ele>55</ele>
        <time>2022-02-27T13:04:47Z</time>
      </trkpt>
      <trkpt lat="47.17877" lon="-1.60678">
        <ele>55</ele>
        <time>2022-02-27T13:04:49Z</time>
      </trkpt>
      <trkpt lat="47.17872" lon="-1.60694">
        <ele>54</ele>
        <time>2022-02-27T13:04:51Z</time>
      </trkpt>
      <trkpt lat="47.17868" lon="-1.60711">
        <ele>54</ele>
        <time>2022-02-27T13:04:53Z</time>
      </trkpt>
      <trkpt lat="47.17864" lon="-1.60727">
        <ele>54</ele>
        <time>2022-02-27T13:04:55Z</time>
      </trkpt>
      <trkpt lat="47.1786" lon="-1.60744">
        <ele>53</ele>
        <time>2022-02-27T13:04:57Z</time>
      </trkpt>
      <trkpt lat="47.17858" lon="-1.6076">
        <ele>53</ele>
        <time>2022-02-27T13:04:59Z</time>
      </trkpt>
      <trkpt lat="47.17854" lon="-1.60776">
        <ele>53</ele>
        <time>2022-02-27T13:05:01Z</time>
      </trkpt>
      <trkpt lat="47.1785" lon="-1.60792">
        <ele>53</ele>
        <time>2022-02-27T13:05:03Z</time>
      </trkpt>
      <trkpt lat="47.17846" lon="-1.60808">
        <ele>53</ele>
        <time>2022-02-27T13:05:05Z</time>
      </trkpt>
      <trkpt lat="47.17842" lon="-1.60823">
        <ele>53</ele>
        <time>2022-02-27T13:05:07Z</time>
      </trkpt>
      <trkpt lat="47.17837" lon="-1.60838">
        <ele>53</ele>
        <time>2022-02-27T13:05:09Z</time>
      </trkpt>
      <trkpt lat="47.17831" lon="-1.60852">
        <ele>53</ele>
        <time>2022-02-27T13:05:11Z</time>
      </trkpt>
      <trkpt lat="47.17824" lon="-1.60864">
        <ele>53</ele>
        <time>2022-02-27T13:05:13Z</time>
      </trkpt>
      <trkpt lat="47.17816" lon="-1.60876">
        <ele>53</ele>
        <time>2022-02-27T13:05:15Z</time>
      </trkpt>
      <trkpt lat="47.17808" lon="-1.60887">
        <ele>53</ele>
        <time>2022-02-27T13:05:17Z</time>
      </trkpt>
      <trkpt lat="47.17798" lon="-1.60896">
        <ele>53</ele>
        <time>2022-02-27T13:05:19Z</time>
      </trkpt>
      <trkpt lat="47.17789" lon="-1.60904">
        <ele>53</ele>
        <time>2022-02-27T13:05:21Z</time>
      </trkpt>
      <trkpt lat="47.17779" lon="-1.60911">
        <ele>53</ele>
        <time>2022-02-27T13:05:23Z</time>
      </trkpt>
      <trkpt lat="47.17769" lon="-1.60918">
        <ele>53</ele>
        <time>2022-02-27T13:05:25Z</time>
      </trkpt>
      <trkpt lat="47.1776" lon="-1.60926">
        <ele>53</ele>
        <time>2022-02-27T13:05:27Z</time>
      </trkpt>
      <trkpt lat="47.1775" lon="-1.60933">
        <ele>53</ele>
        <time>2022-02-27T13:05:29Z</time>
      </trkpt>
      <trkpt lat="47.17739" lon="-1.60941">
        <ele>53</ele>
        <time>2022-02-27T13:05:31Z</time>
      </trkpt>
      <trkpt lat="47.1773" lon="-1.60949">
        <ele>53</ele>
        <time>2022-02-27T13:05:33Z</time>
      </trkpt>
      <trkpt lat="47.1772" lon="-1.60956">
        <ele>53</ele>
        <time>2022-02-27T13:05:35Z</time>
      </trkpt>
      <trkpt lat="47.1771" lon="-1.60962">
        <ele>54</ele>
        <time>2022-02-27T13:05:37Z</time>
      </trkpt>
      <trkpt lat="47.177" lon="-1.60969">
        <ele>55</ele>
        <time>2022-02-27T13:05:39Z</time>
      </trkpt>
      <trkpt lat="47.1769" lon="-1.60974">
        <ele>55</ele>
        <time>2022-02-27T13:05:41Z</time>
      </trkpt>
      <trkpt lat="47.17679" lon="-1.60973">
        <ele>55</ele>
        <time>2022-02-27T13:05:43Z</time>
      </trkpt>
      <trkpt lat="47.17666" lon="-1.60972">
        <ele>55</ele>
        <time>2022-02-27T13:05:45Z</time>
      </trkpt>
      <trkpt lat="47.17655" lon="-1.60975">
        <ele>55</ele>
        <time>2022-02-27T13:05:47Z</time>
      </trkpt>
      <trkpt lat="47.17645" lon="-1.60982">
        <ele>55</ele>
        <time>2022-02-27T13:05:49Z</time>
      </trkpt>
      <trkpt lat="47.17635" lon="-1.6099">
        <ele>54</ele>
        <time>2022-02-27T13:05:51Z</time>
      </trkpt>
      <trkpt lat="47.17626" lon="-1.60998">
        <ele>54</ele>
        <time>2022-02-27T13:05:53Z</time>
      </trkpt>
      <trkpt lat="47.17617" lon="-1.61006">
        <ele>54</ele>
        <time>2022-02-27T13:05:55Z</time>
      </trkpt>
      <trkpt lat="47.17608" lon="-1.61014">
        <ele>54</ele>
        <time>2022-02-27T13:05:57Z</time>
      </trkpt>
      <trkpt lat="47.17599" lon="-1.61023">
        <ele>54</ele>
        <time>2022-02-27T13:05:59Z</time>
      </trkpt>
      <trkpt lat="47.1759" lon="-1.61031">
        <ele>54</ele>
        <time>2022-02-27T13:06:01Z</time>
      </trkpt>
      <trkpt lat="47.17581" lon="-1.61039">
        <ele>54</ele>
        <time>2022-02-27T13:06:03Z</time>
      </trkpt>
      <trkpt lat="47.17571" lon="-1.61047">
        <ele>54</ele>
        <time>2022-02-27T13:06:05Z</time>
      </trkpt>
      <trkpt lat="47.17562" lon="-1.61055">
        <ele>55</ele>
        <time>2022-02-27T13:06:07Z</time>
      </trkpt>
      <trkpt lat="47.17552" lon="-1.61062">
        <ele>55</ele>
        <time>2022-02-27T13:06:09Z</time>
      </trkpt>
      <trkpt lat="47.17543" lon="-1.6107">
        <ele>55</ele>
        <time>2022-02-27T13:06:11Z</time>
      </trkpt>
      <trkpt lat="47.17533" lon="-1.61078">
        <ele>55</ele>
        <time>2022-02-27T13:06:13Z</time>
      </trkpt>
      <trkpt lat="47.17524" lon="-1.61086">
        <ele>55</ele>
        <time>2022-02-27T13:06:15Z</time>
      </trkpt>
      <trkpt lat="47.17515" lon="-1.61095">
        <ele>54</ele>
        <time>2022-02-27T13:06:17Z</time>
      </trkpt>
      <trkpt lat="47.17505" lon="-1.61101">
        <ele>54</ele>
        <time>2022-02-27T13:06:19Z</time>
      </trkpt>
      <trkpt lat="47.17494" lon="-1.61105">
        <ele>55</ele>
        <time>2022-02-27T13:06:21Z</time>
      </trkpt>
      <trkpt lat="47.17483" lon="-1.61105">
        <ele>55</ele>
        <time>2022-02-27T13:06:23Z</time>
      </trkpt>
      <trkpt lat="47.17473" lon="-1.61103">
        <ele>55</ele>
        <time>2022-02-27T13:06:25Z</time>
      </trkpt>
      <trkpt lat="47.17463" lon="-1.61096">
        <ele>56</ele>
        <time>2022-02-27T13:06:27Z</time>
      </trkpt>
      <trkpt lat="47.17455" lon="-1.61087">
        <ele>55</ele>
        <time>2022-02-27T13:06:29Z</time>
      </trkpt>
      <trkpt lat="47.17447" lon="-1.61079">
        <ele>56</ele>
        <time>2022-02-27T13:06:31Z</time>
      </trkpt>
      <trkpt lat="47.17441" lon="-1.61068">
        <ele>56</ele>
        <time>2022-02-27T13:06:33Z</time>
      </trkpt>
      <trkpt lat="47.17436" lon="-1.61056">
        <ele>57</ele>
        <time>2022-02-27T13:06:35Z</time>
      </trkpt>
      <trkpt lat="47.17431" lon="-1.61044">
        <ele>57</ele>
        <time>2022-02-27T13:06:37Z</time>
      </trkpt>
      <trkpt lat="47.17426" lon="-1.61029">
        <ele>58</ele>
        <time>2022-02-27T13:06:40Z</time>
      </trkpt>
      <trkpt lat="47.17421" lon="-1.61018">
        <ele>57</ele>
        <time>2022-02-27T13:06:44Z</time>
      </trkpt>
      <trkpt lat="47.17417" lon="-1.61032">
        <ele>57</ele>
        <time>2022-02-27T13:06:49Z</time>
      </trkpt>
      <trkpt lat="47.17421" lon="-1.61049">
        <ele>57</ele>
        <time>2022-02-27T13:06:52Z</time>
      </trkpt>
      <trkpt lat="47.17428" lon="-1.61066">
        <ele>58</ele>
        <time>2022-02-27T13:06:55Z</time>
      </trkpt>
      <trkpt lat="47.17433" lon="-1.61078">
        <ele>58</ele>
        <time>2022-02-27T13:06:57Z</time>
      </trkpt>
      <trkpt lat="47.17438" lon="-1.61092">
        <ele>59</ele>
        <time>2022-02-27T13:06:59Z</time>
      </trkpt>
      <trkpt lat="47.17443" lon="-1.61106">
        <ele>59</ele>
        <time>2022-02-27T13:07:01Z</time>
      </trkpt>
      <trkpt lat="47.17449" lon="-1.6112">
        <ele>59</ele>
        <time>2022-02-27T13:07:03Z</time>
      </trkpt>
      <trkpt lat="47.17455" lon="-1.61134">
        <ele>60</ele>
        <time>2022-02-27T13:07:05Z</time>
      </trkpt>
      <trkpt lat="47.17461" lon="-1.61147">
        <ele>60</ele>
        <time>2022-02-27T13:07:07Z</time>
      </trkpt>
      <trkpt lat="47.17467" lon="-1.61161">
        <ele>60</ele>
        <time>2022-02-27T13:07:09Z</time>
      </trkpt>
      <trkpt lat="47.17472" lon="-1.61175">
        <ele>61</ele>
        <time>2022-02-27T13:07:11Z</time>
      </trkpt>
      <trkpt lat="47.17478" lon="-1.61189">
        <ele>61</ele>
        <time>2022-02-27T13:07:13Z</time>
      </trkpt>
      <trkpt lat="47.17484" lon="-1.61202">
        <ele>61</ele>
        <time>2022-02-27T13:07:15Z</time>
      </trkpt>
      <trkpt lat="47.17489" lon="-1.61216">
        <ele>61</ele>
        <time>2022-02-27T13:07:17Z</time>
      </trkpt>
      <trkpt lat="47.17495" lon="-1.61229">
        <ele>61</ele>
        <time>2022-02-27T13:07:19Z</time>
      </trkpt>
      <trkpt lat="47.17501" lon="-1.61243">
        <ele>61</ele>
        <time>2022-02-27T13:07:21Z</time>
      </trkpt>
      <trkpt lat="47.17508" lon="-1.61256">
        <ele>61</ele>
        <time>2022-02-27T13:07:23Z</time>
      </trkpt>
      <trkpt lat="47.17516" lon="-1.61268">
        <ele>61</ele>
        <time>2022-02-27T13:07:25Z</time>
      </trkpt>
      <trkpt lat="47.17524" lon="-1.61278">
        <ele>61</ele>
        <time>2022-02-27T13:07:27Z</time>
      </trkpt>
      <trkpt lat="47.17533" lon="-1.61287">
        <ele>62</ele>
        <time>2022-02-27T13:07:29Z</time>
      </trkpt>
      <trkpt lat="47.17544" lon="-1.61293">
        <ele>62</ele>
        <time>2022-02-27T13:07:31Z</time>
      </trkpt>
      <trkpt lat="47.17553" lon="-1.61301">
        <ele>62</ele>
        <time>2022-02-27T13:07:33Z</time>
      </trkpt>
      <trkpt lat="47.17558" lon="-1.61316">
        <ele>62</ele>
        <time>2022-02-27T13:07:35Z</time>
      </trkpt>
      <trkpt lat="47.17555" lon="-1.61334">
        <ele>62</ele>
        <time>2022-02-27T13:07:37Z</time>
      </trkpt>
      <trkpt lat="47.17548" lon="-1.61348">
        <ele>62</ele>
        <time>2022-02-27T13:07:39Z</time>
      </trkpt>
      <trkpt lat="47.17538" lon="-1.61358">
        <ele>61</ele>
        <time>2022-02-27T13:07:41Z</time>
      </trkpt>
      <trkpt lat="47.17529" lon="-1.6137">
        <ele>61</ele>
        <time>2022-02-27T13:07:43Z</time>
      </trkpt>
      <trkpt lat="47.17523" lon="-1.61385">
        <ele>61</ele>
        <time>2022-02-27T13:07:45Z</time>
      </trkpt>
      <trkpt lat="47.17519" lon="-1.61401">
        <ele>61</ele>
        <time>2022-02-27T13:07:47Z</time>
      </trkpt>
      <trkpt lat="47.17516" lon="-1.61415">
        <ele>62</ele>
        <time>2022-02-27T13:07:49Z</time>
      </trkpt>
      <trkpt lat="47.17514" lon="-1.61429">
        <ele>62</ele>
        <time>2022-02-27T13:07:51Z</time>
      </trkpt>
      <trkpt lat="47.17511" lon="-1.61444">
        <ele>63</ele>
        <time>2022-02-27T13:07:53Z</time>
      </trkpt>
      <trkpt lat="47.17506" lon="-1.61456">
        <ele>64</ele>
        <time>2022-02-27T13:07:55Z</time>
      </trkpt>
      <trkpt lat="47.17496" lon="-1.61463">
        <ele>64</ele>
        <time>2022-02-27T13:07:57Z</time>
      </trkpt>
      <trkpt lat="47.17484" lon="-1.61467">
        <ele>64</ele>
        <time>2022-02-27T13:07:59Z</time>
      </trkpt>
      <trkpt lat="47.17474" lon="-1.61471">
        <ele>65</ele>
        <time>2022-02-27T13:08:01Z</time>
      </trkpt>
      <trkpt lat="47.17464" lon="-1.61476">
        <ele>65</ele>
        <time>2022-02-27T13:08:03Z</time>
      </trkpt>
      <trkpt lat="47.17454" lon="-1.61481">
        <ele>66</ele>
        <time>2022-02-27T13:08:05Z</time>
      </trkpt>
      <trkpt lat="47.17444" lon="-1.61485">
        <ele>66</ele>
        <time>2022-02-27T13:08:07Z</time>
      </trkpt>
      <trkpt lat="47.17435" lon="-1.6149">
        <ele>66</ele>
        <time>2022-02-27T13:08:09Z</time>
      </trkpt>
      <trkpt lat="47.17426" lon="-1.61496">
        <ele>66</ele>
        <time>2022-02-27T13:08:11Z</time>
      </trkpt>
      <trkpt lat="47.17417" lon="-1.61501">
        <ele>67</ele>
        <time>2022-02-27T13:08:13Z</time>
      </trkpt>
      <trkpt lat="47.17408" lon="-1.61508">
        <ele>67</ele>
        <time>2022-02-27T13:08:15Z</time>
      </trkpt>
      <trkpt lat="47.174" lon="-1.61515">
        <ele>67</ele>
        <time>2022-02-27T13:08:17Z</time>
      </trkpt>
      <trkpt lat="47.17391" lon="-1.61522">
        <ele>67</ele>
        <time>2022-02-27T13:08:19Z</time>
      </trkpt>
      <trkpt lat="47.17384" lon="-1.61529">
        <ele>67</ele>
        <time>2022-02-27T13:08:21Z</time>
      </trkpt>
      <trkpt lat="47.17375" lon="-1.61537">
        <ele>68</ele>
        <time>2022-02-27T13:08:23Z</time>
      </trkpt>
      <trkpt lat="47.17368" lon="-1.61545">
        <ele>70</ele>
        <time>2022-02-27T13:08:25Z</time>
      </trkpt>
      <trkpt lat="47.1736" lon="-1.61553">
        <ele>70</ele>
        <time>2022-02-27T13:08:27Z</time>
      </trkpt>
      <trkpt lat="47.17353" lon="-1.61562">
        <ele>71</ele>
        <time>2022-02-27T13:08:29Z</time>
      </trkpt>
      <trkpt lat="47.17346" lon="-1.6157">
        <ele>71</ele>
        <time>2022-02-27T13:08:31Z</time>
      </trkpt>
      <trkpt lat="47.17338" lon="-1.61579">
        <ele>71</ele>
        <time>2022-02-27T13:08:33Z</time>
      </trkpt>
      <trkpt lat="47.17331" lon="-1.61588">
        <ele>71</ele>
        <time>2022-02-27T13:08:35Z</time>
      </trkpt>
      <trkpt lat="47.17323" lon="-1.61598">
        <ele>71</ele>
        <time>2022-02-27T13:08:37Z</time>
      </trkpt>
      <trkpt lat="47.17315" lon="-1.61608">
        <ele>70</ele>
        <time>2022-02-27T13:08:39Z</time>
      </trkpt>
      <trkpt lat="47.17308" lon="-1.61619">
        <ele>70</ele>
        <time>2022-02-27T13:08:41Z</time>
      </trkpt>
      <trkpt lat="47.17302" lon="-1.6163">
        <ele>70</ele>
        <time>2022-02-27T13:08:43Z</time>
      </trkpt>
      <trkpt lat="47.17295" lon="-1.6164">
        <ele>70</ele>
        <time>2022-02-27T13:08:45Z</time>
      </trkpt>
      <trkpt lat="47.17289" lon="-1.61653">
        <ele>70</ele>
        <time>2022-02-27T13:08:47Z</time>
      </trkpt>
      <trkpt lat="47.17283" lon="-1.61665">
        <ele>70</ele>
        <time>2022-02-27T13:08:49Z</time>
      </trkpt>
      <trkpt lat="47.17276" lon="-1.61677">
        <ele>70</ele>
        <time>2022-02-27T13:08:51Z</time>
      </trkpt>
      <trkpt lat="47.1727" lon="-1.61689">
        <ele>70</ele>
        <time>2022-02-27T13:08:53Z</time>
      </trkpt>
      <trkpt lat="47.17264" lon="-1.61701">
        <ele>70</ele>
        <time>2022-02-27T13:08:55Z</time>
      </trkpt>
      <trkpt lat="47.17258" lon="-1.61713">
        <ele>70</ele>
        <time>2022-02-27T13:08:57Z</time>
      </trkpt>
      <trkpt lat="47.17252" lon="-1.61725">
        <ele>69</ele>
        <time>2022-02-27T13:08:59Z</time>
      </trkpt>
      <trkpt lat="47.17247" lon="-1.61738">
        <ele>69</ele>
        <time>2022-02-27T13:09:01Z</time>
      </trkpt>
      <trkpt lat="47.17244" lon="-1.61753">
        <ele>69</ele>
        <time>2022-02-27T13:09:03Z</time>
      </trkpt>
      <trkpt lat="47.17242" lon="-1.61768">
        <ele>68</ele>
        <time>2022-02-27T13:09:05Z</time>
      </trkpt>
      <trkpt lat="47.17235" lon="-1.6178">
        <ele>68</ele>
        <time>2022-02-27T13:09:07Z</time>
      </trkpt>
      <trkpt lat="47.17226" lon="-1.61789">
        <ele>69</ele>
        <time>2022-02-27T13:09:09Z</time>
      </trkpt>
      <trkpt lat="47.17217" lon="-1.61797">
        <ele>69</ele>
        <time>2022-02-27T13:09:11Z</time>
      </trkpt>
      <trkpt lat="47.17208" lon="-1.61805">
        <ele>69</ele>
        <time>2022-02-27T13:09:13Z</time>
      </trkpt>
      <trkpt lat="47.17199" lon="-1.61812">
        <ele>69</ele>
        <time>2022-02-27T13:09:15Z</time>
      </trkpt>
      <trkpt lat="47.1719" lon="-1.6182">
        <ele>69</ele>
        <time>2022-02-27T13:09:17Z</time>
      </trkpt>
      <trkpt lat="47.17182" lon="-1.61829">
        <ele>70</ele>
        <time>2022-02-27T13:09:19Z</time>
      </trkpt>
      <trkpt lat="47.17173" lon="-1.61837">
        <ele>70</ele>
        <time>2022-02-27T13:09:21Z</time>
      </trkpt>
      <trkpt lat="47.17164" lon="-1.61846">
        <ele>70</ele>
        <time>2022-02-27T13:09:23Z</time>
      </trkpt>
      <trkpt lat="47.17155" lon="-1.61854">
        <ele>69</ele>
        <time>2022-02-27T13:09:25Z</time>
      </trkpt>
      <trkpt lat="47.17146" lon="-1.61863">
        <ele>69</ele>
        <time>2022-02-27T13:09:27Z</time>
      </trkpt>
      <trkpt lat="47.17137" lon="-1.61871">
        <ele>69</ele>
        <time>2022-02-27T13:09:29Z</time>
      </trkpt>
      <trkpt lat="47.17128" lon="-1.6188">
        <ele>69</ele>
        <time>2022-02-27T13:09:31Z</time>
      </trkpt>
      <trkpt lat="47.17119" lon="-1.61888">
        <ele>69</ele>
        <time>2022-02-27T13:09:33Z</time>
      </trkpt>
      <trkpt lat="47.1711" lon="-1.61897">
        <ele>69</ele>
        <time>2022-02-27T13:09:35Z</time>
      </trkpt>
      <trkpt lat="47.17101" lon="-1.61906">
        <ele>69</ele>
        <time>2022-02-27T13:09:37Z</time>
      </trkpt>
      <trkpt lat="47.17092" lon="-1.61915">
        <ele>69</ele>
        <time>2022-02-27T13:09:39Z</time>
      </trkpt>
      <trkpt lat="47.17083" lon="-1.61923">
        <ele>69</ele>
        <time>2022-02-27T13:09:41Z</time>
      </trkpt>
      <trkpt lat="47.17076" lon="-1.61931">
        <ele>69</ele>
        <time>2022-02-27T13:09:43Z</time>
      </trkpt>
      <trkpt lat="47.17068" lon="-1.61939">
        <ele>69</ele>
        <time>2022-02-27T13:09:45Z</time>
      </trkpt>
      <trkpt lat="47.17059" lon="-1.61948">
        <ele>70</ele>
        <time>2022-02-27T13:09:47Z</time>
      </trkpt>
      <trkpt lat="47.17052" lon="-1.61958">
        <ele>70</ele>
        <time>2022-02-27T13:09:49Z</time>
      </trkpt>
      <trkpt lat="47.17045" lon="-1.61968">
        <ele>70</ele>
        <time>2022-02-27T13:09:51Z</time>
      </trkpt>
      <trkpt lat="47.17038" lon="-1.6198">
        <ele>70</ele>
        <time>2022-02-27T13:09:53Z</time>
      </trkpt>
      <trkpt lat="47.1703" lon="-1.61991">
        <ele>70</ele>
        <time>2022-02-27T13:09:55Z</time>
      </trkpt>
      <trkpt lat="47.17022" lon="-1.62002">
        <ele>70</ele>
        <time>2022-02-27T13:09:57Z</time>
      </trkpt>
      <trkpt lat="47.17014" lon="-1.62013">
        <ele>70</ele>
        <time>2022-02-27T13:09:59Z</time>
      </trkpt>
      <trkpt lat="47.17007" lon="-1.62024">
        <ele>69</ele>
        <time>2022-02-27T13:10:01Z</time>
      </trkpt>
      <trkpt lat="47.17" lon="-1.62036">
        <ele>69</ele>
        <time>2022-02-27T13:10:03Z</time>
      </trkpt>
      <trkpt lat="47.16992" lon="-1.62049">
        <ele>69</ele>
        <time>2022-02-27T13:10:05Z</time>
      </trkpt>
      <trkpt lat="47.16985" lon="-1.62062">
        <ele>69</ele>
        <time>2022-02-27T13:10:07Z</time>
      </trkpt>
      <trkpt lat="47.16979" lon="-1.62074">
        <ele>70</ele>
        <time>2022-02-27T13:10:09Z</time>
      </trkpt>
      <trkpt lat="47.16972" lon="-1.62086">
        <ele>70</ele>
        <time>2022-02-27T13:10:11Z</time>
      </trkpt>
      <trkpt lat="47.16965" lon="-1.62099">
        <ele>70</ele>
        <time>2022-02-27T13:10:13Z</time>
      </trkpt>
      <trkpt lat="47.16958" lon="-1.62111">
        <ele>70</ele>
        <time>2022-02-27T13:10:15Z</time>
      </trkpt>
      <trkpt lat="47.16951" lon="-1.62125">
        <ele>70</ele>
        <time>2022-02-27T13:10:17Z</time>
      </trkpt>
      <trkpt lat="47.16944" lon="-1.62138">
        <ele>70</ele>
        <time>2022-02-27T13:10:19Z</time>
      </trkpt>
      <trkpt lat="47.16938" lon="-1.62151">
        <ele>70</ele>
        <time>2022-02-27T13:10:21Z</time>
      </trkpt>
      <trkpt lat="47.16932" lon="-1.62164">
        <ele>70</ele>
        <time>2022-02-27T13:10:23Z</time>
      </trkpt>
      <trkpt lat="47.16925" lon="-1.62177">
        <ele>70</ele>
        <time>2022-02-27T13:10:25Z</time>
      </trkpt>
      <trkpt lat="47.16918" lon="-1.6219">
        <ele>70</ele>
        <time>2022-02-27T13:10:27Z</time>
      </trkpt>
      <trkpt lat="47.16911" lon="-1.62203">
        <ele>70</ele>
        <time>2022-02-27T13:10:29Z</time>
      </trkpt>
      <trkpt lat="47.16903" lon="-1.62215">
        <ele>71</ele>
        <time>2022-02-27T13:10:31Z</time>
      </trkpt>
      <trkpt lat="47.16895" lon="-1.62226">
        <ele>71</ele>
        <time>2022-02-27T13:10:33Z</time>
      </trkpt>
      <trkpt lat="47.16886" lon="-1.62236">
        <ele>71</ele>
        <time>2022-02-27T13:10:35Z</time>
      </trkpt>
      <trkpt lat="47.16878" lon="-1.62246">
        <ele>71</ele>
        <time>2022-02-27T13:10:37Z</time>
      </trkpt>
      <trkpt lat="47.1687" lon="-1.62257">
        <ele>71</ele>
        <time>2022-02-27T13:10:39Z</time>
      </trkpt>
      <trkpt lat="47.16861" lon="-1.62267">
        <ele>71</ele>
        <time>2022-02-27T13:10:41Z</time>
      </trkpt>
      <trkpt lat="47.16853" lon="-1.62278">
        <ele>71</ele>
        <time>2022-02-27T13:10:43Z</time>
      </trkpt>
      <trkpt lat="47.16844" lon="-1.62288">
        <ele>71</ele>
        <time>2022-02-27T13:10:45Z</time>
      </trkpt>
      <trkpt lat="47.16836" lon="-1.62298">
        <ele>71</ele>
        <time>2022-02-27T13:10:47Z</time>
      </trkpt>
      <trkpt lat="47.16827" lon="-1.62307">
        <ele>71</ele>
        <time>2022-02-27T13:10:49Z</time>
      </trkpt>
      <trkpt lat="47.16818" lon="-1.62315">
        <ele>71</ele>
        <time>2022-02-27T13:10:51Z</time>
      </trkpt>
      <trkpt lat="47.16808" lon="-1.62322">
        <ele>71</ele>
        <time>2022-02-27T13:10:53Z</time>
      </trkpt>
      <trkpt lat="47.16798" lon="-1.62329">
        <ele>71</ele>
        <time>2022-02-27T13:10:55Z</time>
      </trkpt>
      <trkpt lat="47.16788" lon="-1.62334">
        <ele>71</ele>
        <time>2022-02-27T13:10:57Z</time>
      </trkpt>
      <trkpt lat="47.16777" lon="-1.6234">
        <ele>70</ele>
        <time>2022-02-27T13:10:59Z</time>
      </trkpt>
      <trkpt lat="47.16767" lon="-1.62346">
        <ele>70</ele>
        <time>2022-02-27T13:11:01Z</time>
      </trkpt>
      <trkpt lat="47.16757" lon="-1.62353">
        <ele>70</ele>
        <time>2022-02-27T13:11:03Z</time>
      </trkpt>
      <trkpt lat="47.16747" lon="-1.62363">
        <ele>69</ele>
        <time>2022-02-27T13:11:05Z</time>
      </trkpt>
      <trkpt lat="47.16738" lon="-1.62375">
        <ele>69</ele>
        <time>2022-02-27T13:11:07Z</time>
      </trkpt>
      <trkpt lat="47.16732" lon="-1.62389">
        <ele>69</ele>
        <time>2022-02-27T13:11:09Z</time>
      </trkpt>
      <trkpt lat="47.16729" lon="-1.62404">
        <ele>69</ele>
        <time>2022-02-27T13:11:11Z</time>
      </trkpt>
      <trkpt lat="47.16726" lon="-1.62418">
        <ele>69</ele>
        <time>2022-02-27T13:11:13Z</time>
      </trkpt>
      <trkpt lat="47.16725" lon="-1.62433">
        <ele>69</ele>
        <time>2022-02-27T13:11:15Z</time>
      </trkpt>
      <trkpt lat="47.16721" lon="-1.62447">
        <ele>69</ele>
        <time>2022-02-27T13:11:17Z</time>
      </trkpt>
      <trkpt lat="47.16717" lon="-1.62462">
        <ele>69</ele>
        <time>2022-02-27T13:11:19Z</time>
      </trkpt>
      <trkpt lat="47.16713" lon="-1.62477">
        <ele>68</ele>
        <time>2022-02-27T13:11:21Z</time>
      </trkpt>
      <trkpt lat="47.16713" lon="-1.6249">
        <ele>69</ele>
        <time>2022-02-27T13:11:23Z</time>
      </trkpt>
      <trkpt lat="47.16721" lon="-1.62497">
        <ele>68</ele>
        <time>2022-02-27T13:11:25Z</time>
      </trkpt>
      <trkpt lat="47.16732" lon="-1.62501">
        <ele>69</ele>
        <time>2022-02-27T13:11:27Z</time>
      </trkpt>
      <trkpt lat="47.16743" lon="-1.62506">
        <ele>69</ele>
        <time>2022-02-27T13:11:29Z</time>
      </trkpt>
      <trkpt lat="47.16754" lon="-1.62511">
        <ele>70</ele>
        <time>2022-02-27T13:11:31Z</time>
      </trkpt>
      <trkpt lat="47.16764" lon="-1.62517">
        <ele>70</ele>
        <time>2022-02-27T13:11:33Z</time>
      </trkpt>
      <trkpt lat="47.16774" lon="-1.62524">
        <ele>70</ele>
        <time>2022-02-27T13:11:35Z</time>
      </trkpt>
      <trkpt lat="47.16784" lon="-1.6253">
        <ele>71</ele>
        <time>2022-02-27T13:11:37Z</time>
      </trkpt>
      <trkpt lat="47.16794" lon="-1.62536">
        <ele>71</ele>
        <time>2022-02-27T13:11:39Z</time>
      </trkpt>
      <trkpt lat="47.16803" lon="-1.62543">
        <ele>71</ele>
        <time>2022-02-27T13:11:41Z</time>
      </trkpt>
      <trkpt lat="47.16812" lon="-1.62551">
        <ele>71</ele>
        <time>2022-02-27T13:11:43Z</time>
      </trkpt>
      <trkpt lat="47.1682" lon="-1.6256">
        <ele>71</ele>
        <time>2022-02-27T13:11:45Z</time>
      </trkpt>
      <trkpt lat="47.16827" lon="-1.62572">
        <ele>71</ele>
        <time>2022-02-27T13:11:47Z</time>
      </trkpt>
      <trkpt lat="47.16826" lon="-1.62588">
        <ele>71</ele>
        <time>2022-02-27T13:11:49Z</time>
      </trkpt>
      <trkpt lat="47.16819" lon="-1.62599">
        <ele>71</ele>
        <time>2022-02-27T13:11:51Z</time>
      </trkpt>
      <trkpt lat="47.16812" lon="-1.6261">
        <ele>71</ele>
        <time>2022-02-27T13:11:53Z</time>
      </trkpt>
      <trkpt lat="47.16806" lon="-1.6262">
        <ele>72</ele>
        <time>2022-02-27T13:11:55Z</time>
      </trkpt>
      <trkpt lat="47.168" lon="-1.62631">
        <ele>71</ele>
        <time>2022-02-27T13:11:57Z</time>
      </trkpt>
      <trkpt lat="47.16793" lon="-1.62642">
        <ele>71</ele>
        <time>2022-02-27T13:11:59Z</time>
      </trkpt>
      <trkpt lat="47.16785" lon="-1.62656">
        <ele>72</ele>
        <time>2022-02-27T13:12:02Z</time>
      </trkpt>
      <trkpt lat="47.16775" lon="-1.62655">
        <ele>72</ele>
        <time>2022-02-27T13:12:06Z</time>
      </trkpt>
    </trkseg>
  </trk>
</gpx>